<?xml version="1.0" encoding="UTF-8" standalone="no" ?>
<gpx xmlns="http://www.topografix.com/GPX/1/1" xmlns:xsi="http://www.w3.org/2001/XMLSchema-instance" xsi:schemaLocation="http://www.topografix.com/GPX/1/1 http://www.topografix.com/GPX/1/1/gpx.xsd" version="1.1" creator="VisuGPX - https://www.visugpx.com">
  <metadata>
    <name>22/10/2022</name>
    <desc><![CDATA[boucle au départ d'ayzac ost puis Séres en lavedan et montée vers col de Liar et retour]]></desc>
  </metadata>
  <trk>
    <name><![CDATA[22/10/2022_1]]></name>
    <trkseg>
      <trkpt lat="43.02319" lon="-0.09649">
        <ele>436.6</ele>
        <time>2022-10-22T06:45:30Z</time>
      </trkpt>
      <trkpt lat="43.02329" lon="-0.09638">
        <ele>425.4</ele>
        <time>2022-10-22T06:45:36Z</time>
      </trkpt>
      <trkpt lat="43.02332" lon="-0.0963">
        <ele>425.6</ele>
        <time>2022-10-22T06:45:40Z</time>
      </trkpt>
      <trkpt lat="43.02335" lon="-0.09628">
        <ele>425.6</ele>
        <time>2022-10-22T06:45:42Z</time>
      </trkpt>
      <trkpt lat="43.02338" lon="-0.09631">
        <ele>425.6</ele>
        <time>2022-10-22T06:45:44Z</time>
      </trkpt>
      <trkpt lat="43.02338" lon="-0.09636">
        <ele>425.6</ele>
        <time>2022-10-22T06:45:46Z</time>
      </trkpt>
      <trkpt lat="43.02338" lon="-0.09638">
        <ele>425.6</ele>
        <time>2022-10-22T06:45:47Z</time>
      </trkpt>
      <trkpt lat="43.02339" lon="-0.09642">
        <ele>425.8</ele>
        <time>2022-10-22T06:45:49Z</time>
      </trkpt>
      <trkpt lat="43.0234" lon="-0.09646">
        <ele>426</ele>
        <time>2022-10-22T06:45:51Z</time>
      </trkpt>
      <trkpt lat="43.0234" lon="-0.09648">
        <ele>426.8</ele>
        <time>2022-10-22T06:45:55Z</time>
      </trkpt>
      <trkpt lat="43.0234" lon="-0.09648">
        <ele>426.8</ele>
        <time>2022-10-22T06:45:56Z</time>
      </trkpt>
      <trkpt lat="43.02342" lon="-0.09647">
        <ele>426.8</ele>
        <time>2022-10-22T06:46:06Z</time>
      </trkpt>
      <trkpt lat="43.02342" lon="-0.09648">
        <ele>426.8</ele>
        <time>2022-10-22T06:46:18Z</time>
      </trkpt>
      <trkpt lat="43.02338" lon="-0.09658">
        <ele>427</ele>
        <time>2022-10-22T06:46:26Z</time>
      </trkpt>
      <trkpt lat="43.02322" lon="-0.09665">
        <ele>427.2</ele>
        <time>2022-10-22T06:46:32Z</time>
      </trkpt>
      <trkpt lat="43.02315" lon="-0.09667">
        <ele>427.4</ele>
        <time>2022-10-22T06:46:34Z</time>
      </trkpt>
      <trkpt lat="43.02299" lon="-0.09676">
        <ele>427.2</ele>
        <time>2022-10-22T06:46:40Z</time>
      </trkpt>
      <trkpt lat="43.02298" lon="-0.09679">
        <ele>427.4</ele>
        <time>2022-10-22T06:46:41Z</time>
      </trkpt>
      <trkpt lat="43.02299" lon="-0.09685">
        <ele>427.4</ele>
        <time>2022-10-22T06:46:43Z</time>
      </trkpt>
      <trkpt lat="43.023" lon="-0.09702">
        <ele>427.8</ele>
        <time>2022-10-22T06:46:49Z</time>
      </trkpt>
      <trkpt lat="43.023" lon="-0.09706">
        <ele>427.8</ele>
        <time>2022-10-22T06:46:50Z</time>
      </trkpt>
      <trkpt lat="43.02299" lon="-0.0971">
        <ele>428</ele>
        <time>2022-10-22T06:46:51Z</time>
      </trkpt>
      <trkpt lat="43.02295" lon="-0.09717">
        <ele>428.8</ele>
        <time>2022-10-22T06:46:54Z</time>
      </trkpt>
      <trkpt lat="43.02294" lon="-0.09721">
        <ele>429.8</ele>
        <time>2022-10-22T06:46:56Z</time>
      </trkpt>
      <trkpt lat="43.02295" lon="-0.09723">
        <ele>429.8</ele>
        <time>2022-10-22T06:46:57Z</time>
      </trkpt>
      <trkpt lat="43.02296" lon="-0.09724">
        <ele>430.2</ele>
        <time>2022-10-22T06:46:58Z</time>
      </trkpt>
      <trkpt lat="43.02297" lon="-0.09725">
        <ele>430.4</ele>
        <time>2022-10-22T06:46:59Z</time>
      </trkpt>
      <trkpt lat="43.02307" lon="-0.09726">
        <ele>430.8</ele>
        <time>2022-10-22T06:47:03Z</time>
      </trkpt>
      <trkpt lat="43.0231" lon="-0.09726">
        <ele>431</ele>
        <time>2022-10-22T06:47:04Z</time>
      </trkpt>
      <trkpt lat="43.02321" lon="-0.09727">
        <ele>431.2</ele>
        <time>2022-10-22T06:47:08Z</time>
      </trkpt>
      <trkpt lat="43.02326" lon="-0.09727">
        <ele>431.4</ele>
        <time>2022-10-22T06:47:10Z</time>
      </trkpt>
      <trkpt lat="43.02344" lon="-0.09728">
        <ele>431.4</ele>
        <time>2022-10-22T06:47:18Z</time>
      </trkpt>
      <trkpt lat="43.02346" lon="-0.09731">
        <ele>431.4</ele>
        <time>2022-10-22T06:47:21Z</time>
      </trkpt>
      <trkpt lat="43.02346" lon="-0.09735">
        <ele>431.6</ele>
        <time>2022-10-22T06:47:23Z</time>
      </trkpt>
      <trkpt lat="43.02346" lon="-0.09737">
        <ele>432</ele>
        <time>2022-10-22T06:47:25Z</time>
      </trkpt>
      <trkpt lat="43.02346" lon="-0.09739">
        <ele>432</ele>
        <time>2022-10-22T06:47:26Z</time>
      </trkpt>
      <trkpt lat="43.02346" lon="-0.09744">
        <ele>432.2</ele>
        <time>2022-10-22T06:47:29Z</time>
      </trkpt>
      <trkpt lat="43.02348" lon="-0.09755">
        <ele>432.4</ele>
        <time>2022-10-22T06:47:32Z</time>
      </trkpt>
      <trkpt lat="43.0235" lon="-0.09762">
        <ele>433</ele>
        <time>2022-10-22T06:47:35Z</time>
      </trkpt>
      <trkpt lat="43.02353" lon="-0.09769">
        <ele>434</ele>
        <time>2022-10-22T06:47:37Z</time>
      </trkpt>
      <trkpt lat="43.02354" lon="-0.09771">
        <ele>434.4</ele>
        <time>2022-10-22T06:47:38Z</time>
      </trkpt>
      <trkpt lat="43.02357" lon="-0.09774">
        <ele>434.8</ele>
        <time>2022-10-22T06:47:40Z</time>
      </trkpt>
      <trkpt lat="43.02358" lon="-0.09775">
        <ele>435.4</ele>
        <time>2022-10-22T06:47:41Z</time>
      </trkpt>
      <trkpt lat="43.02368" lon="-0.09784">
        <ele>436.2</ele>
        <time>2022-10-22T06:47:48Z</time>
      </trkpt>
      <trkpt lat="43.0237" lon="-0.09786">
        <ele>436.6</ele>
        <time>2022-10-22T06:47:49Z</time>
      </trkpt>
      <trkpt lat="43.02372" lon="-0.09787">
        <ele>437</ele>
        <time>2022-10-22T06:47:51Z</time>
      </trkpt>
      <trkpt lat="43.02375" lon="-0.09788">
        <ele>437.6</ele>
        <time>2022-10-22T06:47:54Z</time>
      </trkpt>
      <trkpt lat="43.02374" lon="-0.09791">
        <ele>438.4</ele>
        <time>2022-10-22T06:47:56Z</time>
      </trkpt>
      <trkpt lat="43.02374" lon="-0.09793">
        <ele>438.8</ele>
        <time>2022-10-22T06:47:57Z</time>
      </trkpt>
      <trkpt lat="43.02374" lon="-0.09796">
        <ele>439.8</ele>
        <time>2022-10-22T06:48:00Z</time>
      </trkpt>
      <trkpt lat="43.02374" lon="-0.09796">
        <ele>440</ele>
        <time>2022-10-22T06:48:01Z</time>
      </trkpt>
      <trkpt lat="43.02375" lon="-0.098">
        <ele>441.2</ele>
        <time>2022-10-22T06:48:07Z</time>
      </trkpt>
      <trkpt lat="43.02375" lon="-0.09801">
        <ele>441.2</ele>
        <time>2022-10-22T06:48:09Z</time>
      </trkpt>
      <trkpt lat="43.02376" lon="-0.09806">
        <ele>441.8</ele>
        <time>2022-10-22T06:48:15Z</time>
      </trkpt>
      <trkpt lat="43.02375" lon="-0.09808">
        <ele>442.2</ele>
        <time>2022-10-22T06:48:17Z</time>
      </trkpt>
      <trkpt lat="43.02375" lon="-0.09814">
        <ele>442.6</ele>
        <time>2022-10-22T06:48:23Z</time>
      </trkpt>
      <trkpt lat="43.02376" lon="-0.09816">
        <ele>443.2</ele>
        <time>2022-10-22T06:48:26Z</time>
      </trkpt>
      <trkpt lat="43.02377" lon="-0.09816">
        <ele>443.4</ele>
        <time>2022-10-22T06:48:29Z</time>
      </trkpt>
      <trkpt lat="43.02378" lon="-0.09817">
        <ele>444.2</ele>
        <time>2022-10-22T06:48:35Z</time>
      </trkpt>
      <trkpt lat="43.02378" lon="-0.09817">
        <ele>444.8</ele>
        <time>2022-10-22T06:48:39Z</time>
      </trkpt>
      <trkpt lat="43.02378" lon="-0.09817">
        <ele>444.8</ele>
        <time>2022-10-22T06:48:40Z</time>
      </trkpt>
      <trkpt lat="43.02383" lon="-0.09817">
        <ele>445</ele>
        <time>2022-10-22T06:48:48Z</time>
      </trkpt>
      <trkpt lat="43.02384" lon="-0.09817">
        <ele>445</ele>
        <time>2022-10-22T06:48:49Z</time>
      </trkpt>
      <trkpt lat="43.02388" lon="-0.09816">
        <ele>445.2</ele>
        <time>2022-10-22T06:48:52Z</time>
      </trkpt>
      <trkpt lat="43.02394" lon="-0.09815">
        <ele>445.6</ele>
        <time>2022-10-22T06:48:55Z</time>
      </trkpt>
      <trkpt lat="43.024" lon="-0.0981">
        <ele>446.6</ele>
        <time>2022-10-22T06:48:59Z</time>
      </trkpt>
      <trkpt lat="43.02405" lon="-0.09804">
        <ele>447.6</ele>
        <time>2022-10-22T06:49:03Z</time>
      </trkpt>
      <trkpt lat="43.02407" lon="-0.09802">
        <ele>447.6</ele>
        <time>2022-10-22T06:49:04Z</time>
      </trkpt>
      <trkpt lat="43.02413" lon="-0.09797">
        <ele>448</ele>
        <time>2022-10-22T06:49:07Z</time>
      </trkpt>
      <trkpt lat="43.02416" lon="-0.09796">
        <ele>448.4</ele>
        <time>2022-10-22T06:49:09Z</time>
      </trkpt>
      <trkpt lat="43.02416" lon="-0.09795">
        <ele>448.8</ele>
        <time>2022-10-22T06:49:10Z</time>
      </trkpt>
      <trkpt lat="43.02417" lon="-0.09794">
        <ele>449.6</ele>
        <time>2022-10-22T06:49:13Z</time>
      </trkpt>
      <trkpt lat="43.02417" lon="-0.09793">
        <ele>450.2</ele>
        <time>2022-10-22T06:49:16Z</time>
      </trkpt>
      <trkpt lat="43.02418" lon="-0.09795">
        <ele>450.4</ele>
        <time>2022-10-22T06:49:26Z</time>
      </trkpt>
      <trkpt lat="43.02418" lon="-0.09795">
        <ele>450.6</ele>
        <time>2022-10-22T06:49:36Z</time>
      </trkpt>
      <trkpt lat="43.02418" lon="-0.09795">
        <ele>450.8</ele>
        <time>2022-10-22T06:49:37Z</time>
      </trkpt>
      <trkpt lat="43.02422" lon="-0.09792">
        <ele>451.8</ele>
        <time>2022-10-22T06:49:52Z</time>
      </trkpt>
      <trkpt lat="43.02424" lon="-0.09791">
        <ele>451.8</ele>
        <time>2022-10-22T06:49:53Z</time>
      </trkpt>
      <trkpt lat="43.02427" lon="-0.09789">
        <ele>452.2</ele>
        <time>2022-10-22T06:49:55Z</time>
      </trkpt>
      <trkpt lat="43.02433" lon="-0.09783">
        <ele>453</ele>
        <time>2022-10-22T06:49:59Z</time>
      </trkpt>
      <trkpt lat="43.02437" lon="-0.0978">
        <ele>453.4</ele>
        <time>2022-10-22T06:50:03Z</time>
      </trkpt>
      <trkpt lat="43.0244" lon="-0.09779">
        <ele>454</ele>
        <time>2022-10-22T06:50:07Z</time>
      </trkpt>
      <trkpt lat="43.0244" lon="-0.09779">
        <ele>454.2</ele>
        <time>2022-10-22T06:50:08Z</time>
      </trkpt>
      <trkpt lat="43.02441" lon="-0.09778">
        <ele>454.2</ele>
        <time>2022-10-22T06:50:09Z</time>
      </trkpt>
      <trkpt lat="43.02445" lon="-0.09774">
        <ele>454.4</ele>
        <time>2022-10-22T06:50:15Z</time>
      </trkpt>
      <trkpt lat="43.02447" lon="-0.09772">
        <ele>454.4</ele>
        <time>2022-10-22T06:50:17Z</time>
      </trkpt>
      <trkpt lat="43.02451" lon="-0.09771">
        <ele>454.6</ele>
        <time>2022-10-22T06:50:20Z</time>
      </trkpt>
      <trkpt lat="43.02453" lon="-0.09768">
        <ele>455</ele>
        <time>2022-10-22T06:50:22Z</time>
      </trkpt>
      <trkpt lat="43.02454" lon="-0.09767">
        <ele>455.2</ele>
        <time>2022-10-22T06:50:23Z</time>
      </trkpt>
      <trkpt lat="43.02457" lon="-0.09766">
        <ele>455.4</ele>
        <time>2022-10-22T06:50:25Z</time>
      </trkpt>
      <trkpt lat="43.02458" lon="-0.09766">
        <ele>455.4</ele>
        <time>2022-10-22T06:50:26Z</time>
      </trkpt>
      <trkpt lat="43.02463" lon="-0.09771">
        <ele>456</ele>
        <time>2022-10-22T06:50:30Z</time>
      </trkpt>
      <trkpt lat="43.02465" lon="-0.09772">
        <ele>456.2</ele>
        <time>2022-10-22T06:50:31Z</time>
      </trkpt>
      <trkpt lat="43.0247" lon="-0.09775">
        <ele>456.8</ele>
        <time>2022-10-22T06:50:35Z</time>
      </trkpt>
      <trkpt lat="43.02472" lon="-0.09775">
        <ele>457.4</ele>
        <time>2022-10-22T06:50:37Z</time>
      </trkpt>
      <trkpt lat="43.02477" lon="-0.09779">
        <ele>458.4</ele>
        <time>2022-10-22T06:50:41Z</time>
      </trkpt>
      <trkpt lat="43.02478" lon="-0.09779">
        <ele>458.6</ele>
        <time>2022-10-22T06:50:42Z</time>
      </trkpt>
      <trkpt lat="43.02484" lon="-0.09783">
        <ele>459.6</ele>
        <time>2022-10-22T06:50:46Z</time>
      </trkpt>
      <trkpt lat="43.02489" lon="-0.09788">
        <ele>460</ele>
        <time>2022-10-22T06:50:49Z</time>
      </trkpt>
      <trkpt lat="43.02492" lon="-0.09789">
        <ele>460.4</ele>
        <time>2022-10-22T06:50:51Z</time>
      </trkpt>
      <trkpt lat="43.02498" lon="-0.09791">
        <ele>461.6</ele>
        <time>2022-10-22T06:50:55Z</time>
      </trkpt>
      <trkpt lat="43.02499" lon="-0.09792">
        <ele>461.8</ele>
        <time>2022-10-22T06:50:56Z</time>
      </trkpt>
      <trkpt lat="43.02505" lon="-0.09795">
        <ele>462.6</ele>
        <time>2022-10-22T06:51:00Z</time>
      </trkpt>
      <trkpt lat="43.02508" lon="-0.09797">
        <ele>463.2</ele>
        <time>2022-10-22T06:51:03Z</time>
      </trkpt>
      <trkpt lat="43.02509" lon="-0.098">
        <ele>464</ele>
        <time>2022-10-22T06:51:05Z</time>
      </trkpt>
      <trkpt lat="43.0251" lon="-0.09808">
        <ele>464.6</ele>
        <time>2022-10-22T06:51:09Z</time>
      </trkpt>
      <trkpt lat="43.0251" lon="-0.0981">
        <ele>465.2</ele>
        <time>2022-10-22T06:51:11Z</time>
      </trkpt>
      <trkpt lat="43.02507" lon="-0.09812">
        <ele>466.6</ele>
        <time>2022-10-22T06:51:16Z</time>
      </trkpt>
      <trkpt lat="43.02507" lon="-0.09813">
        <ele>467.2</ele>
        <time>2022-10-22T06:51:19Z</time>
      </trkpt>
      <trkpt lat="43.02507" lon="-0.09813">
        <ele>467.6</ele>
        <time>2022-10-22T06:51:20Z</time>
      </trkpt>
      <trkpt lat="43.02507" lon="-0.09814">
        <ele>467.8</ele>
        <time>2022-10-22T06:51:21Z</time>
      </trkpt>
      <trkpt lat="43.02507" lon="-0.09814">
        <ele>468.8</ele>
        <time>2022-10-22T06:51:26Z</time>
      </trkpt>
      <trkpt lat="43.02506" lon="-0.09819">
        <ele>469</ele>
        <time>2022-10-22T06:51:34Z</time>
      </trkpt>
      <trkpt lat="43.02506" lon="-0.0982">
        <ele>469.2</ele>
        <time>2022-10-22T06:51:35Z</time>
      </trkpt>
      <trkpt lat="43.02504" lon="-0.09827">
        <ele>469.8</ele>
        <time>2022-10-22T06:51:39Z</time>
      </trkpt>
      <trkpt lat="43.02502" lon="-0.09834">
        <ele>470.6</ele>
        <time>2022-10-22T06:51:43Z</time>
      </trkpt>
      <trkpt lat="43.02502" lon="-0.09835">
        <ele>471</ele>
        <time>2022-10-22T06:51:44Z</time>
      </trkpt>
      <trkpt lat="43.02498" lon="-0.09838">
        <ele>471.6</ele>
        <time>2022-10-22T06:51:47Z</time>
      </trkpt>
      <trkpt lat="43.02496" lon="-0.09841">
        <ele>472</ele>
        <time>2022-10-22T06:51:49Z</time>
      </trkpt>
      <trkpt lat="43.02486" lon="-0.0985">
        <ele>473</ele>
        <time>2022-10-22T06:51:56Z</time>
      </trkpt>
      <trkpt lat="43.02484" lon="-0.09853">
        <ele>473</ele>
        <time>2022-10-22T06:51:57Z</time>
      </trkpt>
      <trkpt lat="43.02482" lon="-0.09855">
        <ele>473.2</ele>
        <time>2022-10-22T06:51:59Z</time>
      </trkpt>
      <trkpt lat="43.02479" lon="-0.09858">
        <ele>473.6</ele>
        <time>2022-10-22T06:52:01Z</time>
      </trkpt>
      <trkpt lat="43.02476" lon="-0.09863">
        <ele>473.8</ele>
        <time>2022-10-22T06:52:03Z</time>
      </trkpt>
      <trkpt lat="43.02474" lon="-0.09868">
        <ele>474</ele>
        <time>2022-10-22T06:52:05Z</time>
      </trkpt>
      <trkpt lat="43.02472" lon="-0.09875">
        <ele>474.4</ele>
        <time>2022-10-22T06:52:08Z</time>
      </trkpt>
      <trkpt lat="43.02471" lon="-0.09881">
        <ele>475</ele>
        <time>2022-10-22T06:52:11Z</time>
      </trkpt>
      <trkpt lat="43.02471" lon="-0.09882">
        <ele>475</ele>
        <time>2022-10-22T06:52:12Z</time>
      </trkpt>
      <trkpt lat="43.02471" lon="-0.09884">
        <ele>475.4</ele>
        <time>2022-10-22T06:52:13Z</time>
      </trkpt>
      <trkpt lat="43.0247" lon="-0.0989">
        <ele>476.2</ele>
        <time>2022-10-22T06:52:16Z</time>
      </trkpt>
      <trkpt lat="43.02471" lon="-0.09894">
        <ele>476.8</ele>
        <time>2022-10-22T06:52:18Z</time>
      </trkpt>
      <trkpt lat="43.02473" lon="-0.09902">
        <ele>477.2</ele>
        <time>2022-10-22T06:52:21Z</time>
      </trkpt>
      <trkpt lat="43.02474" lon="-0.09905">
        <ele>478</ele>
        <time>2022-10-22T06:52:24Z</time>
      </trkpt>
      <trkpt lat="43.02475" lon="-0.0991">
        <ele>478.4</ele>
        <time>2022-10-22T06:52:26Z</time>
      </trkpt>
      <trkpt lat="43.02478" lon="-0.0992">
        <ele>479</ele>
        <time>2022-10-22T06:52:30Z</time>
      </trkpt>
      <trkpt lat="43.02479" lon="-0.09923">
        <ele>479.2</ele>
        <time>2022-10-22T06:52:31Z</time>
      </trkpt>
      <trkpt lat="43.0248" lon="-0.09931">
        <ele>479.2</ele>
        <time>2022-10-22T06:52:34Z</time>
      </trkpt>
      <trkpt lat="43.02479" lon="-0.09935">
        <ele>479.4</ele>
        <time>2022-10-22T06:52:37Z</time>
      </trkpt>
      <trkpt lat="43.0248" lon="-0.09937">
        <ele>479.4</ele>
        <time>2022-10-22T06:52:38Z</time>
      </trkpt>
      <trkpt lat="43.02481" lon="-0.09941">
        <ele>479.6</ele>
        <time>2022-10-22T06:52:40Z</time>
      </trkpt>
      <trkpt lat="43.02482" lon="-0.09943">
        <ele>479.8</ele>
        <time>2022-10-22T06:52:41Z</time>
      </trkpt>
      <trkpt lat="43.02483" lon="-0.09945">
        <ele>480.2</ele>
        <time>2022-10-22T06:52:43Z</time>
      </trkpt>
      <trkpt lat="43.02485" lon="-0.0995">
        <ele>480.6</ele>
        <time>2022-10-22T06:52:46Z</time>
      </trkpt>
      <trkpt lat="43.02485" lon="-0.09954">
        <ele>480.8</ele>
        <time>2022-10-22T06:52:48Z</time>
      </trkpt>
      <trkpt lat="43.02486" lon="-0.09957">
        <ele>481</ele>
        <time>2022-10-22T06:52:50Z</time>
      </trkpt>
      <trkpt lat="43.0249" lon="-0.09962">
        <ele>481.2</ele>
        <time>2022-10-22T06:52:53Z</time>
      </trkpt>
      <trkpt lat="43.02491" lon="-0.09965">
        <ele>481.2</ele>
        <time>2022-10-22T06:52:54Z</time>
      </trkpt>
      <trkpt lat="43.02495" lon="-0.09978">
        <ele>481.4</ele>
        <time>2022-10-22T06:53:01Z</time>
      </trkpt>
      <trkpt lat="43.02496" lon="-0.09981">
        <ele>481.4</ele>
        <time>2022-10-22T06:53:02Z</time>
      </trkpt>
      <trkpt lat="43.02502" lon="-0.09994">
        <ele>482</ele>
        <time>2022-10-22T06:53:07Z</time>
      </trkpt>
      <trkpt lat="43.02507" lon="-0.10003">
        <ele>482.4</ele>
        <time>2022-10-22T06:53:10Z</time>
      </trkpt>
      <trkpt lat="43.02509" lon="-0.10017">
        <ele>483</ele>
        <time>2022-10-22T06:53:16Z</time>
      </trkpt>
      <trkpt lat="43.0251" lon="-0.10023">
        <ele>483.2</ele>
        <time>2022-10-22T06:53:18Z</time>
      </trkpt>
      <trkpt lat="43.02512" lon="-0.10029">
        <ele>483.2</ele>
        <time>2022-10-22T06:53:19Z</time>
      </trkpt>
      <trkpt lat="43.02516" lon="-0.10036">
        <ele>483.6</ele>
        <time>2022-10-22T06:53:23Z</time>
      </trkpt>
      <trkpt lat="43.0252" lon="-0.10041">
        <ele>484.4</ele>
        <time>2022-10-22T06:53:26Z</time>
      </trkpt>
      <trkpt lat="43.02521" lon="-0.10042">
        <ele>484.6</ele>
        <time>2022-10-22T06:53:27Z</time>
      </trkpt>
      <trkpt lat="43.02523" lon="-0.10045">
        <ele>484.8</ele>
        <time>2022-10-22T06:53:29Z</time>
      </trkpt>
      <trkpt lat="43.02526" lon="-0.10053">
        <ele>485.6</ele>
        <time>2022-10-22T06:53:33Z</time>
      </trkpt>
      <trkpt lat="43.02529" lon="-0.10063">
        <ele>485.8</ele>
        <time>2022-10-22T06:53:36Z</time>
      </trkpt>
      <trkpt lat="43.02529" lon="-0.10066">
        <ele>485.8</ele>
        <time>2022-10-22T06:53:37Z</time>
      </trkpt>
      <trkpt lat="43.02519" lon="-0.10079">
        <ele>486</ele>
        <time>2022-10-22T06:53:44Z</time>
      </trkpt>
      <trkpt lat="43.02513" lon="-0.10085">
        <ele>486</ele>
        <time>2022-10-22T06:53:47Z</time>
      </trkpt>
      <trkpt lat="43.02508" lon="-0.1009">
        <ele>486.4</ele>
        <time>2022-10-22T06:53:50Z</time>
      </trkpt>
      <trkpt lat="43.02499" lon="-0.10103">
        <ele>487</ele>
        <time>2022-10-22T06:53:56Z</time>
      </trkpt>
      <trkpt lat="43.02494" lon="-0.1011">
        <ele>487.4</ele>
        <time>2022-10-22T06:54:00Z</time>
      </trkpt>
      <trkpt lat="43.02488" lon="-0.10124">
        <ele>488</ele>
        <time>2022-10-22T06:54:05Z</time>
      </trkpt>
      <trkpt lat="43.02487" lon="-0.10127">
        <ele>488</ele>
        <time>2022-10-22T06:54:06Z</time>
      </trkpt>
      <trkpt lat="43.0248" lon="-0.10136">
        <ele>488.4</ele>
        <time>2022-10-22T06:54:10Z</time>
      </trkpt>
      <trkpt lat="43.02477" lon="-0.10138">
        <ele>488.6</ele>
        <time>2022-10-22T06:54:11Z</time>
      </trkpt>
      <trkpt lat="43.02464" lon="-0.10148">
        <ele>489.2</ele>
        <time>2022-10-22T06:54:17Z</time>
      </trkpt>
      <trkpt lat="43.0246" lon="-0.10154">
        <ele>489.6</ele>
        <time>2022-10-22T06:54:20Z</time>
      </trkpt>
      <trkpt lat="43.02455" lon="-0.10161">
        <ele>490.8</ele>
        <time>2022-10-22T06:54:24Z</time>
      </trkpt>
      <trkpt lat="43.02453" lon="-0.10165">
        <ele>491</ele>
        <time>2022-10-22T06:54:26Z</time>
      </trkpt>
      <trkpt lat="43.02452" lon="-0.10168">
        <ele>491.4</ele>
        <time>2022-10-22T06:54:28Z</time>
      </trkpt>
      <trkpt lat="43.0245" lon="-0.10171">
        <ele>491.6</ele>
        <time>2022-10-22T06:54:30Z</time>
      </trkpt>
      <trkpt lat="43.0245" lon="-0.10173">
        <ele>491.8</ele>
        <time>2022-10-22T06:54:31Z</time>
      </trkpt>
      <trkpt lat="43.0245" lon="-0.10182">
        <ele>492.8</ele>
        <time>2022-10-22T06:54:35Z</time>
      </trkpt>
      <trkpt lat="43.0245" lon="-0.10183">
        <ele>493</ele>
        <time>2022-10-22T06:54:36Z</time>
      </trkpt>
      <trkpt lat="43.0245" lon="-0.10189">
        <ele>494</ele>
        <time>2022-10-22T06:54:40Z</time>
      </trkpt>
      <trkpt lat="43.02447" lon="-0.10192">
        <ele>494.4</ele>
        <time>2022-10-22T06:54:42Z</time>
      </trkpt>
      <trkpt lat="43.02442" lon="-0.10198">
        <ele>495</ele>
        <time>2022-10-22T06:54:45Z</time>
      </trkpt>
      <trkpt lat="43.02434" lon="-0.10217">
        <ele>495.8</ele>
        <time>2022-10-22T06:54:52Z</time>
      </trkpt>
      <trkpt lat="43.02426" lon="-0.1023">
        <ele>497</ele>
        <time>2022-10-22T06:54:58Z</time>
      </trkpt>
      <trkpt lat="43.02425" lon="-0.10232">
        <ele>497</ele>
        <time>2022-10-22T06:54:59Z</time>
      </trkpt>
      <trkpt lat="43.02422" lon="-0.10237">
        <ele>497.2</ele>
        <time>2022-10-22T06:55:02Z</time>
      </trkpt>
      <trkpt lat="43.02419" lon="-0.1024">
        <ele>497.6</ele>
        <time>2022-10-22T06:55:04Z</time>
      </trkpt>
      <trkpt lat="43.02413" lon="-0.10247">
        <ele>498.2</ele>
        <time>2022-10-22T06:55:07Z</time>
      </trkpt>
      <trkpt lat="43.02411" lon="-0.10252">
        <ele>498.6</ele>
        <time>2022-10-22T06:55:09Z</time>
      </trkpt>
      <trkpt lat="43.02409" lon="-0.10256">
        <ele>499</ele>
        <time>2022-10-22T06:55:11Z</time>
      </trkpt>
      <trkpt lat="43.02409" lon="-0.10258">
        <ele>499</ele>
        <time>2022-10-22T06:55:12Z</time>
      </trkpt>
      <trkpt lat="43.02408" lon="-0.1026">
        <ele>499.2</ele>
        <time>2022-10-22T06:55:13Z</time>
      </trkpt>
      <trkpt lat="43.02406" lon="-0.10265">
        <ele>500</ele>
        <time>2022-10-22T06:55:16Z</time>
      </trkpt>
      <trkpt lat="43.02404" lon="-0.10266">
        <ele>500.4</ele>
        <time>2022-10-22T06:55:17Z</time>
      </trkpt>
      <trkpt lat="43.02404" lon="-0.10268">
        <ele>500.4</ele>
        <time>2022-10-22T06:55:18Z</time>
      </trkpt>
      <trkpt lat="43.02402" lon="-0.10269">
        <ele>501.2</ele>
        <time>2022-10-22T06:55:19Z</time>
      </trkpt>
      <trkpt lat="43.02401" lon="-0.1027">
        <ele>501.4</ele>
        <time>2022-10-22T06:55:20Z</time>
      </trkpt>
      <trkpt lat="43.02396" lon="-0.10267">
        <ele>502.2</ele>
        <time>2022-10-22T06:55:23Z</time>
      </trkpt>
      <trkpt lat="43.02394" lon="-0.10265">
        <ele>502.6</ele>
        <time>2022-10-22T06:55:25Z</time>
      </trkpt>
      <trkpt lat="43.02392" lon="-0.10265">
        <ele>502.6</ele>
        <time>2022-10-22T06:55:26Z</time>
      </trkpt>
      <trkpt lat="43.02386" lon="-0.10261">
        <ele>503.4</ele>
        <time>2022-10-22T06:55:31Z</time>
      </trkpt>
      <trkpt lat="43.02382" lon="-0.1026">
        <ele>503.6</ele>
        <time>2022-10-22T06:55:33Z</time>
      </trkpt>
      <trkpt lat="43.02378" lon="-0.10257">
        <ele>503.8</ele>
        <time>2022-10-22T06:55:36Z</time>
      </trkpt>
      <trkpt lat="43.02373" lon="-0.10255">
        <ele>503.8</ele>
        <time>2022-10-22T06:55:38Z</time>
      </trkpt>
      <trkpt lat="43.0236" lon="-0.1025">
        <ele>503.8</ele>
        <time>2022-10-22T06:55:44Z</time>
      </trkpt>
      <trkpt lat="43.02358" lon="-0.1025">
        <ele>503.8</ele>
        <time>2022-10-22T06:55:45Z</time>
      </trkpt>
      <trkpt lat="43.02344" lon="-0.10255">
        <ele>503.8</ele>
        <time>2022-10-22T06:55:49Z</time>
      </trkpt>
      <trkpt lat="43.02326" lon="-0.10265">
        <ele>503.6</ele>
        <time>2022-10-22T06:55:54Z</time>
      </trkpt>
      <trkpt lat="43.02319" lon="-0.10267">
        <ele>503.4</ele>
        <time>2022-10-22T06:55:58Z</time>
      </trkpt>
      <trkpt lat="43.02318" lon="-0.10268">
        <ele>503.4</ele>
        <time>2022-10-22T06:55:59Z</time>
      </trkpt>
      <trkpt lat="43.02315" lon="-0.10269">
        <ele>503.4</ele>
        <time>2022-10-22T06:56:00Z</time>
      </trkpt>
      <trkpt lat="43.02302" lon="-0.10275">
        <ele>503.4</ele>
        <time>2022-10-22T06:56:05Z</time>
      </trkpt>
      <trkpt lat="43.02292" lon="-0.1028">
        <ele>503.6</ele>
        <time>2022-10-22T06:56:11Z</time>
      </trkpt>
      <trkpt lat="43.02292" lon="-0.10282">
        <ele>503.6</ele>
        <time>2022-10-22T06:56:12Z</time>
      </trkpt>
      <trkpt lat="43.02291" lon="-0.10296">
        <ele>503.8</ele>
        <time>2022-10-22T06:56:19Z</time>
      </trkpt>
      <trkpt lat="43.02291" lon="-0.10304">
        <ele>504.2</ele>
        <time>2022-10-22T06:56:23Z</time>
      </trkpt>
      <trkpt lat="43.0229" lon="-0.10308">
        <ele>504.8</ele>
        <time>2022-10-22T06:56:25Z</time>
      </trkpt>
      <trkpt lat="43.0229" lon="-0.1031">
        <ele>505</ele>
        <time>2022-10-22T06:56:26Z</time>
      </trkpt>
      <trkpt lat="43.0229" lon="-0.10313">
        <ele>505.2</ele>
        <time>2022-10-22T06:56:27Z</time>
      </trkpt>
      <trkpt lat="43.02289" lon="-0.10319">
        <ele>505.8</ele>
        <time>2022-10-22T06:56:30Z</time>
      </trkpt>
      <trkpt lat="43.02287" lon="-0.10323">
        <ele>506</ele>
        <time>2022-10-22T06:56:32Z</time>
      </trkpt>
      <trkpt lat="43.02288" lon="-0.10325">
        <ele>506.2</ele>
        <time>2022-10-22T06:56:33Z</time>
      </trkpt>
      <trkpt lat="43.02287" lon="-0.10327">
        <ele>506.6</ele>
        <time>2022-10-22T06:56:34Z</time>
      </trkpt>
      <trkpt lat="43.02288" lon="-0.10334">
        <ele>506.8</ele>
        <time>2022-10-22T06:56:37Z</time>
      </trkpt>
      <trkpt lat="43.02289" lon="-0.10336">
        <ele>507.2</ele>
        <time>2022-10-22T06:56:38Z</time>
      </trkpt>
      <trkpt lat="43.02289" lon="-0.10341">
        <ele>507.4</ele>
        <time>2022-10-22T06:56:40Z</time>
      </trkpt>
      <trkpt lat="43.02291" lon="-0.10351">
        <ele>507.8</ele>
        <time>2022-10-22T06:56:43Z</time>
      </trkpt>
      <trkpt lat="43.0229" lon="-0.10354">
        <ele>508</ele>
        <time>2022-10-22T06:56:44Z</time>
      </trkpt>
      <trkpt lat="43.02289" lon="-0.10359">
        <ele>508.2</ele>
        <time>2022-10-22T06:56:46Z</time>
      </trkpt>
      <trkpt lat="43.02289" lon="-0.10364">
        <ele>508.4</ele>
        <time>2022-10-22T06:56:48Z</time>
      </trkpt>
      <trkpt lat="43.02282" lon="-0.10385">
        <ele>509</ele>
        <time>2022-10-22T06:56:56Z</time>
      </trkpt>
      <trkpt lat="43.0228" lon="-0.10387">
        <ele>508.8</ele>
        <time>2022-10-22T06:56:57Z</time>
      </trkpt>
      <trkpt lat="43.02275" lon="-0.10396">
        <ele>508</ele>
        <time>2022-10-22T06:57:02Z</time>
      </trkpt>
      <trkpt lat="43.02272" lon="-0.10402">
        <ele>507.4</ele>
        <time>2022-10-22T06:57:06Z</time>
      </trkpt>
      <trkpt lat="43.02269" lon="-0.10405">
        <ele>507</ele>
        <time>2022-10-22T06:57:08Z</time>
      </trkpt>
      <trkpt lat="43.02263" lon="-0.10411">
        <ele>505.8</ele>
        <time>2022-10-22T06:57:15Z</time>
      </trkpt>
      <trkpt lat="43.02257" lon="-0.10424">
        <ele>505</ele>
        <time>2022-10-22T06:57:21Z</time>
      </trkpt>
      <trkpt lat="43.02255" lon="-0.10429">
        <ele>504.6</ele>
        <time>2022-10-22T06:57:23Z</time>
      </trkpt>
      <trkpt lat="43.02249" lon="-0.10444">
        <ele>503.8</ele>
        <time>2022-10-22T06:57:27Z</time>
      </trkpt>
      <trkpt lat="43.02245" lon="-0.10456">
        <ele>503.6</ele>
        <time>2022-10-22T06:57:30Z</time>
      </trkpt>
      <trkpt lat="43.02242" lon="-0.10466">
        <ele>503</ele>
        <time>2022-10-22T06:57:33Z</time>
      </trkpt>
      <trkpt lat="43.02241" lon="-0.1048">
        <ele>502.6</ele>
        <time>2022-10-22T06:57:40Z</time>
      </trkpt>
      <trkpt lat="43.02237" lon="-0.10493">
        <ele>502.4</ele>
        <time>2022-10-22T06:57:47Z</time>
      </trkpt>
      <trkpt lat="43.02236" lon="-0.10496">
        <ele>502.4</ele>
        <time>2022-10-22T06:57:50Z</time>
      </trkpt>
      <trkpt lat="43.02235" lon="-0.10502">
        <ele>502.4</ele>
        <time>2022-10-22T06:57:54Z</time>
      </trkpt>
      <trkpt lat="43.02234" lon="-0.10507">
        <ele>502.4</ele>
        <time>2022-10-22T06:57:57Z</time>
      </trkpt>
      <trkpt lat="43.02232" lon="-0.10522">
        <ele>502.4</ele>
        <time>2022-10-22T06:58:04Z</time>
      </trkpt>
      <trkpt lat="43.0223" lon="-0.10542">
        <ele>502.6</ele>
        <time>2022-10-22T06:58:12Z</time>
      </trkpt>
      <trkpt lat="43.02229" lon="-0.1057">
        <ele>502.8</ele>
        <time>2022-10-22T06:58:23Z</time>
      </trkpt>
      <trkpt lat="43.0223" lon="-0.10591">
        <ele>502.8</ele>
        <time>2022-10-22T06:58:31Z</time>
      </trkpt>
      <trkpt lat="43.02229" lon="-0.10597">
        <ele>502.8</ele>
        <time>2022-10-22T06:58:34Z</time>
      </trkpt>
      <trkpt lat="43.02228" lon="-0.106">
        <ele>502.8</ele>
        <time>2022-10-22T06:58:36Z</time>
      </trkpt>
      <trkpt lat="43.02226" lon="-0.10617">
        <ele>502.4</ele>
        <time>2022-10-22T06:58:45Z</time>
      </trkpt>
      <trkpt lat="43.02226" lon="-0.10626">
        <ele>502.4</ele>
        <time>2022-10-22T06:58:52Z</time>
      </trkpt>
      <trkpt lat="43.02226" lon="-0.10627">
        <ele>502.4</ele>
        <time>2022-10-22T06:58:53Z</time>
      </trkpt>
      <trkpt lat="43.02227" lon="-0.10638">
        <ele>502.2</ele>
        <time>2022-10-22T06:59:00Z</time>
      </trkpt>
      <trkpt lat="43.02227" lon="-0.10641">
        <ele>502.2</ele>
        <time>2022-10-22T06:59:02Z</time>
      </trkpt>
      <trkpt lat="43.02228" lon="-0.10644">
        <ele>502.2</ele>
        <time>2022-10-22T06:59:05Z</time>
      </trkpt>
      <trkpt lat="43.02228" lon="-0.10647">
        <ele>502.2</ele>
        <time>2022-10-22T06:59:06Z</time>
      </trkpt>
      <trkpt lat="43.02226" lon="-0.10663">
        <ele>502.4</ele>
        <time>2022-10-22T06:59:13Z</time>
      </trkpt>
      <trkpt lat="43.02225" lon="-0.10675">
        <ele>502.4</ele>
        <time>2022-10-22T06:59:19Z</time>
      </trkpt>
      <trkpt lat="43.02222" lon="-0.10697">
        <ele>502.6</ele>
        <time>2022-10-22T06:59:29Z</time>
      </trkpt>
      <trkpt lat="43.02217" lon="-0.10718">
        <ele>502.8</ele>
        <time>2022-10-22T06:59:39Z</time>
      </trkpt>
      <trkpt lat="43.02216" lon="-0.10734">
        <ele>502.8</ele>
        <time>2022-10-22T06:59:47Z</time>
      </trkpt>
      <trkpt lat="43.02215" lon="-0.10737">
        <ele>502.8</ele>
        <time>2022-10-22T06:59:52Z</time>
      </trkpt>
      <trkpt lat="43.02213" lon="-0.10753">
        <ele>502.8</ele>
        <time>2022-10-22T06:59:57Z</time>
      </trkpt>
      <trkpt lat="43.02212" lon="-0.10767">
        <ele>503.4</ele>
        <time>2022-10-22T07:00:03Z</time>
      </trkpt>
      <trkpt lat="43.02213" lon="-0.10775">
        <ele>503.6</ele>
        <time>2022-10-22T07:00:12Z</time>
      </trkpt>
      <trkpt lat="43.02212" lon="-0.10792">
        <ele>503.8</ele>
        <time>2022-10-22T07:00:19Z</time>
      </trkpt>
      <trkpt lat="43.0221" lon="-0.10819">
        <ele>504.2</ele>
        <time>2022-10-22T07:00:29Z</time>
      </trkpt>
      <trkpt lat="43.02209" lon="-0.10836">
        <ele>504.6</ele>
        <time>2022-10-22T07:00:35Z</time>
      </trkpt>
      <trkpt lat="43.02209" lon="-0.10838">
        <ele>504.6</ele>
        <time>2022-10-22T07:00:36Z</time>
      </trkpt>
      <trkpt lat="43.02208" lon="-0.10855">
        <ele>504.6</ele>
        <time>2022-10-22T07:00:44Z</time>
      </trkpt>
      <trkpt lat="43.02207" lon="-0.10865">
        <ele>504.8</ele>
        <time>2022-10-22T07:00:50Z</time>
      </trkpt>
      <trkpt lat="43.02207" lon="-0.10868">
        <ele>504.8</ele>
        <time>2022-10-22T07:00:52Z</time>
      </trkpt>
      <trkpt lat="43.02206" lon="-0.10873">
        <ele>505</ele>
        <time>2022-10-22T07:00:56Z</time>
      </trkpt>
      <trkpt lat="43.02206" lon="-0.10877">
        <ele>505.2</ele>
        <time>2022-10-22T07:01:00Z</time>
      </trkpt>
      <trkpt lat="43.02206" lon="-0.10879">
        <ele>505.4</ele>
        <time>2022-10-22T07:01:02Z</time>
      </trkpt>
      <trkpt lat="43.02205" lon="-0.10889">
        <ele>505.4</ele>
        <time>2022-10-22T07:01:11Z</time>
      </trkpt>
      <trkpt lat="43.02204" lon="-0.10896">
        <ele>505.6</ele>
        <time>2022-10-22T07:01:17Z</time>
      </trkpt>
      <trkpt lat="43.02204" lon="-0.10898">
        <ele>505.6</ele>
        <time>2022-10-22T07:01:18Z</time>
      </trkpt>
      <trkpt lat="43.02205" lon="-0.10908">
        <ele>505.8</ele>
        <time>2022-10-22T07:01:25Z</time>
      </trkpt>
      <trkpt lat="43.02205" lon="-0.1091">
        <ele>505.6</ele>
        <time>2022-10-22T07:01:27Z</time>
      </trkpt>
      <trkpt lat="43.02204" lon="-0.10916">
        <ele>505.8</ele>
        <time>2022-10-22T07:01:31Z</time>
      </trkpt>
      <trkpt lat="43.02203" lon="-0.10926">
        <ele>506.2</ele>
        <time>2022-10-22T07:01:38Z</time>
      </trkpt>
      <trkpt lat="43.02203" lon="-0.10928">
        <ele>506.4</ele>
        <time>2022-10-22T07:01:39Z</time>
      </trkpt>
      <trkpt lat="43.02202" lon="-0.10941">
        <ele>506.8</ele>
        <time>2022-10-22T07:01:47Z</time>
      </trkpt>
      <trkpt lat="43.02196" lon="-0.10953">
        <ele>507.2</ele>
        <time>2022-10-22T07:01:54Z</time>
      </trkpt>
      <trkpt lat="43.02196" lon="-0.10959">
        <ele>507.4</ele>
        <time>2022-10-22T07:01:59Z</time>
      </trkpt>
      <trkpt lat="43.02196" lon="-0.10961">
        <ele>507.6</ele>
        <time>2022-10-22T07:02:01Z</time>
      </trkpt>
      <trkpt lat="43.02189" lon="-0.10971">
        <ele>508.4</ele>
        <time>2022-10-22T07:02:08Z</time>
      </trkpt>
      <trkpt lat="43.02188" lon="-0.10979">
        <ele>508.6</ele>
        <time>2022-10-22T07:02:13Z</time>
      </trkpt>
      <trkpt lat="43.02188" lon="-0.1098">
        <ele>508.6</ele>
        <time>2022-10-22T07:02:14Z</time>
      </trkpt>
      <trkpt lat="43.0219" lon="-0.10986">
        <ele>508.8</ele>
        <time>2022-10-22T07:02:19Z</time>
      </trkpt>
      <trkpt lat="43.02192" lon="-0.10983">
        <ele>509.2</ele>
        <time>2022-10-22T07:02:26Z</time>
      </trkpt>
      <trkpt lat="43.02192" lon="-0.10983">
        <ele>509.4</ele>
        <time>2022-10-22T07:02:28Z</time>
      </trkpt>
      <trkpt lat="43.02192" lon="-0.10983">
        <ele>509.4</ele>
        <time>2022-10-22T07:02:40Z</time>
      </trkpt>
      <trkpt lat="43.02191" lon="-0.10985">
        <ele>509.4</ele>
        <time>2022-10-22T07:02:51Z</time>
      </trkpt>
      <trkpt lat="43.02191" lon="-0.10987">
        <ele>509.4</ele>
        <time>2022-10-22T07:02:52Z</time>
      </trkpt>
      <trkpt lat="43.02188" lon="-0.11001">
        <ele>510.2</ele>
        <time>2022-10-22T07:02:59Z</time>
      </trkpt>
      <trkpt lat="43.02187" lon="-0.11003">
        <ele>510.2</ele>
        <time>2022-10-22T07:03:00Z</time>
      </trkpt>
      <trkpt lat="43.02187" lon="-0.11014">
        <ele>511.2</ele>
        <time>2022-10-22T07:03:05Z</time>
      </trkpt>
      <trkpt lat="43.02186" lon="-0.11016">
        <ele>511.8</ele>
        <time>2022-10-22T07:03:06Z</time>
      </trkpt>
      <trkpt lat="43.02183" lon="-0.11025">
        <ele>512.8</ele>
        <time>2022-10-22T07:03:10Z</time>
      </trkpt>
      <trkpt lat="43.02183" lon="-0.11035">
        <ele>513.6</ele>
        <time>2022-10-22T07:03:14Z</time>
      </trkpt>
      <trkpt lat="43.02183" lon="-0.1104">
        <ele>513.8</ele>
        <time>2022-10-22T07:03:16Z</time>
      </trkpt>
      <trkpt lat="43.02183" lon="-0.11049">
        <ele>514.6</ele>
        <time>2022-10-22T07:03:20Z</time>
      </trkpt>
      <trkpt lat="43.02183" lon="-0.11053">
        <ele>515</ele>
        <time>2022-10-22T07:03:22Z</time>
      </trkpt>
      <trkpt lat="43.02183" lon="-0.1106">
        <ele>516</ele>
        <time>2022-10-22T07:03:25Z</time>
      </trkpt>
      <trkpt lat="43.02183" lon="-0.11067">
        <ele>516.6</ele>
        <time>2022-10-22T07:03:28Z</time>
      </trkpt>
      <trkpt lat="43.02183" lon="-0.11069">
        <ele>517</ele>
        <time>2022-10-22T07:03:29Z</time>
      </trkpt>
      <trkpt lat="43.02182" lon="-0.11076">
        <ele>517.8</ele>
        <time>2022-10-22T07:03:32Z</time>
      </trkpt>
      <trkpt lat="43.02183" lon="-0.11078">
        <ele>518.2</ele>
        <time>2022-10-22T07:03:33Z</time>
      </trkpt>
      <trkpt lat="43.02182" lon="-0.11084">
        <ele>518.8</ele>
        <time>2022-10-22T07:03:35Z</time>
      </trkpt>
      <trkpt lat="43.02182" lon="-0.11087">
        <ele>519.2</ele>
        <time>2022-10-22T07:03:36Z</time>
      </trkpt>
      <trkpt lat="43.02182" lon="-0.11099">
        <ele>520.4</ele>
        <time>2022-10-22T07:03:40Z</time>
      </trkpt>
      <trkpt lat="43.02183" lon="-0.11106">
        <ele>521</ele>
        <time>2022-10-22T07:03:43Z</time>
      </trkpt>
      <trkpt lat="43.02183" lon="-0.11108">
        <ele>521.2</ele>
        <time>2022-10-22T07:03:44Z</time>
      </trkpt>
      <trkpt lat="43.02183" lon="-0.11111">
        <ele>521.4</ele>
        <time>2022-10-22T07:03:45Z</time>
      </trkpt>
      <trkpt lat="43.02183" lon="-0.11122">
        <ele>522.4</ele>
        <time>2022-10-22T07:03:49Z</time>
      </trkpt>
      <trkpt lat="43.02183" lon="-0.11127">
        <ele>523</ele>
        <time>2022-10-22T07:03:51Z</time>
      </trkpt>
      <trkpt lat="43.02183" lon="-0.11129">
        <ele>523.2</ele>
        <time>2022-10-22T07:03:52Z</time>
      </trkpt>
      <trkpt lat="43.02183" lon="-0.11132">
        <ele>523.6</ele>
        <time>2022-10-22T07:03:53Z</time>
      </trkpt>
      <trkpt lat="43.02183" lon="-0.11136">
        <ele>524</ele>
        <time>2022-10-22T07:03:55Z</time>
      </trkpt>
      <trkpt lat="43.02183" lon="-0.11143">
        <ele>524.8</ele>
        <time>2022-10-22T07:03:58Z</time>
      </trkpt>
      <trkpt lat="43.02183" lon="-0.11147">
        <ele>525.4</ele>
        <time>2022-10-22T07:04:00Z</time>
      </trkpt>
      <trkpt lat="43.02183" lon="-0.11149">
        <ele>525.6</ele>
        <time>2022-10-22T07:04:01Z</time>
      </trkpt>
      <trkpt lat="43.02183" lon="-0.11153">
        <ele>526.2</ele>
        <time>2022-10-22T07:04:03Z</time>
      </trkpt>
      <trkpt lat="43.02183" lon="-0.11154">
        <ele>526.4</ele>
        <time>2022-10-22T07:04:04Z</time>
      </trkpt>
      <trkpt lat="43.02183" lon="-0.1116">
        <ele>527.2</ele>
        <time>2022-10-22T07:04:07Z</time>
      </trkpt>
      <trkpt lat="43.02182" lon="-0.11164">
        <ele>527.6</ele>
        <time>2022-10-22T07:04:09Z</time>
      </trkpt>
      <trkpt lat="43.0218" lon="-0.11168">
        <ele>528.2</ele>
        <time>2022-10-22T07:04:11Z</time>
      </trkpt>
      <trkpt lat="43.0218" lon="-0.11171">
        <ele>528.4</ele>
        <time>2022-10-22T07:04:12Z</time>
      </trkpt>
      <trkpt lat="43.02181" lon="-0.11172">
        <ele>528.4</ele>
        <time>2022-10-22T07:04:13Z</time>
      </trkpt>
      <trkpt lat="43.02181" lon="-0.11173">
        <ele>528.6</ele>
        <time>2022-10-22T07:04:14Z</time>
      </trkpt>
      <trkpt lat="43.02182" lon="-0.11177">
        <ele>529.2</ele>
        <time>2022-10-22T07:04:16Z</time>
      </trkpt>
      <trkpt lat="43.02182" lon="-0.11178">
        <ele>529.8</ele>
        <time>2022-10-22T07:04:18Z</time>
      </trkpt>
      <trkpt lat="43.02181" lon="-0.11181">
        <ele>530.4</ele>
        <time>2022-10-22T07:04:22Z</time>
      </trkpt>
      <trkpt lat="43.02181" lon="-0.11186">
        <ele>530.8</ele>
        <time>2022-10-22T07:04:27Z</time>
      </trkpt>
      <trkpt lat="43.02183" lon="-0.11191">
        <ele>531.2</ele>
        <time>2022-10-22T07:04:33Z</time>
      </trkpt>
      <trkpt lat="43.02183" lon="-0.11192">
        <ele>531.4</ele>
        <time>2022-10-22T07:04:34Z</time>
      </trkpt>
      <trkpt lat="43.02183" lon="-0.11194">
        <ele>531.8</ele>
        <time>2022-10-22T07:04:38Z</time>
      </trkpt>
      <trkpt lat="43.02182" lon="-0.11196">
        <ele>532.2</ele>
        <time>2022-10-22T07:04:42Z</time>
      </trkpt>
      <trkpt lat="43.02181" lon="-0.11199">
        <ele>532.6</ele>
        <time>2022-10-22T07:04:46Z</time>
      </trkpt>
      <trkpt lat="43.02183" lon="-0.112">
        <ele>533.2</ele>
        <time>2022-10-22T07:04:51Z</time>
      </trkpt>
      <trkpt lat="43.02182" lon="-0.11201">
        <ele>533.4</ele>
        <time>2022-10-22T07:04:54Z</time>
      </trkpt>
      <trkpt lat="43.0218" lon="-0.11207">
        <ele>534.2</ele>
        <time>2022-10-22T07:05:01Z</time>
      </trkpt>
      <trkpt lat="43.02178" lon="-0.11211">
        <ele>535</ele>
        <time>2022-10-22T07:05:10Z</time>
      </trkpt>
      <trkpt lat="43.02178" lon="-0.11213">
        <ele>535</ele>
        <time>2022-10-22T07:05:11Z</time>
      </trkpt>
      <trkpt lat="43.02177" lon="-0.11221">
        <ele>535.2</ele>
        <time>2022-10-22T07:05:15Z</time>
      </trkpt>
      <trkpt lat="43.02177" lon="-0.11223">
        <ele>535.4</ele>
        <time>2022-10-22T07:05:16Z</time>
      </trkpt>
      <trkpt lat="43.02178" lon="-0.11232">
        <ele>536</ele>
        <time>2022-10-22T07:05:20Z</time>
      </trkpt>
      <trkpt lat="43.02179" lon="-0.11234">
        <ele>536.2</ele>
        <time>2022-10-22T07:05:21Z</time>
      </trkpt>
      <trkpt lat="43.02178" lon="-0.11236">
        <ele>536.6</ele>
        <time>2022-10-22T07:05:22Z</time>
      </trkpt>
      <trkpt lat="43.02178" lon="-0.11244">
        <ele>537.2</ele>
        <time>2022-10-22T07:05:26Z</time>
      </trkpt>
      <trkpt lat="43.02179" lon="-0.11247">
        <ele>537.2</ele>
        <time>2022-10-22T07:05:27Z</time>
      </trkpt>
      <trkpt lat="43.02179" lon="-0.1125">
        <ele>537.6</ele>
        <time>2022-10-22T07:05:29Z</time>
      </trkpt>
      <trkpt lat="43.02179" lon="-0.11255">
        <ele>538</ele>
        <time>2022-10-22T07:05:31Z</time>
      </trkpt>
      <trkpt lat="43.02179" lon="-0.11259">
        <ele>538.6</ele>
        <time>2022-10-22T07:05:33Z</time>
      </trkpt>
      <trkpt lat="43.02178" lon="-0.11269">
        <ele>539.6</ele>
        <time>2022-10-22T07:05:38Z</time>
      </trkpt>
      <trkpt lat="43.02179" lon="-0.11271">
        <ele>540</ele>
        <time>2022-10-22T07:05:39Z</time>
      </trkpt>
      <trkpt lat="43.02179" lon="-0.11274">
        <ele>540.2</ele>
        <time>2022-10-22T07:05:40Z</time>
      </trkpt>
      <trkpt lat="43.02179" lon="-0.11277">
        <ele>540.4</ele>
        <time>2022-10-22T07:05:42Z</time>
      </trkpt>
      <trkpt lat="43.0218" lon="-0.11281">
        <ele>541</ele>
        <time>2022-10-22T07:05:44Z</time>
      </trkpt>
      <trkpt lat="43.0218" lon="-0.11283">
        <ele>541.2</ele>
        <time>2022-10-22T07:05:45Z</time>
      </trkpt>
      <trkpt lat="43.02181" lon="-0.11287">
        <ele>542</ele>
        <time>2022-10-22T07:05:47Z</time>
      </trkpt>
      <trkpt lat="43.02182" lon="-0.11289">
        <ele>542.2</ele>
        <time>2022-10-22T07:05:48Z</time>
      </trkpt>
      <trkpt lat="43.02183" lon="-0.1129">
        <ele>542.6</ele>
        <time>2022-10-22T07:05:49Z</time>
      </trkpt>
      <trkpt lat="43.02183" lon="-0.11292">
        <ele>543.2</ele>
        <time>2022-10-22T07:05:51Z</time>
      </trkpt>
      <trkpt lat="43.02183" lon="-0.11298">
        <ele>544</ele>
        <time>2022-10-22T07:05:55Z</time>
      </trkpt>
      <trkpt lat="43.02184" lon="-0.11299">
        <ele>544.4</ele>
        <time>2022-10-22T07:05:56Z</time>
      </trkpt>
      <trkpt lat="43.02186" lon="-0.11302">
        <ele>545</ele>
        <time>2022-10-22T07:05:58Z</time>
      </trkpt>
      <trkpt lat="43.02185" lon="-0.11304">
        <ele>545</ele>
        <time>2022-10-22T07:05:59Z</time>
      </trkpt>
      <trkpt lat="43.02185" lon="-0.11307">
        <ele>545.4</ele>
        <time>2022-10-22T07:06:00Z</time>
      </trkpt>
      <trkpt lat="43.02186" lon="-0.11309">
        <ele>545.6</ele>
        <time>2022-10-22T07:06:01Z</time>
      </trkpt>
      <trkpt lat="43.02187" lon="-0.11314">
        <ele>546.4</ele>
        <time>2022-10-22T07:06:04Z</time>
      </trkpt>
      <trkpt lat="43.02188" lon="-0.11316">
        <ele>546.6</ele>
        <time>2022-10-22T07:06:05Z</time>
      </trkpt>
      <trkpt lat="43.02189" lon="-0.11322">
        <ele>547.6</ele>
        <time>2022-10-22T07:06:08Z</time>
      </trkpt>
      <trkpt lat="43.0219" lon="-0.11327">
        <ele>548</ele>
        <time>2022-10-22T07:06:10Z</time>
      </trkpt>
      <trkpt lat="43.02191" lon="-0.11329">
        <ele>548.2</ele>
        <time>2022-10-22T07:06:11Z</time>
      </trkpt>
      <trkpt lat="43.02191" lon="-0.11333">
        <ele>549</ele>
        <time>2022-10-22T07:06:13Z</time>
      </trkpt>
      <trkpt lat="43.02193" lon="-0.11338">
        <ele>550</ele>
        <time>2022-10-22T07:06:16Z</time>
      </trkpt>
      <trkpt lat="43.02193" lon="-0.11339">
        <ele>550.4</ele>
        <time>2022-10-22T07:06:17Z</time>
      </trkpt>
      <trkpt lat="43.02195" lon="-0.11344">
        <ele>551.2</ele>
        <time>2022-10-22T07:06:20Z</time>
      </trkpt>
      <trkpt lat="43.02196" lon="-0.11345">
        <ele>551.4</ele>
        <time>2022-10-22T07:06:21Z</time>
      </trkpt>
      <trkpt lat="43.02197" lon="-0.11347">
        <ele>551.6</ele>
        <time>2022-10-22T07:06:22Z</time>
      </trkpt>
      <trkpt lat="43.022" lon="-0.11352">
        <ele>552.2</ele>
        <time>2022-10-22T07:06:25Z</time>
      </trkpt>
      <trkpt lat="43.022" lon="-0.11354">
        <ele>552.4</ele>
        <time>2022-10-22T07:06:26Z</time>
      </trkpt>
      <trkpt lat="43.02203" lon="-0.11361">
        <ele>552.8</ele>
        <time>2022-10-22T07:06:29Z</time>
      </trkpt>
      <trkpt lat="43.02202" lon="-0.11366">
        <ele>553.2</ele>
        <time>2022-10-22T07:06:31Z</time>
      </trkpt>
      <trkpt lat="43.02202" lon="-0.11369">
        <ele>553.6</ele>
        <time>2022-10-22T07:06:33Z</time>
      </trkpt>
      <trkpt lat="43.02201" lon="-0.11374">
        <ele>554.6</ele>
        <time>2022-10-22T07:06:36Z</time>
      </trkpt>
      <trkpt lat="43.02201" lon="-0.11376">
        <ele>554.6</ele>
        <time>2022-10-22T07:06:37Z</time>
      </trkpt>
      <trkpt lat="43.02201" lon="-0.11378">
        <ele>555</ele>
        <time>2022-10-22T07:06:38Z</time>
      </trkpt>
      <trkpt lat="43.022" lon="-0.11383">
        <ele>555.8</ele>
        <time>2022-10-22T07:06:41Z</time>
      </trkpt>
      <trkpt lat="43.02198" lon="-0.11387">
        <ele>556.6</ele>
        <time>2022-10-22T07:06:44Z</time>
      </trkpt>
      <trkpt lat="43.02197" lon="-0.11388">
        <ele>556.8</ele>
        <time>2022-10-22T07:06:45Z</time>
      </trkpt>
      <trkpt lat="43.02191" lon="-0.11388">
        <ele>557.4</ele>
        <time>2022-10-22T07:06:51Z</time>
      </trkpt>
      <trkpt lat="43.0219" lon="-0.11389">
        <ele>558</ele>
        <time>2022-10-22T07:06:53Z</time>
      </trkpt>
      <trkpt lat="43.02185" lon="-0.11394">
        <ele>558.8</ele>
        <time>2022-10-22T07:06:58Z</time>
      </trkpt>
      <trkpt lat="43.02184" lon="-0.11394">
        <ele>559</ele>
        <time>2022-10-22T07:06:59Z</time>
      </trkpt>
      <trkpt lat="43.02179" lon="-0.114">
        <ele>560.2</ele>
        <time>2022-10-22T07:07:05Z</time>
      </trkpt>
      <trkpt lat="43.02178" lon="-0.11401">
        <ele>560.4</ele>
        <time>2022-10-22T07:07:06Z</time>
      </trkpt>
      <trkpt lat="43.02172" lon="-0.11408">
        <ele>561.4</ele>
        <time>2022-10-22T07:07:12Z</time>
      </trkpt>
      <trkpt lat="43.02167" lon="-0.11411">
        <ele>562.6</ele>
        <time>2022-10-22T07:07:16Z</time>
      </trkpt>
      <trkpt lat="43.02156" lon="-0.11418">
        <ele>563.4</ele>
        <time>2022-10-22T07:07:23Z</time>
      </trkpt>
      <trkpt lat="43.02154" lon="-0.1142">
        <ele>563.6</ele>
        <time>2022-10-22T07:07:24Z</time>
      </trkpt>
      <trkpt lat="43.02141" lon="-0.11429">
        <ele>563.8</ele>
        <time>2022-10-22T07:07:28Z</time>
      </trkpt>
      <trkpt lat="43.02121" lon="-0.11441">
        <ele>563.2</ele>
        <time>2022-10-22T07:07:34Z</time>
      </trkpt>
      <trkpt lat="43.02119" lon="-0.11442">
        <ele>563</ele>
        <time>2022-10-22T07:07:35Z</time>
      </trkpt>
      <trkpt lat="43.02116" lon="-0.11444">
        <ele>562.8</ele>
        <time>2022-10-22T07:07:37Z</time>
      </trkpt>
      <trkpt lat="43.02114" lon="-0.11444">
        <ele>563</ele>
        <time>2022-10-22T07:07:38Z</time>
      </trkpt>
      <trkpt lat="43.02102" lon="-0.11443">
        <ele>563.2</ele>
        <time>2022-10-22T07:07:45Z</time>
      </trkpt>
      <trkpt lat="43.02091" lon="-0.1144">
        <ele>563.4</ele>
        <time>2022-10-22T07:07:49Z</time>
      </trkpt>
      <trkpt lat="43.02078" lon="-0.11429">
        <ele>563</ele>
        <time>2022-10-22T07:07:54Z</time>
      </trkpt>
      <trkpt lat="43.02072" lon="-0.11422">
        <ele>562.4</ele>
        <time>2022-10-22T07:07:58Z</time>
      </trkpt>
      <trkpt lat="43.0207" lon="-0.11421">
        <ele>562.4</ele>
        <time>2022-10-22T07:07:59Z</time>
      </trkpt>
      <trkpt lat="43.02065" lon="-0.11418">
        <ele>562.2</ele>
        <time>2022-10-22T07:08:01Z</time>
      </trkpt>
      <trkpt lat="43.0205" lon="-0.11413">
        <ele>562.2</ele>
        <time>2022-10-22T07:08:05Z</time>
      </trkpt>
      <trkpt lat="43.02029" lon="-0.1141">
        <ele>562.8</ele>
        <time>2022-10-22T07:08:11Z</time>
      </trkpt>
      <trkpt lat="43.02014" lon="-0.11409">
        <ele>563.8</ele>
        <time>2022-10-22T07:08:17Z</time>
      </trkpt>
      <trkpt lat="43.02008" lon="-0.11413">
        <ele>564.4</ele>
        <time>2022-10-22T07:08:20Z</time>
      </trkpt>
      <trkpt lat="43.02004" lon="-0.11416">
        <ele>565</ele>
        <time>2022-10-22T07:08:22Z</time>
      </trkpt>
      <trkpt lat="43.02" lon="-0.1142">
        <ele>565.8</ele>
        <time>2022-10-22T07:08:25Z</time>
      </trkpt>
      <trkpt lat="43.01996" lon="-0.11422">
        <ele>566</ele>
        <time>2022-10-22T07:08:27Z</time>
      </trkpt>
      <trkpt lat="43.01986" lon="-0.11427">
        <ele>567</ele>
        <time>2022-10-22T07:08:33Z</time>
      </trkpt>
      <trkpt lat="43.0198" lon="-0.11431">
        <ele>567.2</ele>
        <time>2022-10-22T07:08:36Z</time>
      </trkpt>
      <trkpt lat="43.0196" lon="-0.11436">
        <ele>567.6</ele>
        <time>2022-10-22T07:08:44Z</time>
      </trkpt>
      <trkpt lat="43.01933" lon="-0.11441">
        <ele>567.6</ele>
        <time>2022-10-22T07:08:53Z</time>
      </trkpt>
      <trkpt lat="43.01918" lon="-0.11447">
        <ele>568</ele>
        <time>2022-10-22T07:08:59Z</time>
      </trkpt>
      <trkpt lat="43.01916" lon="-0.11449">
        <ele>568</ele>
        <time>2022-10-22T07:09:00Z</time>
      </trkpt>
      <trkpt lat="43.01898" lon="-0.1146">
        <ele>569</ele>
        <time>2022-10-22T07:09:07Z</time>
      </trkpt>
      <trkpt lat="43.01894" lon="-0.11464">
        <ele>569.4</ele>
        <time>2022-10-22T07:09:09Z</time>
      </trkpt>
      <trkpt lat="43.01887" lon="-0.11469">
        <ele>570.6</ele>
        <time>2022-10-22T07:09:12Z</time>
      </trkpt>
      <trkpt lat="43.01873" lon="-0.11484">
        <ele>571.6</ele>
        <time>2022-10-22T07:09:17Z</time>
      </trkpt>
      <trkpt lat="43.01854" lon="-0.11513">
        <ele>571.6</ele>
        <time>2022-10-22T07:09:21Z</time>
      </trkpt>
      <trkpt lat="43.01836" lon="-0.11533">
        <ele>570.8</ele>
        <time>2022-10-22T07:09:24Z</time>
      </trkpt>
      <trkpt lat="43.01823" lon="-0.11541">
        <ele>570.2</ele>
        <time>2022-10-22T07:09:26Z</time>
      </trkpt>
      <trkpt lat="43.01817" lon="-0.11543">
        <ele>569.4</ele>
        <time>2022-10-22T07:09:27Z</time>
      </trkpt>
      <trkpt lat="43.01803" lon="-0.11547">
        <ele>568.8</ele>
        <time>2022-10-22T07:09:30Z</time>
      </trkpt>
      <trkpt lat="43.01795" lon="-0.11549">
        <ele>568.4</ele>
        <time>2022-10-22T07:09:32Z</time>
      </trkpt>
      <trkpt lat="43.01786" lon="-0.11553">
        <ele>567.6</ele>
        <time>2022-10-22T07:09:35Z</time>
      </trkpt>
      <trkpt lat="43.01785" lon="-0.11555">
        <ele>567.6</ele>
        <time>2022-10-22T07:09:36Z</time>
      </trkpt>
      <trkpt lat="43.01784" lon="-0.11559">
        <ele>567.2</ele>
        <time>2022-10-22T07:09:37Z</time>
      </trkpt>
      <trkpt lat="43.01784" lon="-0.11563">
        <ele>567.2</ele>
        <time>2022-10-22T07:09:38Z</time>
      </trkpt>
      <trkpt lat="43.01788" lon="-0.11579">
        <ele>566.8</ele>
        <time>2022-10-22T07:09:43Z</time>
      </trkpt>
      <trkpt lat="43.01792" lon="-0.11593">
        <ele>567</ele>
        <time>2022-10-22T07:09:49Z</time>
      </trkpt>
      <trkpt lat="43.01795" lon="-0.116">
        <ele>567.6</ele>
        <time>2022-10-22T07:09:52Z</time>
      </trkpt>
      <trkpt lat="43.01799" lon="-0.11606">
        <ele>568</ele>
        <time>2022-10-22T07:09:55Z</time>
      </trkpt>
      <trkpt lat="43.018" lon="-0.11609">
        <ele>568.2</ele>
        <time>2022-10-22T07:09:56Z</time>
      </trkpt>
      <trkpt lat="43.01808" lon="-0.11624">
        <ele>569</ele>
        <time>2022-10-22T07:10:01Z</time>
      </trkpt>
      <trkpt lat="43.01819" lon="-0.11643">
        <ele>569.2</ele>
        <time>2022-10-22T07:10:07Z</time>
      </trkpt>
      <trkpt lat="43.01822" lon="-0.11647">
        <ele>569.2</ele>
        <time>2022-10-22T07:10:08Z</time>
      </trkpt>
      <trkpt lat="43.01842" lon="-0.11664">
        <ele>569.4</ele>
        <time>2022-10-22T07:10:15Z</time>
      </trkpt>
      <trkpt lat="43.01863" lon="-0.11673">
        <ele>569.8</ele>
        <time>2022-10-22T07:10:22Z</time>
      </trkpt>
      <trkpt lat="43.01873" lon="-0.11685">
        <ele>570.2</ele>
        <time>2022-10-22T07:10:27Z</time>
      </trkpt>
      <trkpt lat="43.01877" lon="-0.11691">
        <ele>570.2</ele>
        <time>2022-10-22T07:10:29Z</time>
      </trkpt>
      <trkpt lat="43.01892" lon="-0.11717">
        <ele>571.2</ele>
        <time>2022-10-22T07:10:37Z</time>
      </trkpt>
      <trkpt lat="43.01894" lon="-0.1172">
        <ele>571.4</ele>
        <time>2022-10-22T07:10:38Z</time>
      </trkpt>
      <trkpt lat="43.01899" lon="-0.11727">
        <ele>571.4</ele>
        <time>2022-10-22T07:10:40Z</time>
      </trkpt>
      <trkpt lat="43.01909" lon="-0.11747">
        <ele>571.4</ele>
        <time>2022-10-22T07:10:45Z</time>
      </trkpt>
      <trkpt lat="43.01924" lon="-0.11783">
        <ele>571.4</ele>
        <time>2022-10-22T07:10:53Z</time>
      </trkpt>
      <trkpt lat="43.01945" lon="-0.11831">
        <ele>570.8</ele>
        <time>2022-10-22T07:11:02Z</time>
      </trkpt>
      <trkpt lat="43.01961" lon="-0.11863">
        <ele>570.2</ele>
        <time>2022-10-22T07:11:08Z</time>
      </trkpt>
      <trkpt lat="43.01968" lon="-0.11872">
        <ele>570</ele>
        <time>2022-10-22T07:11:10Z</time>
      </trkpt>
      <trkpt lat="43.01993" lon="-0.11911">
        <ele>569.6</ele>
        <time>2022-10-22T07:11:19Z</time>
      </trkpt>
      <trkpt lat="43.02001" lon="-0.11923">
        <ele>569.8</ele>
        <time>2022-10-22T07:11:22Z</time>
      </trkpt>
      <trkpt lat="43.02006" lon="-0.11931">
        <ele>569.8</ele>
        <time>2022-10-22T07:11:24Z</time>
      </trkpt>
      <trkpt lat="43.02008" lon="-0.11935">
        <ele>570</ele>
        <time>2022-10-22T07:11:25Z</time>
      </trkpt>
      <trkpt lat="43.02025" lon="-0.11964">
        <ele>570.8</ele>
        <time>2022-10-22T07:11:33Z</time>
      </trkpt>
      <trkpt lat="43.02027" lon="-0.11972">
        <ele>571.2</ele>
        <time>2022-10-22T07:11:35Z</time>
      </trkpt>
      <trkpt lat="43.02032" lon="-0.11984">
        <ele>572</ele>
        <time>2022-10-22T07:11:39Z</time>
      </trkpt>
      <trkpt lat="43.02037" lon="-0.11994">
        <ele>572.4</ele>
        <time>2022-10-22T07:11:42Z</time>
      </trkpt>
      <trkpt lat="43.02044" lon="-0.12001">
        <ele>573.6</ele>
        <time>2022-10-22T07:11:45Z</time>
      </trkpt>
      <trkpt lat="43.02046" lon="-0.12002">
        <ele>573.8</ele>
        <time>2022-10-22T07:11:46Z</time>
      </trkpt>
      <trkpt lat="43.02056" lon="-0.1201">
        <ele>574.8</ele>
        <time>2022-10-22T07:11:50Z</time>
      </trkpt>
      <trkpt lat="43.02068" lon="-0.12018">
        <ele>576</ele>
        <time>2022-10-22T07:11:55Z</time>
      </trkpt>
      <trkpt lat="43.0207" lon="-0.12021">
        <ele>576.4</ele>
        <time>2022-10-22T07:11:56Z</time>
      </trkpt>
      <trkpt lat="43.02075" lon="-0.12028">
        <ele>577.2</ele>
        <time>2022-10-22T07:11:59Z</time>
      </trkpt>
      <trkpt lat="43.02085" lon="-0.12039">
        <ele>578.2</ele>
        <time>2022-10-22T07:12:04Z</time>
      </trkpt>
      <trkpt lat="43.02087" lon="-0.12041">
        <ele>578.4</ele>
        <time>2022-10-22T07:12:05Z</time>
      </trkpt>
      <trkpt lat="43.02093" lon="-0.12046">
        <ele>579.6</ele>
        <time>2022-10-22T07:12:08Z</time>
      </trkpt>
      <trkpt lat="43.02103" lon="-0.12053">
        <ele>580.8</ele>
        <time>2022-10-22T07:12:13Z</time>
      </trkpt>
      <trkpt lat="43.02108" lon="-0.12056">
        <ele>581.2</ele>
        <time>2022-10-22T07:12:15Z</time>
      </trkpt>
      <trkpt lat="43.02115" lon="-0.12062">
        <ele>581.8</ele>
        <time>2022-10-22T07:12:19Z</time>
      </trkpt>
      <trkpt lat="43.02121" lon="-0.12068">
        <ele>582.6</ele>
        <time>2022-10-22T07:12:22Z</time>
      </trkpt>
      <trkpt lat="43.02122" lon="-0.1207">
        <ele>582.8</ele>
        <time>2022-10-22T07:12:23Z</time>
      </trkpt>
      <trkpt lat="43.02131" lon="-0.12082">
        <ele>584.2</ele>
        <time>2022-10-22T07:12:29Z</time>
      </trkpt>
      <trkpt lat="43.02137" lon="-0.12088">
        <ele>584.6</ele>
        <time>2022-10-22T07:12:32Z</time>
      </trkpt>
      <trkpt lat="43.02145" lon="-0.12092">
        <ele>585.4</ele>
        <time>2022-10-22T07:12:36Z</time>
      </trkpt>
      <trkpt lat="43.02153" lon="-0.12096">
        <ele>586</ele>
        <time>2022-10-22T07:12:40Z</time>
      </trkpt>
      <trkpt lat="43.02157" lon="-0.12098">
        <ele>586.4</ele>
        <time>2022-10-22T07:12:42Z</time>
      </trkpt>
      <trkpt lat="43.02171" lon="-0.12101">
        <ele>587.4</ele>
        <time>2022-10-22T07:12:48Z</time>
      </trkpt>
      <trkpt lat="43.02183" lon="-0.12112">
        <ele>588.6</ele>
        <time>2022-10-22T07:12:54Z</time>
      </trkpt>
      <trkpt lat="43.02185" lon="-0.12115">
        <ele>588.6</ele>
        <time>2022-10-22T07:12:55Z</time>
      </trkpt>
      <trkpt lat="43.0219" lon="-0.12138">
        <ele>589</ele>
        <time>2022-10-22T07:13:02Z</time>
      </trkpt>
      <trkpt lat="43.02185" lon="-0.12159">
        <ele>589.2</ele>
        <time>2022-10-22T07:13:08Z</time>
      </trkpt>
      <trkpt lat="43.02179" lon="-0.1217">
        <ele>589.6</ele>
        <time>2022-10-22T07:13:12Z</time>
      </trkpt>
      <trkpt lat="43.02174" lon="-0.12176">
        <ele>589.8</ele>
        <time>2022-10-22T07:13:15Z</time>
      </trkpt>
      <trkpt lat="43.02164" lon="-0.12186">
        <ele>590.6</ele>
        <time>2022-10-22T07:13:20Z</time>
      </trkpt>
      <trkpt lat="43.02162" lon="-0.12187">
        <ele>590.8</ele>
        <time>2022-10-22T07:13:21Z</time>
      </trkpt>
      <trkpt lat="43.02152" lon="-0.12195">
        <ele>591.6</ele>
        <time>2022-10-22T07:13:26Z</time>
      </trkpt>
      <trkpt lat="43.02145" lon="-0.12201">
        <ele>592.2</ele>
        <time>2022-10-22T07:13:30Z</time>
      </trkpt>
      <trkpt lat="43.02142" lon="-0.12205">
        <ele>592.6</ele>
        <time>2022-10-22T07:13:34Z</time>
      </trkpt>
      <trkpt lat="43.02142" lon="-0.12205">
        <ele>592.8</ele>
        <time>2022-10-22T07:13:35Z</time>
      </trkpt>
      <trkpt lat="43.02143" lon="-0.12204">
        <ele>593.2</ele>
        <time>2022-10-22T07:13:42Z</time>
      </trkpt>
      <trkpt lat="43.02146" lon="-0.12203">
        <ele>593.2</ele>
        <time>2022-10-22T07:13:44Z</time>
      </trkpt>
      <trkpt lat="43.02151" lon="-0.12197">
        <ele>593.2</ele>
        <time>2022-10-22T07:13:47Z</time>
      </trkpt>
      <trkpt lat="43.02167" lon="-0.12185">
        <ele>592.8</ele>
        <time>2022-10-22T07:13:53Z</time>
      </trkpt>
      <trkpt lat="43.0217" lon="-0.12185">
        <ele>592.6</ele>
        <time>2022-10-22T07:13:54Z</time>
      </trkpt>
      <trkpt lat="43.02172" lon="-0.12187">
        <ele>592.4</ele>
        <time>2022-10-22T07:13:56Z</time>
      </trkpt>
      <trkpt lat="43.02173" lon="-0.1219">
        <ele>592</ele>
        <time>2022-10-22T07:13:58Z</time>
      </trkpt>
      <trkpt lat="43.02174" lon="-0.12194">
        <ele>591.8</ele>
        <time>2022-10-22T07:14:00Z</time>
      </trkpt>
      <trkpt lat="43.02174" lon="-0.12195">
        <ele>591.6</ele>
        <time>2022-10-22T07:14:01Z</time>
      </trkpt>
      <trkpt lat="43.02175" lon="-0.12203">
        <ele>591.6</ele>
        <time>2022-10-22T07:14:05Z</time>
      </trkpt>
      <trkpt lat="43.02178" lon="-0.1221">
        <ele>591.6</ele>
        <time>2022-10-22T07:14:08Z</time>
      </trkpt>
      <trkpt lat="43.0218" lon="-0.12229">
        <ele>592</ele>
        <time>2022-10-22T07:14:14Z</time>
      </trkpt>
      <trkpt lat="43.02184" lon="-0.1225">
        <ele>592.2</ele>
        <time>2022-10-22T07:14:20Z</time>
      </trkpt>
      <trkpt lat="43.02186" lon="-0.12269">
        <ele>592.6</ele>
        <time>2022-10-22T07:14:25Z</time>
      </trkpt>
      <trkpt lat="43.02187" lon="-0.12281">
        <ele>592.8</ele>
        <time>2022-10-22T07:14:28Z</time>
      </trkpt>
      <trkpt lat="43.0219" lon="-0.12307">
        <ele>593.6</ele>
        <time>2022-10-22T07:14:35Z</time>
      </trkpt>
      <trkpt lat="43.0219" lon="-0.12311">
        <ele>593.8</ele>
        <time>2022-10-22T07:14:36Z</time>
      </trkpt>
      <trkpt lat="43.02196" lon="-0.12342">
        <ele>594.6</ele>
        <time>2022-10-22T07:14:44Z</time>
      </trkpt>
      <trkpt lat="43.02203" lon="-0.12374">
        <ele>595.6</ele>
        <time>2022-10-22T07:14:52Z</time>
      </trkpt>
      <trkpt lat="43.02203" lon="-0.12377">
        <ele>595.6</ele>
        <time>2022-10-22T07:14:53Z</time>
      </trkpt>
      <trkpt lat="43.02204" lon="-0.12401">
        <ele>596.2</ele>
        <time>2022-10-22T07:14:59Z</time>
      </trkpt>
      <trkpt lat="43.02202" lon="-0.12423">
        <ele>596.8</ele>
        <time>2022-10-22T07:15:05Z</time>
      </trkpt>
      <trkpt lat="43.022" lon="-0.12433">
        <ele>597.2</ele>
        <time>2022-10-22T07:15:08Z</time>
      </trkpt>
      <trkpt lat="43.02195" lon="-0.12454">
        <ele>597.8</ele>
        <time>2022-10-22T07:15:14Z</time>
      </trkpt>
      <trkpt lat="43.02191" lon="-0.1247">
        <ele>598.2</ele>
        <time>2022-10-22T07:15:18Z</time>
      </trkpt>
      <trkpt lat="43.02187" lon="-0.12484">
        <ele>599</ele>
        <time>2022-10-22T07:15:22Z</time>
      </trkpt>
      <trkpt lat="43.02184" lon="-0.125">
        <ele>599.8</ele>
        <time>2022-10-22T07:15:26Z</time>
      </trkpt>
      <trkpt lat="43.02182" lon="-0.12508">
        <ele>600.2</ele>
        <time>2022-10-22T07:15:28Z</time>
      </trkpt>
      <trkpt lat="43.02178" lon="-0.1253">
        <ele>606.8</ele>
        <time>2022-10-22T07:15:33Z</time>
      </trkpt>
      <trkpt lat="43.02178" lon="-0.12534">
        <ele>601.2</ele>
        <time>2022-10-22T07:15:34Z</time>
      </trkpt>
      <trkpt lat="43.02176" lon="-0.12569">
        <ele>601.6</ele>
        <time>2022-10-22T07:15:42Z</time>
      </trkpt>
      <trkpt lat="43.02177" lon="-0.12582">
        <ele>602.2</ele>
        <time>2022-10-22T07:15:45Z</time>
      </trkpt>
      <trkpt lat="43.02175" lon="-0.12597">
        <ele>602.8</ele>
        <time>2022-10-22T07:15:49Z</time>
      </trkpt>
      <trkpt lat="43.02174" lon="-0.12611">
        <ele>603.2</ele>
        <time>2022-10-22T07:15:53Z</time>
      </trkpt>
      <trkpt lat="43.02172" lon="-0.12617">
        <ele>603.6</ele>
        <time>2022-10-22T07:15:55Z</time>
      </trkpt>
      <trkpt lat="43.02169" lon="-0.12624">
        <ele>604.4</ele>
        <time>2022-10-22T07:16:00Z</time>
      </trkpt>
      <trkpt lat="43.02169" lon="-0.12622">
        <ele>604.6</ele>
        <time>2022-10-22T07:16:04Z</time>
      </trkpt>
      <trkpt lat="43.02169" lon="-0.12622">
        <ele>604.8</ele>
        <time>2022-10-22T07:16:11Z</time>
      </trkpt>
      <trkpt lat="43.0217" lon="-0.12623">
        <ele>604.6</ele>
        <time>2022-10-22T07:17:56Z</time>
      </trkpt>
      <trkpt lat="43.02174" lon="-0.12628">
        <ele>604.6</ele>
        <time>2022-10-22T07:17:59Z</time>
      </trkpt>
      <trkpt lat="43.02181" lon="-0.12646">
        <ele>605</ele>
        <time>2022-10-22T07:18:06Z</time>
      </trkpt>
      <trkpt lat="43.02191" lon="-0.1267">
        <ele>606</ele>
        <time>2022-10-22T07:18:14Z</time>
      </trkpt>
      <trkpt lat="43.02192" lon="-0.12672">
        <ele>606.2</ele>
        <time>2022-10-22T07:18:15Z</time>
      </trkpt>
      <trkpt lat="43.02195" lon="-0.12685">
        <ele>607</ele>
        <time>2022-10-22T07:18:20Z</time>
      </trkpt>
      <trkpt lat="43.02196" lon="-0.12695">
        <ele>608</ele>
        <time>2022-10-22T07:18:23Z</time>
      </trkpt>
      <trkpt lat="43.02196" lon="-0.12698">
        <ele>608.2</ele>
        <time>2022-10-22T07:18:24Z</time>
      </trkpt>
      <trkpt lat="43.02194" lon="-0.12707">
        <ele>609.2</ele>
        <time>2022-10-22T07:18:27Z</time>
      </trkpt>
      <trkpt lat="43.02191" lon="-0.12717">
        <ele>610</ele>
        <time>2022-10-22T07:18:30Z</time>
      </trkpt>
      <trkpt lat="43.0219" lon="-0.12721">
        <ele>610.4</ele>
        <time>2022-10-22T07:18:31Z</time>
      </trkpt>
      <trkpt lat="43.02187" lon="-0.12744">
        <ele>611.4</ele>
        <time>2022-10-22T07:18:38Z</time>
      </trkpt>
      <trkpt lat="43.02187" lon="-0.12748">
        <ele>611.8</ele>
        <time>2022-10-22T07:18:39Z</time>
      </trkpt>
      <trkpt lat="43.02188" lon="-0.12759">
        <ele>612.4</ele>
        <time>2022-10-22T07:18:43Z</time>
      </trkpt>
      <trkpt lat="43.0219" lon="-0.12764">
        <ele>612.8</ele>
        <time>2022-10-22T07:18:45Z</time>
      </trkpt>
      <trkpt lat="43.02192" lon="-0.12767">
        <ele>613.4</ele>
        <time>2022-10-22T07:18:47Z</time>
      </trkpt>
      <trkpt lat="43.02199" lon="-0.12774">
        <ele>614.6</ele>
        <time>2022-10-22T07:18:51Z</time>
      </trkpt>
      <trkpt lat="43.0221" lon="-0.12777">
        <ele>615.6</ele>
        <time>2022-10-22T07:18:56Z</time>
      </trkpt>
      <trkpt lat="43.02214" lon="-0.12778">
        <ele>616</ele>
        <time>2022-10-22T07:18:58Z</time>
      </trkpt>
      <trkpt lat="43.02219" lon="-0.12779">
        <ele>616.8</ele>
        <time>2022-10-22T07:19:00Z</time>
      </trkpt>
      <trkpt lat="43.02228" lon="-0.1278">
        <ele>617.8</ele>
        <time>2022-10-22T07:19:04Z</time>
      </trkpt>
      <trkpt lat="43.02237" lon="-0.12782">
        <ele>618.8</ele>
        <time>2022-10-22T07:19:08Z</time>
      </trkpt>
      <trkpt lat="43.02241" lon="-0.12784">
        <ele>619</ele>
        <time>2022-10-22T07:19:10Z</time>
      </trkpt>
      <trkpt lat="43.02245" lon="-0.12791">
        <ele>620</ele>
        <time>2022-10-22T07:19:13Z</time>
      </trkpt>
      <trkpt lat="43.02246" lon="-0.12794">
        <ele>620.2</ele>
        <time>2022-10-22T07:19:14Z</time>
      </trkpt>
      <trkpt lat="43.02244" lon="-0.12806">
        <ele>621</ele>
        <time>2022-10-22T07:19:18Z</time>
      </trkpt>
      <trkpt lat="43.02243" lon="-0.12808">
        <ele>621.4</ele>
        <time>2022-10-22T07:19:19Z</time>
      </trkpt>
      <trkpt lat="43.02239" lon="-0.12818">
        <ele>622.4</ele>
        <time>2022-10-22T07:19:24Z</time>
      </trkpt>
      <trkpt lat="43.02238" lon="-0.1282">
        <ele>622.4</ele>
        <time>2022-10-22T07:19:25Z</time>
      </trkpt>
      <trkpt lat="43.02231" lon="-0.12826">
        <ele>624</ele>
        <time>2022-10-22T07:19:30Z</time>
      </trkpt>
      <trkpt lat="43.02229" lon="-0.12827">
        <ele>624</ele>
        <time>2022-10-22T07:19:31Z</time>
      </trkpt>
      <trkpt lat="43.02223" lon="-0.12829">
        <ele>625.2</ele>
        <time>2022-10-22T07:19:34Z</time>
      </trkpt>
      <trkpt lat="43.02215" lon="-0.12833">
        <ele>626</ele>
        <time>2022-10-22T07:19:39Z</time>
      </trkpt>
      <trkpt lat="43.02213" lon="-0.12834">
        <ele>626.4</ele>
        <time>2022-10-22T07:19:40Z</time>
      </trkpt>
      <trkpt lat="43.02205" lon="-0.12837">
        <ele>627.6</ele>
        <time>2022-10-22T07:19:45Z</time>
      </trkpt>
      <trkpt lat="43.02201" lon="-0.12838">
        <ele>628.4</ele>
        <time>2022-10-22T07:19:47Z</time>
      </trkpt>
      <trkpt lat="43.02198" lon="-0.12839">
        <ele>628.8</ele>
        <time>2022-10-22T07:19:49Z</time>
      </trkpt>
      <trkpt lat="43.02189" lon="-0.12843">
        <ele>630</ele>
        <time>2022-10-22T07:19:54Z</time>
      </trkpt>
      <trkpt lat="43.02183" lon="-0.12844">
        <ele>631</ele>
        <time>2022-10-22T07:19:58Z</time>
      </trkpt>
      <trkpt lat="43.02178" lon="-0.12846">
        <ele>631.6</ele>
        <time>2022-10-22T07:20:01Z</time>
      </trkpt>
      <trkpt lat="43.02176" lon="-0.12847">
        <ele>632</ele>
        <time>2022-10-22T07:20:02Z</time>
      </trkpt>
      <trkpt lat="43.02168" lon="-0.12849">
        <ele>633.2</ele>
        <time>2022-10-22T07:20:06Z</time>
      </trkpt>
      <trkpt lat="43.02162" lon="-0.12851">
        <ele>633.8</ele>
        <time>2022-10-22T07:20:09Z</time>
      </trkpt>
      <trkpt lat="43.02157" lon="-0.12853">
        <ele>634.4</ele>
        <time>2022-10-22T07:20:12Z</time>
      </trkpt>
      <trkpt lat="43.02151" lon="-0.12858">
        <ele>635.2</ele>
        <time>2022-10-22T07:20:16Z</time>
      </trkpt>
      <trkpt lat="43.02149" lon="-0.12861">
        <ele>635.6</ele>
        <time>2022-10-22T07:20:18Z</time>
      </trkpt>
      <trkpt lat="43.02145" lon="-0.12868">
        <ele>636.4</ele>
        <time>2022-10-22T07:20:22Z</time>
      </trkpt>
      <trkpt lat="43.02144" lon="-0.12872">
        <ele>636.8</ele>
        <time>2022-10-22T07:20:24Z</time>
      </trkpt>
      <trkpt lat="43.02145" lon="-0.12877">
        <ele>637.4</ele>
        <time>2022-10-22T07:20:26Z</time>
      </trkpt>
      <trkpt lat="43.02147" lon="-0.12887">
        <ele>638.8</ele>
        <time>2022-10-22T07:20:31Z</time>
      </trkpt>
      <trkpt lat="43.02152" lon="-0.12897">
        <ele>640</ele>
        <time>2022-10-22T07:20:36Z</time>
      </trkpt>
      <trkpt lat="43.02154" lon="-0.12901">
        <ele>640.8</ele>
        <time>2022-10-22T07:20:38Z</time>
      </trkpt>
      <trkpt lat="43.02155" lon="-0.12903">
        <ele>641.2</ele>
        <time>2022-10-22T07:20:39Z</time>
      </trkpt>
      <trkpt lat="43.0216" lon="-0.12913">
        <ele>642.6</ele>
        <time>2022-10-22T07:20:44Z</time>
      </trkpt>
      <trkpt lat="43.02163" lon="-0.12922">
        <ele>643.8</ele>
        <time>2022-10-22T07:20:48Z</time>
      </trkpt>
      <trkpt lat="43.02164" lon="-0.12926">
        <ele>644.2</ele>
        <time>2022-10-22T07:20:50Z</time>
      </trkpt>
      <trkpt lat="43.02168" lon="-0.12935">
        <ele>645</ele>
        <time>2022-10-22T07:20:54Z</time>
      </trkpt>
      <trkpt lat="43.02171" lon="-0.12944">
        <ele>646.2</ele>
        <time>2022-10-22T07:20:58Z</time>
      </trkpt>
      <trkpt lat="43.02171" lon="-0.12954">
        <ele>647.2</ele>
        <time>2022-10-22T07:21:02Z</time>
      </trkpt>
      <trkpt lat="43.02171" lon="-0.12967">
        <ele>648.4</ele>
        <time>2022-10-22T07:21:07Z</time>
      </trkpt>
      <trkpt lat="43.02175" lon="-0.12991">
        <ele>649.2</ele>
        <time>2022-10-22T07:21:16Z</time>
      </trkpt>
      <trkpt lat="43.0218" lon="-0.13007">
        <ele>650.4</ele>
        <time>2022-10-22T07:21:23Z</time>
      </trkpt>
      <trkpt lat="43.02181" lon="-0.13011">
        <ele>650.8</ele>
        <time>2022-10-22T07:21:25Z</time>
      </trkpt>
      <trkpt lat="43.02182" lon="-0.13018">
        <ele>651.4</ele>
        <time>2022-10-22T07:21:28Z</time>
      </trkpt>
      <trkpt lat="43.02182" lon="-0.13025">
        <ele>652.6</ele>
        <time>2022-10-22T07:21:32Z</time>
      </trkpt>
      <trkpt lat="43.02176" lon="-0.13035">
        <ele>653.8</ele>
        <time>2022-10-22T07:21:38Z</time>
      </trkpt>
      <trkpt lat="43.02175" lon="-0.13036">
        <ele>653.8</ele>
        <time>2022-10-22T07:21:39Z</time>
      </trkpt>
      <trkpt lat="43.02167" lon="-0.13041">
        <ele>655</ele>
        <time>2022-10-22T07:21:45Z</time>
      </trkpt>
      <trkpt lat="43.02162" lon="-0.13043">
        <ele>655.6</ele>
        <time>2022-10-22T07:21:48Z</time>
      </trkpt>
      <trkpt lat="43.02161" lon="-0.13044">
        <ele>656</ele>
        <time>2022-10-22T07:21:49Z</time>
      </trkpt>
      <trkpt lat="43.02152" lon="-0.13044">
        <ele>657.2</ele>
        <time>2022-10-22T07:21:55Z</time>
      </trkpt>
      <trkpt lat="43.02148" lon="-0.13045">
        <ele>657.6</ele>
        <time>2022-10-22T07:21:58Z</time>
      </trkpt>
      <trkpt lat="43.02144" lon="-0.13045">
        <ele>658.2</ele>
        <time>2022-10-22T07:22:01Z</time>
      </trkpt>
      <trkpt lat="43.0214" lon="-0.13046">
        <ele>659.2</ele>
        <time>2022-10-22T07:22:04Z</time>
      </trkpt>
      <trkpt lat="43.02138" lon="-0.13047">
        <ele>659.4</ele>
        <time>2022-10-22T07:22:05Z</time>
      </trkpt>
      <trkpt lat="43.02129" lon="-0.13049">
        <ele>660.4</ele>
        <time>2022-10-22T07:22:11Z</time>
      </trkpt>
      <trkpt lat="43.02127" lon="-0.13049">
        <ele>660.8</ele>
        <time>2022-10-22T07:22:12Z</time>
      </trkpt>
      <trkpt lat="43.02121" lon="-0.13049">
        <ele>661.6</ele>
        <time>2022-10-22T07:22:16Z</time>
      </trkpt>
      <trkpt lat="43.0211" lon="-0.13047">
        <ele>662.2</ele>
        <time>2022-10-22T07:22:22Z</time>
      </trkpt>
      <trkpt lat="43.02102" lon="-0.13045">
        <ele>662.6</ele>
        <time>2022-10-22T07:22:26Z</time>
      </trkpt>
      <trkpt lat="43.02097" lon="-0.13042">
        <ele>663</ele>
        <time>2022-10-22T07:22:29Z</time>
      </trkpt>
      <trkpt lat="43.02096" lon="-0.13041">
        <ele>663</ele>
        <time>2022-10-22T07:22:30Z</time>
      </trkpt>
      <trkpt lat="43.02088" lon="-0.13037">
        <ele>663.6</ele>
        <time>2022-10-22T07:22:35Z</time>
      </trkpt>
      <trkpt lat="43.02085" lon="-0.13035">
        <ele>664</ele>
        <time>2022-10-22T07:22:37Z</time>
      </trkpt>
      <trkpt lat="43.02079" lon="-0.13032">
        <ele>664.8</ele>
        <time>2022-10-22T07:22:41Z</time>
      </trkpt>
      <trkpt lat="43.02073" lon="-0.13029">
        <ele>665.6</ele>
        <time>2022-10-22T07:22:45Z</time>
      </trkpt>
      <trkpt lat="43.02071" lon="-0.13029">
        <ele>665.8</ele>
        <time>2022-10-22T07:22:46Z</time>
      </trkpt>
      <trkpt lat="43.02063" lon="-0.13028">
        <ele>666.8</ele>
        <time>2022-10-22T07:22:52Z</time>
      </trkpt>
      <trkpt lat="43.02058" lon="-0.13028">
        <ele>667.4</ele>
        <time>2022-10-22T07:22:55Z</time>
      </trkpt>
      <trkpt lat="43.02052" lon="-0.13029">
        <ele>667.8</ele>
        <time>2022-10-22T07:22:59Z</time>
      </trkpt>
      <trkpt lat="43.02047" lon="-0.13029">
        <ele>668.6</ele>
        <time>2022-10-22T07:23:03Z</time>
      </trkpt>
      <trkpt lat="43.02045" lon="-0.1303">
        <ele>669</ele>
        <time>2022-10-22T07:23:04Z</time>
      </trkpt>
      <trkpt lat="43.0204" lon="-0.13031">
        <ele>670</ele>
        <time>2022-10-22T07:23:08Z</time>
      </trkpt>
      <trkpt lat="43.02037" lon="-0.13033">
        <ele>670.4</ele>
        <time>2022-10-22T07:23:10Z</time>
      </trkpt>
      <trkpt lat="43.02034" lon="-0.13037">
        <ele>671.2</ele>
        <time>2022-10-22T07:23:13Z</time>
      </trkpt>
      <trkpt lat="43.02034" lon="-0.13038">
        <ele>671.4</ele>
        <time>2022-10-22T07:23:14Z</time>
      </trkpt>
      <trkpt lat="43.02036" lon="-0.13045">
        <ele>672.4</ele>
        <time>2022-10-22T07:23:17Z</time>
      </trkpt>
      <trkpt lat="43.0204" lon="-0.13054">
        <ele>673.4</ele>
        <time>2022-10-22T07:23:22Z</time>
      </trkpt>
      <trkpt lat="43.02044" lon="-0.13062">
        <ele>674.4</ele>
        <time>2022-10-22T07:23:26Z</time>
      </trkpt>
      <trkpt lat="43.02049" lon="-0.13074">
        <ele>675.4</ele>
        <time>2022-10-22T07:23:32Z</time>
      </trkpt>
      <trkpt lat="43.0205" lon="-0.1308">
        <ele>675.8</ele>
        <time>2022-10-22T07:23:35Z</time>
      </trkpt>
      <trkpt lat="43.02055" lon="-0.13096">
        <ele>676.4</ele>
        <time>2022-10-22T07:23:42Z</time>
      </trkpt>
      <trkpt lat="43.02055" lon="-0.13098">
        <ele>676.6</ele>
        <time>2022-10-22T07:23:43Z</time>
      </trkpt>
      <trkpt lat="43.0206" lon="-0.13113">
        <ele>677.4</ele>
        <time>2022-10-22T07:23:50Z</time>
      </trkpt>
      <trkpt lat="43.02061" lon="-0.13115">
        <ele>677.6</ele>
        <time>2022-10-22T07:23:51Z</time>
      </trkpt>
      <trkpt lat="43.02069" lon="-0.13126">
        <ele>678.6</ele>
        <time>2022-10-22T07:23:58Z</time>
      </trkpt>
      <trkpt lat="43.02071" lon="-0.13127">
        <ele>678.8</ele>
        <time>2022-10-22T07:23:59Z</time>
      </trkpt>
      <trkpt lat="43.02076" lon="-0.13137">
        <ele>679.8</ele>
        <time>2022-10-22T07:24:05Z</time>
      </trkpt>
      <trkpt lat="43.02077" lon="-0.13139">
        <ele>680.4</ele>
        <time>2022-10-22T07:24:07Z</time>
      </trkpt>
      <trkpt lat="43.0208" lon="-0.13142">
        <ele>680.8</ele>
        <time>2022-10-22T07:24:09Z</time>
      </trkpt>
      <trkpt lat="43.02084" lon="-0.1315">
        <ele>681.8</ele>
        <time>2022-10-22T07:24:14Z</time>
      </trkpt>
      <trkpt lat="43.02084" lon="-0.13151">
        <ele>681.8</ele>
        <time>2022-10-22T07:24:15Z</time>
      </trkpt>
      <trkpt lat="43.02089" lon="-0.13163">
        <ele>683</ele>
        <time>2022-10-22T07:24:22Z</time>
      </trkpt>
      <trkpt lat="43.02096" lon="-0.13174">
        <ele>684</ele>
        <time>2022-10-22T07:24:29Z</time>
      </trkpt>
      <trkpt lat="43.02099" lon="-0.13178">
        <ele>684.4</ele>
        <time>2022-10-22T07:24:31Z</time>
      </trkpt>
      <trkpt lat="43.02108" lon="-0.13186">
        <ele>685</ele>
        <time>2022-10-22T07:24:37Z</time>
      </trkpt>
      <trkpt lat="43.02111" lon="-0.1319">
        <ele>685.2</ele>
        <time>2022-10-22T07:24:39Z</time>
      </trkpt>
      <trkpt lat="43.02119" lon="-0.13207">
        <ele>686</ele>
        <time>2022-10-22T07:24:48Z</time>
      </trkpt>
      <trkpt lat="43.02126" lon="-0.13218">
        <ele>686.8</ele>
        <time>2022-10-22T07:24:54Z</time>
      </trkpt>
      <trkpt lat="43.0213" lon="-0.13227">
        <ele>687.2</ele>
        <time>2022-10-22T07:24:58Z</time>
      </trkpt>
      <trkpt lat="43.02133" lon="-0.13236">
        <ele>687.6</ele>
        <time>2022-10-22T07:25:02Z</time>
      </trkpt>
      <trkpt lat="43.02135" lon="-0.13244">
        <ele>688.2</ele>
        <time>2022-10-22T07:25:05Z</time>
      </trkpt>
      <trkpt lat="43.02137" lon="-0.13255">
        <ele>688.6</ele>
        <time>2022-10-22T07:25:10Z</time>
      </trkpt>
      <trkpt lat="43.02137" lon="-0.1327">
        <ele>689.4</ele>
        <time>2022-10-22T07:25:17Z</time>
      </trkpt>
      <trkpt lat="43.02132" lon="-0.13283">
        <ele>690.2</ele>
        <time>2022-10-22T07:25:24Z</time>
      </trkpt>
      <trkpt lat="43.02131" lon="-0.13284">
        <ele>690.4</ele>
        <time>2022-10-22T07:25:25Z</time>
      </trkpt>
      <trkpt lat="43.0213" lon="-0.13286">
        <ele>690.6</ele>
        <time>2022-10-22T07:25:26Z</time>
      </trkpt>
      <trkpt lat="43.02128" lon="-0.13288">
        <ele>691</ele>
        <time>2022-10-22T07:25:28Z</time>
      </trkpt>
      <trkpt lat="43.02125" lon="-0.13288">
        <ele>691.4</ele>
        <time>2022-10-22T07:25:31Z</time>
      </trkpt>
      <trkpt lat="43.02123" lon="-0.13288">
        <ele>691.8</ele>
        <time>2022-10-22T07:25:32Z</time>
      </trkpt>
      <trkpt lat="43.02114" lon="-0.13285">
        <ele>693</ele>
        <time>2022-10-22T07:25:38Z</time>
      </trkpt>
      <trkpt lat="43.02108" lon="-0.13281">
        <ele>694</ele>
        <time>2022-10-22T07:25:43Z</time>
      </trkpt>
      <trkpt lat="43.02103" lon="-0.13279">
        <ele>695</ele>
        <time>2022-10-22T07:25:46Z</time>
      </trkpt>
      <trkpt lat="43.02101" lon="-0.13279">
        <ele>695.2</ele>
        <time>2022-10-22T07:25:47Z</time>
      </trkpt>
      <trkpt lat="43.02092" lon="-0.13276">
        <ele>696.2</ele>
        <time>2022-10-22T07:25:53Z</time>
      </trkpt>
      <trkpt lat="43.02089" lon="-0.13275">
        <ele>696.8</ele>
        <time>2022-10-22T07:25:55Z</time>
      </trkpt>
      <trkpt lat="43.02087" lon="-0.13275">
        <ele>697.4</ele>
        <time>2022-10-22T07:25:57Z</time>
      </trkpt>
      <trkpt lat="43.02078" lon="-0.13271">
        <ele>698.6</ele>
        <time>2022-10-22T07:26:03Z</time>
      </trkpt>
      <trkpt lat="43.02067" lon="-0.13267">
        <ele>699.6</ele>
        <time>2022-10-22T07:26:11Z</time>
      </trkpt>
      <trkpt lat="43.02058" lon="-0.13265">
        <ele>700.8</ele>
        <time>2022-10-22T07:26:17Z</time>
      </trkpt>
      <trkpt lat="43.02054" lon="-0.13263">
        <ele>701.2</ele>
        <time>2022-10-22T07:26:19Z</time>
      </trkpt>
      <trkpt lat="43.02044" lon="-0.13261">
        <ele>702</ele>
        <time>2022-10-22T07:26:25Z</time>
      </trkpt>
      <trkpt lat="43.02039" lon="-0.13259">
        <ele>702.4</ele>
        <time>2022-10-22T07:26:28Z</time>
      </trkpt>
      <trkpt lat="43.02025" lon="-0.13257">
        <ele>703.2</ele>
        <time>2022-10-22T07:26:36Z</time>
      </trkpt>
      <trkpt lat="43.02024" lon="-0.13257">
        <ele>703.2</ele>
        <time>2022-10-22T07:26:37Z</time>
      </trkpt>
      <trkpt lat="43.02015" lon="-0.13254">
        <ele>704.2</ele>
        <time>2022-10-22T07:26:43Z</time>
      </trkpt>
      <trkpt lat="43.02014" lon="-0.13254">
        <ele>704.4</ele>
        <time>2022-10-22T07:26:44Z</time>
      </trkpt>
      <trkpt lat="43.02009" lon="-0.13252">
        <ele>705.2</ele>
        <time>2022-10-22T07:26:48Z</time>
      </trkpt>
      <trkpt lat="43.02004" lon="-0.13251">
        <ele>705.8</ele>
        <time>2022-10-22T07:26:52Z</time>
      </trkpt>
      <trkpt lat="43.02002" lon="-0.13251">
        <ele>706.6</ele>
        <time>2022-10-22T07:26:54Z</time>
      </trkpt>
      <trkpt lat="43.01991" lon="-0.13249">
        <ele>707.4</ele>
        <time>2022-10-22T07:27:01Z</time>
      </trkpt>
      <trkpt lat="43.01985" lon="-0.13249">
        <ele>708.6</ele>
        <time>2022-10-22T07:27:05Z</time>
      </trkpt>
      <trkpt lat="43.0198" lon="-0.13249">
        <ele>709.4</ele>
        <time>2022-10-22T07:27:08Z</time>
      </trkpt>
      <trkpt lat="43.01978" lon="-0.13249">
        <ele>709.8</ele>
        <time>2022-10-22T07:27:09Z</time>
      </trkpt>
      <trkpt lat="43.01971" lon="-0.13251">
        <ele>710.4</ele>
        <time>2022-10-22T07:27:13Z</time>
      </trkpt>
      <trkpt lat="43.01969" lon="-0.1325">
        <ele>711</ele>
        <time>2022-10-22T07:27:15Z</time>
      </trkpt>
      <trkpt lat="43.0196" lon="-0.13242">
        <ele>712</ele>
        <time>2022-10-22T07:27:21Z</time>
      </trkpt>
      <trkpt lat="43.01959" lon="-0.1324">
        <ele>712</ele>
        <time>2022-10-22T07:27:22Z</time>
      </trkpt>
      <trkpt lat="43.01954" lon="-0.13221">
        <ele>713</ele>
        <time>2022-10-22T07:27:30Z</time>
      </trkpt>
      <trkpt lat="43.0195" lon="-0.13208">
        <ele>713.6</ele>
        <time>2022-10-22T07:27:35Z</time>
      </trkpt>
      <trkpt lat="43.01946" lon="-0.13198">
        <ele>714.2</ele>
        <time>2022-10-22T07:27:40Z</time>
      </trkpt>
      <trkpt lat="43.01944" lon="-0.13193">
        <ele>714.8</ele>
        <time>2022-10-22T07:27:43Z</time>
      </trkpt>
      <trkpt lat="43.01942" lon="-0.1319">
        <ele>715.2</ele>
        <time>2022-10-22T07:27:45Z</time>
      </trkpt>
      <trkpt lat="43.01936" lon="-0.13184">
        <ele>716</ele>
        <time>2022-10-22T07:27:50Z</time>
      </trkpt>
      <trkpt lat="43.01935" lon="-0.13184">
        <ele>716.4</ele>
        <time>2022-10-22T07:27:51Z</time>
      </trkpt>
      <trkpt lat="43.01927" lon="-0.13182">
        <ele>717.4</ele>
        <time>2022-10-22T07:27:57Z</time>
      </trkpt>
      <trkpt lat="43.01926" lon="-0.13182">
        <ele>717.6</ele>
        <time>2022-10-22T07:27:58Z</time>
      </trkpt>
      <trkpt lat="43.01924" lon="-0.13182">
        <ele>718</ele>
        <time>2022-10-22T07:27:59Z</time>
      </trkpt>
      <trkpt lat="43.01922" lon="-0.13184">
        <ele>718.6</ele>
        <time>2022-10-22T07:28:01Z</time>
      </trkpt>
      <trkpt lat="43.01918" lon="-0.13188">
        <ele>719.2</ele>
        <time>2022-10-22T07:28:04Z</time>
      </trkpt>
      <trkpt lat="43.01917" lon="-0.13191">
        <ele>720</ele>
        <time>2022-10-22T07:28:06Z</time>
      </trkpt>
      <trkpt lat="43.01913" lon="-0.13201">
        <ele>721.2</ele>
        <time>2022-10-22T07:28:12Z</time>
      </trkpt>
      <trkpt lat="43.01911" lon="-0.13205">
        <ele>721.4</ele>
        <time>2022-10-22T07:28:14Z</time>
      </trkpt>
      <trkpt lat="43.01905" lon="-0.13217">
        <ele>722.4</ele>
        <time>2022-10-22T07:28:21Z</time>
      </trkpt>
      <trkpt lat="43.01904" lon="-0.13218">
        <ele>722.4</ele>
        <time>2022-10-22T07:28:22Z</time>
      </trkpt>
      <trkpt lat="43.01898" lon="-0.1322">
        <ele>723.4</ele>
        <time>2022-10-22T07:28:26Z</time>
      </trkpt>
      <trkpt lat="43.01895" lon="-0.13219">
        <ele>724</ele>
        <time>2022-10-22T07:28:28Z</time>
      </trkpt>
      <trkpt lat="43.01891" lon="-0.13215">
        <ele>724.4</ele>
        <time>2022-10-22T07:28:31Z</time>
      </trkpt>
      <trkpt lat="43.01887" lon="-0.13209">
        <ele>725</ele>
        <time>2022-10-22T07:28:35Z</time>
      </trkpt>
      <trkpt lat="43.01879" lon="-0.13201">
        <ele>725.6</ele>
        <time>2022-10-22T07:28:40Z</time>
      </trkpt>
      <trkpt lat="43.01873" lon="-0.13196">
        <ele>725.8</ele>
        <time>2022-10-22T07:28:44Z</time>
      </trkpt>
      <trkpt lat="43.01859" lon="-0.13178">
        <ele>726.2</ele>
        <time>2022-10-22T07:28:52Z</time>
      </trkpt>
      <trkpt lat="43.01853" lon="-0.13151">
        <ele>725.8</ele>
        <time>2022-10-22T07:28:58Z</time>
      </trkpt>
      <trkpt lat="43.01846" lon="-0.13114">
        <ele>724.6</ele>
        <time>2022-10-22T07:29:04Z</time>
      </trkpt>
      <trkpt lat="43.01844" lon="-0.13108">
        <ele>724</ele>
        <time>2022-10-22T07:29:05Z</time>
      </trkpt>
      <trkpt lat="43.01838" lon="-0.131">
        <ele>722.4</ele>
        <time>2022-10-22T07:29:07Z</time>
      </trkpt>
      <trkpt lat="43.01836" lon="-0.13096">
        <ele>722</ele>
        <time>2022-10-22T07:29:08Z</time>
      </trkpt>
      <trkpt lat="43.01832" lon="-0.13093">
        <ele>721.2</ele>
        <time>2022-10-22T07:29:09Z</time>
      </trkpt>
      <trkpt lat="43.01825" lon="-0.13084">
        <ele>720.8</ele>
        <time>2022-10-22T07:29:11Z</time>
      </trkpt>
      <trkpt lat="43.01814" lon="-0.13073">
        <ele>720.4</ele>
        <time>2022-10-22T07:29:13Z</time>
      </trkpt>
      <trkpt lat="43.01801" lon="-0.13061">
        <ele>720</ele>
        <time>2022-10-22T07:29:15Z</time>
      </trkpt>
      <trkpt lat="43.01794" lon="-0.13056">
        <ele>719.6</ele>
        <time>2022-10-22T07:29:16Z</time>
      </trkpt>
      <trkpt lat="43.01787" lon="-0.1305">
        <ele>719.4</ele>
        <time>2022-10-22T07:29:17Z</time>
      </trkpt>
      <trkpt lat="43.01782" lon="-0.13035">
        <ele>718.8</ele>
        <time>2022-10-22T07:29:19Z</time>
      </trkpt>
      <trkpt lat="43.01779" lon="-0.13021">
        <ele>717.8</ele>
        <time>2022-10-22T07:29:21Z</time>
      </trkpt>
      <trkpt lat="43.01778" lon="-0.13016">
        <ele>716.8</ele>
        <time>2022-10-22T07:29:22Z</time>
      </trkpt>
      <trkpt lat="43.01775" lon="-0.1301">
        <ele>716.6</ele>
        <time>2022-10-22T07:29:24Z</time>
      </trkpt>
      <trkpt lat="43.01772" lon="-0.13006">
        <ele>716.4</ele>
        <time>2022-10-22T07:29:26Z</time>
      </trkpt>
      <trkpt lat="43.01767" lon="-0.12988">
        <ele>717.2</ele>
        <time>2022-10-22T07:29:33Z</time>
      </trkpt>
      <trkpt lat="43.01765" lon="-0.12983">
        <ele>717.6</ele>
        <time>2022-10-22T07:29:35Z</time>
      </trkpt>
      <trkpt lat="43.01763" lon="-0.12978">
        <ele>718</ele>
        <time>2022-10-22T07:29:37Z</time>
      </trkpt>
      <trkpt lat="43.01762" lon="-0.12972">
        <ele>718.4</ele>
        <time>2022-10-22T07:29:39Z</time>
      </trkpt>
      <trkpt lat="43.01759" lon="-0.12963">
        <ele>718.6</ele>
        <time>2022-10-22T07:29:43Z</time>
      </trkpt>
      <trkpt lat="43.01756" lon="-0.12958">
        <ele>719</ele>
        <time>2022-10-22T07:29:45Z</time>
      </trkpt>
      <trkpt lat="43.01755" lon="-0.1295">
        <ele>719.6</ele>
        <time>2022-10-22T07:29:48Z</time>
      </trkpt>
      <trkpt lat="43.01754" lon="-0.12946">
        <ele>719.8</ele>
        <time>2022-10-22T07:29:49Z</time>
      </trkpt>
      <trkpt lat="43.01754" lon="-0.12944">
        <ele>720</ele>
        <time>2022-10-22T07:29:50Z</time>
      </trkpt>
      <trkpt lat="43.01752" lon="-0.1294">
        <ele>720.4</ele>
        <time>2022-10-22T07:29:52Z</time>
      </trkpt>
      <trkpt lat="43.0175" lon="-0.12935">
        <ele>721</ele>
        <time>2022-10-22T07:29:54Z</time>
      </trkpt>
      <trkpt lat="43.01749" lon="-0.12932">
        <ele>721.2</ele>
        <time>2022-10-22T07:29:55Z</time>
      </trkpt>
      <trkpt lat="43.01744" lon="-0.12924">
        <ele>722.2</ele>
        <time>2022-10-22T07:29:59Z</time>
      </trkpt>
      <trkpt lat="43.01743" lon="-0.12919">
        <ele>723.6</ele>
        <time>2022-10-22T07:30:02Z</time>
      </trkpt>
      <trkpt lat="43.01742" lon="-0.12917">
        <ele>723.8</ele>
        <time>2022-10-22T07:30:03Z</time>
      </trkpt>
      <trkpt lat="43.01734" lon="-0.12907">
        <ele>724.4</ele>
        <time>2022-10-22T07:30:09Z</time>
      </trkpt>
      <trkpt lat="43.01731" lon="-0.12902">
        <ele>724.6</ele>
        <time>2022-10-22T07:30:12Z</time>
      </trkpt>
      <trkpt lat="43.01722" lon="-0.12882">
        <ele>725.6</ele>
        <time>2022-10-22T07:30:19Z</time>
      </trkpt>
      <trkpt lat="43.0172" lon="-0.12876">
        <ele>725.8</ele>
        <time>2022-10-22T07:30:21Z</time>
      </trkpt>
      <trkpt lat="43.01712" lon="-0.12859">
        <ele>726</ele>
        <time>2022-10-22T07:30:28Z</time>
      </trkpt>
      <trkpt lat="43.01703" lon="-0.12846">
        <ele>726.4</ele>
        <time>2022-10-22T07:30:34Z</time>
      </trkpt>
      <trkpt lat="43.01701" lon="-0.12843">
        <ele>726.6</ele>
        <time>2022-10-22T07:30:35Z</time>
      </trkpt>
      <trkpt lat="43.01691" lon="-0.12829">
        <ele>727.4</ele>
        <time>2022-10-22T07:30:41Z</time>
      </trkpt>
      <trkpt lat="43.0169" lon="-0.12825">
        <ele>727.6</ele>
        <time>2022-10-22T07:30:42Z</time>
      </trkpt>
      <trkpt lat="43.01687" lon="-0.1281">
        <ele>728.4</ele>
        <time>2022-10-22T07:30:48Z</time>
      </trkpt>
      <trkpt lat="43.01686" lon="-0.12808">
        <ele>728.6</ele>
        <time>2022-10-22T07:30:49Z</time>
      </trkpt>
      <trkpt lat="43.01683" lon="-0.12802">
        <ele>728.8</ele>
        <time>2022-10-22T07:30:52Z</time>
      </trkpt>
      <trkpt lat="43.01679" lon="-0.12801">
        <ele>729</ele>
        <time>2022-10-22T07:30:54Z</time>
      </trkpt>
      <trkpt lat="43.01678" lon="-0.12801">
        <ele>729.2</ele>
        <time>2022-10-22T07:30:55Z</time>
      </trkpt>
      <trkpt lat="43.01677" lon="-0.12805">
        <ele>729.6</ele>
        <time>2022-10-22T07:30:57Z</time>
      </trkpt>
      <trkpt lat="43.01677" lon="-0.12808">
        <ele>729.6</ele>
        <time>2022-10-22T07:30:58Z</time>
      </trkpt>
      <trkpt lat="43.0168" lon="-0.12823">
        <ele>730.8</ele>
        <time>2022-10-22T07:31:04Z</time>
      </trkpt>
      <trkpt lat="43.01679" lon="-0.12834">
        <ele>731.8</ele>
        <time>2022-10-22T07:31:08Z</time>
      </trkpt>
      <trkpt lat="43.01679" lon="-0.12842">
        <ele>732</ele>
        <time>2022-10-22T07:31:11Z</time>
      </trkpt>
      <trkpt lat="43.0168" lon="-0.1285">
        <ele>732.6</ele>
        <time>2022-10-22T07:31:14Z</time>
      </trkpt>
      <trkpt lat="43.01682" lon="-0.12867">
        <ele>733.6</ele>
        <time>2022-10-22T07:31:20Z</time>
      </trkpt>
      <trkpt lat="43.01682" lon="-0.1287">
        <ele>733.8</ele>
        <time>2022-10-22T07:31:21Z</time>
      </trkpt>
      <trkpt lat="43.01682" lon="-0.12883">
        <ele>735.2</ele>
        <time>2022-10-22T07:31:26Z</time>
      </trkpt>
      <trkpt lat="43.01683" lon="-0.12888">
        <ele>735.6</ele>
        <time>2022-10-22T07:31:28Z</time>
      </trkpt>
      <trkpt lat="43.01685" lon="-0.12898">
        <ele>736.2</ele>
        <time>2022-10-22T07:31:32Z</time>
      </trkpt>
      <trkpt lat="43.01687" lon="-0.12904">
        <ele>736.8</ele>
        <time>2022-10-22T07:31:35Z</time>
      </trkpt>
      <trkpt lat="43.01688" lon="-0.1291">
        <ele>737.2</ele>
        <time>2022-10-22T07:31:38Z</time>
      </trkpt>
      <trkpt lat="43.0169" lon="-0.12918">
        <ele>738.4</ele>
        <time>2022-10-22T07:31:42Z</time>
      </trkpt>
      <trkpt lat="43.0169" lon="-0.1292">
        <ele>738.6</ele>
        <time>2022-10-22T07:31:43Z</time>
      </trkpt>
      <trkpt lat="43.01692" lon="-0.12927">
        <ele>739.6</ele>
        <time>2022-10-22T07:31:46Z</time>
      </trkpt>
      <trkpt lat="43.01695" lon="-0.12936">
        <ele>740.6</ele>
        <time>2022-10-22T07:31:50Z</time>
      </trkpt>
      <trkpt lat="43.01696" lon="-0.12941">
        <ele>740.8</ele>
        <time>2022-10-22T07:31:52Z</time>
      </trkpt>
      <trkpt lat="43.01697" lon="-0.12948">
        <ele>741.6</ele>
        <time>2022-10-22T07:31:55Z</time>
      </trkpt>
      <trkpt lat="43.017" lon="-0.12958">
        <ele>742.6</ele>
        <time>2022-10-22T07:32:00Z</time>
      </trkpt>
      <trkpt lat="43.01702" lon="-0.12963">
        <ele>743.8</ele>
        <time>2022-10-22T07:32:03Z</time>
      </trkpt>
      <trkpt lat="43.01704" lon="-0.12972">
        <ele>745</ele>
        <time>2022-10-22T07:32:07Z</time>
      </trkpt>
      <trkpt lat="43.01705" lon="-0.12978">
        <ele>745.6</ele>
        <time>2022-10-22T07:32:10Z</time>
      </trkpt>
      <trkpt lat="43.01705" lon="-0.1298">
        <ele>746</ele>
        <time>2022-10-22T07:32:11Z</time>
      </trkpt>
      <trkpt lat="43.01709" lon="-0.12992">
        <ele>747.2</ele>
        <time>2022-10-22T07:32:17Z</time>
      </trkpt>
      <trkpt lat="43.0171" lon="-0.13">
        <ele>748</ele>
        <time>2022-10-22T07:32:21Z</time>
      </trkpt>
      <trkpt lat="43.01711" lon="-0.13003">
        <ele>748.2</ele>
        <time>2022-10-22T07:32:22Z</time>
      </trkpt>
      <trkpt lat="43.01712" lon="-0.13016">
        <ele>749.4</ele>
        <time>2022-10-22T07:32:28Z</time>
      </trkpt>
      <trkpt lat="43.01713" lon="-0.13018">
        <ele>749.6</ele>
        <time>2022-10-22T07:32:29Z</time>
      </trkpt>
      <trkpt lat="43.01713" lon="-0.13027">
        <ele>750.8</ele>
        <time>2022-10-22T07:32:33Z</time>
      </trkpt>
      <trkpt lat="43.01715" lon="-0.13035">
        <ele>751.4</ele>
        <time>2022-10-22T07:32:37Z</time>
      </trkpt>
      <trkpt lat="43.01715" lon="-0.13039">
        <ele>751.8</ele>
        <time>2022-10-22T07:32:39Z</time>
      </trkpt>
      <trkpt lat="43.01715" lon="-0.13052">
        <ele>752.8</ele>
        <time>2022-10-22T07:32:45Z</time>
      </trkpt>
      <trkpt lat="43.01716" lon="-0.13057">
        <ele>753.2</ele>
        <time>2022-10-22T07:32:47Z</time>
      </trkpt>
      <trkpt lat="43.01716" lon="-0.13067">
        <ele>754</ele>
        <time>2022-10-22T07:32:51Z</time>
      </trkpt>
      <trkpt lat="43.01716" lon="-0.13079">
        <ele>754.8</ele>
        <time>2022-10-22T07:32:56Z</time>
      </trkpt>
      <trkpt lat="43.01716" lon="-0.13087">
        <ele>755.2</ele>
        <time>2022-10-22T07:32:59Z</time>
      </trkpt>
      <trkpt lat="43.01717" lon="-0.13105">
        <ele>756.2</ele>
        <time>2022-10-22T07:33:07Z</time>
      </trkpt>
      <trkpt lat="43.01717" lon="-0.13121">
        <ele>757.4</ele>
        <time>2022-10-22T07:33:14Z</time>
      </trkpt>
      <trkpt lat="43.01717" lon="-0.13124">
        <ele>757.6</ele>
        <time>2022-10-22T07:33:15Z</time>
      </trkpt>
      <trkpt lat="43.0172" lon="-0.13141">
        <ele>758.2</ele>
        <time>2022-10-22T07:33:22Z</time>
      </trkpt>
      <trkpt lat="43.01721" lon="-0.13144">
        <ele>758.6</ele>
        <time>2022-10-22T07:33:23Z</time>
      </trkpt>
      <trkpt lat="43.01723" lon="-0.1316">
        <ele>759.2</ele>
        <time>2022-10-22T07:33:28Z</time>
      </trkpt>
      <trkpt lat="43.01725" lon="-0.13171">
        <ele>760</ele>
        <time>2022-10-22T07:33:32Z</time>
      </trkpt>
      <trkpt lat="43.01728" lon="-0.1318">
        <ele>760.4</ele>
        <time>2022-10-22T07:33:34Z</time>
      </trkpt>
      <trkpt lat="43.01731" lon="-0.13194">
        <ele>760.6</ele>
        <time>2022-10-22T07:33:38Z</time>
      </trkpt>
      <trkpt lat="43.01735" lon="-0.13211">
        <ele>761</ele>
        <time>2022-10-22T07:33:43Z</time>
      </trkpt>
      <trkpt lat="43.01737" lon="-0.13215">
        <ele>761.2</ele>
        <time>2022-10-22T07:33:44Z</time>
      </trkpt>
      <trkpt lat="43.01744" lon="-0.13226">
        <ele>761.4</ele>
        <time>2022-10-22T07:33:48Z</time>
      </trkpt>
      <trkpt lat="43.01755" lon="-0.13245">
        <ele>762.2</ele>
        <time>2022-10-22T07:33:56Z</time>
      </trkpt>
      <trkpt lat="43.01756" lon="-0.13247">
        <ele>762.2</ele>
        <time>2022-10-22T07:33:57Z</time>
      </trkpt>
      <trkpt lat="43.01767" lon="-0.1327">
        <ele>763.2</ele>
        <time>2022-10-22T07:34:05Z</time>
      </trkpt>
      <trkpt lat="43.01768" lon="-0.13272">
        <ele>763.2</ele>
        <time>2022-10-22T07:34:06Z</time>
      </trkpt>
      <trkpt lat="43.01778" lon="-0.13296">
        <ele>764.2</ele>
        <time>2022-10-22T07:34:14Z</time>
      </trkpt>
      <trkpt lat="43.01779" lon="-0.13299">
        <ele>764.4</ele>
        <time>2022-10-22T07:34:15Z</time>
      </trkpt>
      <trkpt lat="43.01791" lon="-0.13329">
        <ele>765.4</ele>
        <time>2022-10-22T07:34:24Z</time>
      </trkpt>
      <trkpt lat="43.01799" lon="-0.13351">
        <ele>766.2</ele>
        <time>2022-10-22T07:34:31Z</time>
      </trkpt>
      <trkpt lat="43.01803" lon="-0.13361">
        <ele>766.6</ele>
        <time>2022-10-22T07:34:34Z</time>
      </trkpt>
      <trkpt lat="43.01811" lon="-0.1338">
        <ele>767</ele>
        <time>2022-10-22T07:34:40Z</time>
      </trkpt>
      <trkpt lat="43.01815" lon="-0.13389">
        <ele>767.4</ele>
        <time>2022-10-22T07:34:43Z</time>
      </trkpt>
      <trkpt lat="43.01824" lon="-0.13408">
        <ele>768.6</ele>
        <time>2022-10-22T07:34:50Z</time>
      </trkpt>
      <trkpt lat="43.01834" lon="-0.13426">
        <ele>769.6</ele>
        <time>2022-10-22T07:34:57Z</time>
      </trkpt>
      <trkpt lat="43.01837" lon="-0.13432">
        <ele>770</ele>
        <time>2022-10-22T07:34:59Z</time>
      </trkpt>
      <trkpt lat="43.01843" lon="-0.13443">
        <ele>770.6</ele>
        <time>2022-10-22T07:35:03Z</time>
      </trkpt>
      <trkpt lat="43.0185" lon="-0.13456">
        <ele>771.4</ele>
        <time>2022-10-22T07:35:08Z</time>
      </trkpt>
      <trkpt lat="43.01853" lon="-0.13462">
        <ele>771.8</ele>
        <time>2022-10-22T07:35:10Z</time>
      </trkpt>
      <trkpt lat="43.01861" lon="-0.13479">
        <ele>772.8</ele>
        <time>2022-10-22T07:35:16Z</time>
      </trkpt>
      <trkpt lat="43.01862" lon="-0.13481">
        <ele>773</ele>
        <time>2022-10-22T07:35:17Z</time>
      </trkpt>
      <trkpt lat="43.01866" lon="-0.13492">
        <ele>773.8</ele>
        <time>2022-10-22T07:35:21Z</time>
      </trkpt>
      <trkpt lat="43.01872" lon="-0.13505">
        <ele>775</ele>
        <time>2022-10-22T07:35:26Z</time>
      </trkpt>
      <trkpt lat="43.01878" lon="-0.13515">
        <ele>776</ele>
        <time>2022-10-22T07:35:30Z</time>
      </trkpt>
      <trkpt lat="43.01885" lon="-0.13526">
        <ele>777.2</ele>
        <time>2022-10-22T07:35:35Z</time>
      </trkpt>
      <trkpt lat="43.01891" lon="-0.13534">
        <ele>778.4</ele>
        <time>2022-10-22T07:35:39Z</time>
      </trkpt>
      <trkpt lat="43.01894" lon="-0.13537">
        <ele>779</ele>
        <time>2022-10-22T07:35:41Z</time>
      </trkpt>
      <trkpt lat="43.01899" lon="-0.13541">
        <ele>779.6</ele>
        <time>2022-10-22T07:35:44Z</time>
      </trkpt>
      <trkpt lat="43.01905" lon="-0.13548">
        <ele>780.6</ele>
        <time>2022-10-22T07:35:48Z</time>
      </trkpt>
      <trkpt lat="43.01911" lon="-0.13556">
        <ele>781.4</ele>
        <time>2022-10-22T07:35:52Z</time>
      </trkpt>
      <trkpt lat="43.01914" lon="-0.1356">
        <ele>781.6</ele>
        <time>2022-10-22T07:35:54Z</time>
      </trkpt>
      <trkpt lat="43.01921" lon="-0.13569">
        <ele>782.8</ele>
        <time>2022-10-22T07:35:59Z</time>
      </trkpt>
      <trkpt lat="43.01922" lon="-0.13572">
        <ele>783</ele>
        <time>2022-10-22T07:36:00Z</time>
      </trkpt>
      <trkpt lat="43.01924" lon="-0.13579">
        <ele>784</ele>
        <time>2022-10-22T07:36:03Z</time>
      </trkpt>
      <trkpt lat="43.01929" lon="-0.13593">
        <ele>785</ele>
        <time>2022-10-22T07:36:08Z</time>
      </trkpt>
      <trkpt lat="43.0193" lon="-0.13595">
        <ele>785</ele>
        <time>2022-10-22T07:36:09Z</time>
      </trkpt>
      <trkpt lat="43.01933" lon="-0.13607">
        <ele>786.6</ele>
        <time>2022-10-22T07:36:13Z</time>
      </trkpt>
      <trkpt lat="43.01934" lon="-0.1361">
        <ele>786.8</ele>
        <time>2022-10-22T07:36:14Z</time>
      </trkpt>
      <trkpt lat="43.01934" lon="-0.13622">
        <ele>787.6</ele>
        <time>2022-10-22T07:36:18Z</time>
      </trkpt>
      <trkpt lat="43.01935" lon="-0.13628">
        <ele>788.2</ele>
        <time>2022-10-22T07:36:21Z</time>
      </trkpt>
      <trkpt lat="43.01935" lon="-0.13633">
        <ele>788.8</ele>
        <time>2022-10-22T07:36:23Z</time>
      </trkpt>
      <trkpt lat="43.01935" lon="-0.13641">
        <ele>789.8</ele>
        <time>2022-10-22T07:36:27Z</time>
      </trkpt>
      <trkpt lat="43.01933" lon="-0.13646">
        <ele>790.4</ele>
        <time>2022-10-22T07:36:29Z</time>
      </trkpt>
      <trkpt lat="43.0193" lon="-0.13653">
        <ele>791</ele>
        <time>2022-10-22T07:36:32Z</time>
      </trkpt>
      <trkpt lat="43.01922" lon="-0.13668">
        <ele>792</ele>
        <time>2022-10-22T07:36:38Z</time>
      </trkpt>
      <trkpt lat="43.01912" lon="-0.13683">
        <ele>793</ele>
        <time>2022-10-22T07:36:45Z</time>
      </trkpt>
      <trkpt lat="43.01907" lon="-0.13688">
        <ele>793.4</ele>
        <time>2022-10-22T07:36:47Z</time>
      </trkpt>
      <trkpt lat="43.01888" lon="-0.137">
        <ele>793.8</ele>
        <time>2022-10-22T07:36:55Z</time>
      </trkpt>
      <trkpt lat="43.01871" lon="-0.13708">
        <ele>794.2</ele>
        <time>2022-10-22T07:37:02Z</time>
      </trkpt>
      <trkpt lat="43.01865" lon="-0.1371">
        <ele>794.2</ele>
        <time>2022-10-22T07:37:04Z</time>
      </trkpt>
      <trkpt lat="43.01846" lon="-0.13712">
        <ele>794.8</ele>
        <time>2022-10-22T07:37:12Z</time>
      </trkpt>
      <trkpt lat="43.01837" lon="-0.13712">
        <ele>795.2</ele>
        <time>2022-10-22T07:37:16Z</time>
      </trkpt>
      <trkpt lat="43.01826" lon="-0.13713">
        <ele>796.2</ele>
        <time>2022-10-22T07:37:21Z</time>
      </trkpt>
      <trkpt lat="43.01815" lon="-0.13711">
        <ele>797.4</ele>
        <time>2022-10-22T07:37:26Z</time>
      </trkpt>
      <trkpt lat="43.01804" lon="-0.13708">
        <ele>798.4</ele>
        <time>2022-10-22T07:37:31Z</time>
      </trkpt>
      <trkpt lat="43.01793" lon="-0.137">
        <ele>799.6</ele>
        <time>2022-10-22T07:37:37Z</time>
      </trkpt>
      <trkpt lat="43.01788" lon="-0.13695">
        <ele>800.4</ele>
        <time>2022-10-22T07:37:40Z</time>
      </trkpt>
      <trkpt lat="43.01784" lon="-0.13691">
        <ele>801</ele>
        <time>2022-10-22T07:37:42Z</time>
      </trkpt>
      <trkpt lat="43.01777" lon="-0.13683">
        <ele>801.8</ele>
        <time>2022-10-22T07:37:47Z</time>
      </trkpt>
      <trkpt lat="43.01775" lon="-0.13681">
        <ele>802.2</ele>
        <time>2022-10-22T07:37:48Z</time>
      </trkpt>
      <trkpt lat="43.01769" lon="-0.13676">
        <ele>802.8</ele>
        <time>2022-10-22T07:37:52Z</time>
      </trkpt>
      <trkpt lat="43.01757" lon="-0.13668">
        <ele>804.2</ele>
        <time>2022-10-22T07:37:58Z</time>
      </trkpt>
      <trkpt lat="43.0175" lon="-0.13663">
        <ele>804.8</ele>
        <time>2022-10-22T07:38:02Z</time>
      </trkpt>
      <trkpt lat="43.01749" lon="-0.13661">
        <ele>805.2</ele>
        <time>2022-10-22T07:38:03Z</time>
      </trkpt>
      <trkpt lat="43.01741" lon="-0.13657">
        <ele>806.2</ele>
        <time>2022-10-22T07:38:07Z</time>
      </trkpt>
      <trkpt lat="43.01739" lon="-0.13656">
        <ele>806.2</ele>
        <time>2022-10-22T07:38:08Z</time>
      </trkpt>
      <trkpt lat="43.01733" lon="-0.13654">
        <ele>807.2</ele>
        <time>2022-10-22T07:38:11Z</time>
      </trkpt>
      <trkpt lat="43.01726" lon="-0.13655">
        <ele>808.2</ele>
        <time>2022-10-22T07:38:15Z</time>
      </trkpt>
      <trkpt lat="43.01724" lon="-0.13655">
        <ele>808.4</ele>
        <time>2022-10-22T07:38:16Z</time>
      </trkpt>
      <trkpt lat="43.01716" lon="-0.13659">
        <ele>809.2</ele>
        <time>2022-10-22T07:38:21Z</time>
      </trkpt>
      <trkpt lat="43.01714" lon="-0.1366">
        <ele>809.4</ele>
        <time>2022-10-22T07:38:22Z</time>
      </trkpt>
      <trkpt lat="43.01708" lon="-0.13666">
        <ele>810.4</ele>
        <time>2022-10-22T07:38:26Z</time>
      </trkpt>
      <trkpt lat="43.01703" lon="-0.13673">
        <ele>811.6</ele>
        <time>2022-10-22T07:38:30Z</time>
      </trkpt>
      <trkpt lat="43.01698" lon="-0.13684">
        <ele>812.6</ele>
        <time>2022-10-22T07:38:35Z</time>
      </trkpt>
      <trkpt lat="43.01697" lon="-0.13686">
        <ele>813</ele>
        <time>2022-10-22T07:38:36Z</time>
      </trkpt>
      <trkpt lat="43.01695" lon="-0.13694">
        <ele>813.8</ele>
        <time>2022-10-22T07:38:39Z</time>
      </trkpt>
      <trkpt lat="43.01691" lon="-0.13709">
        <ele>814.8</ele>
        <time>2022-10-22T07:38:44Z</time>
      </trkpt>
      <trkpt lat="43.0169" lon="-0.13712">
        <ele>815</ele>
        <time>2022-10-22T07:38:45Z</time>
      </trkpt>
      <trkpt lat="43.01686" lon="-0.13726">
        <ele>815.6</ele>
        <time>2022-10-22T07:38:50Z</time>
      </trkpt>
      <trkpt lat="43.01684" lon="-0.13734">
        <ele>816.2</ele>
        <time>2022-10-22T07:38:53Z</time>
      </trkpt>
      <trkpt lat="43.01683" lon="-0.13739">
        <ele>816.8</ele>
        <time>2022-10-22T07:38:55Z</time>
      </trkpt>
      <trkpt lat="43.01681" lon="-0.13747">
        <ele>817.2</ele>
        <time>2022-10-22T07:38:58Z</time>
      </trkpt>
      <trkpt lat="43.01678" lon="-0.13758">
        <ele>817.8</ele>
        <time>2022-10-22T07:39:02Z</time>
      </trkpt>
      <trkpt lat="43.01676" lon="-0.13769">
        <ele>818.6</ele>
        <time>2022-10-22T07:39:06Z</time>
      </trkpt>
      <trkpt lat="43.01675" lon="-0.13775">
        <ele>819</ele>
        <time>2022-10-22T07:39:08Z</time>
      </trkpt>
      <trkpt lat="43.01673" lon="-0.1379">
        <ele>820</ele>
        <time>2022-10-22T07:39:13Z</time>
      </trkpt>
      <trkpt lat="43.01672" lon="-0.13795">
        <ele>820.2</ele>
        <time>2022-10-22T07:39:15Z</time>
      </trkpt>
      <trkpt lat="43.01672" lon="-0.13805">
        <ele>821.2</ele>
        <time>2022-10-22T07:39:19Z</time>
      </trkpt>
      <trkpt lat="43.01671" lon="-0.13814">
        <ele>822</ele>
        <time>2022-10-22T07:39:22Z</time>
      </trkpt>
      <trkpt lat="43.01671" lon="-0.13817">
        <ele>822.4</ele>
        <time>2022-10-22T07:39:23Z</time>
      </trkpt>
      <trkpt lat="43.01672" lon="-0.13832">
        <ele>823.6</ele>
        <time>2022-10-22T07:39:29Z</time>
      </trkpt>
      <trkpt lat="43.01672" lon="-0.1384">
        <ele>824</ele>
        <time>2022-10-22T07:39:32Z</time>
      </trkpt>
      <trkpt lat="43.0167" lon="-0.13846">
        <ele>824.6</ele>
        <time>2022-10-22T07:39:34Z</time>
      </trkpt>
      <trkpt lat="43.0167" lon="-0.13859">
        <ele>825.8</ele>
        <time>2022-10-22T07:39:39Z</time>
      </trkpt>
      <trkpt lat="43.0167" lon="-0.13872">
        <ele>827.2</ele>
        <time>2022-10-22T07:39:44Z</time>
      </trkpt>
      <trkpt lat="43.01669" lon="-0.13885">
        <ele>828.2</ele>
        <time>2022-10-22T07:39:49Z</time>
      </trkpt>
      <trkpt lat="43.01671" lon="-0.13897">
        <ele>829.6</ele>
        <time>2022-10-22T07:39:54Z</time>
      </trkpt>
      <trkpt lat="43.01672" lon="-0.13908">
        <ele>830.6</ele>
        <time>2022-10-22T07:39:58Z</time>
      </trkpt>
      <trkpt lat="43.01673" lon="-0.13917">
        <ele>831.2</ele>
        <time>2022-10-22T07:40:02Z</time>
      </trkpt>
      <trkpt lat="43.01674" lon="-0.13923">
        <ele>831.6</ele>
        <time>2022-10-22T07:40:04Z</time>
      </trkpt>
      <trkpt lat="43.01674" lon="-0.13934">
        <ele>832.6</ele>
        <time>2022-10-22T07:40:08Z</time>
      </trkpt>
      <trkpt lat="43.01675" lon="-0.13946">
        <ele>833.8</ele>
        <time>2022-10-22T07:40:13Z</time>
      </trkpt>
      <trkpt lat="43.01675" lon="-0.1396">
        <ele>835</ele>
        <time>2022-10-22T07:40:19Z</time>
      </trkpt>
      <trkpt lat="43.01675" lon="-0.13966">
        <ele>835.2</ele>
        <time>2022-10-22T07:40:21Z</time>
      </trkpt>
      <trkpt lat="43.01674" lon="-0.13974">
        <ele>836.2</ele>
        <time>2022-10-22T07:40:25Z</time>
      </trkpt>
      <trkpt lat="43.01673" lon="-0.13984">
        <ele>837.2</ele>
        <time>2022-10-22T07:40:29Z</time>
      </trkpt>
      <trkpt lat="43.01672" lon="-0.1399">
        <ele>838</ele>
        <time>2022-10-22T07:40:32Z</time>
      </trkpt>
      <trkpt lat="43.01672" lon="-0.13995">
        <ele>838.4</ele>
        <time>2022-10-22T07:40:34Z</time>
      </trkpt>
      <trkpt lat="43.0167" lon="-0.1401">
        <ele>839.6</ele>
        <time>2022-10-22T07:40:40Z</time>
      </trkpt>
      <trkpt lat="43.01669" lon="-0.14012">
        <ele>839.8</ele>
        <time>2022-10-22T07:40:41Z</time>
      </trkpt>
      <trkpt lat="43.01666" lon="-0.14026">
        <ele>840.8</ele>
        <time>2022-10-22T07:40:47Z</time>
      </trkpt>
      <trkpt lat="43.01665" lon="-0.14034">
        <ele>841.6</ele>
        <time>2022-10-22T07:40:50Z</time>
      </trkpt>
      <trkpt lat="43.01664" lon="-0.14036">
        <ele>842</ele>
        <time>2022-10-22T07:40:51Z</time>
      </trkpt>
      <trkpt lat="43.01662" lon="-0.14054">
        <ele>842.8</ele>
        <time>2022-10-22T07:40:58Z</time>
      </trkpt>
      <trkpt lat="43.01661" lon="-0.14059">
        <ele>843.2</ele>
        <time>2022-10-22T07:41:00Z</time>
      </trkpt>
      <trkpt lat="43.01659" lon="-0.14073">
        <ele>844</ele>
        <time>2022-10-22T07:41:05Z</time>
      </trkpt>
      <trkpt lat="43.01656" lon="-0.14086">
        <ele>845.2</ele>
        <time>2022-10-22T07:41:10Z</time>
      </trkpt>
      <trkpt lat="43.01655" lon="-0.14094">
        <ele>845.6</ele>
        <time>2022-10-22T07:41:13Z</time>
      </trkpt>
      <trkpt lat="43.01652" lon="-0.14104">
        <ele>846.2</ele>
        <time>2022-10-22T07:41:17Z</time>
      </trkpt>
      <trkpt lat="43.0165" lon="-0.14114">
        <ele>846.8</ele>
        <time>2022-10-22T07:41:21Z</time>
      </trkpt>
      <trkpt lat="43.01648" lon="-0.1412">
        <ele>847.2</ele>
        <time>2022-10-22T07:41:23Z</time>
      </trkpt>
      <trkpt lat="43.01645" lon="-0.14138">
        <ele>848.2</ele>
        <time>2022-10-22T07:41:29Z</time>
      </trkpt>
      <trkpt lat="43.01645" lon="-0.14141">
        <ele>848.2</ele>
        <time>2022-10-22T07:41:30Z</time>
      </trkpt>
      <trkpt lat="43.01642" lon="-0.14167">
        <ele>849.2</ele>
        <time>2022-10-22T07:41:38Z</time>
      </trkpt>
      <trkpt lat="43.01642" lon="-0.1417">
        <ele>849.4</ele>
        <time>2022-10-22T07:41:39Z</time>
      </trkpt>
      <trkpt lat="43.01642" lon="-0.14199">
        <ele>850</ele>
        <time>2022-10-22T07:41:47Z</time>
      </trkpt>
      <trkpt lat="43.01642" lon="-0.14203">
        <ele>850.2</ele>
        <time>2022-10-22T07:41:48Z</time>
      </trkpt>
      <trkpt lat="43.0164" lon="-0.14224">
        <ele>851</ele>
        <time>2022-10-22T07:41:54Z</time>
      </trkpt>
      <trkpt lat="43.01639" lon="-0.14231">
        <ele>851.2</ele>
        <time>2022-10-22T07:41:56Z</time>
      </trkpt>
      <trkpt lat="43.01634" lon="-0.14262">
        <ele>852.2</ele>
        <time>2022-10-22T07:42:04Z</time>
      </trkpt>
      <trkpt lat="43.01632" lon="-0.14276">
        <ele>852.4</ele>
        <time>2022-10-22T07:42:08Z</time>
      </trkpt>
      <trkpt lat="43.01631" lon="-0.14286">
        <ele>852.6</ele>
        <time>2022-10-22T07:42:11Z</time>
      </trkpt>
      <trkpt lat="43.01629" lon="-0.14289">
        <ele>852.6</ele>
        <time>2022-10-22T07:42:12Z</time>
      </trkpt>
      <trkpt lat="43.01625" lon="-0.14291">
        <ele>852.8</ele>
        <time>2022-10-22T07:42:14Z</time>
      </trkpt>
      <trkpt lat="43.01616" lon="-0.14283">
        <ele>853.2</ele>
        <time>2022-10-22T07:42:18Z</time>
      </trkpt>
      <trkpt lat="43.01616" lon="-0.1428">
        <ele>853.4</ele>
        <time>2022-10-22T07:42:19Z</time>
      </trkpt>
      <trkpt lat="43.01619" lon="-0.14267">
        <ele>853.4</ele>
        <time>2022-10-22T07:42:23Z</time>
      </trkpt>
      <trkpt lat="43.01621" lon="-0.14244">
        <ele>854.2</ele>
        <time>2022-10-22T07:42:30Z</time>
      </trkpt>
      <trkpt lat="43.01622" lon="-0.14238">
        <ele>854.4</ele>
        <time>2022-10-22T07:42:32Z</time>
      </trkpt>
      <trkpt lat="43.01623" lon="-0.14229">
        <ele>854.6</ele>
        <time>2022-10-22T07:42:35Z</time>
      </trkpt>
      <trkpt lat="43.01622" lon="-0.14213">
        <ele>855.4</ele>
        <time>2022-10-22T07:42:40Z</time>
      </trkpt>
      <trkpt lat="43.01621" lon="-0.14209">
        <ele>855.4</ele>
        <time>2022-10-22T07:42:41Z</time>
      </trkpt>
      <trkpt lat="43.01618" lon="-0.14196">
        <ele>855.8</ele>
        <time>2022-10-22T07:42:45Z</time>
      </trkpt>
      <trkpt lat="43.01617" lon="-0.14194">
        <ele>855.8</ele>
        <time>2022-10-22T07:42:46Z</time>
      </trkpt>
      <trkpt lat="43.01613" lon="-0.14188">
        <ele>856.4</ele>
        <time>2022-10-22T07:42:49Z</time>
      </trkpt>
      <trkpt lat="43.01611" lon="-0.14179">
        <ele>856.6</ele>
        <time>2022-10-22T07:42:52Z</time>
      </trkpt>
      <trkpt lat="43.01606" lon="-0.1416">
        <ele>857.2</ele>
        <time>2022-10-22T07:42:58Z</time>
      </trkpt>
      <trkpt lat="43.01604" lon="-0.14149">
        <ele>857.4</ele>
        <time>2022-10-22T07:43:01Z</time>
      </trkpt>
      <trkpt lat="43.016" lon="-0.14128">
        <ele>857.6</ele>
        <time>2022-10-22T07:43:07Z</time>
      </trkpt>
      <trkpt lat="43.01596" lon="-0.14112">
        <ele>857.4</ele>
        <time>2022-10-22T07:43:13Z</time>
      </trkpt>
      <trkpt lat="43.01595" lon="-0.1411">
        <ele>857.2</ele>
        <time>2022-10-22T07:43:18Z</time>
      </trkpt>
      <trkpt lat="43.01595" lon="-0.1411">
        <ele>856.6</ele>
        <time>2022-10-22T07:43:50Z</time>
      </trkpt>
      <trkpt lat="43.01595" lon="-0.1411">
        <ele>856.6</ele>
        <time>2022-10-22T07:44:47Z</time>
      </trkpt>
      <trkpt lat="43.01591" lon="-0.14103">
        <ele>856.6</ele>
        <time>2022-10-22T07:44:50Z</time>
      </trkpt>
      <trkpt lat="43.01578" lon="-0.14077">
        <ele>856</ele>
        <time>2022-10-22T07:44:56Z</time>
      </trkpt>
      <trkpt lat="43.01573" lon="-0.14068">
        <ele>856</ele>
        <time>2022-10-22T07:44:58Z</time>
      </trkpt>
      <trkpt lat="43.01565" lon="-0.14054">
        <ele>855.6</ele>
        <time>2022-10-22T07:45:01Z</time>
      </trkpt>
      <trkpt lat="43.0156" lon="-0.14044">
        <ele>855.4</ele>
        <time>2022-10-22T07:45:03Z</time>
      </trkpt>
      <trkpt lat="43.01558" lon="-0.14039">
        <ele>855.4</ele>
        <time>2022-10-22T07:45:04Z</time>
      </trkpt>
      <trkpt lat="43.01553" lon="-0.14022">
        <ele>855.2</ele>
        <time>2022-10-22T07:45:07Z</time>
      </trkpt>
      <trkpt lat="43.01552" lon="-0.14017">
        <ele>855.2</ele>
        <time>2022-10-22T07:45:08Z</time>
      </trkpt>
      <trkpt lat="43.01544" lon="-0.13989">
        <ele>854.8</ele>
        <time>2022-10-22T07:45:14Z</time>
      </trkpt>
      <trkpt lat="43.01543" lon="-0.13984">
        <ele>854.8</ele>
        <time>2022-10-22T07:45:15Z</time>
      </trkpt>
      <trkpt lat="43.01541" lon="-0.13963">
        <ele>854.2</ele>
        <time>2022-10-22T07:45:20Z</time>
      </trkpt>
      <trkpt lat="43.01539" lon="-0.13944">
        <ele>853.8</ele>
        <time>2022-10-22T07:45:24Z</time>
      </trkpt>
      <trkpt lat="43.01537" lon="-0.13929">
        <ele>853.8</ele>
        <time>2022-10-22T07:45:27Z</time>
      </trkpt>
      <trkpt lat="43.01531" lon="-0.13899">
        <ele>853.4</ele>
        <time>2022-10-22T07:45:33Z</time>
      </trkpt>
      <trkpt lat="43.01522" lon="-0.13876">
        <ele>852.8</ele>
        <time>2022-10-22T07:45:38Z</time>
      </trkpt>
      <trkpt lat="43.01519" lon="-0.13875">
        <ele>852.4</ele>
        <time>2022-10-22T07:45:39Z</time>
      </trkpt>
      <trkpt lat="43.01512" lon="-0.13875">
        <ele>852</ele>
        <time>2022-10-22T07:45:42Z</time>
      </trkpt>
      <trkpt lat="43.01504" lon="-0.1388">
        <ele>852</ele>
        <time>2022-10-22T07:45:47Z</time>
      </trkpt>
      <trkpt lat="43.01495" lon="-0.13888">
        <ele>853.6</ele>
        <time>2022-10-22T07:45:54Z</time>
      </trkpt>
      <trkpt lat="43.01493" lon="-0.13888">
        <ele>853.8</ele>
        <time>2022-10-22T07:45:55Z</time>
      </trkpt>
      <trkpt lat="43.01486" lon="-0.13895">
        <ele>855</ele>
        <time>2022-10-22T07:46:00Z</time>
      </trkpt>
      <trkpt lat="43.01485" lon="-0.13896">
        <ele>855.2</ele>
        <time>2022-10-22T07:46:01Z</time>
      </trkpt>
      <trkpt lat="43.01481" lon="-0.13899">
        <ele>856.4</ele>
        <time>2022-10-22T07:46:04Z</time>
      </trkpt>
      <trkpt lat="43.01477" lon="-0.13903">
        <ele>857.2</ele>
        <time>2022-10-22T07:46:08Z</time>
      </trkpt>
      <trkpt lat="43.01476" lon="-0.13904">
        <ele>857.4</ele>
        <time>2022-10-22T07:46:09Z</time>
      </trkpt>
      <trkpt lat="43.01471" lon="-0.13907">
        <ele>858.6</ele>
        <time>2022-10-22T07:46:13Z</time>
      </trkpt>
      <trkpt lat="43.01469" lon="-0.13908">
        <ele>859</ele>
        <time>2022-10-22T07:46:15Z</time>
      </trkpt>
      <trkpt lat="43.01465" lon="-0.1391">
        <ele>859.8</ele>
        <time>2022-10-22T07:46:19Z</time>
      </trkpt>
      <trkpt lat="43.01464" lon="-0.13911">
        <ele>860</ele>
        <time>2022-10-22T07:46:20Z</time>
      </trkpt>
      <trkpt lat="43.01461" lon="-0.13913">
        <ele>860.4</ele>
        <time>2022-10-22T07:46:22Z</time>
      </trkpt>
      <trkpt lat="43.01457" lon="-0.13916">
        <ele>861.2</ele>
        <time>2022-10-22T07:46:25Z</time>
      </trkpt>
      <trkpt lat="43.01455" lon="-0.13917">
        <ele>861.6</ele>
        <time>2022-10-22T07:46:27Z</time>
      </trkpt>
      <trkpt lat="43.01453" lon="-0.13919">
        <ele>861.8</ele>
        <time>2022-10-22T07:46:28Z</time>
      </trkpt>
      <trkpt lat="43.01452" lon="-0.1392">
        <ele>862</ele>
        <time>2022-10-22T07:46:29Z</time>
      </trkpt>
      <trkpt lat="43.0145" lon="-0.13921">
        <ele>862.2</ele>
        <time>2022-10-22T07:46:30Z</time>
      </trkpt>
      <trkpt lat="43.01445" lon="-0.13927">
        <ele>863.2</ele>
        <time>2022-10-22T07:46:34Z</time>
      </trkpt>
      <trkpt lat="43.01444" lon="-0.13928">
        <ele>863.4</ele>
        <time>2022-10-22T07:46:35Z</time>
      </trkpt>
      <trkpt lat="43.01438" lon="-0.13933">
        <ele>864.4</ele>
        <time>2022-10-22T07:46:38Z</time>
      </trkpt>
      <trkpt lat="43.01433" lon="-0.13941">
        <ele>865.6</ele>
        <time>2022-10-22T07:46:44Z</time>
      </trkpt>
      <trkpt lat="43.0143" lon="-0.13948">
        <ele>866.2</ele>
        <time>2022-10-22T07:46:47Z</time>
      </trkpt>
      <trkpt lat="43.01429" lon="-0.13951">
        <ele>866.6</ele>
        <time>2022-10-22T07:46:49Z</time>
      </trkpt>
      <trkpt lat="43.01428" lon="-0.13953">
        <ele>867</ele>
        <time>2022-10-22T07:46:50Z</time>
      </trkpt>
      <trkpt lat="43.01428" lon="-0.13957">
        <ele>867.4</ele>
        <time>2022-10-22T07:46:53Z</time>
      </trkpt>
      <trkpt lat="43.01426" lon="-0.13963">
        <ele>868.2</ele>
        <time>2022-10-22T07:46:57Z</time>
      </trkpt>
      <trkpt lat="43.01426" lon="-0.13966">
        <ele>868.4</ele>
        <time>2022-10-22T07:46:59Z</time>
      </trkpt>
      <trkpt lat="43.01425" lon="-0.1398">
        <ele>869.2</ele>
        <time>2022-10-22T07:47:06Z</time>
      </trkpt>
      <trkpt lat="43.01424" lon="-0.13986">
        <ele>869.6</ele>
        <time>2022-10-22T07:47:09Z</time>
      </trkpt>
      <trkpt lat="43.01424" lon="-0.13988">
        <ele>869.8</ele>
        <time>2022-10-22T07:47:10Z</time>
      </trkpt>
      <trkpt lat="43.01424" lon="-0.13997">
        <ele>870.2</ele>
        <time>2022-10-22T07:47:14Z</time>
      </trkpt>
      <trkpt lat="43.01423" lon="-0.13999">
        <ele>870.2</ele>
        <time>2022-10-22T07:47:15Z</time>
      </trkpt>
      <trkpt lat="43.01422" lon="-0.14011">
        <ele>870.6</ele>
        <time>2022-10-22T07:47:20Z</time>
      </trkpt>
      <trkpt lat="43.01423" lon="-0.14016">
        <ele>870.8</ele>
        <time>2022-10-22T07:47:22Z</time>
      </trkpt>
      <trkpt lat="43.01424" lon="-0.14024">
        <ele>871.2</ele>
        <time>2022-10-22T07:47:25Z</time>
      </trkpt>
      <trkpt lat="43.01425" lon="-0.1403">
        <ele>871.4</ele>
        <time>2022-10-22T07:47:28Z</time>
      </trkpt>
      <trkpt lat="43.01424" lon="-0.1404">
        <ele>872.2</ele>
        <time>2022-10-22T07:47:32Z</time>
      </trkpt>
      <trkpt lat="43.01425" lon="-0.14044">
        <ele>872.2</ele>
        <time>2022-10-22T07:47:33Z</time>
      </trkpt>
      <trkpt lat="43.01425" lon="-0.14047">
        <ele>872.6</ele>
        <time>2022-10-22T07:47:34Z</time>
      </trkpt>
      <trkpt lat="43.01427" lon="-0.1405">
        <ele>872.8</ele>
        <time>2022-10-22T07:47:36Z</time>
      </trkpt>
      <trkpt lat="43.01427" lon="-0.14059">
        <ele>873.6</ele>
        <time>2022-10-22T07:47:40Z</time>
      </trkpt>
      <trkpt lat="43.01427" lon="-0.14062">
        <ele>873.6</ele>
        <time>2022-10-22T07:47:41Z</time>
      </trkpt>
      <trkpt lat="43.01427" lon="-0.14072">
        <ele>874.4</ele>
        <time>2022-10-22T07:47:45Z</time>
      </trkpt>
      <trkpt lat="43.01427" lon="-0.14074">
        <ele>874.4</ele>
        <time>2022-10-22T07:47:46Z</time>
      </trkpt>
      <trkpt lat="43.01428" lon="-0.14076">
        <ele>874.4</ele>
        <time>2022-10-22T07:47:47Z</time>
      </trkpt>
      <trkpt lat="43.01428" lon="-0.1408">
        <ele>874.6</ele>
        <time>2022-10-22T07:47:49Z</time>
      </trkpt>
      <trkpt lat="43.01427" lon="-0.14088">
        <ele>875.2</ele>
        <time>2022-10-22T07:47:52Z</time>
      </trkpt>
      <trkpt lat="43.01424" lon="-0.14101">
        <ele>875.6</ele>
        <time>2022-10-22T07:47:58Z</time>
      </trkpt>
      <trkpt lat="43.01423" lon="-0.14105">
        <ele>875.8</ele>
        <time>2022-10-22T07:48:00Z</time>
      </trkpt>
      <trkpt lat="43.0142" lon="-0.1412">
        <ele>876</ele>
        <time>2022-10-22T07:48:06Z</time>
      </trkpt>
      <trkpt lat="43.01419" lon="-0.14124">
        <ele>876.4</ele>
        <time>2022-10-22T07:48:08Z</time>
      </trkpt>
      <trkpt lat="43.01418" lon="-0.14127">
        <ele>877</ele>
        <time>2022-10-22T07:48:10Z</time>
      </trkpt>
      <trkpt lat="43.01418" lon="-0.14129">
        <ele>877.2</ele>
        <time>2022-10-22T07:48:12Z</time>
      </trkpt>
      <trkpt lat="43.01418" lon="-0.1413">
        <ele>877.6</ele>
        <time>2022-10-22T07:48:13Z</time>
      </trkpt>
      <trkpt lat="43.01413" lon="-0.14138">
        <ele>878.6</ele>
        <time>2022-10-22T07:48:17Z</time>
      </trkpt>
      <trkpt lat="43.01413" lon="-0.14139">
        <ele>879</ele>
        <time>2022-10-22T07:48:18Z</time>
      </trkpt>
      <trkpt lat="43.01411" lon="-0.14143">
        <ele>879.8</ele>
        <time>2022-10-22T07:48:20Z</time>
      </trkpt>
      <trkpt lat="43.01411" lon="-0.14151">
        <ele>880</ele>
        <time>2022-10-22T07:48:23Z</time>
      </trkpt>
      <trkpt lat="43.01411" lon="-0.14154">
        <ele>880.2</ele>
        <time>2022-10-22T07:48:24Z</time>
      </trkpt>
      <trkpt lat="43.01413" lon="-0.1416">
        <ele>880.8</ele>
        <time>2022-10-22T07:48:26Z</time>
      </trkpt>
      <trkpt lat="43.01415" lon="-0.14174">
        <ele>881.8</ele>
        <time>2022-10-22T07:48:32Z</time>
      </trkpt>
      <trkpt lat="43.01414" lon="-0.14176">
        <ele>881.8</ele>
        <time>2022-10-22T07:48:33Z</time>
      </trkpt>
      <trkpt lat="43.01413" lon="-0.14188">
        <ele>883</ele>
        <time>2022-10-22T07:48:39Z</time>
      </trkpt>
      <trkpt lat="43.01413" lon="-0.14191">
        <ele>883.2</ele>
        <time>2022-10-22T07:48:41Z</time>
      </trkpt>
      <trkpt lat="43.01411" lon="-0.14202">
        <ele>883.8</ele>
        <time>2022-10-22T07:48:46Z</time>
      </trkpt>
      <trkpt lat="43.0141" lon="-0.14204">
        <ele>884</ele>
        <time>2022-10-22T07:48:47Z</time>
      </trkpt>
      <trkpt lat="43.01411" lon="-0.14208">
        <ele>884.2</ele>
        <time>2022-10-22T07:48:49Z</time>
      </trkpt>
      <trkpt lat="43.0141" lon="-0.14214">
        <ele>884.6</ele>
        <time>2022-10-22T07:48:52Z</time>
      </trkpt>
      <trkpt lat="43.01409" lon="-0.1422">
        <ele>885.2</ele>
        <time>2022-10-22T07:48:55Z</time>
      </trkpt>
      <trkpt lat="43.01407" lon="-0.14229">
        <ele>885.2</ele>
        <time>2022-10-22T07:48:58Z</time>
      </trkpt>
      <trkpt lat="43.01403" lon="-0.14243">
        <ele>885.6</ele>
        <time>2022-10-22T07:49:03Z</time>
      </trkpt>
      <trkpt lat="43.01399" lon="-0.14258">
        <ele>885.8</ele>
        <time>2022-10-22T07:49:09Z</time>
      </trkpt>
      <trkpt lat="43.01396" lon="-0.14271">
        <ele>886</ele>
        <time>2022-10-22T07:49:13Z</time>
      </trkpt>
      <trkpt lat="43.01396" lon="-0.14275">
        <ele>886</ele>
        <time>2022-10-22T07:49:14Z</time>
      </trkpt>
      <trkpt lat="43.01395" lon="-0.14287">
        <ele>885.8</ele>
        <time>2022-10-22T07:49:17Z</time>
      </trkpt>
      <trkpt lat="43.01395" lon="-0.14298">
        <ele>885.8</ele>
        <time>2022-10-22T07:49:20Z</time>
      </trkpt>
      <trkpt lat="43.01395" lon="-0.1431">
        <ele>885.8</ele>
        <time>2022-10-22T07:49:24Z</time>
      </trkpt>
      <trkpt lat="43.01391" lon="-0.14319">
        <ele>886</ele>
        <time>2022-10-22T07:49:27Z</time>
      </trkpt>
      <trkpt lat="43.01388" lon="-0.14327">
        <ele>886.4</ele>
        <time>2022-10-22T07:49:30Z</time>
      </trkpt>
      <trkpt lat="43.01386" lon="-0.14333">
        <ele>886.8</ele>
        <time>2022-10-22T07:49:33Z</time>
      </trkpt>
      <trkpt lat="43.01385" lon="-0.1434">
        <ele>887.2</ele>
        <time>2022-10-22T07:49:36Z</time>
      </trkpt>
      <trkpt lat="43.01379" lon="-0.14352">
        <ele>888</ele>
        <time>2022-10-22T07:49:40Z</time>
      </trkpt>
      <trkpt lat="43.01379" lon="-0.14358">
        <ele>888.4</ele>
        <time>2022-10-22T07:49:43Z</time>
      </trkpt>
      <trkpt lat="43.01376" lon="-0.14363">
        <ele>888.6</ele>
        <time>2022-10-22T07:49:45Z</time>
      </trkpt>
      <trkpt lat="43.01374" lon="-0.14365">
        <ele>888.8</ele>
        <time>2022-10-22T07:49:46Z</time>
      </trkpt>
      <trkpt lat="43.0137" lon="-0.14374">
        <ele>889.4</ele>
        <time>2022-10-22T07:49:49Z</time>
      </trkpt>
      <trkpt lat="43.0137" lon="-0.14376">
        <ele>889.6</ele>
        <time>2022-10-22T07:49:50Z</time>
      </trkpt>
      <trkpt lat="43.01368" lon="-0.14383">
        <ele>889.8</ele>
        <time>2022-10-22T07:49:52Z</time>
      </trkpt>
      <trkpt lat="43.01364" lon="-0.14395">
        <ele>890.8</ele>
        <time>2022-10-22T07:49:58Z</time>
      </trkpt>
      <trkpt lat="43.01363" lon="-0.14401">
        <ele>891</ele>
        <time>2022-10-22T07:50:00Z</time>
      </trkpt>
      <trkpt lat="43.01359" lon="-0.1441">
        <ele>891.6</ele>
        <time>2022-10-22T07:50:05Z</time>
      </trkpt>
      <trkpt lat="43.01356" lon="-0.14418">
        <ele>891.8</ele>
        <time>2022-10-22T07:50:07Z</time>
      </trkpt>
      <trkpt lat="43.01352" lon="-0.14428">
        <ele>892.6</ele>
        <time>2022-10-22T07:50:11Z</time>
      </trkpt>
      <trkpt lat="43.01352" lon="-0.14432">
        <ele>892.8</ele>
        <time>2022-10-22T07:50:12Z</time>
      </trkpt>
      <trkpt lat="43.01351" lon="-0.14434">
        <ele>893</ele>
        <time>2022-10-22T07:50:13Z</time>
      </trkpt>
      <trkpt lat="43.0135" lon="-0.14443">
        <ele>893.6</ele>
        <time>2022-10-22T07:50:16Z</time>
      </trkpt>
      <trkpt lat="43.01349" lon="-0.14454">
        <ele>894.4</ele>
        <time>2022-10-22T07:50:20Z</time>
      </trkpt>
      <trkpt lat="43.01348" lon="-0.14459">
        <ele>894.6</ele>
        <time>2022-10-22T07:50:23Z</time>
      </trkpt>
      <trkpt lat="43.01344" lon="-0.14463">
        <ele>895.6</ele>
        <time>2022-10-22T07:50:26Z</time>
      </trkpt>
      <trkpt lat="43.01343" lon="-0.14466">
        <ele>896.2</ele>
        <time>2022-10-22T07:50:28Z</time>
      </trkpt>
      <trkpt lat="43.01342" lon="-0.14468">
        <ele>896.4</ele>
        <time>2022-10-22T07:50:30Z</time>
      </trkpt>
      <trkpt lat="43.01342" lon="-0.1447">
        <ele>896.4</ele>
        <time>2022-10-22T07:50:31Z</time>
      </trkpt>
      <trkpt lat="43.01342" lon="-0.14472">
        <ele>896.6</ele>
        <time>2022-10-22T07:50:32Z</time>
      </trkpt>
      <trkpt lat="43.01339" lon="-0.1448">
        <ele>897.4</ele>
        <time>2022-10-22T07:50:36Z</time>
      </trkpt>
      <trkpt lat="43.01337" lon="-0.14482">
        <ele>897.4</ele>
        <time>2022-10-22T07:50:37Z</time>
      </trkpt>
      <trkpt lat="43.01337" lon="-0.14484">
        <ele>897.8</ele>
        <time>2022-10-22T07:50:38Z</time>
      </trkpt>
      <trkpt lat="43.01336" lon="-0.1449">
        <ele>898.4</ele>
        <time>2022-10-22T07:50:41Z</time>
      </trkpt>
      <trkpt lat="43.01335" lon="-0.14496">
        <ele>898.8</ele>
        <time>2022-10-22T07:50:43Z</time>
      </trkpt>
      <trkpt lat="43.01333" lon="-0.14503">
        <ele>899.2</ele>
        <time>2022-10-22T07:50:46Z</time>
      </trkpt>
      <trkpt lat="43.01331" lon="-0.14512">
        <ele>899.8</ele>
        <time>2022-10-22T07:50:49Z</time>
      </trkpt>
      <trkpt lat="43.01328" lon="-0.14523">
        <ele>900.8</ele>
        <time>2022-10-22T07:50:53Z</time>
      </trkpt>
      <trkpt lat="43.01327" lon="-0.14525">
        <ele>901</ele>
        <time>2022-10-22T07:50:54Z</time>
      </trkpt>
      <trkpt lat="43.01327" lon="-0.14526">
        <ele>901.2</ele>
        <time>2022-10-22T07:50:55Z</time>
      </trkpt>
      <trkpt lat="43.01326" lon="-0.14527">
        <ele>901.6</ele>
        <time>2022-10-22T07:50:56Z</time>
      </trkpt>
      <trkpt lat="43.01326" lon="-0.1453">
        <ele>902</ele>
        <time>2022-10-22T07:50:57Z</time>
      </trkpt>
      <trkpt lat="43.01323" lon="-0.14537">
        <ele>902.4</ele>
        <time>2022-10-22T07:50:59Z</time>
      </trkpt>
      <trkpt lat="43.01316" lon="-0.14549">
        <ele>903.2</ele>
        <time>2022-10-22T07:51:04Z</time>
      </trkpt>
      <trkpt lat="43.01313" lon="-0.14554">
        <ele>903.6</ele>
        <time>2022-10-22T07:51:06Z</time>
      </trkpt>
      <trkpt lat="43.01311" lon="-0.14559">
        <ele>904</ele>
        <time>2022-10-22T07:51:08Z</time>
      </trkpt>
      <trkpt lat="43.01305" lon="-0.14569">
        <ele>905.4</ele>
        <time>2022-10-22T07:51:14Z</time>
      </trkpt>
      <trkpt lat="43.01303" lon="-0.1457">
        <ele>906</ele>
        <time>2022-10-22T07:51:16Z</time>
      </trkpt>
      <trkpt lat="43.013" lon="-0.14577">
        <ele>906.2</ele>
        <time>2022-10-22T07:51:18Z</time>
      </trkpt>
      <trkpt lat="43.01298" lon="-0.14579">
        <ele>906.4</ele>
        <time>2022-10-22T07:51:19Z</time>
      </trkpt>
      <trkpt lat="43.01292" lon="-0.14589">
        <ele>907</ele>
        <time>2022-10-22T07:51:23Z</time>
      </trkpt>
      <trkpt lat="43.01291" lon="-0.14594">
        <ele>907.8</ele>
        <time>2022-10-22T07:51:27Z</time>
      </trkpt>
      <trkpt lat="43.01288" lon="-0.14601">
        <ele>908.6</ele>
        <time>2022-10-22T07:51:31Z</time>
      </trkpt>
      <trkpt lat="43.01287" lon="-0.14603">
        <ele>908.6</ele>
        <time>2022-10-22T07:51:32Z</time>
      </trkpt>
      <trkpt lat="43.01286" lon="-0.14605">
        <ele>908.8</ele>
        <time>2022-10-22T07:51:33Z</time>
      </trkpt>
      <trkpt lat="43.01282" lon="-0.14611">
        <ele>909.2</ele>
        <time>2022-10-22T07:51:37Z</time>
      </trkpt>
      <trkpt lat="43.01281" lon="-0.14616">
        <ele>909.6</ele>
        <time>2022-10-22T07:51:39Z</time>
      </trkpt>
      <trkpt lat="43.01277" lon="-0.1463">
        <ele>910.6</ele>
        <time>2022-10-22T07:51:47Z</time>
      </trkpt>
      <trkpt lat="43.01277" lon="-0.14633">
        <ele>911</ele>
        <time>2022-10-22T07:51:48Z</time>
      </trkpt>
      <trkpt lat="43.01274" lon="-0.14637">
        <ele>911.6</ele>
        <time>2022-10-22T07:51:51Z</time>
      </trkpt>
      <trkpt lat="43.0127" lon="-0.14648">
        <ele>912.6</ele>
        <time>2022-10-22T07:51:56Z</time>
      </trkpt>
      <trkpt lat="43.01265" lon="-0.14654">
        <ele>913.6</ele>
        <time>2022-10-22T07:52:00Z</time>
      </trkpt>
      <trkpt lat="43.01263" lon="-0.14656">
        <ele>914</ele>
        <time>2022-10-22T07:52:01Z</time>
      </trkpt>
      <trkpt lat="43.01263" lon="-0.14657">
        <ele>914</ele>
        <time>2022-10-22T07:52:02Z</time>
      </trkpt>
      <trkpt lat="43.0126" lon="-0.14667">
        <ele>914.8</ele>
        <time>2022-10-22T07:52:09Z</time>
      </trkpt>
      <trkpt lat="43.01259" lon="-0.14666">
        <ele>914.8</ele>
        <time>2022-10-22T07:52:19Z</time>
      </trkpt>
      <trkpt lat="43.01259" lon="-0.14666">
        <ele>915</ele>
        <time>2022-10-22T07:52:21Z</time>
      </trkpt>
      <trkpt lat="43.01259" lon="-0.14666">
        <ele>915.2</ele>
        <time>2022-10-22T07:52:29Z</time>
      </trkpt>
      <trkpt lat="43.01259" lon="-0.14666">
        <ele>915.4</ele>
        <time>2022-10-22T07:52:35Z</time>
      </trkpt>
      <trkpt lat="43.01258" lon="-0.14667">
        <ele>915.6</ele>
        <time>2022-10-22T07:52:43Z</time>
      </trkpt>
      <trkpt lat="43.01254" lon="-0.1467">
        <ele>915.8</ele>
        <time>2022-10-22T07:52:45Z</time>
      </trkpt>
      <trkpt lat="43.01244" lon="-0.14685">
        <ele>916.6</ele>
        <time>2022-10-22T07:52:51Z</time>
      </trkpt>
      <trkpt lat="43.01243" lon="-0.14694">
        <ele>917.2</ele>
        <time>2022-10-22T07:52:56Z</time>
      </trkpt>
      <trkpt lat="43.01242" lon="-0.147">
        <ele>917.4</ele>
        <time>2022-10-22T07:52:58Z</time>
      </trkpt>
      <trkpt lat="43.01241" lon="-0.14703">
        <ele>917.6</ele>
        <time>2022-10-22T07:52:59Z</time>
      </trkpt>
      <trkpt lat="43.0124" lon="-0.14708">
        <ele>918</ele>
        <time>2022-10-22T07:53:01Z</time>
      </trkpt>
      <trkpt lat="43.01238" lon="-0.14717">
        <ele>918.4</ele>
        <time>2022-10-22T07:53:04Z</time>
      </trkpt>
      <trkpt lat="43.01236" lon="-0.14723">
        <ele>919</ele>
        <time>2022-10-22T07:53:06Z</time>
      </trkpt>
      <trkpt lat="43.01235" lon="-0.14732">
        <ele>919.6</ele>
        <time>2022-10-22T07:53:10Z</time>
      </trkpt>
      <trkpt lat="43.01236" lon="-0.14738">
        <ele>919.8</ele>
        <time>2022-10-22T07:53:13Z</time>
      </trkpt>
      <trkpt lat="43.01229" lon="-0.14753">
        <ele>920.8</ele>
        <time>2022-10-22T07:53:18Z</time>
      </trkpt>
      <trkpt lat="43.01228" lon="-0.14756">
        <ele>921</ele>
        <time>2022-10-22T07:53:19Z</time>
      </trkpt>
      <trkpt lat="43.01229" lon="-0.14778">
        <ele>922.2</ele>
        <time>2022-10-22T07:53:27Z</time>
      </trkpt>
      <trkpt lat="43.01229" lon="-0.14786">
        <ele>922.4</ele>
        <time>2022-10-22T07:53:29Z</time>
      </trkpt>
      <trkpt lat="43.01228" lon="-0.14793">
        <ele>922.6</ele>
        <time>2022-10-22T07:53:31Z</time>
      </trkpt>
      <trkpt lat="43.01229" lon="-0.14798">
        <ele>923.2</ele>
        <time>2022-10-22T07:53:35Z</time>
      </trkpt>
      <trkpt lat="43.01229" lon="-0.14803">
        <ele>923.6</ele>
        <time>2022-10-22T07:53:38Z</time>
      </trkpt>
      <trkpt lat="43.01229" lon="-0.14814">
        <ele>924.2</ele>
        <time>2022-10-22T07:53:42Z</time>
      </trkpt>
      <trkpt lat="43.01229" lon="-0.14815">
        <ele>924.4</ele>
        <time>2022-10-22T07:53:43Z</time>
      </trkpt>
      <trkpt lat="43.01228" lon="-0.14819">
        <ele>924.6</ele>
        <time>2022-10-22T07:53:45Z</time>
      </trkpt>
      <trkpt lat="43.01227" lon="-0.14821">
        <ele>924.8</ele>
        <time>2022-10-22T07:53:46Z</time>
      </trkpt>
      <trkpt lat="43.01226" lon="-0.14834">
        <ele>925.2</ele>
        <time>2022-10-22T07:53:51Z</time>
      </trkpt>
      <trkpt lat="43.01226" lon="-0.14837">
        <ele>925.4</ele>
        <time>2022-10-22T07:53:52Z</time>
      </trkpt>
      <trkpt lat="43.01222" lon="-0.14857">
        <ele>926</ele>
        <time>2022-10-22T07:53:59Z</time>
      </trkpt>
      <trkpt lat="43.0122" lon="-0.14863">
        <ele>926.2</ele>
        <time>2022-10-22T07:54:01Z</time>
      </trkpt>
      <trkpt lat="43.01212" lon="-0.14882">
        <ele>926.6</ele>
        <time>2022-10-22T07:54:07Z</time>
      </trkpt>
      <trkpt lat="43.0121" lon="-0.14886">
        <ele>926.6</ele>
        <time>2022-10-22T07:54:08Z</time>
      </trkpt>
      <trkpt lat="43.01203" lon="-0.14899">
        <ele>926.6</ele>
        <time>2022-10-22T07:54:13Z</time>
      </trkpt>
      <trkpt lat="43.01197" lon="-0.1491">
        <ele>927</ele>
        <time>2022-10-22T07:54:17Z</time>
      </trkpt>
      <trkpt lat="43.01198" lon="-0.14913">
        <ele>927.2</ele>
        <time>2022-10-22T07:54:19Z</time>
      </trkpt>
      <trkpt lat="43.01195" lon="-0.14918">
        <ele>927.6</ele>
        <time>2022-10-22T07:54:22Z</time>
      </trkpt>
      <trkpt lat="43.01191" lon="-0.14923">
        <ele>927.6</ele>
        <time>2022-10-22T07:54:25Z</time>
      </trkpt>
      <trkpt lat="43.01187" lon="-0.14929">
        <ele>928</ele>
        <time>2022-10-22T07:54:28Z</time>
      </trkpt>
      <trkpt lat="43.01182" lon="-0.14938">
        <ele>928.6</ele>
        <time>2022-10-22T07:54:32Z</time>
      </trkpt>
      <trkpt lat="43.01174" lon="-0.14952">
        <ele>928.8</ele>
        <time>2022-10-22T07:54:38Z</time>
      </trkpt>
      <trkpt lat="43.01173" lon="-0.14954">
        <ele>929</ele>
        <time>2022-10-22T07:54:39Z</time>
      </trkpt>
      <trkpt lat="43.01171" lon="-0.14955">
        <ele>929</ele>
        <time>2022-10-22T07:54:40Z</time>
      </trkpt>
      <trkpt lat="43.01165" lon="-0.14968">
        <ele>930</ele>
        <time>2022-10-22T07:54:46Z</time>
      </trkpt>
      <trkpt lat="43.01157" lon="-0.14983">
        <ele>931</ele>
        <time>2022-10-22T07:54:51Z</time>
      </trkpt>
      <trkpt lat="43.01156" lon="-0.14986">
        <ele>931</ele>
        <time>2022-10-22T07:54:52Z</time>
      </trkpt>
      <trkpt lat="43.01152" lon="-0.14997">
        <ele>931.4</ele>
        <time>2022-10-22T07:54:55Z</time>
      </trkpt>
      <trkpt lat="43.01144" lon="-0.15009">
        <ele>931.6</ele>
        <time>2022-10-22T07:55:01Z</time>
      </trkpt>
      <trkpt lat="43.01142" lon="-0.15015">
        <ele>931.8</ele>
        <time>2022-10-22T07:55:04Z</time>
      </trkpt>
      <trkpt lat="43.01141" lon="-0.15016">
        <ele>931.8</ele>
        <time>2022-10-22T07:55:05Z</time>
      </trkpt>
      <trkpt lat="43.01139" lon="-0.15018">
        <ele>931.8</ele>
        <time>2022-10-22T07:55:06Z</time>
      </trkpt>
      <trkpt lat="43.01125" lon="-0.1504">
        <ele>931.8</ele>
        <time>2022-10-22T07:55:13Z</time>
      </trkpt>
      <trkpt lat="43.01123" lon="-0.15047">
        <ele>931.8</ele>
        <time>2022-10-22T07:55:16Z</time>
      </trkpt>
      <trkpt lat="43.01123" lon="-0.15051">
        <ele>931.8</ele>
        <time>2022-10-22T07:55:18Z</time>
      </trkpt>
      <trkpt lat="43.01121" lon="-0.15057">
        <ele>931.8</ele>
        <time>2022-10-22T07:55:20Z</time>
      </trkpt>
      <trkpt lat="43.01114" lon="-0.15062">
        <ele>931.8</ele>
        <time>2022-10-22T07:55:23Z</time>
      </trkpt>
      <trkpt lat="43.01109" lon="-0.15067">
        <ele>932.2</ele>
        <time>2022-10-22T07:55:26Z</time>
      </trkpt>
      <trkpt lat="43.01105" lon="-0.15072">
        <ele>932.6</ele>
        <time>2022-10-22T07:55:29Z</time>
      </trkpt>
      <trkpt lat="43.01103" lon="-0.15073">
        <ele>933</ele>
        <time>2022-10-22T07:55:30Z</time>
      </trkpt>
      <trkpt lat="43.01087" lon="-0.15087">
        <ele>933.4</ele>
        <time>2022-10-22T07:55:37Z</time>
      </trkpt>
      <trkpt lat="43.0108" lon="-0.15102">
        <ele>933.4</ele>
        <time>2022-10-22T07:55:42Z</time>
      </trkpt>
      <trkpt lat="43.01077" lon="-0.15105">
        <ele>933.4</ele>
        <time>2022-10-22T07:55:43Z</time>
      </trkpt>
      <trkpt lat="43.0107" lon="-0.1511">
        <ele>933.4</ele>
        <time>2022-10-22T07:55:46Z</time>
      </trkpt>
      <trkpt lat="43.01068" lon="-0.15109">
        <ele>933.4</ele>
        <time>2022-10-22T07:55:48Z</time>
      </trkpt>
      <trkpt lat="43.01066" lon="-0.1511">
        <ele>933.4</ele>
        <time>2022-10-22T07:55:49Z</time>
      </trkpt>
      <trkpt lat="43.01065" lon="-0.15112">
        <ele>933.4</ele>
        <time>2022-10-22T07:55:50Z</time>
      </trkpt>
      <trkpt lat="43.01058" lon="-0.15124">
        <ele>934.4</ele>
        <time>2022-10-22T07:55:56Z</time>
      </trkpt>
      <trkpt lat="43.01057" lon="-0.15127">
        <ele>934.6</ele>
        <time>2022-10-22T07:55:57Z</time>
      </trkpt>
      <trkpt lat="43.01049" lon="-0.15145">
        <ele>935.2</ele>
        <time>2022-10-22T07:56:04Z</time>
      </trkpt>
      <trkpt lat="43.0104" lon="-0.15161">
        <ele>935.4</ele>
        <time>2022-10-22T07:56:10Z</time>
      </trkpt>
      <trkpt lat="43.01033" lon="-0.15172">
        <ele>936</ele>
        <time>2022-10-22T07:56:14Z</time>
      </trkpt>
      <trkpt lat="43.01028" lon="-0.1518">
        <ele>936.6</ele>
        <time>2022-10-22T07:56:17Z</time>
      </trkpt>
      <trkpt lat="43.01016" lon="-0.152">
        <ele>937.2</ele>
        <time>2022-10-22T07:56:24Z</time>
      </trkpt>
      <trkpt lat="43.01009" lon="-0.15211">
        <ele>937.4</ele>
        <time>2022-10-22T07:56:28Z</time>
      </trkpt>
      <trkpt lat="43.01005" lon="-0.15224">
        <ele>937.8</ele>
        <time>2022-10-22T07:56:32Z</time>
      </trkpt>
      <trkpt lat="43.01003" lon="-0.15236">
        <ele>938.4</ele>
        <time>2022-10-22T07:56:35Z</time>
      </trkpt>
      <trkpt lat="43.01001" lon="-0.15248">
        <ele>938.8</ele>
        <time>2022-10-22T07:56:38Z</time>
      </trkpt>
      <trkpt lat="43.00992" lon="-0.15285">
        <ele>939.6</ele>
        <time>2022-10-22T07:56:46Z</time>
      </trkpt>
      <trkpt lat="43.00987" lon="-0.15309">
        <ele>940.6</ele>
        <time>2022-10-22T07:56:52Z</time>
      </trkpt>
      <trkpt lat="43.00987" lon="-0.15313">
        <ele>940.6</ele>
        <time>2022-10-22T07:56:53Z</time>
      </trkpt>
      <trkpt lat="43.00988" lon="-0.15323">
        <ele>940.8</ele>
        <time>2022-10-22T07:56:55Z</time>
      </trkpt>
      <trkpt lat="43.00988" lon="-0.15342">
        <ele>941.2</ele>
        <time>2022-10-22T07:56:59Z</time>
      </trkpt>
      <trkpt lat="43.00989" lon="-0.15348">
        <ele>941.4</ele>
        <time>2022-10-22T07:57:00Z</time>
      </trkpt>
      <trkpt lat="43.00989" lon="-0.15371">
        <ele>942.6</ele>
        <time>2022-10-22T07:57:05Z</time>
      </trkpt>
      <trkpt lat="43.00989" lon="-0.15381">
        <ele>942.8</ele>
        <time>2022-10-22T07:57:07Z</time>
      </trkpt>
      <trkpt lat="43.00988" lon="-0.15412">
        <ele>943.4</ele>
        <time>2022-10-22T07:57:14Z</time>
      </trkpt>
      <trkpt lat="43.00987" lon="-0.1542">
        <ele>943.6</ele>
        <time>2022-10-22T07:57:16Z</time>
      </trkpt>
      <trkpt lat="43.00985" lon="-0.15443">
        <ele>944.4</ele>
        <time>2022-10-22T07:57:22Z</time>
      </trkpt>
      <trkpt lat="43.00984" lon="-0.15451">
        <ele>945</ele>
        <time>2022-10-22T07:57:24Z</time>
      </trkpt>
      <trkpt lat="43.00984" lon="-0.1546">
        <ele>945.2</ele>
        <time>2022-10-22T07:57:26Z</time>
      </trkpt>
      <trkpt lat="43.00984" lon="-0.15468">
        <ele>945.4</ele>
        <time>2022-10-22T07:57:28Z</time>
      </trkpt>
      <trkpt lat="43.00987" lon="-0.15501">
        <ele>946.4</ele>
        <time>2022-10-22T07:57:35Z</time>
      </trkpt>
      <trkpt lat="43.00991" lon="-0.15534">
        <ele>947.2</ele>
        <time>2022-10-22T07:57:42Z</time>
      </trkpt>
      <trkpt lat="43.00994" lon="-0.1555">
        <ele>947.4</ele>
        <time>2022-10-22T07:57:45Z</time>
      </trkpt>
      <trkpt lat="43.00996" lon="-0.15571">
        <ele>948</ele>
        <time>2022-10-22T07:57:49Z</time>
      </trkpt>
      <trkpt lat="43.00997" lon="-0.15595">
        <ele>948.6</ele>
        <time>2022-10-22T07:57:53Z</time>
      </trkpt>
      <trkpt lat="43.00998" lon="-0.15605">
        <ele>949</ele>
        <time>2022-10-22T07:57:55Z</time>
      </trkpt>
      <trkpt lat="43.00997" lon="-0.15628">
        <ele>949.6</ele>
        <time>2022-10-22T07:58:00Z</time>
      </trkpt>
      <trkpt lat="43.00999" lon="-0.15636">
        <ele>949.8</ele>
        <time>2022-10-22T07:58:02Z</time>
      </trkpt>
      <trkpt lat="43.01" lon="-0.1565">
        <ele>950</ele>
        <time>2022-10-22T07:58:05Z</time>
      </trkpt>
      <trkpt lat="43.01002" lon="-0.15669">
        <ele>950.8</ele>
        <time>2022-10-22T07:58:10Z</time>
      </trkpt>
      <trkpt lat="43.01003" lon="-0.15677">
        <ele>951.2</ele>
        <time>2022-10-22T07:58:12Z</time>
      </trkpt>
      <trkpt lat="43.01004" lon="-0.15696">
        <ele>952</ele>
        <time>2022-10-22T07:58:16Z</time>
      </trkpt>
      <trkpt lat="43.01005" lon="-0.15701">
        <ele>952.2</ele>
        <time>2022-10-22T07:58:17Z</time>
      </trkpt>
      <trkpt lat="43.01006" lon="-0.15725">
        <ele>953.2</ele>
        <time>2022-10-22T07:58:22Z</time>
      </trkpt>
      <trkpt lat="43.01007" lon="-0.15729">
        <ele>953.4</ele>
        <time>2022-10-22T07:58:23Z</time>
      </trkpt>
      <trkpt lat="43.01014" lon="-0.15763">
        <ele>954</ele>
        <time>2022-10-22T07:58:30Z</time>
      </trkpt>
      <trkpt lat="43.01015" lon="-0.15768">
        <ele>954.2</ele>
        <time>2022-10-22T07:58:31Z</time>
      </trkpt>
      <trkpt lat="43.01015" lon="-0.15783">
        <ele>954.6</ele>
        <time>2022-10-22T07:58:34Z</time>
      </trkpt>
      <trkpt lat="43.01016" lon="-0.15789">
        <ele>954.6</ele>
        <time>2022-10-22T07:58:35Z</time>
      </trkpt>
      <trkpt lat="43.01011" lon="-0.15817">
        <ele>955.2</ele>
        <time>2022-10-22T07:58:41Z</time>
      </trkpt>
      <trkpt lat="43.01015" lon="-0.15849">
        <ele>955.6</ele>
        <time>2022-10-22T07:58:47Z</time>
      </trkpt>
      <trkpt lat="43.0102" lon="-0.15886">
        <ele>955.6</ele>
        <time>2022-10-22T07:58:54Z</time>
      </trkpt>
      <trkpt lat="43.01022" lon="-0.15916">
        <ele>956</ele>
        <time>2022-10-22T07:59:00Z</time>
      </trkpt>
      <trkpt lat="43.01018" lon="-0.15944">
        <ele>955.8</ele>
        <time>2022-10-22T07:59:06Z</time>
      </trkpt>
      <trkpt lat="43.01015" lon="-0.15949">
        <ele>955.8</ele>
        <time>2022-10-22T07:59:08Z</time>
      </trkpt>
      <trkpt lat="43.01012" lon="-0.1595">
        <ele>955.6</ele>
        <time>2022-10-22T07:59:10Z</time>
      </trkpt>
      <trkpt lat="43.0101" lon="-0.1595">
        <ele>955.6</ele>
        <time>2022-10-22T07:59:11Z</time>
      </trkpt>
      <trkpt lat="43.01008" lon="-0.15949">
        <ele>955.4</ele>
        <time>2022-10-22T07:59:13Z</time>
      </trkpt>
      <trkpt lat="43.01007" lon="-0.15948">
        <ele>955.4</ele>
        <time>2022-10-22T07:59:14Z</time>
      </trkpt>
      <trkpt lat="43.01003" lon="-0.15942">
        <ele>955.4</ele>
        <time>2022-10-22T07:59:19Z</time>
      </trkpt>
      <trkpt lat="43.01002" lon="-0.1594">
        <ele>955.4</ele>
        <time>2022-10-22T07:59:21Z</time>
      </trkpt>
      <trkpt lat="43.00995" lon="-0.15928">
        <ele>956.2</ele>
        <time>2022-10-22T07:59:26Z</time>
      </trkpt>
      <trkpt lat="43.00994" lon="-0.15925">
        <ele>956.4</ele>
        <time>2022-10-22T07:59:27Z</time>
      </trkpt>
      <trkpt lat="43.0099" lon="-0.15913">
        <ele>957.4</ele>
        <time>2022-10-22T07:59:32Z</time>
      </trkpt>
      <trkpt lat="43.00986" lon="-0.15898">
        <ele>957.8</ele>
        <time>2022-10-22T07:59:37Z</time>
      </trkpt>
      <trkpt lat="43.00984" lon="-0.1589">
        <ele>958.8</ele>
        <time>2022-10-22T07:59:40Z</time>
      </trkpt>
      <trkpt lat="43.00983" lon="-0.15881">
        <ele>959.2</ele>
        <time>2022-10-22T07:59:43Z</time>
      </trkpt>
      <trkpt lat="43.00978" lon="-0.1587">
        <ele>959.8</ele>
        <time>2022-10-22T07:59:47Z</time>
      </trkpt>
      <trkpt lat="43.00974" lon="-0.15859">
        <ele>960.6</ele>
        <time>2022-10-22T07:59:51Z</time>
      </trkpt>
      <trkpt lat="43.0097" lon="-0.1585">
        <ele>960.8</ele>
        <time>2022-10-22T07:59:54Z</time>
      </trkpt>
      <trkpt lat="43.00968" lon="-0.15838">
        <ele>961.6</ele>
        <time>2022-10-22T07:59:59Z</time>
      </trkpt>
      <trkpt lat="43.00966" lon="-0.15835">
        <ele>961.8</ele>
        <time>2022-10-22T08:00:00Z</time>
      </trkpt>
      <trkpt lat="43.00964" lon="-0.15832">
        <ele>962.2</ele>
        <time>2022-10-22T08:00:01Z</time>
      </trkpt>
      <trkpt lat="43.00959" lon="-0.15823">
        <ele>962.4</ele>
        <time>2022-10-22T08:00:05Z</time>
      </trkpt>
      <trkpt lat="43.00958" lon="-0.15819">
        <ele>963</ele>
        <time>2022-10-22T08:00:07Z</time>
      </trkpt>
      <trkpt lat="43.00954" lon="-0.15809">
        <ele>963.6</ele>
        <time>2022-10-22T08:00:11Z</time>
      </trkpt>
      <trkpt lat="43.00951" lon="-0.158">
        <ele>964</ele>
        <time>2022-10-22T08:00:14Z</time>
      </trkpt>
      <trkpt lat="43.00945" lon="-0.1579">
        <ele>964.6</ele>
        <time>2022-10-22T08:00:19Z</time>
      </trkpt>
      <trkpt lat="43.00944" lon="-0.15785">
        <ele>965</ele>
        <time>2022-10-22T08:00:21Z</time>
      </trkpt>
      <trkpt lat="43.00941" lon="-0.15777">
        <ele>965.4</ele>
        <time>2022-10-22T08:00:24Z</time>
      </trkpt>
      <trkpt lat="43.00937" lon="-0.15768">
        <ele>966.2</ele>
        <time>2022-10-22T08:00:28Z</time>
      </trkpt>
      <trkpt lat="43.00936" lon="-0.15763">
        <ele>966.6</ele>
        <time>2022-10-22T08:00:30Z</time>
      </trkpt>
      <trkpt lat="43.00932" lon="-0.15754">
        <ele>967.2</ele>
        <time>2022-10-22T08:00:34Z</time>
      </trkpt>
      <trkpt lat="43.00929" lon="-0.15747">
        <ele>968.4</ele>
        <time>2022-10-22T08:00:37Z</time>
      </trkpt>
      <trkpt lat="43.00923" lon="-0.15734">
        <ele>969.4</ele>
        <time>2022-10-22T08:00:43Z</time>
      </trkpt>
      <trkpt lat="43.0092" lon="-0.15726">
        <ele>970.2</ele>
        <time>2022-10-22T08:00:46Z</time>
      </trkpt>
      <trkpt lat="43.00919" lon="-0.15723">
        <ele>970.4</ele>
        <time>2022-10-22T08:00:47Z</time>
      </trkpt>
      <trkpt lat="43.00912" lon="-0.15707">
        <ele>971.4</ele>
        <time>2022-10-22T08:00:53Z</time>
      </trkpt>
      <trkpt lat="43.00911" lon="-0.15704">
        <ele>971.6</ele>
        <time>2022-10-22T08:00:54Z</time>
      </trkpt>
      <trkpt lat="43.00904" lon="-0.15687">
        <ele>972.6</ele>
        <time>2022-10-22T08:01:00Z</time>
      </trkpt>
      <trkpt lat="43.00903" lon="-0.15683">
        <ele>972.6</ele>
        <time>2022-10-22T08:01:01Z</time>
      </trkpt>
      <trkpt lat="43.00896" lon="-0.1567">
        <ele>973.4</ele>
        <time>2022-10-22T08:01:06Z</time>
      </trkpt>
      <trkpt lat="43.00894" lon="-0.15666">
        <ele>974</ele>
        <time>2022-10-22T08:01:08Z</time>
      </trkpt>
      <trkpt lat="43.00892" lon="-0.15662">
        <ele>974.4</ele>
        <time>2022-10-22T08:01:10Z</time>
      </trkpt>
      <trkpt lat="43.00886" lon="-0.15651">
        <ele>975.6</ele>
        <time>2022-10-22T08:01:16Z</time>
      </trkpt>
      <trkpt lat="43.00882" lon="-0.15645">
        <ele>976.6</ele>
        <time>2022-10-22T08:01:20Z</time>
      </trkpt>
      <trkpt lat="43.00873" lon="-0.15633">
        <ele>977.8</ele>
        <time>2022-10-22T08:01:26Z</time>
      </trkpt>
      <trkpt lat="43.00862" lon="-0.15616">
        <ele>978.4</ele>
        <time>2022-10-22T08:01:33Z</time>
      </trkpt>
      <trkpt lat="43.00861" lon="-0.15613">
        <ele>978.6</ele>
        <time>2022-10-22T08:01:34Z</time>
      </trkpt>
      <trkpt lat="43.00854" lon="-0.156">
        <ele>979.4</ele>
        <time>2022-10-22T08:01:40Z</time>
      </trkpt>
      <trkpt lat="43.00852" lon="-0.15595">
        <ele>979.8</ele>
        <time>2022-10-22T08:01:42Z</time>
      </trkpt>
      <trkpt lat="43.00853" lon="-0.1559">
        <ele>980.2</ele>
        <time>2022-10-22T08:01:44Z</time>
      </trkpt>
      <trkpt lat="43.00849" lon="-0.15583">
        <ele>980.6</ele>
        <time>2022-10-22T08:01:46Z</time>
      </trkpt>
      <trkpt lat="43.00847" lon="-0.15581">
        <ele>980.6</ele>
        <time>2022-10-22T08:01:47Z</time>
      </trkpt>
      <trkpt lat="43.00842" lon="-0.15575">
        <ele>981.2</ele>
        <time>2022-10-22T08:01:50Z</time>
      </trkpt>
      <trkpt lat="43.00841" lon="-0.1557">
        <ele>981.6</ele>
        <time>2022-10-22T08:01:52Z</time>
      </trkpt>
      <trkpt lat="43.0084" lon="-0.15567">
        <ele>981.8</ele>
        <time>2022-10-22T08:01:53Z</time>
      </trkpt>
      <trkpt lat="43.00832" lon="-0.15556">
        <ele>982.8</ele>
        <time>2022-10-22T08:01:59Z</time>
      </trkpt>
      <trkpt lat="43.00831" lon="-0.15553">
        <ele>983</ele>
        <time>2022-10-22T08:02:00Z</time>
      </trkpt>
      <trkpt lat="43.00826" lon="-0.15546">
        <ele>984.2</ele>
        <time>2022-10-22T08:02:04Z</time>
      </trkpt>
      <trkpt lat="43.00825" lon="-0.15544">
        <ele>984.6</ele>
        <time>2022-10-22T08:02:05Z</time>
      </trkpt>
      <trkpt lat="43.00824" lon="-0.15543">
        <ele>984.6</ele>
        <time>2022-10-22T08:02:06Z</time>
      </trkpt>
      <trkpt lat="43.00817" lon="-0.15541">
        <ele>985.4</ele>
        <time>2022-10-22T08:02:10Z</time>
      </trkpt>
      <trkpt lat="43.00816" lon="-0.15542">
        <ele>985.4</ele>
        <time>2022-10-22T08:02:11Z</time>
      </trkpt>
      <trkpt lat="43.00815" lon="-0.15544">
        <ele>985.8</ele>
        <time>2022-10-22T08:02:12Z</time>
      </trkpt>
      <trkpt lat="43.00814" lon="-0.15548">
        <ele>986.4</ele>
        <time>2022-10-22T08:02:14Z</time>
      </trkpt>
      <trkpt lat="43.00811" lon="-0.15563">
        <ele>987.6</ele>
        <time>2022-10-22T08:02:20Z</time>
      </trkpt>
      <trkpt lat="43.0081" lon="-0.15568">
        <ele>987.6</ele>
        <time>2022-10-22T08:02:22Z</time>
      </trkpt>
      <trkpt lat="43.00808" lon="-0.15576">
        <ele>988.6</ele>
        <time>2022-10-22T08:02:26Z</time>
      </trkpt>
      <trkpt lat="43.00806" lon="-0.15585">
        <ele>989.4</ele>
        <time>2022-10-22T08:02:30Z</time>
      </trkpt>
      <trkpt lat="43.00806" lon="-0.15587">
        <ele>989.8</ele>
        <time>2022-10-22T08:02:31Z</time>
      </trkpt>
      <trkpt lat="43.00802" lon="-0.15598">
        <ele>990.8</ele>
        <time>2022-10-22T08:02:36Z</time>
      </trkpt>
      <trkpt lat="43.00796" lon="-0.1561">
        <ele>991.8</ele>
        <time>2022-10-22T08:02:41Z</time>
      </trkpt>
      <trkpt lat="43.00791" lon="-0.15621">
        <ele>992.4</ele>
        <time>2022-10-22T08:02:46Z</time>
      </trkpt>
      <trkpt lat="43.00789" lon="-0.15624">
        <ele>992.8</ele>
        <time>2022-10-22T08:02:48Z</time>
      </trkpt>
      <trkpt lat="43.00788" lon="-0.15628">
        <ele>994</ele>
        <time>2022-10-22T08:02:50Z</time>
      </trkpt>
      <trkpt lat="43.00782" lon="-0.1564">
        <ele>995.2</ele>
        <time>2022-10-22T08:02:56Z</time>
      </trkpt>
      <trkpt lat="43.00781" lon="-0.15642">
        <ele>995.2</ele>
        <time>2022-10-22T08:02:57Z</time>
      </trkpt>
      <trkpt lat="43.00776" lon="-0.15654">
        <ele>996.2</ele>
        <time>2022-10-22T08:03:02Z</time>
      </trkpt>
      <trkpt lat="43.00771" lon="-0.15662">
        <ele>996.8</ele>
        <time>2022-10-22T08:03:06Z</time>
      </trkpt>
      <trkpt lat="43.00768" lon="-0.15668">
        <ele>997.2</ele>
        <time>2022-10-22T08:03:09Z</time>
      </trkpt>
      <trkpt lat="43.00766" lon="-0.15672">
        <ele>997.8</ele>
        <time>2022-10-22T08:03:11Z</time>
      </trkpt>
      <trkpt lat="43.00763" lon="-0.15675">
        <ele>998.2</ele>
        <time>2022-10-22T08:03:13Z</time>
      </trkpt>
      <trkpt lat="43.00762" lon="-0.15678">
        <ele>998.2</ele>
        <time>2022-10-22T08:03:14Z</time>
      </trkpt>
      <trkpt lat="43.00755" lon="-0.15691">
        <ele>999</ele>
        <time>2022-10-22T08:03:20Z</time>
      </trkpt>
      <trkpt lat="43.00754" lon="-0.15693">
        <ele>999.4</ele>
        <time>2022-10-22T08:03:21Z</time>
      </trkpt>
      <trkpt lat="43.00745" lon="-0.15706">
        <ele>1000.4</ele>
        <time>2022-10-22T08:03:27Z</time>
      </trkpt>
      <trkpt lat="43.00739" lon="-0.15715">
        <ele>1001.2</ele>
        <time>2022-10-22T08:03:31Z</time>
      </trkpt>
      <trkpt lat="43.00737" lon="-0.15718">
        <ele>1001.6</ele>
        <time>2022-10-22T08:03:33Z</time>
      </trkpt>
      <trkpt lat="43.00731" lon="-0.15728">
        <ele>1002.4</ele>
        <time>2022-10-22T08:03:37Z</time>
      </trkpt>
      <trkpt lat="43.0073" lon="-0.1573">
        <ele>1002.8</ele>
        <time>2022-10-22T08:03:38Z</time>
      </trkpt>
      <trkpt lat="43.00722" lon="-0.15741">
        <ele>1003.8</ele>
        <time>2022-10-22T08:03:44Z</time>
      </trkpt>
      <trkpt lat="43.00715" lon="-0.15748">
        <ele>1004.8</ele>
        <time>2022-10-22T08:03:49Z</time>
      </trkpt>
      <trkpt lat="43.00711" lon="-0.15752">
        <ele>1005.8</ele>
        <time>2022-10-22T08:03:52Z</time>
      </trkpt>
      <trkpt lat="43.00709" lon="-0.15754">
        <ele>1006</ele>
        <time>2022-10-22T08:03:53Z</time>
      </trkpt>
      <trkpt lat="43.00704" lon="-0.15762">
        <ele>1006.6</ele>
        <time>2022-10-22T08:03:57Z</time>
      </trkpt>
      <trkpt lat="43.00701" lon="-0.15765">
        <ele>1007</ele>
        <time>2022-10-22T08:03:59Z</time>
      </trkpt>
      <trkpt lat="43.007" lon="-0.15766">
        <ele>1007.2</ele>
        <time>2022-10-22T08:04:00Z</time>
      </trkpt>
      <trkpt lat="43.00693" lon="-0.15774">
        <ele>1008.2</ele>
        <time>2022-10-22T08:04:05Z</time>
      </trkpt>
      <trkpt lat="43.0069" lon="-0.15779">
        <ele>1008.6</ele>
        <time>2022-10-22T08:04:07Z</time>
      </trkpt>
      <trkpt lat="43.00683" lon="-0.15789">
        <ele>1009.2</ele>
        <time>2022-10-22T08:04:12Z</time>
      </trkpt>
      <trkpt lat="43.00682" lon="-0.15792">
        <ele>1009.4</ele>
        <time>2022-10-22T08:04:13Z</time>
      </trkpt>
      <trkpt lat="43.00671" lon="-0.15811">
        <ele>1010.4</ele>
        <time>2022-10-22T08:04:20Z</time>
      </trkpt>
      <trkpt lat="43.00661" lon="-0.15829">
        <ele>1011.2</ele>
        <time>2022-10-22T08:04:27Z</time>
      </trkpt>
      <trkpt lat="43.00658" lon="-0.15834">
        <ele>1011.4</ele>
        <time>2022-10-22T08:04:29Z</time>
      </trkpt>
      <trkpt lat="43.00648" lon="-0.15847">
        <ele>1012.4</ele>
        <time>2022-10-22T08:04:35Z</time>
      </trkpt>
      <trkpt lat="43.00644" lon="-0.15849">
        <ele>1012.6</ele>
        <time>2022-10-22T08:04:37Z</time>
      </trkpt>
      <trkpt lat="43.00635" lon="-0.1586">
        <ele>1013</ele>
        <time>2022-10-22T08:04:43Z</time>
      </trkpt>
      <trkpt lat="43.00632" lon="-0.15864">
        <ele>1013.4</ele>
        <time>2022-10-22T08:04:45Z</time>
      </trkpt>
      <trkpt lat="43.00626" lon="-0.15877">
        <ele>1014</ele>
        <time>2022-10-22T08:04:50Z</time>
      </trkpt>
      <trkpt lat="43.00625" lon="-0.15885">
        <ele>1014.4</ele>
        <time>2022-10-22T08:04:53Z</time>
      </trkpt>
      <trkpt lat="43.00622" lon="-0.159">
        <ele>1015.2</ele>
        <time>2022-10-22T08:04:58Z</time>
      </trkpt>
      <trkpt lat="43.00621" lon="-0.15909">
        <ele>1015.4</ele>
        <time>2022-10-22T08:05:01Z</time>
      </trkpt>
      <trkpt lat="43.0062" lon="-0.1592">
        <ele>1016.2</ele>
        <time>2022-10-22T08:05:05Z</time>
      </trkpt>
      <trkpt lat="43.00618" lon="-0.1593">
        <ele>1016.6</ele>
        <time>2022-10-22T08:05:08Z</time>
      </trkpt>
      <trkpt lat="43.00618" lon="-0.15941">
        <ele>1017.2</ele>
        <time>2022-10-22T08:05:12Z</time>
      </trkpt>
      <trkpt lat="43.00618" lon="-0.15951">
        <ele>1017.6</ele>
        <time>2022-10-22T08:05:15Z</time>
      </trkpt>
      <trkpt lat="43.00619" lon="-0.15966">
        <ele>1018.2</ele>
        <time>2022-10-22T08:05:20Z</time>
      </trkpt>
      <trkpt lat="43.0062" lon="-0.15974">
        <ele>1018.8</ele>
        <time>2022-10-22T08:05:23Z</time>
      </trkpt>
      <trkpt lat="43.00621" lon="-0.15983">
        <ele>1019.2</ele>
        <time>2022-10-22T08:05:26Z</time>
      </trkpt>
      <trkpt lat="43.00626" lon="-0.15996">
        <ele>1020</ele>
        <time>2022-10-22T08:05:31Z</time>
      </trkpt>
      <trkpt lat="43.00628" lon="-0.16002">
        <ele>1020.4</ele>
        <time>2022-10-22T08:05:33Z</time>
      </trkpt>
      <trkpt lat="43.00629" lon="-0.16005">
        <ele>1020.8</ele>
        <time>2022-10-22T08:05:34Z</time>
      </trkpt>
      <trkpt lat="43.00632" lon="-0.16024">
        <ele>1021.8</ele>
        <time>2022-10-22T08:05:41Z</time>
      </trkpt>
      <trkpt lat="43.00632" lon="-0.16026">
        <ele>1022</ele>
        <time>2022-10-22T08:05:42Z</time>
      </trkpt>
      <trkpt lat="43.00634" lon="-0.16044">
        <ele>1023</ele>
        <time>2022-10-22T08:05:49Z</time>
      </trkpt>
      <trkpt lat="43.00635" lon="-0.16046">
        <ele>1023.2</ele>
        <time>2022-10-22T08:05:50Z</time>
      </trkpt>
      <trkpt lat="43.00637" lon="-0.16058">
        <ele>1024.2</ele>
        <time>2022-10-22T08:05:54Z</time>
      </trkpt>
      <trkpt lat="43.00639" lon="-0.16071">
        <ele>1025.2</ele>
        <time>2022-10-22T08:05:59Z</time>
      </trkpt>
      <trkpt lat="43.0064" lon="-0.16073">
        <ele>1025.4</ele>
        <time>2022-10-22T08:06:00Z</time>
      </trkpt>
      <trkpt lat="43.00642" lon="-0.16085">
        <ele>1026.2</ele>
        <time>2022-10-22T08:06:05Z</time>
      </trkpt>
      <trkpt lat="43.00643" lon="-0.16093">
        <ele>1026.8</ele>
        <time>2022-10-22T08:06:08Z</time>
      </trkpt>
      <trkpt lat="43.00643" lon="-0.16097">
        <ele>1027.2</ele>
        <time>2022-10-22T08:06:10Z</time>
      </trkpt>
      <trkpt lat="43.00646" lon="-0.16113">
        <ele>1028.4</ele>
        <time>2022-10-22T08:06:16Z</time>
      </trkpt>
      <trkpt lat="43.00647" lon="-0.16118">
        <ele>1028.6</ele>
        <time>2022-10-22T08:06:18Z</time>
      </trkpt>
      <trkpt lat="43.00649" lon="-0.16132">
        <ele>1029.2</ele>
        <time>2022-10-22T08:06:23Z</time>
      </trkpt>
      <trkpt lat="43.00653" lon="-0.16146">
        <ele>1030.4</ele>
        <time>2022-10-22T08:06:28Z</time>
      </trkpt>
      <trkpt lat="43.00654" lon="-0.16148">
        <ele>1030.6</ele>
        <time>2022-10-22T08:06:29Z</time>
      </trkpt>
      <trkpt lat="43.00655" lon="-0.16151">
        <ele>1030.6</ele>
        <time>2022-10-22T08:06:30Z</time>
      </trkpt>
      <trkpt lat="43.0066" lon="-0.16162">
        <ele>1031.6</ele>
        <time>2022-10-22T08:06:34Z</time>
      </trkpt>
      <trkpt lat="43.0066" lon="-0.16167">
        <ele>1031.8</ele>
        <time>2022-10-22T08:06:36Z</time>
      </trkpt>
      <trkpt lat="43.00665" lon="-0.16174">
        <ele>1032.6</ele>
        <time>2022-10-22T08:06:39Z</time>
      </trkpt>
      <trkpt lat="43.00666" lon="-0.1619">
        <ele>1033.8</ele>
        <time>2022-10-22T08:06:45Z</time>
      </trkpt>
      <trkpt lat="43.00668" lon="-0.16204">
        <ele>1034.6</ele>
        <time>2022-10-22T08:06:51Z</time>
      </trkpt>
      <trkpt lat="43.00668" lon="-0.16207">
        <ele>1035</ele>
        <time>2022-10-22T08:06:52Z</time>
      </trkpt>
      <trkpt lat="43.0067" lon="-0.16217">
        <ele>1035.6</ele>
        <time>2022-10-22T08:06:56Z</time>
      </trkpt>
      <trkpt lat="43.00672" lon="-0.16228">
        <ele>1036.6</ele>
        <time>2022-10-22T08:07:00Z</time>
      </trkpt>
      <trkpt lat="43.00673" lon="-0.16231">
        <ele>1036.8</ele>
        <time>2022-10-22T08:07:01Z</time>
      </trkpt>
      <trkpt lat="43.00675" lon="-0.16242">
        <ele>1037.6</ele>
        <time>2022-10-22T08:07:06Z</time>
      </trkpt>
      <trkpt lat="43.00676" lon="-0.16244">
        <ele>1037.8</ele>
        <time>2022-10-22T08:07:07Z</time>
      </trkpt>
      <trkpt lat="43.00676" lon="-0.16247">
        <ele>1037.8</ele>
        <time>2022-10-22T08:07:08Z</time>
      </trkpt>
      <trkpt lat="43.00679" lon="-0.16259">
        <ele>1038.6</ele>
        <time>2022-10-22T08:07:13Z</time>
      </trkpt>
      <trkpt lat="43.0068" lon="-0.16268">
        <ele>1039.4</ele>
        <time>2022-10-22T08:07:17Z</time>
      </trkpt>
      <trkpt lat="43.00681" lon="-0.16275">
        <ele>1039.8</ele>
        <time>2022-10-22T08:07:19Z</time>
      </trkpt>
      <trkpt lat="43.00685" lon="-0.16291">
        <ele>1040.8</ele>
        <time>2022-10-22T08:07:24Z</time>
      </trkpt>
      <trkpt lat="43.00686" lon="-0.16307">
        <ele>1041.8</ele>
        <time>2022-10-22T08:07:31Z</time>
      </trkpt>
      <trkpt lat="43.00685" lon="-0.1631">
        <ele>1042</ele>
        <time>2022-10-22T08:07:32Z</time>
      </trkpt>
      <trkpt lat="43.00689" lon="-0.16323">
        <ele>1043</ele>
        <time>2022-10-22T08:07:37Z</time>
      </trkpt>
      <trkpt lat="43.0069" lon="-0.1633">
        <ele>1043.2</ele>
        <time>2022-10-22T08:07:39Z</time>
      </trkpt>
      <trkpt lat="43.00689" lon="-0.16335">
        <ele>1043.6</ele>
        <time>2022-10-22T08:07:41Z</time>
      </trkpt>
      <trkpt lat="43.00688" lon="-0.16345">
        <ele>1044</ele>
        <time>2022-10-22T08:07:44Z</time>
      </trkpt>
      <trkpt lat="43.00687" lon="-0.16346">
        <ele>1044.2</ele>
        <time>2022-10-22T08:07:45Z</time>
      </trkpt>
      <trkpt lat="43.00689" lon="-0.16363">
        <ele>1045.2</ele>
        <time>2022-10-22T08:07:51Z</time>
      </trkpt>
      <trkpt lat="43.00687" lon="-0.16382">
        <ele>1046.2</ele>
        <time>2022-10-22T08:07:58Z</time>
      </trkpt>
      <trkpt lat="43.00686" lon="-0.16385">
        <ele>1046.4</ele>
        <time>2022-10-22T08:07:59Z</time>
      </trkpt>
      <trkpt lat="43.00684" lon="-0.16395">
        <ele>1047</ele>
        <time>2022-10-22T08:08:03Z</time>
      </trkpt>
      <trkpt lat="43.00683" lon="-0.16399">
        <ele>1047.6</ele>
        <time>2022-10-22T08:08:05Z</time>
      </trkpt>
      <trkpt lat="43.00682" lon="-0.16409">
        <ele>1048.2</ele>
        <time>2022-10-22T08:08:09Z</time>
      </trkpt>
      <trkpt lat="43.00679" lon="-0.16421">
        <ele>1048.8</ele>
        <time>2022-10-22T08:08:14Z</time>
      </trkpt>
      <trkpt lat="43.00677" lon="-0.16425">
        <ele>1049.2</ele>
        <time>2022-10-22T08:08:16Z</time>
      </trkpt>
      <trkpt lat="43.00673" lon="-0.16431">
        <ele>1050.2</ele>
        <time>2022-10-22T08:08:20Z</time>
      </trkpt>
      <trkpt lat="43.00671" lon="-0.16435">
        <ele>1050.8</ele>
        <time>2022-10-22T08:08:22Z</time>
      </trkpt>
      <trkpt lat="43.00667" lon="-0.16441">
        <ele>1051.4</ele>
        <time>2022-10-22T08:08:26Z</time>
      </trkpt>
      <trkpt lat="43.0066" lon="-0.16448">
        <ele>1052.4</ele>
        <time>2022-10-22T08:08:32Z</time>
      </trkpt>
      <trkpt lat="43.00659" lon="-0.1645">
        <ele>1052.8</ele>
        <time>2022-10-22T08:08:33Z</time>
      </trkpt>
      <trkpt lat="43.0065" lon="-0.16455">
        <ele>1053.8</ele>
        <time>2022-10-22T08:08:39Z</time>
      </trkpt>
      <trkpt lat="43.00643" lon="-0.16461">
        <ele>1054.6</ele>
        <time>2022-10-22T08:08:43Z</time>
      </trkpt>
      <trkpt lat="43.0064" lon="-0.16463">
        <ele>1055</ele>
        <time>2022-10-22T08:08:45Z</time>
      </trkpt>
      <trkpt lat="43.0063" lon="-0.16474">
        <ele>1056</ele>
        <time>2022-10-22T08:08:52Z</time>
      </trkpt>
      <trkpt lat="43.00636" lon="-0.16493">
        <ele>1057</ele>
        <time>2022-10-22T08:08:58Z</time>
      </trkpt>
      <trkpt lat="43.00636" lon="-0.16509">
        <ele>1058</ele>
        <time>2022-10-22T08:09:04Z</time>
      </trkpt>
      <trkpt lat="43.00638" lon="-0.16524">
        <ele>1058.6</ele>
        <time>2022-10-22T08:09:09Z</time>
      </trkpt>
      <trkpt lat="43.00638" lon="-0.16529">
        <ele>1058.8</ele>
        <time>2022-10-22T08:09:11Z</time>
      </trkpt>
      <trkpt lat="43.00638" lon="-0.16535">
        <ele>1059</ele>
        <time>2022-10-22T08:09:13Z</time>
      </trkpt>
      <trkpt lat="43.00637" lon="-0.1654">
        <ele>1059.4</ele>
        <time>2022-10-22T08:09:15Z</time>
      </trkpt>
      <trkpt lat="43.00637" lon="-0.16543">
        <ele>1059.6</ele>
        <time>2022-10-22T08:09:16Z</time>
      </trkpt>
      <trkpt lat="43.00637" lon="-0.16549">
        <ele>1060</ele>
        <time>2022-10-22T08:09:18Z</time>
      </trkpt>
      <trkpt lat="43.00638" lon="-0.16551">
        <ele>1060.2</ele>
        <time>2022-10-22T08:09:19Z</time>
      </trkpt>
      <trkpt lat="43.00637" lon="-0.16558">
        <ele>1060.4</ele>
        <time>2022-10-22T08:09:22Z</time>
      </trkpt>
      <trkpt lat="43.00638" lon="-0.16559">
        <ele>1060.6</ele>
        <time>2022-10-22T08:09:23Z</time>
      </trkpt>
      <trkpt lat="43.00637" lon="-0.16564">
        <ele>1060.8</ele>
        <time>2022-10-22T08:09:25Z</time>
      </trkpt>
      <trkpt lat="43.00637" lon="-0.16565">
        <ele>1061</ele>
        <time>2022-10-22T08:09:26Z</time>
      </trkpt>
      <trkpt lat="43.00638" lon="-0.16577">
        <ele>1062</ele>
        <time>2022-10-22T08:09:32Z</time>
      </trkpt>
      <trkpt lat="43.00638" lon="-0.1658">
        <ele>1062.2</ele>
        <time>2022-10-22T08:09:34Z</time>
      </trkpt>
      <trkpt lat="43.00638" lon="-0.1659">
        <ele>1063.2</ele>
        <time>2022-10-22T08:09:39Z</time>
      </trkpt>
      <trkpt lat="43.0064" lon="-0.166">
        <ele>1063.6</ele>
        <time>2022-10-22T08:09:43Z</time>
      </trkpt>
      <trkpt lat="43.00641" lon="-0.16603">
        <ele>1064</ele>
        <time>2022-10-22T08:09:44Z</time>
      </trkpt>
      <trkpt lat="43.00641" lon="-0.16605">
        <ele>1064</ele>
        <time>2022-10-22T08:09:45Z</time>
      </trkpt>
      <trkpt lat="43.00646" lon="-0.16616">
        <ele>1064.8</ele>
        <time>2022-10-22T08:09:49Z</time>
      </trkpt>
      <trkpt lat="43.00647" lon="-0.16622">
        <ele>1065.4</ele>
        <time>2022-10-22T08:09:51Z</time>
      </trkpt>
      <trkpt lat="43.00651" lon="-0.16631">
        <ele>1065.8</ele>
        <time>2022-10-22T08:09:55Z</time>
      </trkpt>
      <trkpt lat="43.00652" lon="-0.16633">
        <ele>1066</ele>
        <time>2022-10-22T08:09:56Z</time>
      </trkpt>
      <trkpt lat="43.00655" lon="-0.16638">
        <ele>1066.4</ele>
        <time>2022-10-22T08:09:58Z</time>
      </trkpt>
      <trkpt lat="43.00659" lon="-0.16643">
        <ele>1066.6</ele>
        <time>2022-10-22T08:10:00Z</time>
      </trkpt>
      <trkpt lat="43.0066" lon="-0.16645">
        <ele>1066.8</ele>
        <time>2022-10-22T08:10:01Z</time>
      </trkpt>
      <trkpt lat="43.00667" lon="-0.16654">
        <ele>1067.4</ele>
        <time>2022-10-22T08:10:05Z</time>
      </trkpt>
      <trkpt lat="43.0067" lon="-0.16656">
        <ele>1067.4</ele>
        <time>2022-10-22T08:10:06Z</time>
      </trkpt>
      <trkpt lat="43.00681" lon="-0.1667">
        <ele>1068.2</ele>
        <time>2022-10-22T08:10:12Z</time>
      </trkpt>
      <trkpt lat="43.00684" lon="-0.16674">
        <ele>1068.4</ele>
        <time>2022-10-22T08:10:14Z</time>
      </trkpt>
      <trkpt lat="43.00684" lon="-0.16676">
        <ele>1068.4</ele>
        <time>2022-10-22T08:10:15Z</time>
      </trkpt>
      <trkpt lat="43.00685" lon="-0.1668">
        <ele>1068.6</ele>
        <time>2022-10-22T08:10:18Z</time>
      </trkpt>
      <trkpt lat="43.00685" lon="-0.16682">
        <ele>1068.8</ele>
        <time>2022-10-22T08:10:19Z</time>
      </trkpt>
      <trkpt lat="43.00687" lon="-0.16692">
        <ele>1069.4</ele>
        <time>2022-10-22T08:10:24Z</time>
      </trkpt>
      <trkpt lat="43.00687" lon="-0.167">
        <ele>1069.8</ele>
        <time>2022-10-22T08:10:27Z</time>
      </trkpt>
      <trkpt lat="43.00687" lon="-0.1671">
        <ele>1070.4</ele>
        <time>2022-10-22T08:10:31Z</time>
      </trkpt>
      <trkpt lat="43.00687" lon="-0.16719">
        <ele>1071.2</ele>
        <time>2022-10-22T08:10:35Z</time>
      </trkpt>
      <trkpt lat="43.00687" lon="-0.16724">
        <ele>1071.4</ele>
        <time>2022-10-22T08:10:37Z</time>
      </trkpt>
      <trkpt lat="43.00686" lon="-0.16734">
        <ele>1072.4</ele>
        <time>2022-10-22T08:10:41Z</time>
      </trkpt>
      <trkpt lat="43.00685" lon="-0.16739">
        <ele>1072.6</ele>
        <time>2022-10-22T08:10:43Z</time>
      </trkpt>
      <trkpt lat="43.00685" lon="-0.16751">
        <ele>1073.4</ele>
        <time>2022-10-22T08:10:47Z</time>
      </trkpt>
      <trkpt lat="43.00684" lon="-0.16754">
        <ele>1073.8</ele>
        <time>2022-10-22T08:10:48Z</time>
      </trkpt>
      <trkpt lat="43.00685" lon="-0.16767">
        <ele>1074.8</ele>
        <time>2022-10-22T08:10:52Z</time>
      </trkpt>
      <trkpt lat="43.00685" lon="-0.16771">
        <ele>1074.8</ele>
        <time>2022-10-22T08:10:53Z</time>
      </trkpt>
      <trkpt lat="43.00687" lon="-0.16789">
        <ele>1075.8</ele>
        <time>2022-10-22T08:11:00Z</time>
      </trkpt>
      <trkpt lat="43.00686" lon="-0.16791">
        <ele>1076</ele>
        <time>2022-10-22T08:11:01Z</time>
      </trkpt>
      <trkpt lat="43.00681" lon="-0.16803">
        <ele>1076.8</ele>
        <time>2022-10-22T08:11:06Z</time>
      </trkpt>
      <trkpt lat="43.0068" lon="-0.16805">
        <ele>1077</ele>
        <time>2022-10-22T08:11:07Z</time>
      </trkpt>
      <trkpt lat="43.00679" lon="-0.16816">
        <ele>1077.8</ele>
        <time>2022-10-22T08:11:11Z</time>
      </trkpt>
      <trkpt lat="43.00679" lon="-0.16818">
        <ele>1077.8</ele>
        <time>2022-10-22T08:11:12Z</time>
      </trkpt>
      <trkpt lat="43.0068" lon="-0.16824">
        <ele>1078.2</ele>
        <time>2022-10-22T08:11:14Z</time>
      </trkpt>
      <trkpt lat="43.0068" lon="-0.16829">
        <ele>1078.6</ele>
        <time>2022-10-22T08:11:16Z</time>
      </trkpt>
      <trkpt lat="43.0068" lon="-0.16832">
        <ele>1079</ele>
        <time>2022-10-22T08:11:17Z</time>
      </trkpt>
      <trkpt lat="43.00679" lon="-0.16837">
        <ele>1079.4</ele>
        <time>2022-10-22T08:11:19Z</time>
      </trkpt>
      <trkpt lat="43.00678" lon="-0.16845">
        <ele>1079.8</ele>
        <time>2022-10-22T08:11:22Z</time>
      </trkpt>
      <trkpt lat="43.00676" lon="-0.16847">
        <ele>1080.2</ele>
        <time>2022-10-22T08:11:23Z</time>
      </trkpt>
      <trkpt lat="43.00673" lon="-0.16851">
        <ele>1080.6</ele>
        <time>2022-10-22T08:11:25Z</time>
      </trkpt>
      <trkpt lat="43.00673" lon="-0.16852">
        <ele>1080.6</ele>
        <time>2022-10-22T08:11:26Z</time>
      </trkpt>
      <trkpt lat="43.00673" lon="-0.16859">
        <ele>1081.2</ele>
        <time>2022-10-22T08:11:29Z</time>
      </trkpt>
      <trkpt lat="43.00673" lon="-0.16861">
        <ele>1081.4</ele>
        <time>2022-10-22T08:11:30Z</time>
      </trkpt>
      <trkpt lat="43.00672" lon="-0.16873">
        <ele>1082.2</ele>
        <time>2022-10-22T08:11:35Z</time>
      </trkpt>
      <trkpt lat="43.00671" lon="-0.16877">
        <ele>1082.4</ele>
        <time>2022-10-22T08:11:37Z</time>
      </trkpt>
      <trkpt lat="43.0067" lon="-0.1688">
        <ele>1082.6</ele>
        <time>2022-10-22T08:11:39Z</time>
      </trkpt>
      <trkpt lat="43.00668" lon="-0.16886">
        <ele>1083.2</ele>
        <time>2022-10-22T08:11:42Z</time>
      </trkpt>
      <trkpt lat="43.00666" lon="-0.16893">
        <ele>1083.6</ele>
        <time>2022-10-22T08:11:45Z</time>
      </trkpt>
      <trkpt lat="43.00665" lon="-0.16894">
        <ele>1084</ele>
        <time>2022-10-22T08:11:46Z</time>
      </trkpt>
      <trkpt lat="43.00661" lon="-0.16898">
        <ele>1084.4</ele>
        <time>2022-10-22T08:11:49Z</time>
      </trkpt>
      <trkpt lat="43.00655" lon="-0.16898">
        <ele>1085</ele>
        <time>2022-10-22T08:11:52Z</time>
      </trkpt>
      <trkpt lat="43.0065" lon="-0.16898">
        <ele>1085.6</ele>
        <time>2022-10-22T08:11:55Z</time>
      </trkpt>
      <trkpt lat="43.00642" lon="-0.16898">
        <ele>1086.4</ele>
        <time>2022-10-22T08:12:00Z</time>
      </trkpt>
      <trkpt lat="43.00639" lon="-0.16898">
        <ele>1086.6</ele>
        <time>2022-10-22T08:12:02Z</time>
      </trkpt>
      <trkpt lat="43.00633" lon="-0.169">
        <ele>1087.6</ele>
        <time>2022-10-22T08:12:06Z</time>
      </trkpt>
      <trkpt lat="43.00631" lon="-0.16901">
        <ele>1088</ele>
        <time>2022-10-22T08:12:07Z</time>
      </trkpt>
      <trkpt lat="43.00629" lon="-0.16908">
        <ele>1088.6</ele>
        <time>2022-10-22T08:12:10Z</time>
      </trkpt>
      <trkpt lat="43.00625" lon="-0.16915">
        <ele>1089.2</ele>
        <time>2022-10-22T08:12:13Z</time>
      </trkpt>
      <trkpt lat="43.00623" lon="-0.16922">
        <ele>1089.6</ele>
        <time>2022-10-22T08:12:16Z</time>
      </trkpt>
      <trkpt lat="43.00619" lon="-0.16934">
        <ele>1090.8</ele>
        <time>2022-10-22T08:12:20Z</time>
      </trkpt>
      <trkpt lat="43.00613" lon="-0.16955">
        <ele>1091.8</ele>
        <time>2022-10-22T08:12:27Z</time>
      </trkpt>
      <trkpt lat="43.00612" lon="-0.16958">
        <ele>1092</ele>
        <time>2022-10-22T08:12:28Z</time>
      </trkpt>
      <trkpt lat="43.0061" lon="-0.1697">
        <ele>1092.8</ele>
        <time>2022-10-22T08:12:32Z</time>
      </trkpt>
      <trkpt lat="43.00609" lon="-0.16972">
        <ele>1093</ele>
        <time>2022-10-22T08:12:33Z</time>
      </trkpt>
      <trkpt lat="43.0061" lon="-0.16983">
        <ele>1093.8</ele>
        <time>2022-10-22T08:12:37Z</time>
      </trkpt>
      <trkpt lat="43.0061" lon="-0.16991">
        <ele>1094</ele>
        <time>2022-10-22T08:12:40Z</time>
      </trkpt>
      <trkpt lat="43.00609" lon="-0.16997">
        <ele>1095</ele>
        <time>2022-10-22T08:12:43Z</time>
      </trkpt>
      <trkpt lat="43.00607" lon="-0.17">
        <ele>1095.2</ele>
        <time>2022-10-22T08:12:44Z</time>
      </trkpt>
      <trkpt lat="43.00606" lon="-0.17008">
        <ele>1095.8</ele>
        <time>2022-10-22T08:12:48Z</time>
      </trkpt>
      <trkpt lat="43.00606" lon="-0.1701">
        <ele>1096</ele>
        <time>2022-10-22T08:12:49Z</time>
      </trkpt>
      <trkpt lat="43.00606" lon="-0.17011">
        <ele>1096</ele>
        <time>2022-10-22T08:12:50Z</time>
      </trkpt>
      <trkpt lat="43.00606" lon="-0.17013">
        <ele>1096.2</ele>
        <time>2022-10-22T08:12:51Z</time>
      </trkpt>
      <trkpt lat="43.00604" lon="-0.1702">
        <ele>1096.8</ele>
        <time>2022-10-22T08:12:54Z</time>
      </trkpt>
      <trkpt lat="43.00602" lon="-0.17024">
        <ele>1097.4</ele>
        <time>2022-10-22T08:12:56Z</time>
      </trkpt>
      <trkpt lat="43.00599" lon="-0.17032">
        <ele>1098.2</ele>
        <time>2022-10-22T08:12:59Z</time>
      </trkpt>
      <trkpt lat="43.00597" lon="-0.17041">
        <ele>1098.8</ele>
        <time>2022-10-22T08:13:02Z</time>
      </trkpt>
      <trkpt lat="43.00594" lon="-0.17053">
        <ele>1099.8</ele>
        <time>2022-10-22T08:13:06Z</time>
      </trkpt>
      <trkpt lat="43.00594" lon="-0.17055">
        <ele>1099.8</ele>
        <time>2022-10-22T08:13:07Z</time>
      </trkpt>
      <trkpt lat="43.00593" lon="-0.17066">
        <ele>1101</ele>
        <time>2022-10-22T08:13:11Z</time>
      </trkpt>
      <trkpt lat="43.00592" lon="-0.17072">
        <ele>1101.2</ele>
        <time>2022-10-22T08:13:13Z</time>
      </trkpt>
      <trkpt lat="43.0059" lon="-0.17084">
        <ele>1102</ele>
        <time>2022-10-22T08:13:17Z</time>
      </trkpt>
      <trkpt lat="43.0059" lon="-0.17096">
        <ele>1102.6</ele>
        <time>2022-10-22T08:13:21Z</time>
      </trkpt>
      <trkpt lat="43.0059" lon="-0.17102">
        <ele>1103.2</ele>
        <time>2022-10-22T08:13:23Z</time>
      </trkpt>
      <trkpt lat="43.00591" lon="-0.17118">
        <ele>1104.2</ele>
        <time>2022-10-22T08:13:28Z</time>
      </trkpt>
      <trkpt lat="43.00586" lon="-0.17131">
        <ele>1105</ele>
        <time>2022-10-22T08:13:34Z</time>
      </trkpt>
      <trkpt lat="43.00585" lon="-0.17133">
        <ele>1105.2</ele>
        <time>2022-10-22T08:13:35Z</time>
      </trkpt>
      <trkpt lat="43.00582" lon="-0.17144">
        <ele>1106.2</ele>
        <time>2022-10-22T08:13:40Z</time>
      </trkpt>
      <trkpt lat="43.00582" lon="-0.17147">
        <ele>1106.4</ele>
        <time>2022-10-22T08:13:41Z</time>
      </trkpt>
      <trkpt lat="43.00582" lon="-0.17157">
        <ele>1107.2</ele>
        <time>2022-10-22T08:13:46Z</time>
      </trkpt>
      <trkpt lat="43.00581" lon="-0.17164">
        <ele>1108</ele>
        <time>2022-10-22T08:13:49Z</time>
      </trkpt>
      <trkpt lat="43.00581" lon="-0.17171">
        <ele>1108.4</ele>
        <time>2022-10-22T08:13:52Z</time>
      </trkpt>
      <trkpt lat="43.00582" lon="-0.17174">
        <ele>1108.6</ele>
        <time>2022-10-22T08:13:53Z</time>
      </trkpt>
      <trkpt lat="43.00582" lon="-0.17177">
        <ele>1109</ele>
        <time>2022-10-22T08:13:55Z</time>
      </trkpt>
      <trkpt lat="43.00582" lon="-0.17181">
        <ele>1109.2</ele>
        <time>2022-10-22T08:13:57Z</time>
      </trkpt>
      <trkpt lat="43.00583" lon="-0.1719">
        <ele>1110.6</ele>
        <time>2022-10-22T08:14:01Z</time>
      </trkpt>
      <trkpt lat="43.00583" lon="-0.17194">
        <ele>1110.8</ele>
        <time>2022-10-22T08:14:03Z</time>
      </trkpt>
      <trkpt lat="43.00585" lon="-0.17203">
        <ele>1111.6</ele>
        <time>2022-10-22T08:14:07Z</time>
      </trkpt>
      <trkpt lat="43.00587" lon="-0.17207">
        <ele>1111.8</ele>
        <time>2022-10-22T08:14:09Z</time>
      </trkpt>
      <trkpt lat="43.00593" lon="-0.17217">
        <ele>1112.4</ele>
        <time>2022-10-22T08:14:14Z</time>
      </trkpt>
      <trkpt lat="43.00599" lon="-0.17225">
        <ele>1113.2</ele>
        <time>2022-10-22T08:14:19Z</time>
      </trkpt>
      <trkpt lat="43.00604" lon="-0.17233">
        <ele>1113.6</ele>
        <time>2022-10-22T08:14:24Z</time>
      </trkpt>
      <trkpt lat="43.00608" lon="-0.17238">
        <ele>1114</ele>
        <time>2022-10-22T08:14:27Z</time>
      </trkpt>
      <trkpt lat="43.00612" lon="-0.17245">
        <ele>1114.8</ele>
        <time>2022-10-22T08:14:30Z</time>
      </trkpt>
      <trkpt lat="43.00619" lon="-0.17254">
        <ele>1115.6</ele>
        <time>2022-10-22T08:14:35Z</time>
      </trkpt>
      <trkpt lat="43.00621" lon="-0.17259">
        <ele>1116</ele>
        <time>2022-10-22T08:14:37Z</time>
      </trkpt>
      <trkpt lat="43.00627" lon="-0.17276">
        <ele>1116.8</ele>
        <time>2022-10-22T08:14:44Z</time>
      </trkpt>
      <trkpt lat="43.00627" lon="-0.17279">
        <ele>1117.2</ele>
        <time>2022-10-22T08:14:45Z</time>
      </trkpt>
      <trkpt lat="43.00627" lon="-0.17289">
        <ele>1118</ele>
        <time>2022-10-22T08:14:49Z</time>
      </trkpt>
      <trkpt lat="43.00629" lon="-0.17301">
        <ele>1119</ele>
        <time>2022-10-22T08:14:54Z</time>
      </trkpt>
      <trkpt lat="43.00628" lon="-0.17304">
        <ele>1119.4</ele>
        <time>2022-10-22T08:14:55Z</time>
      </trkpt>
      <trkpt lat="43.00628" lon="-0.17313">
        <ele>1120</ele>
        <time>2022-10-22T08:14:59Z</time>
      </trkpt>
      <trkpt lat="43.00628" lon="-0.17317">
        <ele>1120.2</ele>
        <time>2022-10-22T08:15:01Z</time>
      </trkpt>
      <trkpt lat="43.00623" lon="-0.1733">
        <ele>1121.2</ele>
        <time>2022-10-22T08:15:06Z</time>
      </trkpt>
      <trkpt lat="43.00623" lon="-0.17335">
        <ele>1121.6</ele>
        <time>2022-10-22T08:15:08Z</time>
      </trkpt>
      <trkpt lat="43.00624" lon="-0.17338">
        <ele>1121.8</ele>
        <time>2022-10-22T08:15:09Z</time>
      </trkpt>
      <trkpt lat="43.0062" lon="-0.17351">
        <ele>1122.4</ele>
        <time>2022-10-22T08:15:13Z</time>
      </trkpt>
      <trkpt lat="43.00621" lon="-0.17357">
        <ele>1123.2</ele>
        <time>2022-10-22T08:15:16Z</time>
      </trkpt>
      <trkpt lat="43.0062" lon="-0.17361">
        <ele>1123.6</ele>
        <time>2022-10-22T08:15:18Z</time>
      </trkpt>
      <trkpt lat="43.00619" lon="-0.17366">
        <ele>1124</ele>
        <time>2022-10-22T08:15:21Z</time>
      </trkpt>
      <trkpt lat="43.00617" lon="-0.17373">
        <ele>1124.8</ele>
        <time>2022-10-22T08:15:25Z</time>
      </trkpt>
      <trkpt lat="43.00616" lon="-0.17379">
        <ele>1125.2</ele>
        <time>2022-10-22T08:15:28Z</time>
      </trkpt>
      <trkpt lat="43.00614" lon="-0.17385">
        <ele>1126</ele>
        <time>2022-10-22T08:15:31Z</time>
      </trkpt>
      <trkpt lat="43.00612" lon="-0.17393">
        <ele>1126.8</ele>
        <time>2022-10-22T08:15:35Z</time>
      </trkpt>
      <trkpt lat="43.00612" lon="-0.17396">
        <ele>1127</ele>
        <time>2022-10-22T08:15:36Z</time>
      </trkpt>
      <trkpt lat="43.0061" lon="-0.17409">
        <ele>1128</ele>
        <time>2022-10-22T08:15:42Z</time>
      </trkpt>
      <trkpt lat="43.00608" lon="-0.17413">
        <ele>1128.6</ele>
        <time>2022-10-22T08:15:44Z</time>
      </trkpt>
      <trkpt lat="43.00605" lon="-0.17421">
        <ele>1129</ele>
        <time>2022-10-22T08:15:48Z</time>
      </trkpt>
      <trkpt lat="43.00602" lon="-0.17432">
        <ele>1130.2</ele>
        <time>2022-10-22T08:15:53Z</time>
      </trkpt>
      <trkpt lat="43.00597" lon="-0.17444">
        <ele>1131.2</ele>
        <time>2022-10-22T08:15:59Z</time>
      </trkpt>
      <trkpt lat="43.00593" lon="-0.17452">
        <ele>1132</ele>
        <time>2022-10-22T08:16:03Z</time>
      </trkpt>
      <trkpt lat="43.00591" lon="-0.17457">
        <ele>1132.4</ele>
        <time>2022-10-22T08:16:05Z</time>
      </trkpt>
      <trkpt lat="43.00587" lon="-0.17472">
        <ele>1133.4</ele>
        <time>2022-10-22T08:16:11Z</time>
      </trkpt>
      <trkpt lat="43.00588" lon="-0.17485">
        <ele>1134.4</ele>
        <time>2022-10-22T08:16:16Z</time>
      </trkpt>
      <trkpt lat="43.00588" lon="-0.17487">
        <ele>1134.4</ele>
        <time>2022-10-22T08:16:17Z</time>
      </trkpt>
      <trkpt lat="43.00587" lon="-0.17497">
        <ele>1135.6</ele>
        <time>2022-10-22T08:16:22Z</time>
      </trkpt>
      <trkpt lat="43.00585" lon="-0.17502">
        <ele>1135.8</ele>
        <time>2022-10-22T08:16:24Z</time>
      </trkpt>
      <trkpt lat="43.00585" lon="-0.17508">
        <ele>1136.6</ele>
        <time>2022-10-22T08:16:27Z</time>
      </trkpt>
      <trkpt lat="43.00584" lon="-0.17512">
        <ele>1136.8</ele>
        <time>2022-10-22T08:16:29Z</time>
      </trkpt>
      <trkpt lat="43.00583" lon="-0.17515">
        <ele>1137.4</ele>
        <time>2022-10-22T08:16:31Z</time>
      </trkpt>
      <trkpt lat="43.00583" lon="-0.17517">
        <ele>1137.6</ele>
        <time>2022-10-22T08:16:32Z</time>
      </trkpt>
      <trkpt lat="43.0058" lon="-0.17532">
        <ele>1138.8</ele>
        <time>2022-10-22T08:16:39Z</time>
      </trkpt>
      <trkpt lat="43.00578" lon="-0.17539">
        <ele>1139.2</ele>
        <time>2022-10-22T08:16:42Z</time>
      </trkpt>
      <trkpt lat="43.00576" lon="-0.17543">
        <ele>1139.8</ele>
        <time>2022-10-22T08:16:44Z</time>
      </trkpt>
      <trkpt lat="43.00573" lon="-0.17555">
        <ele>1141</ele>
        <time>2022-10-22T08:16:50Z</time>
      </trkpt>
      <trkpt lat="43.00568" lon="-0.17566">
        <ele>1142.2</ele>
        <time>2022-10-22T08:16:56Z</time>
      </trkpt>
      <trkpt lat="43.00567" lon="-0.17568">
        <ele>1142.4</ele>
        <time>2022-10-22T08:16:57Z</time>
      </trkpt>
      <trkpt lat="43.00562" lon="-0.17577">
        <ele>1143.4</ele>
        <time>2022-10-22T08:17:02Z</time>
      </trkpt>
      <trkpt lat="43.00561" lon="-0.17581">
        <ele>1144.2</ele>
        <time>2022-10-22T08:17:04Z</time>
      </trkpt>
      <trkpt lat="43.0056" lon="-0.17585">
        <ele>1144.6</ele>
        <time>2022-10-22T08:17:06Z</time>
      </trkpt>
      <trkpt lat="43.00555" lon="-0.17594">
        <ele>1145.6</ele>
        <time>2022-10-22T08:17:11Z</time>
      </trkpt>
      <trkpt lat="43.00554" lon="-0.17596">
        <ele>1145.8</ele>
        <time>2022-10-22T08:17:12Z</time>
      </trkpt>
      <trkpt lat="43.0055" lon="-0.17604">
        <ele>1146.8</ele>
        <time>2022-10-22T08:17:16Z</time>
      </trkpt>
      <trkpt lat="43.00546" lon="-0.17609">
        <ele>1147.4</ele>
        <time>2022-10-22T08:17:19Z</time>
      </trkpt>
      <trkpt lat="43.00544" lon="-0.17612">
        <ele>1147.6</ele>
        <time>2022-10-22T08:17:21Z</time>
      </trkpt>
      <trkpt lat="43.00538" lon="-0.1762">
        <ele>1148.8</ele>
        <time>2022-10-22T08:17:26Z</time>
      </trkpt>
      <trkpt lat="43.00536" lon="-0.17624">
        <ele>1149</ele>
        <time>2022-10-22T08:17:28Z</time>
      </trkpt>
      <trkpt lat="43.0053" lon="-0.1763">
        <ele>1150</ele>
        <time>2022-10-22T08:17:33Z</time>
      </trkpt>
      <trkpt lat="43.00526" lon="-0.17636">
        <ele>1150.6</ele>
        <time>2022-10-22T08:17:37Z</time>
      </trkpt>
      <trkpt lat="43.00523" lon="-0.17639">
        <ele>1151</ele>
        <time>2022-10-22T08:17:39Z</time>
      </trkpt>
      <trkpt lat="43.00517" lon="-0.17647">
        <ele>1152.2</ele>
        <time>2022-10-22T08:17:44Z</time>
      </trkpt>
      <trkpt lat="43.00516" lon="-0.17649">
        <ele>1152.4</ele>
        <time>2022-10-22T08:17:45Z</time>
      </trkpt>
      <trkpt lat="43.00508" lon="-0.17656">
        <ele>1153.4</ele>
        <time>2022-10-22T08:17:51Z</time>
      </trkpt>
      <trkpt lat="43.00504" lon="-0.1766">
        <ele>1154</ele>
        <time>2022-10-22T08:17:54Z</time>
      </trkpt>
      <trkpt lat="43.005" lon="-0.17664">
        <ele>1154.2</ele>
        <time>2022-10-22T08:17:57Z</time>
      </trkpt>
      <trkpt lat="43.00495" lon="-0.17667">
        <ele>1154.8</ele>
        <time>2022-10-22T08:18:01Z</time>
      </trkpt>
      <trkpt lat="43.00492" lon="-0.17669">
        <ele>1155.8</ele>
        <time>2022-10-22T08:18:03Z</time>
      </trkpt>
      <trkpt lat="43.00484" lon="-0.17676">
        <ele>1156.8</ele>
        <time>2022-10-22T08:18:09Z</time>
      </trkpt>
      <trkpt lat="43.00476" lon="-0.17683">
        <ele>1157.8</ele>
        <time>2022-10-22T08:18:15Z</time>
      </trkpt>
      <trkpt lat="43.00475" lon="-0.17684">
        <ele>1158</ele>
        <time>2022-10-22T08:18:16Z</time>
      </trkpt>
      <trkpt lat="43.00468" lon="-0.1769">
        <ele>1159</ele>
        <time>2022-10-22T08:18:21Z</time>
      </trkpt>
      <trkpt lat="43.00464" lon="-0.17695">
        <ele>1159.4</ele>
        <time>2022-10-22T08:18:24Z</time>
      </trkpt>
      <trkpt lat="43.0046" lon="-0.17701">
        <ele>1160</ele>
        <time>2022-10-22T08:18:28Z</time>
      </trkpt>
      <trkpt lat="43.00457" lon="-0.17709">
        <ele>1160.6</ele>
        <time>2022-10-22T08:18:31Z</time>
      </trkpt>
      <trkpt lat="43.00456" lon="-0.17716">
        <ele>1161</ele>
        <time>2022-10-22T08:18:34Z</time>
      </trkpt>
      <trkpt lat="43.00455" lon="-0.17728">
        <ele>1161.8</ele>
        <time>2022-10-22T08:18:39Z</time>
      </trkpt>
      <trkpt lat="43.00452" lon="-0.17738">
        <ele>1163</ele>
        <time>2022-10-22T08:18:43Z</time>
      </trkpt>
      <trkpt lat="43.00452" lon="-0.17739">
        <ele>1163.2</ele>
        <time>2022-10-22T08:18:44Z</time>
      </trkpt>
      <trkpt lat="43.0045" lon="-0.17746">
        <ele>1163.8</ele>
        <time>2022-10-22T08:18:47Z</time>
      </trkpt>
      <trkpt lat="43.00448" lon="-0.17751">
        <ele>1164</ele>
        <time>2022-10-22T08:18:49Z</time>
      </trkpt>
      <trkpt lat="43.00447" lon="-0.17764">
        <ele>1165.2</ele>
        <time>2022-10-22T08:18:55Z</time>
      </trkpt>
      <trkpt lat="43.00445" lon="-0.17766">
        <ele>1165.2</ele>
        <time>2022-10-22T08:18:56Z</time>
      </trkpt>
      <trkpt lat="43.00443" lon="-0.17777">
        <ele>1166</ele>
        <time>2022-10-22T08:19:00Z</time>
      </trkpt>
      <trkpt lat="43.00443" lon="-0.17779">
        <ele>1166.2</ele>
        <time>2022-10-22T08:19:01Z</time>
      </trkpt>
      <trkpt lat="43.00445" lon="-0.17788">
        <ele>1167</ele>
        <time>2022-10-22T08:19:04Z</time>
      </trkpt>
      <trkpt lat="43.00442" lon="-0.17793">
        <ele>1167.4</ele>
        <time>2022-10-22T08:19:06Z</time>
      </trkpt>
      <trkpt lat="43.00441" lon="-0.17801">
        <ele>1168.2</ele>
        <time>2022-10-22T08:19:10Z</time>
      </trkpt>
      <trkpt lat="43.0044" lon="-0.17802">
        <ele>1168.4</ele>
        <time>2022-10-22T08:19:11Z</time>
      </trkpt>
      <trkpt lat="43.0044" lon="-0.17803">
        <ele>1168.8</ele>
        <time>2022-10-22T08:19:12Z</time>
      </trkpt>
      <trkpt lat="43.00439" lon="-0.17808">
        <ele>1169.2</ele>
        <time>2022-10-22T08:19:15Z</time>
      </trkpt>
      <trkpt lat="43.0044" lon="-0.17809">
        <ele>1169.2</ele>
        <time>2022-10-22T08:19:16Z</time>
      </trkpt>
      <trkpt lat="43.00441" lon="-0.17813">
        <ele>1169.8</ele>
        <time>2022-10-22T08:19:18Z</time>
      </trkpt>
      <trkpt lat="43.00442" lon="-0.17816">
        <ele>1170.6</ele>
        <time>2022-10-22T08:19:20Z</time>
      </trkpt>
      <trkpt lat="43.00444" lon="-0.1782">
        <ele>1170.8</ele>
        <time>2022-10-22T08:19:22Z</time>
      </trkpt>
      <trkpt lat="43.00444" lon="-0.17822">
        <ele>1171</ele>
        <time>2022-10-22T08:19:23Z</time>
      </trkpt>
      <trkpt lat="43.00444" lon="-0.17828">
        <ele>1171.4</ele>
        <time>2022-10-22T08:19:26Z</time>
      </trkpt>
      <trkpt lat="43.00445" lon="-0.17835">
        <ele>1172.2</ele>
        <time>2022-10-22T08:19:29Z</time>
      </trkpt>
      <trkpt lat="43.00445" lon="-0.17837">
        <ele>1172.2</ele>
        <time>2022-10-22T08:19:30Z</time>
      </trkpt>
      <trkpt lat="43.00445" lon="-0.17843">
        <ele>1172.6</ele>
        <time>2022-10-22T08:19:33Z</time>
      </trkpt>
      <trkpt lat="43.00444" lon="-0.17852">
        <ele>1173.2</ele>
        <time>2022-10-22T08:19:37Z</time>
      </trkpt>
      <trkpt lat="43.00445" lon="-0.17857">
        <ele>1173.4</ele>
        <time>2022-10-22T08:19:39Z</time>
      </trkpt>
      <trkpt lat="43.00445" lon="-0.17868">
        <ele>1174.2</ele>
        <time>2022-10-22T08:19:44Z</time>
      </trkpt>
      <trkpt lat="43.00445" lon="-0.17873">
        <ele>1174.8</ele>
        <time>2022-10-22T08:19:46Z</time>
      </trkpt>
      <trkpt lat="43.00444" lon="-0.17879">
        <ele>1175.2</ele>
        <time>2022-10-22T08:19:49Z</time>
      </trkpt>
      <trkpt lat="43.00446" lon="-0.17885">
        <ele>1175.8</ele>
        <time>2022-10-22T08:19:52Z</time>
      </trkpt>
      <trkpt lat="43.00446" lon="-0.1789">
        <ele>1176.2</ele>
        <time>2022-10-22T08:19:54Z</time>
      </trkpt>
      <trkpt lat="43.00448" lon="-0.17897">
        <ele>1177.4</ele>
        <time>2022-10-22T08:19:58Z</time>
      </trkpt>
      <trkpt lat="43.00449" lon="-0.17899">
        <ele>1177.4</ele>
        <time>2022-10-22T08:19:59Z</time>
      </trkpt>
      <trkpt lat="43.00451" lon="-0.17905">
        <ele>1178.4</ele>
        <time>2022-10-22T08:20:02Z</time>
      </trkpt>
      <trkpt lat="43.00454" lon="-0.17912">
        <ele>1179.2</ele>
        <time>2022-10-22T08:20:05Z</time>
      </trkpt>
      <trkpt lat="43.00455" lon="-0.17914">
        <ele>1179.2</ele>
        <time>2022-10-22T08:20:06Z</time>
      </trkpt>
      <trkpt lat="43.00455" lon="-0.17916">
        <ele>1179.6</ele>
        <time>2022-10-22T08:20:07Z</time>
      </trkpt>
      <trkpt lat="43.00456" lon="-0.17925">
        <ele>1180</ele>
        <time>2022-10-22T08:20:11Z</time>
      </trkpt>
      <trkpt lat="43.00457" lon="-0.17928">
        <ele>1180.2</ele>
        <time>2022-10-22T08:20:13Z</time>
      </trkpt>
      <trkpt lat="43.00458" lon="-0.1793">
        <ele>1180.4</ele>
        <time>2022-10-22T08:20:14Z</time>
      </trkpt>
      <trkpt lat="43.00458" lon="-0.17932">
        <ele>1180.8</ele>
        <time>2022-10-22T08:20:15Z</time>
      </trkpt>
      <trkpt lat="43.00461" lon="-0.17946">
        <ele>1181.8</ele>
        <time>2022-10-22T08:20:20Z</time>
      </trkpt>
      <trkpt lat="43.00461" lon="-0.17948">
        <ele>1182.2</ele>
        <time>2022-10-22T08:20:21Z</time>
      </trkpt>
      <trkpt lat="43.00462" lon="-0.1795">
        <ele>1182.4</ele>
        <time>2022-10-22T08:20:22Z</time>
      </trkpt>
      <trkpt lat="43.00461" lon="-0.17956">
        <ele>1183</ele>
        <time>2022-10-22T08:20:25Z</time>
      </trkpt>
      <trkpt lat="43.00461" lon="-0.1796">
        <ele>1183.2</ele>
        <time>2022-10-22T08:20:27Z</time>
      </trkpt>
      <trkpt lat="43.00461" lon="-0.17971">
        <ele>1184.2</ele>
        <time>2022-10-22T08:20:32Z</time>
      </trkpt>
      <trkpt lat="43.00462" lon="-0.17975">
        <ele>1184.8</ele>
        <time>2022-10-22T08:20:34Z</time>
      </trkpt>
      <trkpt lat="43.00461" lon="-0.17977">
        <ele>1184.8</ele>
        <time>2022-10-22T08:20:35Z</time>
      </trkpt>
      <trkpt lat="43.0046" lon="-0.17985">
        <ele>1185.4</ele>
        <time>2022-10-22T08:20:38Z</time>
      </trkpt>
      <trkpt lat="43.0046" lon="-0.17988">
        <ele>1185.6</ele>
        <time>2022-10-22T08:20:39Z</time>
      </trkpt>
      <trkpt lat="43.00459" lon="-0.17991">
        <ele>1185.8</ele>
        <time>2022-10-22T08:20:40Z</time>
      </trkpt>
      <trkpt lat="43.00459" lon="-0.18">
        <ele>1186.6</ele>
        <time>2022-10-22T08:20:44Z</time>
      </trkpt>
      <trkpt lat="43.00459" lon="-0.18003">
        <ele>1186.6</ele>
        <time>2022-10-22T08:20:45Z</time>
      </trkpt>
      <trkpt lat="43.00458" lon="-0.18017">
        <ele>1187.4</ele>
        <time>2022-10-22T08:20:50Z</time>
      </trkpt>
      <trkpt lat="43.00459" lon="-0.18022">
        <ele>1187.8</ele>
        <time>2022-10-22T08:20:52Z</time>
      </trkpt>
      <trkpt lat="43.00459" lon="-0.18034">
        <ele>1188.6</ele>
        <time>2022-10-22T08:20:57Z</time>
      </trkpt>
      <trkpt lat="43.0046" lon="-0.18036">
        <ele>1188.8</ele>
        <time>2022-10-22T08:20:58Z</time>
      </trkpt>
      <trkpt lat="43.0046" lon="-0.18039">
        <ele>1189</ele>
        <time>2022-10-22T08:20:59Z</time>
      </trkpt>
      <trkpt lat="43.00459" lon="-0.18047">
        <ele>1189.4</ele>
        <time>2022-10-22T08:21:03Z</time>
      </trkpt>
      <trkpt lat="43.00459" lon="-0.18051">
        <ele>1189.8</ele>
        <time>2022-10-22T08:21:05Z</time>
      </trkpt>
      <trkpt lat="43.00461" lon="-0.18062">
        <ele>1190.6</ele>
        <time>2022-10-22T08:21:09Z</time>
      </trkpt>
      <trkpt lat="43.0046" lon="-0.18069">
        <ele>1191</ele>
        <time>2022-10-22T08:21:12Z</time>
      </trkpt>
      <trkpt lat="43.0046" lon="-0.18079">
        <ele>1192</ele>
        <time>2022-10-22T08:21:16Z</time>
      </trkpt>
      <trkpt lat="43.0046" lon="-0.18082">
        <ele>1192.2</ele>
        <time>2022-10-22T08:21:17Z</time>
      </trkpt>
      <trkpt lat="43.00458" lon="-0.18095">
        <ele>1193</ele>
        <time>2022-10-22T08:21:22Z</time>
      </trkpt>
      <trkpt lat="43.00458" lon="-0.18108">
        <ele>1193.6</ele>
        <time>2022-10-22T08:21:27Z</time>
      </trkpt>
      <trkpt lat="43.00459" lon="-0.18115">
        <ele>1194</ele>
        <time>2022-10-22T08:21:30Z</time>
      </trkpt>
      <trkpt lat="43.00459" lon="-0.18123">
        <ele>1194.6</ele>
        <time>2022-10-22T08:21:34Z</time>
      </trkpt>
      <trkpt lat="43.00459" lon="-0.18134">
        <ele>1195.4</ele>
        <time>2022-10-22T08:21:39Z</time>
      </trkpt>
      <trkpt lat="43.00461" lon="-0.18145">
        <ele>1196.2</ele>
        <time>2022-10-22T08:21:44Z</time>
      </trkpt>
      <trkpt lat="43.00461" lon="-0.18147">
        <ele>1196.4</ele>
        <time>2022-10-22T08:21:45Z</time>
      </trkpt>
      <trkpt lat="43.00464" lon="-0.18164">
        <ele>1197.2</ele>
        <time>2022-10-22T08:21:51Z</time>
      </trkpt>
      <trkpt lat="43.00464" lon="-0.18167">
        <ele>1197.4</ele>
        <time>2022-10-22T08:21:52Z</time>
      </trkpt>
      <trkpt lat="43.00463" lon="-0.18177">
        <ele>1198.2</ele>
        <time>2022-10-22T08:21:56Z</time>
      </trkpt>
      <trkpt lat="43.00462" lon="-0.18182">
        <ele>1198.2</ele>
        <time>2022-10-22T08:21:58Z</time>
      </trkpt>
      <trkpt lat="43.00462" lon="-0.18184">
        <ele>1198.4</ele>
        <time>2022-10-22T08:21:59Z</time>
      </trkpt>
      <trkpt lat="43.00458" lon="-0.18197">
        <ele>1199.4</ele>
        <time>2022-10-22T08:22:05Z</time>
      </trkpt>
      <trkpt lat="43.00454" lon="-0.18205">
        <ele>1199.6</ele>
        <time>2022-10-22T08:22:09Z</time>
      </trkpt>
      <trkpt lat="43.0045" lon="-0.18217">
        <ele>1200.4</ele>
        <time>2022-10-22T08:22:15Z</time>
      </trkpt>
      <trkpt lat="43.00448" lon="-0.18219">
        <ele>1200.6</ele>
        <time>2022-10-22T08:22:16Z</time>
      </trkpt>
      <trkpt lat="43.00437" lon="-0.18231">
        <ele>1201.2</ele>
        <time>2022-10-22T08:22:24Z</time>
      </trkpt>
      <trkpt lat="43.00435" lon="-0.18231">
        <ele>1201.4</ele>
        <time>2022-10-22T08:22:25Z</time>
      </trkpt>
      <trkpt lat="43.00432" lon="-0.18229">
        <ele>1201.8</ele>
        <time>2022-10-22T08:22:27Z</time>
      </trkpt>
      <trkpt lat="43.0043" lon="-0.18225">
        <ele>1202.4</ele>
        <time>2022-10-22T08:22:29Z</time>
      </trkpt>
      <trkpt lat="43.00429" lon="-0.18222">
        <ele>1202.4</ele>
        <time>2022-10-22T08:22:30Z</time>
      </trkpt>
      <trkpt lat="43.00429" lon="-0.18215">
        <ele>1203</ele>
        <time>2022-10-22T08:22:33Z</time>
      </trkpt>
      <trkpt lat="43.0043" lon="-0.18214">
        <ele>1203.2</ele>
        <time>2022-10-22T08:22:34Z</time>
      </trkpt>
      <trkpt lat="43.00433" lon="-0.18209">
        <ele>1203.6</ele>
        <time>2022-10-22T08:22:37Z</time>
      </trkpt>
      <trkpt lat="43.0044" lon="-0.182">
        <ele>1204.2</ele>
        <time>2022-10-22T08:22:42Z</time>
      </trkpt>
      <trkpt lat="43.00444" lon="-0.18186">
        <ele>1204.4</ele>
        <time>2022-10-22T08:22:47Z</time>
      </trkpt>
      <trkpt lat="43.00444" lon="-0.18179">
        <ele>1204.6</ele>
        <time>2022-10-22T08:22:49Z</time>
      </trkpt>
      <trkpt lat="43.00443" lon="-0.18158">
        <ele>1205.2</ele>
        <time>2022-10-22T08:22:56Z</time>
      </trkpt>
      <trkpt lat="43.00442" lon="-0.18151">
        <ele>1205.4</ele>
        <time>2022-10-22T08:22:59Z</time>
      </trkpt>
      <trkpt lat="43.0044" lon="-0.18143">
        <ele>1205.6</ele>
        <time>2022-10-22T08:23:02Z</time>
      </trkpt>
      <trkpt lat="43.0044" lon="-0.18141">
        <ele>1205.8</ele>
        <time>2022-10-22T08:23:03Z</time>
      </trkpt>
      <trkpt lat="43.0044" lon="-0.18133">
        <ele>1206.2</ele>
        <time>2022-10-22T08:23:07Z</time>
      </trkpt>
      <trkpt lat="43.00437" lon="-0.1812">
        <ele>1206.6</ele>
        <time>2022-10-22T08:23:11Z</time>
      </trkpt>
      <trkpt lat="43.00434" lon="-0.18108">
        <ele>1207</ele>
        <time>2022-10-22T08:23:15Z</time>
      </trkpt>
      <trkpt lat="43.00431" lon="-0.18095">
        <ele>1207.6</ele>
        <time>2022-10-22T08:23:20Z</time>
      </trkpt>
      <trkpt lat="43.00431" lon="-0.18088">
        <ele>1207.8</ele>
        <time>2022-10-22T08:23:22Z</time>
      </trkpt>
      <trkpt lat="43.00427" lon="-0.18072">
        <ele>1208.6</ele>
        <time>2022-10-22T08:23:29Z</time>
      </trkpt>
      <trkpt lat="43.00422" lon="-0.18059">
        <ele>1209.8</ele>
        <time>2022-10-22T08:23:36Z</time>
      </trkpt>
      <trkpt lat="43.00417" lon="-0.18044">
        <ele>1211</ele>
        <time>2022-10-22T08:23:43Z</time>
      </trkpt>
      <trkpt lat="43.00415" lon="-0.18041">
        <ele>1211.4</ele>
        <time>2022-10-22T08:23:45Z</time>
      </trkpt>
      <trkpt lat="43.0041" lon="-0.18032">
        <ele>1211.8</ele>
        <time>2022-10-22T08:23:50Z</time>
      </trkpt>
      <trkpt lat="43.00406" lon="-0.18026">
        <ele>1212.6</ele>
        <time>2022-10-22T08:23:53Z</time>
      </trkpt>
      <trkpt lat="43.00406" lon="-0.18023">
        <ele>1212.8</ele>
        <time>2022-10-22T08:23:54Z</time>
      </trkpt>
      <trkpt lat="43.00399" lon="-0.18014">
        <ele>1213.6</ele>
        <time>2022-10-22T08:23:59Z</time>
      </trkpt>
      <trkpt lat="43.00395" lon="-0.18014">
        <ele>1213.8</ele>
        <time>2022-10-22T08:24:01Z</time>
      </trkpt>
      <trkpt lat="43.00391" lon="-0.18018">
        <ele>1214.4</ele>
        <time>2022-10-22T08:24:04Z</time>
      </trkpt>
      <trkpt lat="43.0039" lon="-0.18029">
        <ele>1214.8</ele>
        <time>2022-10-22T08:24:09Z</time>
      </trkpt>
      <trkpt lat="43.00391" lon="-0.18031">
        <ele>1215</ele>
        <time>2022-10-22T08:24:10Z</time>
      </trkpt>
      <trkpt lat="43.00398" lon="-0.18044">
        <ele>1215.8</ele>
        <time>2022-10-22T08:24:16Z</time>
      </trkpt>
      <trkpt lat="43.00403" lon="-0.18052">
        <ele>1216.4</ele>
        <time>2022-10-22T08:24:20Z</time>
      </trkpt>
      <trkpt lat="43.00407" lon="-0.18057">
        <ele>1216.8</ele>
        <time>2022-10-22T08:24:22Z</time>
      </trkpt>
      <trkpt lat="43.00412" lon="-0.18073">
        <ele>1217.4</ele>
        <time>2022-10-22T08:24:28Z</time>
      </trkpt>
      <trkpt lat="43.00413" lon="-0.18085">
        <ele>1217.8</ele>
        <time>2022-10-22T08:24:33Z</time>
      </trkpt>
      <trkpt lat="43.00413" lon="-0.18088">
        <ele>1218</ele>
        <time>2022-10-22T08:24:34Z</time>
      </trkpt>
      <trkpt lat="43.00412" lon="-0.181">
        <ele>1218.8</ele>
        <time>2022-10-22T08:24:39Z</time>
      </trkpt>
      <trkpt lat="43.00411" lon="-0.18107">
        <ele>1219.2</ele>
        <time>2022-10-22T08:24:42Z</time>
      </trkpt>
      <trkpt lat="43.0041" lon="-0.18109">
        <ele>1219.2</ele>
        <time>2022-10-22T08:24:43Z</time>
      </trkpt>
      <trkpt lat="43.00407" lon="-0.18121">
        <ele>1219.8</ele>
        <time>2022-10-22T08:24:48Z</time>
      </trkpt>
      <trkpt lat="43.00407" lon="-0.18123">
        <ele>1219.8</ele>
        <time>2022-10-22T08:24:49Z</time>
      </trkpt>
      <trkpt lat="43.00403" lon="-0.18137">
        <ele>1220.6</ele>
        <time>2022-10-22T08:24:55Z</time>
      </trkpt>
      <trkpt lat="43.00401" lon="-0.18141">
        <ele>1220.8</ele>
        <time>2022-10-22T08:24:57Z</time>
      </trkpt>
      <trkpt lat="43.00401" lon="-0.18144">
        <ele>1221</ele>
        <time>2022-10-22T08:24:58Z</time>
      </trkpt>
      <trkpt lat="43.00399" lon="-0.18149">
        <ele>1221.4</ele>
        <time>2022-10-22T08:25:00Z</time>
      </trkpt>
      <trkpt lat="43.00396" lon="-0.18156">
        <ele>1222</ele>
        <time>2022-10-22T08:25:03Z</time>
      </trkpt>
      <trkpt lat="43.00392" lon="-0.18164">
        <ele>1222.6</ele>
        <time>2022-10-22T08:25:07Z</time>
      </trkpt>
      <trkpt lat="43.00388" lon="-0.1817">
        <ele>1223.2</ele>
        <time>2022-10-22T08:25:10Z</time>
      </trkpt>
      <trkpt lat="43.00384" lon="-0.18175">
        <ele>1223.8</ele>
        <time>2022-10-22T08:25:13Z</time>
      </trkpt>
      <trkpt lat="43.00378" lon="-0.18182">
        <ele>1224</ele>
        <time>2022-10-22T08:25:17Z</time>
      </trkpt>
      <trkpt lat="43.00375" lon="-0.18185">
        <ele>1224.2</ele>
        <time>2022-10-22T08:25:19Z</time>
      </trkpt>
      <trkpt lat="43.00365" lon="-0.18193">
        <ele>1225</ele>
        <time>2022-10-22T08:25:25Z</time>
      </trkpt>
      <trkpt lat="43.0036" lon="-0.18198">
        <ele>1225.4</ele>
        <time>2022-10-22T08:25:28Z</time>
      </trkpt>
      <trkpt lat="43.00351" lon="-0.18204">
        <ele>1226.2</ele>
        <time>2022-10-22T08:25:33Z</time>
      </trkpt>
      <trkpt lat="43.00349" lon="-0.18204">
        <ele>1226.4</ele>
        <time>2022-10-22T08:25:34Z</time>
      </trkpt>
      <trkpt lat="43.0034" lon="-0.18207">
        <ele>1227.2</ele>
        <time>2022-10-22T08:25:39Z</time>
      </trkpt>
      <trkpt lat="43.00333" lon="-0.18211">
        <ele>1227.8</ele>
        <time>2022-10-22T08:25:43Z</time>
      </trkpt>
      <trkpt lat="43.0033" lon="-0.18212">
        <ele>1228.2</ele>
        <time>2022-10-22T08:25:45Z</time>
      </trkpt>
      <trkpt lat="43.00322" lon="-0.18213">
        <ele>1228.8</ele>
        <time>2022-10-22T08:25:49Z</time>
      </trkpt>
      <trkpt lat="43.00319" lon="-0.18214">
        <ele>1229.2</ele>
        <time>2022-10-22T08:25:51Z</time>
      </trkpt>
      <trkpt lat="43.00307" lon="-0.18218">
        <ele>1230.2</ele>
        <time>2022-10-22T08:25:57Z</time>
      </trkpt>
      <trkpt lat="43.00303" lon="-0.18218">
        <ele>1230.4</ele>
        <time>2022-10-22T08:25:59Z</time>
      </trkpt>
      <trkpt lat="43.00294" lon="-0.18219">
        <ele>1231.4</ele>
        <time>2022-10-22T08:26:04Z</time>
      </trkpt>
      <trkpt lat="43.00284" lon="-0.18221">
        <ele>1232.4</ele>
        <time>2022-10-22T08:26:10Z</time>
      </trkpt>
      <trkpt lat="43.00283" lon="-0.18221">
        <ele>1232.6</ele>
        <time>2022-10-22T08:26:11Z</time>
      </trkpt>
      <trkpt lat="43.00275" lon="-0.18224">
        <ele>1233.4</ele>
        <time>2022-10-22T08:26:16Z</time>
      </trkpt>
      <trkpt lat="43.00272" lon="-0.18226">
        <ele>1233.8</ele>
        <time>2022-10-22T08:26:18Z</time>
      </trkpt>
      <trkpt lat="43.00265" lon="-0.18233">
        <ele>1234.6</ele>
        <time>2022-10-22T08:26:23Z</time>
      </trkpt>
      <trkpt lat="43.00261" lon="-0.18237">
        <ele>1235.2</ele>
        <time>2022-10-22T08:26:26Z</time>
      </trkpt>
      <trkpt lat="43.00257" lon="-0.1824">
        <ele>1235.6</ele>
        <time>2022-10-22T08:26:29Z</time>
      </trkpt>
      <trkpt lat="43.00252" lon="-0.1825">
        <ele>1236.2</ele>
        <time>2022-10-22T08:26:34Z</time>
      </trkpt>
      <trkpt lat="43.00248" lon="-0.18259">
        <ele>1236.8</ele>
        <time>2022-10-22T08:26:38Z</time>
      </trkpt>
      <trkpt lat="43.00245" lon="-0.1827">
        <ele>1237.6</ele>
        <time>2022-10-22T08:26:43Z</time>
      </trkpt>
      <trkpt lat="43.00244" lon="-0.18273">
        <ele>1237.6</ele>
        <time>2022-10-22T08:26:44Z</time>
      </trkpt>
      <trkpt lat="43.00242" lon="-0.18289">
        <ele>1238.6</ele>
        <time>2022-10-22T08:26:51Z</time>
      </trkpt>
      <trkpt lat="43.00241" lon="-0.18291">
        <ele>1238.8</ele>
        <time>2022-10-22T08:26:52Z</time>
      </trkpt>
      <trkpt lat="43.00238" lon="-0.18304">
        <ele>1239.6</ele>
        <time>2022-10-22T08:26:57Z</time>
      </trkpt>
      <trkpt lat="43.00237" lon="-0.1831">
        <ele>1239.8</ele>
        <time>2022-10-22T08:26:59Z</time>
      </trkpt>
      <trkpt lat="43.00236" lon="-0.18312">
        <ele>1240</ele>
        <time>2022-10-22T08:27:00Z</time>
      </trkpt>
      <trkpt lat="43.0023" lon="-0.18331">
        <ele>1240.8</ele>
        <time>2022-10-22T08:27:07Z</time>
      </trkpt>
      <trkpt lat="43.00229" lon="-0.18333">
        <ele>1241.2</ele>
        <time>2022-10-22T08:27:08Z</time>
      </trkpt>
      <trkpt lat="43.00225" lon="-0.18347">
        <ele>1241.6</ele>
        <time>2022-10-22T08:27:13Z</time>
      </trkpt>
      <trkpt lat="43.00223" lon="-0.18358">
        <ele>1242</ele>
        <time>2022-10-22T08:27:17Z</time>
      </trkpt>
      <trkpt lat="43.00222" lon="-0.18374">
        <ele>1242.8</ele>
        <time>2022-10-22T08:27:23Z</time>
      </trkpt>
      <trkpt lat="43.00222" lon="-0.18379">
        <ele>1243.2</ele>
        <time>2022-10-22T08:27:25Z</time>
      </trkpt>
      <trkpt lat="43.00222" lon="-0.18388">
        <ele>1243.8</ele>
        <time>2022-10-22T08:27:29Z</time>
      </trkpt>
      <trkpt lat="43.00223" lon="-0.1839">
        <ele>1243.8</ele>
        <time>2022-10-22T08:27:30Z</time>
      </trkpt>
      <trkpt lat="43.00223" lon="-0.18392">
        <ele>1244</ele>
        <time>2022-10-22T08:27:31Z</time>
      </trkpt>
      <trkpt lat="43.00226" lon="-0.18403">
        <ele>1244.6</ele>
        <time>2022-10-22T08:27:36Z</time>
      </trkpt>
      <trkpt lat="43.00229" lon="-0.18411">
        <ele>1245.2</ele>
        <time>2022-10-22T08:27:39Z</time>
      </trkpt>
      <trkpt lat="43.00231" lon="-0.18413">
        <ele>1245.2</ele>
        <time>2022-10-22T08:27:40Z</time>
      </trkpt>
      <trkpt lat="43.00233" lon="-0.18417">
        <ele>1245.8</ele>
        <time>2022-10-22T08:27:42Z</time>
      </trkpt>
      <trkpt lat="43.00235" lon="-0.18422">
        <ele>1246.2</ele>
        <time>2022-10-22T08:27:44Z</time>
      </trkpt>
      <trkpt lat="43.00237" lon="-0.18442">
        <ele>1246.6</ele>
        <time>2022-10-22T08:27:51Z</time>
      </trkpt>
      <trkpt lat="43.00238" lon="-0.18451">
        <ele>1246.8</ele>
        <time>2022-10-22T08:27:54Z</time>
      </trkpt>
      <trkpt lat="43.00236" lon="-0.18468">
        <ele>1247.4</ele>
        <time>2022-10-22T08:28:00Z</time>
      </trkpt>
      <trkpt lat="43.00236" lon="-0.18471">
        <ele>1247.8</ele>
        <time>2022-10-22T08:28:01Z</time>
      </trkpt>
      <trkpt lat="43.00235" lon="-0.18493">
        <ele>1248.6</ele>
        <time>2022-10-22T08:28:09Z</time>
      </trkpt>
      <trkpt lat="43.00234" lon="-0.18498">
        <ele>1249</ele>
        <time>2022-10-22T08:28:11Z</time>
      </trkpt>
      <trkpt lat="43.00229" lon="-0.18514">
        <ele>1250.2</ele>
        <time>2022-10-22T08:28:18Z</time>
      </trkpt>
      <trkpt lat="43.00224" lon="-0.18529">
        <ele>1251.2</ele>
        <time>2022-10-22T08:28:24Z</time>
      </trkpt>
      <trkpt lat="43.00224" lon="-0.18534">
        <ele>1251.4</ele>
        <time>2022-10-22T08:28:26Z</time>
      </trkpt>
      <trkpt lat="43.00222" lon="-0.18547">
        <ele>1252</ele>
        <time>2022-10-22T08:28:31Z</time>
      </trkpt>
      <trkpt lat="43.00219" lon="-0.18558">
        <ele>1252.6</ele>
        <time>2022-10-22T08:28:35Z</time>
      </trkpt>
      <trkpt lat="43.00217" lon="-0.18569">
        <ele>1253.2</ele>
        <time>2022-10-22T08:28:39Z</time>
      </trkpt>
      <trkpt lat="43.00214" lon="-0.18583">
        <ele>1253.8</ele>
        <time>2022-10-22T08:28:44Z</time>
      </trkpt>
      <trkpt lat="43.00213" lon="-0.18588">
        <ele>1254.2</ele>
        <time>2022-10-22T08:28:46Z</time>
      </trkpt>
      <trkpt lat="43.00209" lon="-0.18602">
        <ele>1254.6</ele>
        <time>2022-10-22T08:28:52Z</time>
      </trkpt>
      <trkpt lat="43.00208" lon="-0.18609">
        <ele>1255</ele>
        <time>2022-10-22T08:28:55Z</time>
      </trkpt>
      <trkpt lat="43.00206" lon="-0.18618">
        <ele>1255.6</ele>
        <time>2022-10-22T08:28:59Z</time>
      </trkpt>
      <trkpt lat="43.00206" lon="-0.18625">
        <ele>1256.2</ele>
        <time>2022-10-22T08:29:02Z</time>
      </trkpt>
      <trkpt lat="43.00202" lon="-0.1864">
        <ele>1257.2</ele>
        <time>2022-10-22T08:29:08Z</time>
      </trkpt>
      <trkpt lat="43.00199" lon="-0.18654">
        <ele>1257.8</ele>
        <time>2022-10-22T08:29:13Z</time>
      </trkpt>
      <trkpt lat="43.00197" lon="-0.18661">
        <ele>1258.4</ele>
        <time>2022-10-22T08:29:16Z</time>
      </trkpt>
      <trkpt lat="43.00193" lon="-0.18672">
        <ele>1259</ele>
        <time>2022-10-22T08:29:20Z</time>
      </trkpt>
      <trkpt lat="43.00191" lon="-0.1868">
        <ele>1259.4</ele>
        <time>2022-10-22T08:29:23Z</time>
      </trkpt>
      <trkpt lat="43.0019" lon="-0.18686">
        <ele>1259.4</ele>
        <time>2022-10-22T08:29:25Z</time>
      </trkpt>
      <trkpt lat="43.00187" lon="-0.18701">
        <ele>1260</ele>
        <time>2022-10-22T08:29:31Z</time>
      </trkpt>
      <trkpt lat="43.00186" lon="-0.18715">
        <ele>1260.4</ele>
        <time>2022-10-22T08:29:35Z</time>
      </trkpt>
      <trkpt lat="43.00185" lon="-0.18721">
        <ele>1260.4</ele>
        <time>2022-10-22T08:29:37Z</time>
      </trkpt>
      <trkpt lat="43.00183" lon="-0.18735">
        <ele>1261.4</ele>
        <time>2022-10-22T08:29:42Z</time>
      </trkpt>
      <trkpt lat="43.00185" lon="-0.18741">
        <ele>1261.6</ele>
        <time>2022-10-22T08:29:44Z</time>
      </trkpt>
      <trkpt lat="43.00181" lon="-0.18758">
        <ele>1262.4</ele>
        <time>2022-10-22T08:29:49Z</time>
      </trkpt>
      <trkpt lat="43.00183" lon="-0.18761">
        <ele>1262.4</ele>
        <time>2022-10-22T08:29:50Z</time>
      </trkpt>
      <trkpt lat="43.00186" lon="-0.18774">
        <ele>1263</ele>
        <time>2022-10-22T08:29:55Z</time>
      </trkpt>
      <trkpt lat="43.00187" lon="-0.18779">
        <ele>1263.4</ele>
        <time>2022-10-22T08:29:57Z</time>
      </trkpt>
      <trkpt lat="43.00188" lon="-0.18793">
        <ele>1264.6</ele>
        <time>2022-10-22T08:30:03Z</time>
      </trkpt>
      <trkpt lat="43.00186" lon="-0.18809">
        <ele>1265.2</ele>
        <time>2022-10-22T08:30:09Z</time>
      </trkpt>
      <trkpt lat="43.00186" lon="-0.18815">
        <ele>1265.4</ele>
        <time>2022-10-22T08:30:11Z</time>
      </trkpt>
      <trkpt lat="43.00188" lon="-0.18828">
        <ele>1266</ele>
        <time>2022-10-22T08:30:16Z</time>
      </trkpt>
      <trkpt lat="43.00189" lon="-0.18835">
        <ele>1266.6</ele>
        <time>2022-10-22T08:30:18Z</time>
      </trkpt>
      <trkpt lat="43.00191" lon="-0.18847">
        <ele>1267.4</ele>
        <time>2022-10-22T08:30:23Z</time>
      </trkpt>
      <trkpt lat="43.00191" lon="-0.18849">
        <ele>1267.4</ele>
        <time>2022-10-22T08:30:24Z</time>
      </trkpt>
      <trkpt lat="43.00194" lon="-0.18853">
        <ele>1267.6</ele>
        <time>2022-10-22T08:30:26Z</time>
      </trkpt>
      <trkpt lat="43.00196" lon="-0.18857">
        <ele>1268.2</ele>
        <time>2022-10-22T08:30:29Z</time>
      </trkpt>
      <trkpt lat="43.00197" lon="-0.18859">
        <ele>1268.6</ele>
        <time>2022-10-22T08:30:30Z</time>
      </trkpt>
      <trkpt lat="43.00197" lon="-0.18861">
        <ele>1268.8</ele>
        <time>2022-10-22T08:30:31Z</time>
      </trkpt>
      <trkpt lat="43.00198" lon="-0.18868">
        <ele>1269.2</ele>
        <time>2022-10-22T08:30:34Z</time>
      </trkpt>
      <trkpt lat="43.00201" lon="-0.18877">
        <ele>1270</ele>
        <time>2022-10-22T08:30:38Z</time>
      </trkpt>
      <trkpt lat="43.00202" lon="-0.18884">
        <ele>1270.6</ele>
        <time>2022-10-22T08:30:41Z</time>
      </trkpt>
      <trkpt lat="43.00204" lon="-0.18887">
        <ele>1270.6</ele>
        <time>2022-10-22T08:30:42Z</time>
      </trkpt>
      <trkpt lat="43.00205" lon="-0.18892">
        <ele>1271</ele>
        <time>2022-10-22T08:30:44Z</time>
      </trkpt>
      <trkpt lat="43.00207" lon="-0.18899">
        <ele>1271.6</ele>
        <time>2022-10-22T08:30:47Z</time>
      </trkpt>
      <trkpt lat="43.0021" lon="-0.18907">
        <ele>1272</ele>
        <time>2022-10-22T08:30:51Z</time>
      </trkpt>
      <trkpt lat="43.00212" lon="-0.18914">
        <ele>1272.6</ele>
        <time>2022-10-22T08:30:54Z</time>
      </trkpt>
      <trkpt lat="43.00216" lon="-0.1892">
        <ele>1273.2</ele>
        <time>2022-10-22T08:30:57Z</time>
      </trkpt>
      <trkpt lat="43.00221" lon="-0.18928">
        <ele>1273.8</ele>
        <time>2022-10-22T08:31:01Z</time>
      </trkpt>
      <trkpt lat="43.00232" lon="-0.18939">
        <ele>1274.2</ele>
        <time>2022-10-22T08:31:07Z</time>
      </trkpt>
      <trkpt lat="43.00241" lon="-0.18949">
        <ele>1274.6</ele>
        <time>2022-10-22T08:31:13Z</time>
      </trkpt>
      <trkpt lat="43.00242" lon="-0.18951">
        <ele>1274.6</ele>
        <time>2022-10-22T08:31:14Z</time>
      </trkpt>
      <trkpt lat="43.00246" lon="-0.18959">
        <ele>1274.8</ele>
        <time>2022-10-22T08:31:17Z</time>
      </trkpt>
      <trkpt lat="43.00248" lon="-0.18968">
        <ele>1275.2</ele>
        <time>2022-10-22T08:31:20Z</time>
      </trkpt>
      <trkpt lat="43.00248" lon="-0.18974">
        <ele>1275.4</ele>
        <time>2022-10-22T08:31:22Z</time>
      </trkpt>
      <trkpt lat="43.00244" lon="-0.1899">
        <ele>1276.2</ele>
        <time>2022-10-22T08:31:28Z</time>
      </trkpt>
      <trkpt lat="43.00243" lon="-0.18992">
        <ele>1276.4</ele>
        <time>2022-10-22T08:31:29Z</time>
      </trkpt>
      <trkpt lat="43.00243" lon="-0.19007">
        <ele>1277.2</ele>
        <time>2022-10-22T08:31:34Z</time>
      </trkpt>
      <trkpt lat="43.00243" lon="-0.19012">
        <ele>1277.6</ele>
        <time>2022-10-22T08:31:36Z</time>
      </trkpt>
      <trkpt lat="43.00245" lon="-0.19031">
        <ele>1278.2</ele>
        <time>2022-10-22T08:31:42Z</time>
      </trkpt>
      <trkpt lat="43.00245" lon="-0.19047">
        <ele>1278.8</ele>
        <time>2022-10-22T08:31:48Z</time>
      </trkpt>
      <trkpt lat="43.0024" lon="-0.19057">
        <ele>1279.2</ele>
        <time>2022-10-22T08:31:52Z</time>
      </trkpt>
      <trkpt lat="43.00241" lon="-0.19063">
        <ele>1279.6</ele>
        <time>2022-10-22T08:31:55Z</time>
      </trkpt>
      <trkpt lat="43.0024" lon="-0.19072">
        <ele>1280</ele>
        <time>2022-10-22T08:31:58Z</time>
      </trkpt>
      <trkpt lat="43.00239" lon="-0.19078">
        <ele>1280.2</ele>
        <time>2022-10-22T08:32:00Z</time>
      </trkpt>
      <trkpt lat="43.00238" lon="-0.1908">
        <ele>1280.4</ele>
        <time>2022-10-22T08:32:01Z</time>
      </trkpt>
      <trkpt lat="43.00234" lon="-0.19091">
        <ele>1281.4</ele>
        <time>2022-10-22T08:32:05Z</time>
      </trkpt>
      <trkpt lat="43.00232" lon="-0.19095">
        <ele>1281.6</ele>
        <time>2022-10-22T08:32:07Z</time>
      </trkpt>
      <trkpt lat="43.00226" lon="-0.19109">
        <ele>1282.4</ele>
        <time>2022-10-22T08:32:13Z</time>
      </trkpt>
      <trkpt lat="43.00225" lon="-0.19114">
        <ele>1282.6</ele>
        <time>2022-10-22T08:32:15Z</time>
      </trkpt>
      <trkpt lat="43.00217" lon="-0.19123">
        <ele>1283.4</ele>
        <time>2022-10-22T08:32:20Z</time>
      </trkpt>
      <trkpt lat="43.00216" lon="-0.19125">
        <ele>1283.6</ele>
        <time>2022-10-22T08:32:21Z</time>
      </trkpt>
      <trkpt lat="43.00202" lon="-0.19138">
        <ele>1284.4</ele>
        <time>2022-10-22T08:32:29Z</time>
      </trkpt>
      <trkpt lat="43.00201" lon="-0.19139">
        <ele>1284.4</ele>
        <time>2022-10-22T08:32:30Z</time>
      </trkpt>
      <trkpt lat="43.00195" lon="-0.19144">
        <ele>1285</ele>
        <time>2022-10-22T08:32:34Z</time>
      </trkpt>
      <trkpt lat="43.00193" lon="-0.19145">
        <ele>1285</ele>
        <time>2022-10-22T08:32:35Z</time>
      </trkpt>
      <trkpt lat="43.00177" lon="-0.19153">
        <ele>1285.4</ele>
        <time>2022-10-22T08:32:43Z</time>
      </trkpt>
      <trkpt lat="43.00171" lon="-0.19157">
        <ele>1286</ele>
        <time>2022-10-22T08:32:46Z</time>
      </trkpt>
      <trkpt lat="43.00167" lon="-0.19158">
        <ele>1286.2</ele>
        <time>2022-10-22T08:32:48Z</time>
      </trkpt>
      <trkpt lat="43.00165" lon="-0.19159">
        <ele>1286.6</ele>
        <time>2022-10-22T08:32:49Z</time>
      </trkpt>
      <trkpt lat="43.00152" lon="-0.19164">
        <ele>1287.2</ele>
        <time>2022-10-22T08:32:55Z</time>
      </trkpt>
      <trkpt lat="43.0015" lon="-0.19165">
        <ele>1287.4</ele>
        <time>2022-10-22T08:32:56Z</time>
      </trkpt>
      <trkpt lat="43.00142" lon="-0.19166">
        <ele>1288</ele>
        <time>2022-10-22T08:33:00Z</time>
      </trkpt>
      <trkpt lat="43.00134" lon="-0.19167">
        <ele>1288.6</ele>
        <time>2022-10-22T08:33:04Z</time>
      </trkpt>
      <trkpt lat="43.0013" lon="-0.19168">
        <ele>1288.8</ele>
        <time>2022-10-22T08:33:06Z</time>
      </trkpt>
      <trkpt lat="43.00118" lon="-0.19169">
        <ele>1289.4</ele>
        <time>2022-10-22T08:33:12Z</time>
      </trkpt>
      <trkpt lat="43.00114" lon="-0.19169">
        <ele>1289.6</ele>
        <time>2022-10-22T08:33:14Z</time>
      </trkpt>
      <trkpt lat="43.00113" lon="-0.19169">
        <ele>1289.8</ele>
        <time>2022-10-22T08:33:15Z</time>
      </trkpt>
      <trkpt lat="43.00108" lon="-0.19168">
        <ele>1290.2</ele>
        <time>2022-10-22T08:33:18Z</time>
      </trkpt>
      <trkpt lat="43.00102" lon="-0.19165">
        <ele>1290.4</ele>
        <time>2022-10-22T08:33:21Z</time>
      </trkpt>
      <trkpt lat="43.00093" lon="-0.19164">
        <ele>1291.2</ele>
        <time>2022-10-22T08:33:26Z</time>
      </trkpt>
      <trkpt lat="43.00089" lon="-0.19165">
        <ele>1291.6</ele>
        <time>2022-10-22T08:33:28Z</time>
      </trkpt>
      <trkpt lat="43.00085" lon="-0.19165">
        <ele>1292</ele>
        <time>2022-10-22T08:33:30Z</time>
      </trkpt>
      <trkpt lat="43.00083" lon="-0.19165">
        <ele>1292.2</ele>
        <time>2022-10-22T08:33:31Z</time>
      </trkpt>
      <trkpt lat="43.00074" lon="-0.19166">
        <ele>1292.6</ele>
        <time>2022-10-22T08:33:35Z</time>
      </trkpt>
      <trkpt lat="43.00062" lon="-0.19169">
        <ele>1293.2</ele>
        <time>2022-10-22T08:33:40Z</time>
      </trkpt>
      <trkpt lat="43.00055" lon="-0.19168">
        <ele>1293.4</ele>
        <time>2022-10-22T08:33:43Z</time>
      </trkpt>
      <trkpt lat="43.00047" lon="-0.1917">
        <ele>1293.8</ele>
        <time>2022-10-22T08:33:47Z</time>
      </trkpt>
      <trkpt lat="43.0004" lon="-0.1917">
        <ele>1294.4</ele>
        <time>2022-10-22T08:33:51Z</time>
      </trkpt>
      <trkpt lat="43.00034" lon="-0.19169">
        <ele>1295</ele>
        <time>2022-10-22T08:33:54Z</time>
      </trkpt>
      <trkpt lat="43.00026" lon="-0.19169">
        <ele>1295.6</ele>
        <time>2022-10-22T08:33:58Z</time>
      </trkpt>
      <trkpt lat="43.00023" lon="-0.1917">
        <ele>1296</ele>
        <time>2022-10-22T08:34:00Z</time>
      </trkpt>
      <trkpt lat="43.00015" lon="-0.19172">
        <ele>1296.6</ele>
        <time>2022-10-22T08:34:05Z</time>
      </trkpt>
      <trkpt lat="43.00013" lon="-0.19172">
        <ele>1296.6</ele>
        <time>2022-10-22T08:34:06Z</time>
      </trkpt>
      <trkpt lat="43" lon="-0.19176">
        <ele>1297.8</ele>
        <time>2022-10-22T08:34:13Z</time>
      </trkpt>
      <trkpt lat="42.99999" lon="-0.19177">
        <ele>1297.8</ele>
        <time>2022-10-22T08:34:14Z</time>
      </trkpt>
      <trkpt lat="42.99997" lon="-0.19178">
        <ele>1298</ele>
        <time>2022-10-22T08:34:15Z</time>
      </trkpt>
      <trkpt lat="42.99988" lon="-0.19183">
        <ele>1298.8</ele>
        <time>2022-10-22T08:34:20Z</time>
      </trkpt>
      <trkpt lat="42.99984" lon="-0.19186">
        <ele>1299</ele>
        <time>2022-10-22T08:34:22Z</time>
      </trkpt>
      <trkpt lat="42.99977" lon="-0.19191">
        <ele>1299.8</ele>
        <time>2022-10-22T08:34:26Z</time>
      </trkpt>
      <trkpt lat="42.99973" lon="-0.19195">
        <ele>1300</ele>
        <time>2022-10-22T08:34:28Z</time>
      </trkpt>
      <trkpt lat="42.99969" lon="-0.19199">
        <ele>1300.4</ele>
        <time>2022-10-22T08:34:30Z</time>
      </trkpt>
      <trkpt lat="42.99965" lon="-0.19201">
        <ele>1300.6</ele>
        <time>2022-10-22T08:34:32Z</time>
      </trkpt>
      <trkpt lat="42.99961" lon="-0.19203">
        <ele>1301</ele>
        <time>2022-10-22T08:34:34Z</time>
      </trkpt>
      <trkpt lat="42.99958" lon="-0.19204">
        <ele>1301.2</ele>
        <time>2022-10-22T08:34:36Z</time>
      </trkpt>
      <trkpt lat="42.99955" lon="-0.19206">
        <ele>1301.4</ele>
        <time>2022-10-22T08:34:38Z</time>
      </trkpt>
      <trkpt lat="42.99945" lon="-0.1921">
        <ele>1301.8</ele>
        <time>2022-10-22T08:34:44Z</time>
      </trkpt>
      <trkpt lat="42.99942" lon="-0.19212">
        <ele>1301.8</ele>
        <time>2022-10-22T08:34:45Z</time>
      </trkpt>
      <trkpt lat="42.99931" lon="-0.19218">
        <ele>1302.8</ele>
        <time>2022-10-22T08:34:51Z</time>
      </trkpt>
      <trkpt lat="42.99929" lon="-0.19219">
        <ele>1303</ele>
        <time>2022-10-22T08:34:52Z</time>
      </trkpt>
      <trkpt lat="42.99921" lon="-0.19223">
        <ele>1303.6</ele>
        <time>2022-10-22T08:34:56Z</time>
      </trkpt>
      <trkpt lat="42.99919" lon="-0.19225">
        <ele>1303.8</ele>
        <time>2022-10-22T08:34:57Z</time>
      </trkpt>
      <trkpt lat="42.99917" lon="-0.19227">
        <ele>1303.8</ele>
        <time>2022-10-22T08:34:58Z</time>
      </trkpt>
      <trkpt lat="42.99911" lon="-0.19231">
        <ele>1304.4</ele>
        <time>2022-10-22T08:35:01Z</time>
      </trkpt>
      <trkpt lat="42.99906" lon="-0.19234">
        <ele>1304.6</ele>
        <time>2022-10-22T08:35:03Z</time>
      </trkpt>
      <trkpt lat="42.99899" lon="-0.19238">
        <ele>1305</ele>
        <time>2022-10-22T08:35:06Z</time>
      </trkpt>
      <trkpt lat="42.9989" lon="-0.19243">
        <ele>1305.4</ele>
        <time>2022-10-22T08:35:11Z</time>
      </trkpt>
      <trkpt lat="42.99889" lon="-0.19239">
        <ele>1305.6</ele>
        <time>2022-10-22T08:35:13Z</time>
      </trkpt>
      <trkpt lat="42.99889" lon="-0.19235">
        <ele>1305.8</ele>
        <time>2022-10-22T08:35:15Z</time>
      </trkpt>
      <trkpt lat="42.99889" lon="-0.19234">
        <ele>1306</ele>
        <time>2022-10-22T08:35:16Z</time>
      </trkpt>
      <trkpt lat="42.9989" lon="-0.19233">
        <ele>1306.2</ele>
        <time>2022-10-22T08:35:17Z</time>
      </trkpt>
      <trkpt lat="42.99891" lon="-0.19233">
        <ele>1306.4</ele>
        <time>2022-10-22T08:35:21Z</time>
      </trkpt>
      <trkpt lat="42.99891" lon="-0.19233">
        <ele>1306.4</ele>
        <time>2022-10-22T08:35:51Z</time>
      </trkpt>
      <trkpt lat="42.99891" lon="-0.19233">
        <ele>1306.2</ele>
        <time>2022-10-22T08:38:19Z</time>
      </trkpt>
      <trkpt lat="42.99896" lon="-0.19229">
        <ele>1306.8</ele>
        <time>2022-10-22T08:38:47Z</time>
      </trkpt>
      <trkpt lat="42.99903" lon="-0.19222">
        <ele>1307.2</ele>
        <time>2022-10-22T08:38:52Z</time>
      </trkpt>
      <trkpt lat="42.99908" lon="-0.19219">
        <ele>1307.4</ele>
        <time>2022-10-22T08:38:55Z</time>
      </trkpt>
      <trkpt lat="42.99915" lon="-0.19214">
        <ele>1308.4</ele>
        <time>2022-10-22T08:38:59Z</time>
      </trkpt>
      <trkpt lat="42.99918" lon="-0.19212">
        <ele>1309</ele>
        <time>2022-10-22T08:39:01Z</time>
      </trkpt>
      <trkpt lat="42.9992" lon="-0.19208">
        <ele>1309.6</ele>
        <time>2022-10-22T08:39:03Z</time>
      </trkpt>
      <trkpt lat="42.99922" lon="-0.19207">
        <ele>1309.8</ele>
        <time>2022-10-22T08:39:05Z</time>
      </trkpt>
      <trkpt lat="42.99926" lon="-0.19203">
        <ele>1310.2</ele>
        <time>2022-10-22T08:39:07Z</time>
      </trkpt>
      <trkpt lat="42.9993" lon="-0.192">
        <ele>1310.6</ele>
        <time>2022-10-22T08:39:09Z</time>
      </trkpt>
      <trkpt lat="42.99938" lon="-0.19193">
        <ele>1311.6</ele>
        <time>2022-10-22T08:39:13Z</time>
      </trkpt>
      <trkpt lat="42.99939" lon="-0.19191">
        <ele>1311.8</ele>
        <time>2022-10-22T08:39:14Z</time>
      </trkpt>
      <trkpt lat="42.99941" lon="-0.19184">
        <ele>1312.6</ele>
        <time>2022-10-22T08:39:18Z</time>
      </trkpt>
      <trkpt lat="42.99943" lon="-0.19182">
        <ele>1313</ele>
        <time>2022-10-22T08:39:20Z</time>
      </trkpt>
      <trkpt lat="42.99944" lon="-0.19181">
        <ele>1313.2</ele>
        <time>2022-10-22T08:39:21Z</time>
      </trkpt>
      <trkpt lat="42.99948" lon="-0.19178">
        <ele>1314</ele>
        <time>2022-10-22T08:39:24Z</time>
      </trkpt>
      <trkpt lat="42.99952" lon="-0.19173">
        <ele>1314.8</ele>
        <time>2022-10-22T08:39:28Z</time>
      </trkpt>
      <trkpt lat="42.99954" lon="-0.19172">
        <ele>1315</ele>
        <time>2022-10-22T08:39:29Z</time>
      </trkpt>
      <trkpt lat="42.99955" lon="-0.19171">
        <ele>1315</ele>
        <time>2022-10-22T08:39:30Z</time>
      </trkpt>
      <trkpt lat="42.99958" lon="-0.19165">
        <ele>1315.4</ele>
        <time>2022-10-22T08:39:33Z</time>
      </trkpt>
      <trkpt lat="42.99961" lon="-0.19163">
        <ele>1316</ele>
        <time>2022-10-22T08:39:36Z</time>
      </trkpt>
      <trkpt lat="42.99963" lon="-0.19159">
        <ele>1316.2</ele>
        <time>2022-10-22T08:39:38Z</time>
      </trkpt>
      <trkpt lat="42.99964" lon="-0.19158">
        <ele>1316.4</ele>
        <time>2022-10-22T08:39:39Z</time>
      </trkpt>
      <trkpt lat="42.99968" lon="-0.19152">
        <ele>1317.4</ele>
        <time>2022-10-22T08:39:43Z</time>
      </trkpt>
      <trkpt lat="42.99973" lon="-0.19148">
        <ele>1318</ele>
        <time>2022-10-22T08:39:46Z</time>
      </trkpt>
      <trkpt lat="42.99981" lon="-0.19138">
        <ele>1318.6</ele>
        <time>2022-10-22T08:39:51Z</time>
      </trkpt>
      <trkpt lat="42.99986" lon="-0.19136">
        <ele>1319.2</ele>
        <time>2022-10-22T08:39:54Z</time>
      </trkpt>
      <trkpt lat="42.99989" lon="-0.19134">
        <ele>1319.6</ele>
        <time>2022-10-22T08:39:56Z</time>
      </trkpt>
      <trkpt lat="42.99993" lon="-0.19131">
        <ele>1320</ele>
        <time>2022-10-22T08:39:58Z</time>
      </trkpt>
      <trkpt lat="42.99995" lon="-0.19127">
        <ele>1320.4</ele>
        <time>2022-10-22T08:40:00Z</time>
      </trkpt>
      <trkpt lat="42.99997" lon="-0.19123">
        <ele>1320.8</ele>
        <time>2022-10-22T08:40:02Z</time>
      </trkpt>
      <trkpt lat="43.00004" lon="-0.19118">
        <ele>1321.4</ele>
        <time>2022-10-22T08:40:07Z</time>
      </trkpt>
      <trkpt lat="43.00005" lon="-0.19118">
        <ele>1321.8</ele>
        <time>2022-10-22T08:40:08Z</time>
      </trkpt>
      <trkpt lat="43.00015" lon="-0.19114">
        <ele>1322.6</ele>
        <time>2022-10-22T08:40:14Z</time>
      </trkpt>
      <trkpt lat="43.00017" lon="-0.19113">
        <ele>1322.6</ele>
        <time>2022-10-22T08:40:15Z</time>
      </trkpt>
      <trkpt lat="43.00018" lon="-0.19113">
        <ele>1322.8</ele>
        <time>2022-10-22T08:40:16Z</time>
      </trkpt>
      <trkpt lat="43.0002" lon="-0.19113">
        <ele>1323</ele>
        <time>2022-10-22T08:40:18Z</time>
      </trkpt>
      <trkpt lat="43.00021" lon="-0.19112">
        <ele>1323</ele>
        <time>2022-10-22T08:40:19Z</time>
      </trkpt>
      <trkpt lat="43.0003" lon="-0.19105">
        <ele>1324</ele>
        <time>2022-10-22T08:40:24Z</time>
      </trkpt>
      <trkpt lat="43.00036" lon="-0.19103">
        <ele>1324.6</ele>
        <time>2022-10-22T08:40:27Z</time>
      </trkpt>
      <trkpt lat="43.00042" lon="-0.19099">
        <ele>1325</ele>
        <time>2022-10-22T08:40:30Z</time>
      </trkpt>
      <trkpt lat="43.00052" lon="-0.19094">
        <ele>1326</ele>
        <time>2022-10-22T08:40:36Z</time>
      </trkpt>
      <trkpt lat="43.00056" lon="-0.19088">
        <ele>1326.6</ele>
        <time>2022-10-22T08:40:39Z</time>
      </trkpt>
      <trkpt lat="43.00062" lon="-0.19084">
        <ele>1327</ele>
        <time>2022-10-22T08:40:42Z</time>
      </trkpt>
      <trkpt lat="43.00064" lon="-0.19083">
        <ele>1327.2</ele>
        <time>2022-10-22T08:40:43Z</time>
      </trkpt>
      <trkpt lat="43.00073" lon="-0.19072">
        <ele>1328</ele>
        <time>2022-10-22T08:40:50Z</time>
      </trkpt>
      <trkpt lat="43.00074" lon="-0.19072">
        <ele>1328.2</ele>
        <time>2022-10-22T08:40:51Z</time>
      </trkpt>
      <trkpt lat="43.0008" lon="-0.19065">
        <ele>1329</ele>
        <time>2022-10-22T08:40:56Z</time>
      </trkpt>
      <trkpt lat="43.00086" lon="-0.19059">
        <ele>1330.2</ele>
        <time>2022-10-22T08:41:01Z</time>
      </trkpt>
      <trkpt lat="43.00097" lon="-0.1905">
        <ele>1331.2</ele>
        <time>2022-10-22T08:41:08Z</time>
      </trkpt>
      <trkpt lat="43.00099" lon="-0.19048">
        <ele>1331.4</ele>
        <time>2022-10-22T08:41:10Z</time>
      </trkpt>
      <trkpt lat="43.00107" lon="-0.19037">
        <ele>1332.2</ele>
        <time>2022-10-22T08:41:16Z</time>
      </trkpt>
      <trkpt lat="43.00112" lon="-0.19031">
        <ele>1332.6</ele>
        <time>2022-10-22T08:41:19Z</time>
      </trkpt>
      <trkpt lat="43.00114" lon="-0.1903">
        <ele>1332.6</ele>
        <time>2022-10-22T08:41:20Z</time>
      </trkpt>
      <trkpt lat="43.00119" lon="-0.1902">
        <ele>1333</ele>
        <time>2022-10-22T08:41:24Z</time>
      </trkpt>
      <trkpt lat="43.0012" lon="-0.19015">
        <ele>1333.4</ele>
        <time>2022-10-22T08:41:26Z</time>
      </trkpt>
      <trkpt lat="43.00124" lon="-0.19">
        <ele>1333.8</ele>
        <time>2022-10-22T08:41:31Z</time>
      </trkpt>
      <trkpt lat="43.00125" lon="-0.18985">
        <ele>1334.4</ele>
        <time>2022-10-22T08:41:37Z</time>
      </trkpt>
      <trkpt lat="43.00125" lon="-0.18983">
        <ele>1334.6</ele>
        <time>2022-10-22T08:41:38Z</time>
      </trkpt>
      <trkpt lat="43.00124" lon="-0.18966">
        <ele>1335.4</ele>
        <time>2022-10-22T08:41:45Z</time>
      </trkpt>
      <trkpt lat="43.00124" lon="-0.18961">
        <ele>1335.6</ele>
        <time>2022-10-22T08:41:47Z</time>
      </trkpt>
      <trkpt lat="43.00121" lon="-0.18945">
        <ele>1336</ele>
        <time>2022-10-22T08:41:54Z</time>
      </trkpt>
      <trkpt lat="43.00115" lon="-0.18935">
        <ele>1336.6</ele>
        <time>2022-10-22T08:42:00Z</time>
      </trkpt>
      <trkpt lat="43.00113" lon="-0.18933">
        <ele>1336.8</ele>
        <time>2022-10-22T08:42:01Z</time>
      </trkpt>
      <trkpt lat="43.001" lon="-0.18922">
        <ele>1337.2</ele>
        <time>2022-10-22T08:42:08Z</time>
      </trkpt>
      <trkpt lat="43.0008" lon="-0.189">
        <ele>1336.8</ele>
        <time>2022-10-22T08:42:15Z</time>
      </trkpt>
      <trkpt lat="43.0007" lon="-0.18887">
        <ele>1336.8</ele>
        <time>2022-10-22T08:42:21Z</time>
      </trkpt>
      <trkpt lat="43.00058" lon="-0.18882">
        <ele>1336.8</ele>
        <time>2022-10-22T08:42:27Z</time>
      </trkpt>
      <trkpt lat="43.00052" lon="-0.18881">
        <ele>1337</ele>
        <time>2022-10-22T08:42:31Z</time>
      </trkpt>
      <trkpt lat="43.00051" lon="-0.1888">
        <ele>1337</ele>
        <time>2022-10-22T08:42:32Z</time>
      </trkpt>
      <trkpt lat="43.00041" lon="-0.18873">
        <ele>1337.6</ele>
        <time>2022-10-22T08:42:38Z</time>
      </trkpt>
      <trkpt lat="43.00034" lon="-0.18866">
        <ele>1338</ele>
        <time>2022-10-22T08:42:42Z</time>
      </trkpt>
      <trkpt lat="43.00026" lon="-0.18853">
        <ele>1338.4</ele>
        <time>2022-10-22T08:42:50Z</time>
      </trkpt>
      <trkpt lat="43.00026" lon="-0.18852">
        <ele>1338.6</ele>
        <time>2022-10-22T08:42:51Z</time>
      </trkpt>
      <trkpt lat="43.00026" lon="-0.18847">
        <ele>1339</ele>
        <time>2022-10-22T08:42:54Z</time>
      </trkpt>
      <trkpt lat="43.00026" lon="-0.18843">
        <ele>1339.6</ele>
        <time>2022-10-22T08:42:56Z</time>
      </trkpt>
      <trkpt lat="43.00024" lon="-0.18838">
        <ele>1340.2</ele>
        <time>2022-10-22T08:42:59Z</time>
      </trkpt>
      <trkpt lat="43.00023" lon="-0.18833">
        <ele>1340.6</ele>
        <time>2022-10-22T08:43:01Z</time>
      </trkpt>
      <trkpt lat="43.00022" lon="-0.18827">
        <ele>1341</ele>
        <time>2022-10-22T08:43:04Z</time>
      </trkpt>
      <trkpt lat="43.00021" lon="-0.18825">
        <ele>1341.2</ele>
        <time>2022-10-22T08:43:05Z</time>
      </trkpt>
      <trkpt lat="43.0002" lon="-0.18822">
        <ele>1341.4</ele>
        <time>2022-10-22T08:43:07Z</time>
      </trkpt>
      <trkpt lat="43.00018" lon="-0.1882">
        <ele>1341.6</ele>
        <time>2022-10-22T08:43:08Z</time>
      </trkpt>
      <trkpt lat="43.00016" lon="-0.18816">
        <ele>1342.2</ele>
        <time>2022-10-22T08:43:10Z</time>
      </trkpt>
      <trkpt lat="43.00014" lon="-0.18808">
        <ele>1342.8</ele>
        <time>2022-10-22T08:43:13Z</time>
      </trkpt>
      <trkpt lat="43.00009" lon="-0.18798">
        <ele>1343.2</ele>
        <time>2022-10-22T08:43:17Z</time>
      </trkpt>
      <trkpt lat="43.00005" lon="-0.18787">
        <ele>1343.8</ele>
        <time>2022-10-22T08:43:21Z</time>
      </trkpt>
      <trkpt lat="43.00004" lon="-0.18783">
        <ele>1344.2</ele>
        <time>2022-10-22T08:43:24Z</time>
      </trkpt>
      <trkpt lat="43.00001" lon="-0.18778">
        <ele>1345</ele>
        <time>2022-10-22T08:43:27Z</time>
      </trkpt>
      <trkpt lat="42.99999" lon="-0.18773">
        <ele>1345.4</ele>
        <time>2022-10-22T08:43:29Z</time>
      </trkpt>
      <trkpt lat="42.99999" lon="-0.18771">
        <ele>1345.6</ele>
        <time>2022-10-22T08:43:30Z</time>
      </trkpt>
      <trkpt lat="42.99997" lon="-0.18767">
        <ele>1346</ele>
        <time>2022-10-22T08:43:32Z</time>
      </trkpt>
      <trkpt lat="42.99992" lon="-0.1876">
        <ele>1347</ele>
        <time>2022-10-22T08:43:37Z</time>
      </trkpt>
      <trkpt lat="42.99992" lon="-0.18759">
        <ele>1347.2</ele>
        <time>2022-10-22T08:43:38Z</time>
      </trkpt>
      <trkpt lat="42.9999" lon="-0.18753">
        <ele>1348.2</ele>
        <time>2022-10-22T08:43:42Z</time>
      </trkpt>
      <trkpt lat="42.99989" lon="-0.18751">
        <ele>1348.4</ele>
        <time>2022-10-22T08:43:43Z</time>
      </trkpt>
      <trkpt lat="42.99989" lon="-0.18747">
        <ele>1348.8</ele>
        <time>2022-10-22T08:43:46Z</time>
      </trkpt>
      <trkpt lat="42.99989" lon="-0.18743">
        <ele>1349.2</ele>
        <time>2022-10-22T08:43:49Z</time>
      </trkpt>
      <trkpt lat="42.99989" lon="-0.18738">
        <ele>1349.8</ele>
        <time>2022-10-22T08:43:52Z</time>
      </trkpt>
      <trkpt lat="42.9999" lon="-0.18737">
        <ele>1350</ele>
        <time>2022-10-22T08:43:53Z</time>
      </trkpt>
      <trkpt lat="42.99991" lon="-0.18734">
        <ele>1350.4</ele>
        <time>2022-10-22T08:43:55Z</time>
      </trkpt>
      <trkpt lat="42.99992" lon="-0.18728">
        <ele>1351</ele>
        <time>2022-10-22T08:43:58Z</time>
      </trkpt>
      <trkpt lat="42.99994" lon="-0.18721">
        <ele>1351.4</ele>
        <time>2022-10-22T08:44:02Z</time>
      </trkpt>
      <trkpt lat="42.99995" lon="-0.18717">
        <ele>1351.8</ele>
        <time>2022-10-22T08:44:04Z</time>
      </trkpt>
      <trkpt lat="42.99998" lon="-0.18708">
        <ele>1352.4</ele>
        <time>2022-10-22T08:44:08Z</time>
      </trkpt>
      <trkpt lat="43.00002" lon="-0.18701">
        <ele>1352.6</ele>
        <time>2022-10-22T08:44:11Z</time>
      </trkpt>
      <trkpt lat="43.00007" lon="-0.18692">
        <ele>1353.6</ele>
        <time>2022-10-22T08:44:16Z</time>
      </trkpt>
      <trkpt lat="43.00008" lon="-0.18688">
        <ele>1354</ele>
        <time>2022-10-22T08:44:18Z</time>
      </trkpt>
      <trkpt lat="43.00012" lon="-0.18679">
        <ele>1354.8</ele>
        <time>2022-10-22T08:44:22Z</time>
      </trkpt>
      <trkpt lat="43.00014" lon="-0.18672">
        <ele>1355.4</ele>
        <time>2022-10-22T08:44:25Z</time>
      </trkpt>
      <trkpt lat="43.00019" lon="-0.18664">
        <ele>1355.8</ele>
        <time>2022-10-22T08:44:28Z</time>
      </trkpt>
      <trkpt lat="43.00021" lon="-0.18662">
        <ele>1355.8</ele>
        <time>2022-10-22T08:44:29Z</time>
      </trkpt>
      <trkpt lat="43.00023" lon="-0.18657">
        <ele>1356</ele>
        <time>2022-10-22T08:44:31Z</time>
      </trkpt>
      <trkpt lat="43.00026" lon="-0.18642">
        <ele>1357</ele>
        <time>2022-10-22T08:44:37Z</time>
      </trkpt>
      <trkpt lat="43.00027" lon="-0.18636">
        <ele>1357.2</ele>
        <time>2022-10-22T08:44:39Z</time>
      </trkpt>
      <trkpt lat="43.0003" lon="-0.18632">
        <ele>1357.6</ele>
        <time>2022-10-22T08:44:42Z</time>
      </trkpt>
      <trkpt lat="43.00032" lon="-0.18626">
        <ele>1358</ele>
        <time>2022-10-22T08:44:45Z</time>
      </trkpt>
      <trkpt lat="43.00035" lon="-0.18613">
        <ele>1358.8</ele>
        <time>2022-10-22T08:44:51Z</time>
      </trkpt>
      <trkpt lat="43.00036" lon="-0.18612">
        <ele>1359</ele>
        <time>2022-10-22T08:44:52Z</time>
      </trkpt>
      <trkpt lat="43.00037" lon="-0.1861">
        <ele>1359.2</ele>
        <time>2022-10-22T08:44:53Z</time>
      </trkpt>
      <trkpt lat="43.00039" lon="-0.18604">
        <ele>1359.8</ele>
        <time>2022-10-22T08:44:56Z</time>
      </trkpt>
      <trkpt lat="43.0004" lon="-0.186">
        <ele>1360.2</ele>
        <time>2022-10-22T08:44:58Z</time>
      </trkpt>
      <trkpt lat="43.00042" lon="-0.18592">
        <ele>1361</ele>
        <time>2022-10-22T08:45:03Z</time>
      </trkpt>
      <trkpt lat="43.00042" lon="-0.1859">
        <ele>1361.2</ele>
        <time>2022-10-22T08:45:04Z</time>
      </trkpt>
      <trkpt lat="43.00043" lon="-0.18587">
        <ele>1361.6</ele>
        <time>2022-10-22T08:45:06Z</time>
      </trkpt>
      <trkpt lat="43.00045" lon="-0.1858">
        <ele>1361.8</ele>
        <time>2022-10-22T08:45:09Z</time>
      </trkpt>
      <trkpt lat="43.00049" lon="-0.1857">
        <ele>1362.4</ele>
        <time>2022-10-22T08:45:13Z</time>
      </trkpt>
      <trkpt lat="43.00049" lon="-0.18557">
        <ele>1363</ele>
        <time>2022-10-22T08:45:16Z</time>
      </trkpt>
      <trkpt lat="43.0005" lon="-0.18546">
        <ele>1363.4</ele>
        <time>2022-10-22T08:45:19Z</time>
      </trkpt>
      <trkpt lat="43.00053" lon="-0.18526">
        <ele>1364.2</ele>
        <time>2022-10-22T08:45:25Z</time>
      </trkpt>
      <trkpt lat="43.00053" lon="-0.18517">
        <ele>1364.2</ele>
        <time>2022-10-22T08:45:28Z</time>
      </trkpt>
      <trkpt lat="43.00052" lon="-0.18503">
        <ele>1364.6</ele>
        <time>2022-10-22T08:45:34Z</time>
      </trkpt>
      <trkpt lat="43.00053" lon="-0.18492">
        <ele>1365</ele>
        <time>2022-10-22T08:45:38Z</time>
      </trkpt>
      <trkpt lat="43.00052" lon="-0.18488">
        <ele>1365</ele>
        <time>2022-10-22T08:45:39Z</time>
      </trkpt>
      <trkpt lat="43.00052" lon="-0.18485">
        <ele>1365.2</ele>
        <time>2022-10-22T08:45:40Z</time>
      </trkpt>
      <trkpt lat="43.00049" lon="-0.18469">
        <ele>1365.8</ele>
        <time>2022-10-22T08:45:45Z</time>
      </trkpt>
      <trkpt lat="43.00049" lon="-0.18467">
        <ele>1366</ele>
        <time>2022-10-22T08:45:46Z</time>
      </trkpt>
      <trkpt lat="43.0005" lon="-0.18458">
        <ele>1366.2</ele>
        <time>2022-10-22T08:45:49Z</time>
      </trkpt>
      <trkpt lat="43.0005" lon="-0.18455">
        <ele>1366.4</ele>
        <time>2022-10-22T08:45:50Z</time>
      </trkpt>
      <trkpt lat="43.0005" lon="-0.18449">
        <ele>1366.4</ele>
        <time>2022-10-22T08:45:52Z</time>
      </trkpt>
      <trkpt lat="43.00044" lon="-0.18428">
        <ele>1366.6</ele>
        <time>2022-10-22T08:45:58Z</time>
      </trkpt>
      <trkpt lat="43.00036" lon="-0.18405">
        <ele>1367.2</ele>
        <time>2022-10-22T08:46:07Z</time>
      </trkpt>
      <trkpt lat="43.00034" lon="-0.18401">
        <ele>1367.2</ele>
        <time>2022-10-22T08:46:09Z</time>
      </trkpt>
      <trkpt lat="43.00031" lon="-0.18388">
        <ele>1367.6</ele>
        <time>2022-10-22T08:46:14Z</time>
      </trkpt>
      <trkpt lat="43.00029" lon="-0.18379">
        <ele>1368</ele>
        <time>2022-10-22T08:46:18Z</time>
      </trkpt>
      <trkpt lat="43.00029" lon="-0.18375">
        <ele>1368.2</ele>
        <time>2022-10-22T08:46:20Z</time>
      </trkpt>
      <trkpt lat="43.00029" lon="-0.1837">
        <ele>1368.4</ele>
        <time>2022-10-22T08:46:22Z</time>
      </trkpt>
      <trkpt lat="43.00032" lon="-0.18357">
        <ele>1368.8</ele>
        <time>2022-10-22T08:46:27Z</time>
      </trkpt>
      <trkpt lat="43.00034" lon="-0.18343">
        <ele>1368.8</ele>
        <time>2022-10-22T08:46:32Z</time>
      </trkpt>
      <trkpt lat="43.00032" lon="-0.18335">
        <ele>1368.8</ele>
        <time>2022-10-22T08:46:34Z</time>
      </trkpt>
      <trkpt lat="43.00031" lon="-0.18325">
        <ele>1369.2</ele>
        <time>2022-10-22T08:46:38Z</time>
      </trkpt>
      <trkpt lat="43.0003" lon="-0.1832">
        <ele>1369.4</ele>
        <time>2022-10-22T08:46:41Z</time>
      </trkpt>
      <trkpt lat="43.0003" lon="-0.18306">
        <ele>1370.4</ele>
        <time>2022-10-22T08:46:46Z</time>
      </trkpt>
      <trkpt lat="43.0003" lon="-0.18299">
        <ele>1370.6</ele>
        <time>2022-10-22T08:46:49Z</time>
      </trkpt>
      <trkpt lat="43.0003" lon="-0.18296">
        <ele>1370.6</ele>
        <time>2022-10-22T08:46:50Z</time>
      </trkpt>
      <trkpt lat="43.0003" lon="-0.18288">
        <ele>1370.8</ele>
        <time>2022-10-22T08:46:53Z</time>
      </trkpt>
      <trkpt lat="43.00034" lon="-0.18267">
        <ele>1371</ele>
        <time>2022-10-22T08:46:59Z</time>
      </trkpt>
      <trkpt lat="43.00037" lon="-0.18256">
        <ele>1371.2</ele>
        <time>2022-10-22T08:47:02Z</time>
      </trkpt>
      <trkpt lat="43.00039" lon="-0.18241">
        <ele>1371.4</ele>
        <time>2022-10-22T08:47:06Z</time>
      </trkpt>
      <trkpt lat="43.00037" lon="-0.18209">
        <ele>1371.8</ele>
        <time>2022-10-22T08:47:13Z</time>
      </trkpt>
      <trkpt lat="43.00034" lon="-0.18191">
        <ele>1372</ele>
        <time>2022-10-22T08:47:17Z</time>
      </trkpt>
      <trkpt lat="43.00034" lon="-0.18184">
        <ele>1372</ele>
        <time>2022-10-22T08:47:19Z</time>
      </trkpt>
      <trkpt lat="43.00034" lon="-0.18182">
        <ele>1372</ele>
        <time>2022-10-22T08:47:20Z</time>
      </trkpt>
      <trkpt lat="43.00036" lon="-0.18176">
        <ele>1372.2</ele>
        <time>2022-10-22T08:47:22Z</time>
      </trkpt>
      <trkpt lat="43.00037" lon="-0.18173">
        <ele>1372.2</ele>
        <time>2022-10-22T08:47:23Z</time>
      </trkpt>
      <trkpt lat="43.00037" lon="-0.18149">
        <ele>1372.4</ele>
        <time>2022-10-22T08:47:30Z</time>
      </trkpt>
      <trkpt lat="43.0004" lon="-0.18131">
        <ele>1373.2</ele>
        <time>2022-10-22T08:47:36Z</time>
      </trkpt>
      <trkpt lat="43.00041" lon="-0.18125">
        <ele>1373.4</ele>
        <time>2022-10-22T08:47:38Z</time>
      </trkpt>
      <trkpt lat="43.00041" lon="-0.18106">
        <ele>1374.4</ele>
        <time>2022-10-22T08:47:44Z</time>
      </trkpt>
      <trkpt lat="43.00042" lon="-0.18103">
        <ele>1374.4</ele>
        <time>2022-10-22T08:47:45Z</time>
      </trkpt>
      <trkpt lat="43.00045" lon="-0.18088">
        <ele>1374.8</ele>
        <time>2022-10-22T08:47:50Z</time>
      </trkpt>
      <trkpt lat="43.00046" lon="-0.18083">
        <ele>1374.8</ele>
        <time>2022-10-22T08:47:51Z</time>
      </trkpt>
      <trkpt lat="43.00054" lon="-0.18061">
        <ele>1375</ele>
        <time>2022-10-22T08:47:56Z</time>
      </trkpt>
      <trkpt lat="43.00065" lon="-0.18039">
        <ele>1375</ele>
        <time>2022-10-22T08:48:02Z</time>
      </trkpt>
      <trkpt lat="43.00078" lon="-0.17995">
        <ele>1374</ele>
        <time>2022-10-22T08:48:12Z</time>
      </trkpt>
      <trkpt lat="43.0009" lon="-0.17972">
        <ele>1373.4</ele>
        <time>2022-10-22T08:48:18Z</time>
      </trkpt>
      <trkpt lat="43.00099" lon="-0.17943">
        <ele>1373</ele>
        <time>2022-10-22T08:48:25Z</time>
      </trkpt>
      <trkpt lat="43.00101" lon="-0.17936">
        <ele>1373</ele>
        <time>2022-10-22T08:48:27Z</time>
      </trkpt>
      <trkpt lat="43.00104" lon="-0.17919">
        <ele>1372.6</ele>
        <time>2022-10-22T08:48:31Z</time>
      </trkpt>
      <trkpt lat="43.0011" lon="-0.17891">
        <ele>1372</ele>
        <time>2022-10-22T08:48:36Z</time>
      </trkpt>
      <trkpt lat="43.00108" lon="-0.17881">
        <ele>1371.8</ele>
        <time>2022-10-22T08:48:38Z</time>
      </trkpt>
      <trkpt lat="43.00102" lon="-0.17871">
        <ele>1371.4</ele>
        <time>2022-10-22T08:48:40Z</time>
      </trkpt>
      <trkpt lat="43.0009" lon="-0.17853">
        <ele>1370.8</ele>
        <time>2022-10-22T08:48:44Z</time>
      </trkpt>
      <trkpt lat="43.00082" lon="-0.17839">
        <ele>1370.4</ele>
        <time>2022-10-22T08:48:49Z</time>
      </trkpt>
      <trkpt lat="43.00082" lon="-0.17836">
        <ele>1370.4</ele>
        <time>2022-10-22T08:48:51Z</time>
      </trkpt>
      <trkpt lat="43.00081" lon="-0.17831">
        <ele>1370.6</ele>
        <time>2022-10-22T08:48:54Z</time>
      </trkpt>
      <trkpt lat="43.00078" lon="-0.17818">
        <ele>1371.8</ele>
        <time>2022-10-22T08:48:59Z</time>
      </trkpt>
      <trkpt lat="43.00077" lon="-0.17816">
        <ele>1372</ele>
        <time>2022-10-22T08:49:00Z</time>
      </trkpt>
      <trkpt lat="43.00075" lon="-0.17799">
        <ele>1373.2</ele>
        <time>2022-10-22T08:49:05Z</time>
      </trkpt>
      <trkpt lat="43.00075" lon="-0.17796">
        <ele>1373.4</ele>
        <time>2022-10-22T08:49:06Z</time>
      </trkpt>
      <trkpt lat="43.00075" lon="-0.17791">
        <ele>1373.6</ele>
        <time>2022-10-22T08:49:08Z</time>
      </trkpt>
      <trkpt lat="43.00075" lon="-0.17787">
        <ele>1374</ele>
        <time>2022-10-22T08:49:10Z</time>
      </trkpt>
      <trkpt lat="43.00076" lon="-0.17785">
        <ele>1374</ele>
        <time>2022-10-22T08:49:11Z</time>
      </trkpt>
      <trkpt lat="43.00077" lon="-0.17782">
        <ele>1374.2</ele>
        <time>2022-10-22T08:49:12Z</time>
      </trkpt>
      <trkpt lat="43.00081" lon="-0.17766">
        <ele>1375</ele>
        <time>2022-10-22T08:49:17Z</time>
      </trkpt>
      <trkpt lat="43.00082" lon="-0.17758">
        <ele>1375</ele>
        <time>2022-10-22T08:49:20Z</time>
      </trkpt>
      <trkpt lat="43.00085" lon="-0.17744">
        <ele>1375.8</ele>
        <time>2022-10-22T08:49:24Z</time>
      </trkpt>
      <trkpt lat="43.00091" lon="-0.17735">
        <ele>1376.4</ele>
        <time>2022-10-22T08:49:28Z</time>
      </trkpt>
      <trkpt lat="43.00092" lon="-0.17726">
        <ele>1377.2</ele>
        <time>2022-10-22T08:49:32Z</time>
      </trkpt>
      <trkpt lat="43.00092" lon="-0.17725">
        <ele>1377.6</ele>
        <time>2022-10-22T08:49:33Z</time>
      </trkpt>
      <trkpt lat="43.00093" lon="-0.17717">
        <ele>1378.6</ele>
        <time>2022-10-22T08:49:37Z</time>
      </trkpt>
      <trkpt lat="43.00095" lon="-0.1771">
        <ele>1379.2</ele>
        <time>2022-10-22T08:49:40Z</time>
      </trkpt>
      <trkpt lat="43.00096" lon="-0.17706">
        <ele>1379.6</ele>
        <time>2022-10-22T08:49:42Z</time>
      </trkpt>
      <trkpt lat="43.00098" lon="-0.17693">
        <ele>1380.6</ele>
        <time>2022-10-22T08:49:48Z</time>
      </trkpt>
      <trkpt lat="43.00099" lon="-0.1769">
        <ele>1380.6</ele>
        <time>2022-10-22T08:49:49Z</time>
      </trkpt>
      <trkpt lat="43.001" lon="-0.17683">
        <ele>1381.2</ele>
        <time>2022-10-22T08:49:52Z</time>
      </trkpt>
      <trkpt lat="43.00102" lon="-0.17679">
        <ele>1381.4</ele>
        <time>2022-10-22T08:49:54Z</time>
      </trkpt>
      <trkpt lat="43.00102" lon="-0.17674">
        <ele>1381.6</ele>
        <time>2022-10-22T08:49:56Z</time>
      </trkpt>
      <trkpt lat="43.00101" lon="-0.17668">
        <ele>1382</ele>
        <time>2022-10-22T08:49:58Z</time>
      </trkpt>
      <trkpt lat="43.001" lon="-0.17665">
        <ele>1382.2</ele>
        <time>2022-10-22T08:49:59Z</time>
      </trkpt>
      <trkpt lat="43.00102" lon="-0.1765">
        <ele>1382.8</ele>
        <time>2022-10-22T08:50:04Z</time>
      </trkpt>
      <trkpt lat="43.00102" lon="-0.17645">
        <ele>1383</ele>
        <time>2022-10-22T08:50:06Z</time>
      </trkpt>
      <trkpt lat="43.00099" lon="-0.17627">
        <ele>1384</ele>
        <time>2022-10-22T08:50:12Z</time>
      </trkpt>
      <trkpt lat="43.00098" lon="-0.17622">
        <ele>1384.2</ele>
        <time>2022-10-22T08:50:14Z</time>
      </trkpt>
      <trkpt lat="43.00095" lon="-0.17611">
        <ele>1384.8</ele>
        <time>2022-10-22T08:50:19Z</time>
      </trkpt>
      <trkpt lat="43.00094" lon="-0.17608">
        <ele>1385</ele>
        <time>2022-10-22T08:50:20Z</time>
      </trkpt>
      <trkpt lat="43.00093" lon="-0.17606">
        <ele>1385.2</ele>
        <time>2022-10-22T08:50:21Z</time>
      </trkpt>
      <trkpt lat="43.00092" lon="-0.17604">
        <ele>1385.2</ele>
        <time>2022-10-22T08:50:22Z</time>
      </trkpt>
      <trkpt lat="43.00091" lon="-0.176">
        <ele>1386</ele>
        <time>2022-10-22T08:50:25Z</time>
      </trkpt>
      <trkpt lat="43.00091" lon="-0.17597">
        <ele>1386.6</ele>
        <time>2022-10-22T08:50:27Z</time>
      </trkpt>
      <trkpt lat="43.0009" lon="-0.17595">
        <ele>1386.6</ele>
        <time>2022-10-22T08:50:28Z</time>
      </trkpt>
      <trkpt lat="43.0009" lon="-0.17593">
        <ele>1387</ele>
        <time>2022-10-22T08:50:29Z</time>
      </trkpt>
      <trkpt lat="43.00091" lon="-0.17584">
        <ele>1387.6</ele>
        <time>2022-10-22T08:50:33Z</time>
      </trkpt>
      <trkpt lat="43.00092" lon="-0.17577">
        <ele>1388</ele>
        <time>2022-10-22T08:50:36Z</time>
      </trkpt>
      <trkpt lat="43.00095" lon="-0.17568">
        <ele>1388.4</ele>
        <time>2022-10-22T08:50:40Z</time>
      </trkpt>
      <trkpt lat="43.00098" lon="-0.17559">
        <ele>1389.2</ele>
        <time>2022-10-22T08:50:44Z</time>
      </trkpt>
      <trkpt lat="43.00101" lon="-0.17554">
        <ele>1389.4</ele>
        <time>2022-10-22T08:50:46Z</time>
      </trkpt>
      <trkpt lat="43.00105" lon="-0.17536">
        <ele>1390.4</ele>
        <time>2022-10-22T08:50:54Z</time>
      </trkpt>
      <trkpt lat="43.00105" lon="-0.17533">
        <ele>1390.4</ele>
        <time>2022-10-22T08:50:55Z</time>
      </trkpt>
      <trkpt lat="43.00109" lon="-0.17521">
        <ele>1391.4</ele>
        <time>2022-10-22T08:51:00Z</time>
      </trkpt>
      <trkpt lat="43.00111" lon="-0.17515">
        <ele>1392</ele>
        <time>2022-10-22T08:51:03Z</time>
      </trkpt>
      <trkpt lat="43.00111" lon="-0.17513">
        <ele>1392.2</ele>
        <time>2022-10-22T08:51:04Z</time>
      </trkpt>
      <trkpt lat="43.00115" lon="-0.175">
        <ele>1393.2</ele>
        <time>2022-10-22T08:51:10Z</time>
      </trkpt>
      <trkpt lat="43.0012" lon="-0.17488">
        <ele>1394.4</ele>
        <time>2022-10-22T08:51:16Z</time>
      </trkpt>
      <trkpt lat="43.00122" lon="-0.17481">
        <ele>1395</ele>
        <time>2022-10-22T08:51:19Z</time>
      </trkpt>
      <trkpt lat="43.00124" lon="-0.17476">
        <ele>1395.4</ele>
        <time>2022-10-22T08:51:21Z</time>
      </trkpt>
      <trkpt lat="43.00127" lon="-0.17468">
        <ele>1395.8</ele>
        <time>2022-10-22T08:51:25Z</time>
      </trkpt>
      <trkpt lat="43.00129" lon="-0.17461">
        <ele>1396.4</ele>
        <time>2022-10-22T08:51:28Z</time>
      </trkpt>
      <trkpt lat="43.0013" lon="-0.17459">
        <ele>1396.6</ele>
        <time>2022-10-22T08:51:29Z</time>
      </trkpt>
      <trkpt lat="43.00131" lon="-0.17457">
        <ele>1397</ele>
        <time>2022-10-22T08:51:30Z</time>
      </trkpt>
      <trkpt lat="43.00137" lon="-0.17441">
        <ele>1397.6</ele>
        <time>2022-10-22T08:51:37Z</time>
      </trkpt>
      <trkpt lat="43.00138" lon="-0.17436">
        <ele>1397.8</ele>
        <time>2022-10-22T08:51:39Z</time>
      </trkpt>
      <trkpt lat="43.00139" lon="-0.17434">
        <ele>1398</ele>
        <time>2022-10-22T08:51:40Z</time>
      </trkpt>
      <trkpt lat="43.0014" lon="-0.1742">
        <ele>1398.8</ele>
        <time>2022-10-22T08:51:46Z</time>
      </trkpt>
      <trkpt lat="43.0014" lon="-0.17418">
        <ele>1399</ele>
        <time>2022-10-22T08:51:47Z</time>
      </trkpt>
      <trkpt lat="43.00143" lon="-0.17409">
        <ele>1399.8</ele>
        <time>2022-10-22T08:51:51Z</time>
      </trkpt>
      <trkpt lat="43.00145" lon="-0.17402">
        <ele>1400.2</ele>
        <time>2022-10-22T08:51:54Z</time>
      </trkpt>
      <trkpt lat="43.00147" lon="-0.17391">
        <ele>1400.6</ele>
        <time>2022-10-22T08:51:59Z</time>
      </trkpt>
      <trkpt lat="43.00148" lon="-0.17385">
        <ele>1401.4</ele>
        <time>2022-10-22T08:52:02Z</time>
      </trkpt>
      <trkpt lat="43.0015" lon="-0.17378">
        <ele>1402.2</ele>
        <time>2022-10-22T08:52:06Z</time>
      </trkpt>
      <trkpt lat="43.00152" lon="-0.17372">
        <ele>1402.4</ele>
        <time>2022-10-22T08:52:09Z</time>
      </trkpt>
      <trkpt lat="43.00155" lon="-0.17366">
        <ele>1403.2</ele>
        <time>2022-10-22T08:52:12Z</time>
      </trkpt>
      <trkpt lat="43.00156" lon="-0.17355">
        <ele>1403.8</ele>
        <time>2022-10-22T08:52:17Z</time>
      </trkpt>
      <trkpt lat="43.00156" lon="-0.17349">
        <ele>1404.2</ele>
        <time>2022-10-22T08:52:20Z</time>
      </trkpt>
      <trkpt lat="43.00157" lon="-0.17342">
        <ele>1404.6</ele>
        <time>2022-10-22T08:52:24Z</time>
      </trkpt>
      <trkpt lat="43.00157" lon="-0.17336">
        <ele>1405.2</ele>
        <time>2022-10-22T08:52:27Z</time>
      </trkpt>
      <trkpt lat="43.00157" lon="-0.17331">
        <ele>1405.6</ele>
        <time>2022-10-22T08:52:30Z</time>
      </trkpt>
      <trkpt lat="43.00156" lon="-0.17324">
        <ele>1406.4</ele>
        <time>2022-10-22T08:52:33Z</time>
      </trkpt>
      <trkpt lat="43.00155" lon="-0.1731">
        <ele>1407.2</ele>
        <time>2022-10-22T08:52:39Z</time>
      </trkpt>
      <trkpt lat="43.00155" lon="-0.17305">
        <ele>1407.4</ele>
        <time>2022-10-22T08:52:41Z</time>
      </trkpt>
      <trkpt lat="43.00153" lon="-0.17295">
        <ele>1408</ele>
        <time>2022-10-22T08:52:45Z</time>
      </trkpt>
      <trkpt lat="43.0015" lon="-0.17288">
        <ele>1408.4</ele>
        <time>2022-10-22T08:52:51Z</time>
      </trkpt>
      <trkpt lat="43.0015" lon="-0.17288">
        <ele>1408.4</ele>
        <time>2022-10-22T08:52:54Z</time>
      </trkpt>
      <trkpt lat="43.0015" lon="-0.17288">
        <ele>1408.4</ele>
        <time>2022-10-22T08:53:03Z</time>
      </trkpt>
      <trkpt lat="43.0015" lon="-0.17288">
        <ele>1407.4</ele>
        <time>2022-10-22T08:53:19Z</time>
      </trkpt>
      <trkpt lat="43.0015" lon="-0.17288">
        <ele>1406.4</ele>
        <time>2022-10-22T08:53:27Z</time>
      </trkpt>
      <trkpt lat="43.00149" lon="-0.17287">
        <ele>1406</ele>
        <time>2022-10-22T08:54:27Z</time>
      </trkpt>
      <trkpt lat="43.00149" lon="-0.17287">
        <ele>1405.8</ele>
        <time>2022-10-22T08:55:11Z</time>
      </trkpt>
      <trkpt lat="43.00149" lon="-0.17287">
        <ele>1405.8</ele>
        <time>2022-10-22T08:55:13Z</time>
      </trkpt>
      <trkpt lat="43.00147" lon="-0.17288">
        <ele>1405.4</ele>
        <time>2022-10-22T08:55:30Z</time>
      </trkpt>
      <trkpt lat="43.00142" lon="-0.17292">
        <ele>1405.2</ele>
        <time>2022-10-22T08:55:33Z</time>
      </trkpt>
      <trkpt lat="43.00141" lon="-0.17292">
        <ele>1405.2</ele>
        <time>2022-10-22T08:55:34Z</time>
      </trkpt>
      <trkpt lat="43.0014" lon="-0.17293">
        <ele>1404.8</ele>
        <time>2022-10-22T08:55:36Z</time>
      </trkpt>
      <trkpt lat="43.00139" lon="-0.17293">
        <ele>1404.4</ele>
        <time>2022-10-22T08:55:38Z</time>
      </trkpt>
      <trkpt lat="43.00139" lon="-0.17293">
        <ele>1403.8</ele>
        <time>2022-10-22T08:55:44Z</time>
      </trkpt>
      <trkpt lat="43.00139" lon="-0.17293">
        <ele>1403.6</ele>
        <time>2022-10-22T08:55:45Z</time>
      </trkpt>
      <trkpt lat="43.00139" lon="-0.17293">
        <ele>1403.2</ele>
        <time>2022-10-22T08:55:53Z</time>
      </trkpt>
      <trkpt lat="43.00139" lon="-0.17293">
        <ele>1402.8</ele>
        <time>2022-10-22T08:55:55Z</time>
      </trkpt>
      <trkpt lat="43.00139" lon="-0.17293">
        <ele>1401.4</ele>
        <time>2022-10-22T08:56:01Z</time>
      </trkpt>
      <trkpt lat="43.00139" lon="-0.17293">
        <ele>1400.2</ele>
        <time>2022-10-22T08:56:06Z</time>
      </trkpt>
      <trkpt lat="43.00139" lon="-0.17293">
        <ele>1399</ele>
        <time>2022-10-22T08:56:12Z</time>
      </trkpt>
      <trkpt lat="43.00139" lon="-0.17293">
        <ele>1398.8</ele>
        <time>2022-10-22T08:56:13Z</time>
      </trkpt>
      <trkpt lat="43.00139" lon="-0.17293">
        <ele>1397.8</ele>
        <time>2022-10-22T08:56:18Z</time>
      </trkpt>
      <trkpt lat="43.00139" lon="-0.17292">
        <ele>1396.6</ele>
        <time>2022-10-22T08:56:27Z</time>
      </trkpt>
      <trkpt lat="43.00137" lon="-0.1729">
        <ele>1395.4</ele>
        <time>2022-10-22T08:56:36Z</time>
      </trkpt>
      <trkpt lat="43.00137" lon="-0.17289">
        <ele>1394.6</ele>
        <time>2022-10-22T08:56:39Z</time>
      </trkpt>
      <trkpt lat="43.00137" lon="-0.17289">
        <ele>1394.4</ele>
        <time>2022-10-22T08:56:41Z</time>
      </trkpt>
      <trkpt lat="43.00136" lon="-0.17288">
        <ele>1393.4</ele>
        <time>2022-10-22T08:56:52Z</time>
      </trkpt>
      <trkpt lat="43.00136" lon="-0.17288">
        <ele>1393.2</ele>
        <time>2022-10-22T08:56:53Z</time>
      </trkpt>
      <trkpt lat="43.00136" lon="-0.17288">
        <ele>1392.2</ele>
        <time>2022-10-22T08:56:57Z</time>
      </trkpt>
      <trkpt lat="43.00136" lon="-0.17288">
        <ele>1391.2</ele>
        <time>2022-10-22T08:57:00Z</time>
      </trkpt>
      <trkpt lat="43.00135" lon="-0.17285">
        <ele>1390.2</ele>
        <time>2022-10-22T08:57:07Z</time>
      </trkpt>
      <trkpt lat="43.00134" lon="-0.17283">
        <ele>1389.2</ele>
        <time>2022-10-22T08:57:13Z</time>
      </trkpt>
      <trkpt lat="43.00134" lon="-0.17283">
        <ele>1388</ele>
        <time>2022-10-22T08:57:17Z</time>
      </trkpt>
      <trkpt lat="43.00134" lon="-0.17283">
        <ele>1386.6</ele>
        <time>2022-10-22T08:57:21Z</time>
      </trkpt>
      <trkpt lat="43.00134" lon="-0.17283">
        <ele>1385.4</ele>
        <time>2022-10-22T08:57:27Z</time>
      </trkpt>
      <trkpt lat="43.00134" lon="-0.17283">
        <ele>1384.2</ele>
        <time>2022-10-22T08:57:33Z</time>
      </trkpt>
      <trkpt lat="43.00135" lon="-0.17279">
        <ele>1383.2</ele>
        <time>2022-10-22T08:57:39Z</time>
      </trkpt>
      <trkpt lat="43.00135" lon="-0.17278">
        <ele>1382.2</ele>
        <time>2022-10-22T08:57:43Z</time>
      </trkpt>
      <trkpt lat="43.00135" lon="-0.17278">
        <ele>1381</ele>
        <time>2022-10-22T08:57:48Z</time>
      </trkpt>
      <trkpt lat="43.00135" lon="-0.17277">
        <ele>1379.8</ele>
        <time>2022-10-22T08:57:55Z</time>
      </trkpt>
      <trkpt lat="43.00135" lon="-0.17273">
        <ele>1378.4</ele>
        <time>2022-10-22T08:58:04Z</time>
      </trkpt>
      <trkpt lat="43.00134" lon="-0.17273">
        <ele>1377.6</ele>
        <time>2022-10-22T08:58:08Z</time>
      </trkpt>
      <trkpt lat="43.00134" lon="-0.17273">
        <ele>1377.4</ele>
        <time>2022-10-22T08:58:09Z</time>
      </trkpt>
      <trkpt lat="43.00132" lon="-0.17254">
        <ele>1376.4</ele>
        <time>2022-10-22T08:58:16Z</time>
      </trkpt>
      <trkpt lat="43.00132" lon="-0.17252">
        <ele>1376</ele>
        <time>2022-10-22T08:58:17Z</time>
      </trkpt>
      <trkpt lat="43.00132" lon="-0.17247">
        <ele>1375.2</ele>
        <time>2022-10-22T08:58:21Z</time>
      </trkpt>
      <trkpt lat="43.00132" lon="-0.17247">
        <ele>1374.2</ele>
        <time>2022-10-22T08:58:33Z</time>
      </trkpt>
      <trkpt lat="43.00131" lon="-0.17247">
        <ele>1373.8</ele>
        <time>2022-10-22T08:58:36Z</time>
      </trkpt>
      <trkpt lat="43.00127" lon="-0.17245">
        <ele>1372.8</ele>
        <time>2022-10-22T08:58:39Z</time>
      </trkpt>
      <trkpt lat="43.00126" lon="-0.17245">
        <ele>1372.4</ele>
        <time>2022-10-22T08:58:40Z</time>
      </trkpt>
      <trkpt lat="43.00124" lon="-0.17242">
        <ele>1371.4</ele>
        <time>2022-10-22T08:58:44Z</time>
      </trkpt>
      <trkpt lat="43.00124" lon="-0.17242">
        <ele>1371.2</ele>
        <time>2022-10-22T08:58:45Z</time>
      </trkpt>
      <trkpt lat="43.00122" lon="-0.17236">
        <ele>1370</ele>
        <time>2022-10-22T08:58:48Z</time>
      </trkpt>
      <trkpt lat="43.0012" lon="-0.17229">
        <ele>1369.2</ele>
        <time>2022-10-22T08:58:51Z</time>
      </trkpt>
      <trkpt lat="43.0012" lon="-0.17229">
        <ele>1368.4</ele>
        <time>2022-10-22T08:58:52Z</time>
      </trkpt>
      <trkpt lat="43.00119" lon="-0.17224">
        <ele>1367.4</ele>
        <time>2022-10-22T08:58:56Z</time>
      </trkpt>
      <trkpt lat="43.00116" lon="-0.17209">
        <ele>1366.2</ele>
        <time>2022-10-22T08:59:02Z</time>
      </trkpt>
      <trkpt lat="43.00116" lon="-0.17209">
        <ele>1365.8</ele>
        <time>2022-10-22T08:59:03Z</time>
      </trkpt>
      <trkpt lat="43.00116" lon="-0.17209">
        <ele>1365</ele>
        <time>2022-10-22T08:59:06Z</time>
      </trkpt>
      <trkpt lat="43.00113" lon="-0.17202">
        <ele>1363.8</ele>
        <time>2022-10-22T08:59:10Z</time>
      </trkpt>
      <trkpt lat="43.00113" lon="-0.17202">
        <ele>1363.4</ele>
        <time>2022-10-22T08:59:12Z</time>
      </trkpt>
      <trkpt lat="43.00113" lon="-0.17202">
        <ele>1362.6</ele>
        <time>2022-10-22T08:59:15Z</time>
      </trkpt>
      <trkpt lat="43.00113" lon="-0.17202">
        <ele>1361.6</ele>
        <time>2022-10-22T08:59:21Z</time>
      </trkpt>
      <trkpt lat="43.00113" lon="-0.17202">
        <ele>1361.2</ele>
        <time>2022-10-22T08:59:23Z</time>
      </trkpt>
      <trkpt lat="43.00113" lon="-0.17202">
        <ele>1360.4</ele>
        <time>2022-10-22T08:59:28Z</time>
      </trkpt>
      <trkpt lat="43.00113" lon="-0.17202">
        <ele>1359</ele>
        <time>2022-10-22T08:59:34Z</time>
      </trkpt>
      <trkpt lat="43.00111" lon="-0.17198">
        <ele>1357.8</ele>
        <time>2022-10-22T08:59:38Z</time>
      </trkpt>
      <trkpt lat="43.00111" lon="-0.17198">
        <ele>1356.6</ele>
        <time>2022-10-22T08:59:44Z</time>
      </trkpt>
      <trkpt lat="43.00109" lon="-0.17195">
        <ele>1355.4</ele>
        <time>2022-10-22T08:59:49Z</time>
      </trkpt>
      <trkpt lat="43.00107" lon="-0.17191">
        <ele>1354.4</ele>
        <time>2022-10-22T08:59:59Z</time>
      </trkpt>
      <trkpt lat="43.00107" lon="-0.17191">
        <ele>1353.2</ele>
        <time>2022-10-22T09:00:04Z</time>
      </trkpt>
      <trkpt lat="43.00104" lon="-0.17187">
        <ele>1351.8</ele>
        <time>2022-10-22T09:00:10Z</time>
      </trkpt>
      <trkpt lat="43.00104" lon="-0.17187">
        <ele>1350.8</ele>
        <time>2022-10-22T09:00:15Z</time>
      </trkpt>
      <trkpt lat="43.00104" lon="-0.17186">
        <ele>1350.4</ele>
        <time>2022-10-22T09:00:16Z</time>
      </trkpt>
      <trkpt lat="43.00099" lon="-0.17179">
        <ele>1348.8</ele>
        <time>2022-10-22T09:01:09Z</time>
      </trkpt>
      <trkpt lat="43.00099" lon="-0.17179">
        <ele>1348.2</ele>
        <time>2022-10-22T09:01:12Z</time>
      </trkpt>
      <trkpt lat="43.00099" lon="-0.17179">
        <ele>1347.8</ele>
        <time>2022-10-22T09:01:15Z</time>
      </trkpt>
      <trkpt lat="43.00099" lon="-0.17177">
        <ele>1346.4</ele>
        <time>2022-10-22T09:01:21Z</time>
      </trkpt>
      <trkpt lat="43.00099" lon="-0.17177">
        <ele>1345.2</ele>
        <time>2022-10-22T09:01:29Z</time>
      </trkpt>
      <trkpt lat="43.00099" lon="-0.17177">
        <ele>1344.2</ele>
        <time>2022-10-22T09:01:35Z</time>
      </trkpt>
      <trkpt lat="43.00099" lon="-0.17177">
        <ele>1342.6</ele>
        <time>2022-10-22T09:01:40Z</time>
      </trkpt>
      <trkpt lat="43.00099" lon="-0.17177">
        <ele>1341.4</ele>
        <time>2022-10-22T09:01:44Z</time>
      </trkpt>
      <trkpt lat="43.00099" lon="-0.17173">
        <ele>1340.2</ele>
        <time>2022-10-22T09:01:56Z</time>
      </trkpt>
      <trkpt lat="43.00099" lon="-0.17173">
        <ele>1339</ele>
        <time>2022-10-22T09:02:01Z</time>
      </trkpt>
      <trkpt lat="43.00099" lon="-0.17173">
        <ele>1337.4</ele>
        <time>2022-10-22T09:02:05Z</time>
      </trkpt>
      <trkpt lat="43.00099" lon="-0.17171">
        <ele>1336.2</ele>
        <time>2022-10-22T09:02:09Z</time>
      </trkpt>
      <trkpt lat="43.00099" lon="-0.17169">
        <ele>1334.6</ele>
        <time>2022-10-22T09:02:15Z</time>
      </trkpt>
      <trkpt lat="43.00099" lon="-0.17169">
        <ele>1334</ele>
        <time>2022-10-22T09:02:19Z</time>
      </trkpt>
      <trkpt lat="43.00099" lon="-0.17168">
        <ele>1333.6</ele>
        <time>2022-10-22T09:02:22Z</time>
      </trkpt>
      <trkpt lat="43.00099" lon="-0.17155">
        <ele>1332.4</ele>
        <time>2022-10-22T09:02:28Z</time>
      </trkpt>
      <trkpt lat="43.00098" lon="-0.17151">
        <ele>1332</ele>
        <time>2022-10-22T09:02:30Z</time>
      </trkpt>
      <trkpt lat="43.00098" lon="-0.17132">
        <ele>1331</ele>
        <time>2022-10-22T09:02:37Z</time>
      </trkpt>
      <trkpt lat="43.00098" lon="-0.17125">
        <ele>1330.4</ele>
        <time>2022-10-22T09:02:39Z</time>
      </trkpt>
      <trkpt lat="43.00098" lon="-0.17118">
        <ele>1330</ele>
        <time>2022-10-22T09:02:42Z</time>
      </trkpt>
      <trkpt lat="43.00098" lon="-0.17112">
        <ele>1328.8</ele>
        <time>2022-10-22T09:02:48Z</time>
      </trkpt>
      <trkpt lat="43.00099" lon="-0.17098">
        <ele>1327.8</ele>
        <time>2022-10-22T09:02:52Z</time>
      </trkpt>
      <trkpt lat="43.00099" lon="-0.17098">
        <ele>1327.4</ele>
        <time>2022-10-22T09:02:56Z</time>
      </trkpt>
      <trkpt lat="43.00098" lon="-0.17089">
        <ele>1327</ele>
        <time>2022-10-22T09:03:01Z</time>
      </trkpt>
      <trkpt lat="43.00098" lon="-0.17077">
        <ele>1326.2</ele>
        <time>2022-10-22T09:03:06Z</time>
      </trkpt>
      <trkpt lat="43.00098" lon="-0.17076">
        <ele>1326</ele>
        <time>2022-10-22T09:03:07Z</time>
      </trkpt>
      <trkpt lat="43.00098" lon="-0.17076">
        <ele>1325</ele>
        <time>2022-10-22T09:03:10Z</time>
      </trkpt>
      <trkpt lat="43.00101" lon="-0.17057">
        <ele>1323.8</ele>
        <time>2022-10-22T09:03:13Z</time>
      </trkpt>
      <trkpt lat="43.00099" lon="-0.1705">
        <ele>1322.8</ele>
        <time>2022-10-22T09:03:18Z</time>
      </trkpt>
      <trkpt lat="43.00099" lon="-0.1705">
        <ele>1322</ele>
        <time>2022-10-22T09:03:21Z</time>
      </trkpt>
      <trkpt lat="43.00099" lon="-0.1705">
        <ele>1321.8</ele>
        <time>2022-10-22T09:03:22Z</time>
      </trkpt>
      <trkpt lat="43.00098" lon="-0.17048">
        <ele>1320.6</ele>
        <time>2022-10-22T09:03:27Z</time>
      </trkpt>
      <trkpt lat="43.00098" lon="-0.17048">
        <ele>1320.4</ele>
        <time>2022-10-22T09:03:29Z</time>
      </trkpt>
      <trkpt lat="43.00093" lon="-0.17037">
        <ele>1319.4</ele>
        <time>2022-10-22T09:03:37Z</time>
      </trkpt>
      <trkpt lat="43.0009" lon="-0.17028">
        <ele>1318.2</ele>
        <time>2022-10-22T09:03:40Z</time>
      </trkpt>
      <trkpt lat="43.00087" lon="-0.17023">
        <ele>1318</ele>
        <time>2022-10-22T09:03:42Z</time>
      </trkpt>
      <trkpt lat="43.00086" lon="-0.17021">
        <ele>1317.8</ele>
        <time>2022-10-22T09:03:43Z</time>
      </trkpt>
      <trkpt lat="43.00084" lon="-0.17019">
        <ele>1317.2</ele>
        <time>2022-10-22T09:03:46Z</time>
      </trkpt>
      <trkpt lat="43.00082" lon="-0.17015">
        <ele>1316.6</ele>
        <time>2022-10-22T09:03:50Z</time>
      </trkpt>
      <trkpt lat="43.00079" lon="-0.17009">
        <ele>1316.4</ele>
        <time>2022-10-22T09:03:52Z</time>
      </trkpt>
      <trkpt lat="43.00078" lon="-0.17008">
        <ele>1316.2</ele>
        <time>2022-10-22T09:03:55Z</time>
      </trkpt>
      <trkpt lat="43.00074" lon="-0.16998">
        <ele>1315.8</ele>
        <time>2022-10-22T09:04:03Z</time>
      </trkpt>
      <trkpt lat="43.00064" lon="-0.16981">
        <ele>1315.4</ele>
        <time>2022-10-22T09:04:13Z</time>
      </trkpt>
      <trkpt lat="43.00059" lon="-0.16967">
        <ele>1314.8</ele>
        <time>2022-10-22T09:04:16Z</time>
      </trkpt>
      <trkpt lat="43.00059" lon="-0.16967">
        <ele>1314.4</ele>
        <time>2022-10-22T09:04:18Z</time>
      </trkpt>
      <trkpt lat="43.00055" lon="-0.16958">
        <ele>1314</ele>
        <time>2022-10-22T09:04:26Z</time>
      </trkpt>
      <trkpt lat="43.00053" lon="-0.16952">
        <ele>1315.4</ele>
        <time>2022-10-22T09:04:35Z</time>
      </trkpt>
      <trkpt lat="43.0005" lon="-0.16947">
        <ele>1314.4</ele>
        <time>2022-10-22T09:04:44Z</time>
      </trkpt>
      <trkpt lat="43.00049" lon="-0.16945">
        <ele>1313.8</ele>
        <time>2022-10-22T09:04:47Z</time>
      </trkpt>
      <trkpt lat="43.00049" lon="-0.16943">
        <ele>1312.6</ele>
        <time>2022-10-22T09:04:52Z</time>
      </trkpt>
      <trkpt lat="43.00049" lon="-0.16943">
        <ele>1312</ele>
        <time>2022-10-22T09:04:54Z</time>
      </trkpt>
      <trkpt lat="43.00049" lon="-0.16943">
        <ele>1311.4</ele>
        <time>2022-10-22T09:04:57Z</time>
      </trkpt>
      <trkpt lat="43.00049" lon="-0.16943">
        <ele>1310.4</ele>
        <time>2022-10-22T09:05:02Z</time>
      </trkpt>
      <trkpt lat="43.00048" lon="-0.16939">
        <ele>1309.6</ele>
        <time>2022-10-22T09:05:05Z</time>
      </trkpt>
      <trkpt lat="43.00048" lon="-0.16939">
        <ele>1309.2</ele>
        <time>2022-10-22T09:05:06Z</time>
      </trkpt>
      <trkpt lat="43.00047" lon="-0.16934">
        <ele>1308.8</ele>
        <time>2022-10-22T09:05:08Z</time>
      </trkpt>
      <trkpt lat="43.00047" lon="-0.16934">
        <ele>1308.2</ele>
        <time>2022-10-22T09:05:09Z</time>
      </trkpt>
      <trkpt lat="43.00047" lon="-0.16934">
        <ele>1307.2</ele>
        <time>2022-10-22T09:05:12Z</time>
      </trkpt>
      <trkpt lat="43.00047" lon="-0.16934">
        <ele>1306</ele>
        <time>2022-10-22T09:05:13Z</time>
      </trkpt>
      <trkpt lat="43.00045" lon="-0.16929">
        <ele>1304.4</ele>
        <time>2022-10-22T09:07:22Z</time>
      </trkpt>
      <trkpt lat="43.00045" lon="-0.16929">
        <ele>1303.2</ele>
        <time>2022-10-22T09:07:28Z</time>
      </trkpt>
      <trkpt lat="43.00045" lon="-0.16929">
        <ele>1302.8</ele>
        <time>2022-10-22T09:07:30Z</time>
      </trkpt>
      <trkpt lat="43.00045" lon="-0.16925">
        <ele>1302.2</ele>
        <time>2022-10-22T09:07:32Z</time>
      </trkpt>
      <trkpt lat="43.00045" lon="-0.16925">
        <ele>1301.8</ele>
        <time>2022-10-22T09:07:33Z</time>
      </trkpt>
      <trkpt lat="43.00045" lon="-0.16925">
        <ele>1301.2</ele>
        <time>2022-10-22T09:07:34Z</time>
      </trkpt>
      <trkpt lat="43.00045" lon="-0.16925">
        <ele>1299.2</ele>
        <time>2022-10-22T09:07:38Z</time>
      </trkpt>
      <trkpt lat="43.00045" lon="-0.16925">
        <ele>1298</ele>
        <time>2022-10-22T09:07:41Z</time>
      </trkpt>
      <trkpt lat="43.00046" lon="-0.16913">
        <ele>1297</ele>
        <time>2022-10-22T09:07:49Z</time>
      </trkpt>
      <trkpt lat="43.00046" lon="-0.16912">
        <ele>1296.6</ele>
        <time>2022-10-22T09:07:51Z</time>
      </trkpt>
      <trkpt lat="43.00046" lon="-0.16912">
        <ele>1296</ele>
        <time>2022-10-22T09:07:54Z</time>
      </trkpt>
      <trkpt lat="43.00046" lon="-0.16912">
        <ele>1295.4</ele>
        <time>2022-10-22T09:07:58Z</time>
      </trkpt>
      <trkpt lat="43.00046" lon="-0.16902">
        <ele>1295.4</ele>
        <time>2022-10-22T09:08:08Z</time>
      </trkpt>
      <trkpt lat="43.00047" lon="-0.16893">
        <ele>1295.4</ele>
        <time>2022-10-22T09:08:10Z</time>
      </trkpt>
      <trkpt lat="43.00048" lon="-0.16874">
        <ele>1295.2</ele>
        <time>2022-10-22T09:08:14Z</time>
      </trkpt>
      <trkpt lat="43.00049" lon="-0.16864">
        <ele>1295</ele>
        <time>2022-10-22T09:08:17Z</time>
      </trkpt>
      <trkpt lat="43.0005" lon="-0.16824">
        <ele>1294.8</ele>
        <time>2022-10-22T09:08:25Z</time>
      </trkpt>
      <trkpt lat="43.00051" lon="-0.16815">
        <ele>1294.6</ele>
        <time>2022-10-22T09:08:27Z</time>
      </trkpt>
      <trkpt lat="43.00057" lon="-0.16797">
        <ele>1294.4</ele>
        <time>2022-10-22T09:08:32Z</time>
      </trkpt>
      <trkpt lat="43.00068" lon="-0.16766">
        <ele>1293.8</ele>
        <time>2022-10-22T09:08:41Z</time>
      </trkpt>
      <trkpt lat="43.00069" lon="-0.16756">
        <ele>1293.8</ele>
        <time>2022-10-22T09:08:44Z</time>
      </trkpt>
      <trkpt lat="43.00069" lon="-0.1675">
        <ele>1293.6</ele>
        <time>2022-10-22T09:08:46Z</time>
      </trkpt>
      <trkpt lat="43.00069" lon="-0.16747">
        <ele>1293.6</ele>
        <time>2022-10-22T09:08:47Z</time>
      </trkpt>
      <trkpt lat="43.00071" lon="-0.16739">
        <ele>1293.2</ele>
        <time>2022-10-22T09:08:50Z</time>
      </trkpt>
      <trkpt lat="43.00071" lon="-0.1673">
        <ele>1293</ele>
        <time>2022-10-22T09:08:53Z</time>
      </trkpt>
      <trkpt lat="43.00072" lon="-0.16714">
        <ele>1292.4</ele>
        <time>2022-10-22T09:08:57Z</time>
      </trkpt>
      <trkpt lat="43.00075" lon="-0.16702">
        <ele>1292.4</ele>
        <time>2022-10-22T09:08:58Z</time>
      </trkpt>
      <trkpt lat="43.00077" lon="-0.16671">
        <ele>1291.4</ele>
        <time>2022-10-22T09:09:03Z</time>
      </trkpt>
      <trkpt lat="43.00078" lon="-0.16654">
        <ele>1290.4</ele>
        <time>2022-10-22T09:09:07Z</time>
      </trkpt>
      <trkpt lat="43.00078" lon="-0.16654">
        <ele>1290.2</ele>
        <time>2022-10-22T09:09:08Z</time>
      </trkpt>
      <trkpt lat="43.00078" lon="-0.16654">
        <ele>1289.2</ele>
        <time>2022-10-22T09:09:15Z</time>
      </trkpt>
      <trkpt lat="43.00078" lon="-0.16654">
        <ele>1289</ele>
        <time>2022-10-22T09:09:22Z</time>
      </trkpt>
      <trkpt lat="43.00078" lon="-0.16655">
        <ele>1289</ele>
        <time>2022-10-22T09:09:29Z</time>
      </trkpt>
      <trkpt lat="43.00077" lon="-0.16664">
        <ele>1289</ele>
        <time>2022-10-22T09:09:33Z</time>
      </trkpt>
      <trkpt lat="43.00075" lon="-0.16679">
        <ele>1289.6</ele>
        <time>2022-10-22T09:09:39Z</time>
      </trkpt>
      <trkpt lat="43.00071" lon="-0.167">
        <ele>1290</ele>
        <time>2022-10-22T09:09:47Z</time>
      </trkpt>
      <trkpt lat="43.0007" lon="-0.16705">
        <ele>1290.2</ele>
        <time>2022-10-22T09:09:49Z</time>
      </trkpt>
      <trkpt lat="43.0007" lon="-0.1672">
        <ele>1290.8</ele>
        <time>2022-10-22T09:09:54Z</time>
      </trkpt>
      <trkpt lat="43.00068" lon="-0.16734">
        <ele>1291.2</ele>
        <time>2022-10-22T09:10:00Z</time>
      </trkpt>
      <trkpt lat="43.00068" lon="-0.16736">
        <ele>1291.4</ele>
        <time>2022-10-22T09:10:01Z</time>
      </trkpt>
      <trkpt lat="43.00065" lon="-0.16756">
        <ele>1292.4</ele>
        <time>2022-10-22T09:10:08Z</time>
      </trkpt>
      <trkpt lat="43.00065" lon="-0.16758">
        <ele>1292.6</ele>
        <time>2022-10-22T09:10:10Z</time>
      </trkpt>
      <trkpt lat="43.00059" lon="-0.16778">
        <ele>1293.2</ele>
        <time>2022-10-22T09:10:18Z</time>
      </trkpt>
      <trkpt lat="43.00057" lon="-0.16783">
        <ele>1293.4</ele>
        <time>2022-10-22T09:10:20Z</time>
      </trkpt>
      <trkpt lat="43.0005" lon="-0.16796">
        <ele>1294</ele>
        <time>2022-10-22T09:10:26Z</time>
      </trkpt>
      <trkpt lat="43.00045" lon="-0.16814">
        <ele>1294.2</ele>
        <time>2022-10-22T09:10:34Z</time>
      </trkpt>
      <trkpt lat="43.00043" lon="-0.16829">
        <ele>1294.6</ele>
        <time>2022-10-22T09:10:40Z</time>
      </trkpt>
      <trkpt lat="43.00042" lon="-0.16831">
        <ele>1294.6</ele>
        <time>2022-10-22T09:10:41Z</time>
      </trkpt>
      <trkpt lat="43.0004" lon="-0.16845">
        <ele>1295</ele>
        <time>2022-10-22T09:10:48Z</time>
      </trkpt>
      <trkpt lat="43.00041" lon="-0.16852">
        <ele>1295</ele>
        <time>2022-10-22T09:10:51Z</time>
      </trkpt>
      <trkpt lat="43.0004" lon="-0.16857">
        <ele>1295.2</ele>
        <time>2022-10-22T09:10:55Z</time>
      </trkpt>
      <trkpt lat="43.00038" lon="-0.16858">
        <ele>1295.6</ele>
        <time>2022-10-22T09:10:59Z</time>
      </trkpt>
      <trkpt lat="43.00034" lon="-0.16857">
        <ele>1296</ele>
        <time>2022-10-22T09:11:01Z</time>
      </trkpt>
      <trkpt lat="43.00032" lon="-0.16855">
        <ele>1296.4</ele>
        <time>2022-10-22T09:11:05Z</time>
      </trkpt>
      <trkpt lat="43.00031" lon="-0.16852">
        <ele>1296.8</ele>
        <time>2022-10-22T09:11:07Z</time>
      </trkpt>
      <trkpt lat="43.0003" lon="-0.16852">
        <ele>1297</ele>
        <time>2022-10-22T09:11:08Z</time>
      </trkpt>
      <trkpt lat="43.00031" lon="-0.16842">
        <ele>1297.8</ele>
        <time>2022-10-22T09:11:14Z</time>
      </trkpt>
      <trkpt lat="43.00031" lon="-0.16839">
        <ele>1298</ele>
        <time>2022-10-22T09:11:15Z</time>
      </trkpt>
      <trkpt lat="43.00032" lon="-0.16835">
        <ele>1298.2</ele>
        <time>2022-10-22T09:11:17Z</time>
      </trkpt>
      <trkpt lat="43.00032" lon="-0.16832">
        <ele>1298.4</ele>
        <time>2022-10-22T09:11:19Z</time>
      </trkpt>
      <trkpt lat="43.00032" lon="-0.16827">
        <ele>1298.4</ele>
        <time>2022-10-22T09:11:21Z</time>
      </trkpt>
      <trkpt lat="43.00036" lon="-0.16817">
        <ele>1298.8</ele>
        <time>2022-10-22T09:11:25Z</time>
      </trkpt>
      <trkpt lat="43.00037" lon="-0.16811">
        <ele>1299</ele>
        <time>2022-10-22T09:11:27Z</time>
      </trkpt>
      <trkpt lat="43.00037" lon="-0.16811">
        <ele>1299</ele>
        <time>2022-10-22T09:11:28Z</time>
      </trkpt>
      <trkpt lat="43.00037" lon="-0.16796">
        <ele>1300</ele>
        <time>2022-10-22T09:11:33Z</time>
      </trkpt>
      <trkpt lat="43.00041" lon="-0.16786">
        <ele>1300.2</ele>
        <time>2022-10-22T09:11:36Z</time>
      </trkpt>
      <trkpt lat="43.00044" lon="-0.1678">
        <ele>1300.4</ele>
        <time>2022-10-22T09:11:39Z</time>
      </trkpt>
      <trkpt lat="43.00043" lon="-0.16767">
        <ele>1301</ele>
        <time>2022-10-22T09:11:44Z</time>
      </trkpt>
      <trkpt lat="43.00043" lon="-0.16765">
        <ele>1301.2</ele>
        <time>2022-10-22T09:11:45Z</time>
      </trkpt>
      <trkpt lat="43.00046" lon="-0.16762">
        <ele>1301.4</ele>
        <time>2022-10-22T09:11:47Z</time>
      </trkpt>
      <trkpt lat="43.00047" lon="-0.16755">
        <ele>1301.8</ele>
        <time>2022-10-22T09:11:51Z</time>
      </trkpt>
      <trkpt lat="43.00048" lon="-0.16753">
        <ele>1302.2</ele>
        <time>2022-10-22T09:11:52Z</time>
      </trkpt>
      <trkpt lat="43.0005" lon="-0.16733">
        <ele>1302.6</ele>
        <time>2022-10-22T09:12:00Z</time>
      </trkpt>
      <trkpt lat="43.0005" lon="-0.16728">
        <ele>1302.6</ele>
        <time>2022-10-22T09:12:02Z</time>
      </trkpt>
      <trkpt lat="43.0005" lon="-0.16721">
        <ele>1302.6</ele>
        <time>2022-10-22T09:12:06Z</time>
      </trkpt>
      <trkpt lat="43.0005" lon="-0.16721">
        <ele>1302.2</ele>
        <time>2022-10-22T09:12:13Z</time>
      </trkpt>
      <trkpt lat="43.00049" lon="-0.16712">
        <ele>1302</ele>
        <time>2022-10-22T09:13:58Z</time>
      </trkpt>
      <trkpt lat="43.00046" lon="-0.16693">
        <ele>1302.6</ele>
        <time>2022-10-22T09:14:06Z</time>
      </trkpt>
      <trkpt lat="43.00046" lon="-0.16685">
        <ele>1303.2</ele>
        <time>2022-10-22T09:14:10Z</time>
      </trkpt>
      <trkpt lat="43.00046" lon="-0.16683">
        <ele>1304</ele>
        <time>2022-10-22T09:14:12Z</time>
      </trkpt>
      <trkpt lat="43.00046" lon="-0.16678">
        <ele>1304.2</ele>
        <time>2022-10-22T09:14:14Z</time>
      </trkpt>
      <trkpt lat="43.00045" lon="-0.16673">
        <ele>1305.4</ele>
        <time>2022-10-22T09:14:16Z</time>
      </trkpt>
      <trkpt lat="43.00045" lon="-0.16671">
        <ele>1305.8</ele>
        <time>2022-10-22T09:14:17Z</time>
      </trkpt>
      <trkpt lat="43.00043" lon="-0.16665">
        <ele>1306.2</ele>
        <time>2022-10-22T09:14:19Z</time>
      </trkpt>
      <trkpt lat="43.00042" lon="-0.16662">
        <ele>1306.4</ele>
        <time>2022-10-22T09:14:20Z</time>
      </trkpt>
      <trkpt lat="43.0004" lon="-0.1665">
        <ele>1307.4</ele>
        <time>2022-10-22T09:14:24Z</time>
      </trkpt>
      <trkpt lat="43.00039" lon="-0.16647">
        <ele>1307.6</ele>
        <time>2022-10-22T09:14:25Z</time>
      </trkpt>
      <trkpt lat="43.00037" lon="-0.16637">
        <ele>1308.6</ele>
        <time>2022-10-22T09:14:31Z</time>
      </trkpt>
      <trkpt lat="43.00035" lon="-0.16634">
        <ele>1308.8</ele>
        <time>2022-10-22T09:14:33Z</time>
      </trkpt>
      <trkpt lat="43.00035" lon="-0.16634">
        <ele>1309</ele>
        <time>2022-10-22T09:14:34Z</time>
      </trkpt>
      <trkpt lat="43.00031" lon="-0.16627">
        <ele>1309.6</ele>
        <time>2022-10-22T09:14:39Z</time>
      </trkpt>
      <trkpt lat="43.00031" lon="-0.16627">
        <ele>1309.8</ele>
        <time>2022-10-22T09:14:40Z</time>
      </trkpt>
      <trkpt lat="43.00029" lon="-0.16623">
        <ele>1310.8</ele>
        <time>2022-10-22T09:14:44Z</time>
      </trkpt>
      <trkpt lat="43.00024" lon="-0.16617">
        <ele>1312</ele>
        <time>2022-10-22T09:14:49Z</time>
      </trkpt>
      <trkpt lat="43.00024" lon="-0.16617">
        <ele>1312.2</ele>
        <time>2022-10-22T09:14:50Z</time>
      </trkpt>
      <trkpt lat="43.00022" lon="-0.16612">
        <ele>1313.2</ele>
        <time>2022-10-22T09:14:53Z</time>
      </trkpt>
      <trkpt lat="43.00021" lon="-0.1661">
        <ele>1313.6</ele>
        <time>2022-10-22T09:14:56Z</time>
      </trkpt>
      <trkpt lat="43.00016" lon="-0.16595">
        <ele>1314.2</ele>
        <time>2022-10-22T09:15:01Z</time>
      </trkpt>
      <trkpt lat="43.00015" lon="-0.16592">
        <ele>1314.6</ele>
        <time>2022-10-22T09:15:03Z</time>
      </trkpt>
      <trkpt lat="43.00012" lon="-0.16579">
        <ele>1315.4</ele>
        <time>2022-10-22T09:15:09Z</time>
      </trkpt>
      <trkpt lat="43.00009" lon="-0.16573">
        <ele>1316.2</ele>
        <time>2022-10-22T09:15:14Z</time>
      </trkpt>
      <trkpt lat="43.00008" lon="-0.16572">
        <ele>1316.6</ele>
        <time>2022-10-22T09:15:15Z</time>
      </trkpt>
      <trkpt lat="43.00004" lon="-0.16568">
        <ele>1317.4</ele>
        <time>2022-10-22T09:15:19Z</time>
      </trkpt>
      <trkpt lat="43.00004" lon="-0.16566">
        <ele>1317.6</ele>
        <time>2022-10-22T09:15:20Z</time>
      </trkpt>
      <trkpt lat="42.99999" lon="-0.1656">
        <ele>1318.4</ele>
        <time>2022-10-22T09:15:25Z</time>
      </trkpt>
      <trkpt lat="42.99997" lon="-0.16558">
        <ele>1318.8</ele>
        <time>2022-10-22T09:15:27Z</time>
      </trkpt>
      <trkpt lat="42.99995" lon="-0.16554">
        <ele>1319.6</ele>
        <time>2022-10-22T09:15:30Z</time>
      </trkpt>
      <trkpt lat="42.99994" lon="-0.16553">
        <ele>1319.8</ele>
        <time>2022-10-22T09:15:31Z</time>
      </trkpt>
      <trkpt lat="42.99991" lon="-0.1655">
        <ele>1320.4</ele>
        <time>2022-10-22T09:15:34Z</time>
      </trkpt>
      <trkpt lat="42.99989" lon="-0.16549">
        <ele>1320.8</ele>
        <time>2022-10-22T09:15:36Z</time>
      </trkpt>
      <trkpt lat="42.99984" lon="-0.16543">
        <ele>1321.8</ele>
        <time>2022-10-22T09:15:41Z</time>
      </trkpt>
      <trkpt lat="42.99984" lon="-0.16542">
        <ele>1322.2</ele>
        <time>2022-10-22T09:15:42Z</time>
      </trkpt>
      <trkpt lat="42.99979" lon="-0.16537">
        <ele>1323</ele>
        <time>2022-10-22T09:15:46Z</time>
      </trkpt>
      <trkpt lat="42.99974" lon="-0.16532">
        <ele>1323.8</ele>
        <time>2022-10-22T09:15:49Z</time>
      </trkpt>
      <trkpt lat="42.99973" lon="-0.1653">
        <ele>1324.2</ele>
        <time>2022-10-22T09:15:50Z</time>
      </trkpt>
      <trkpt lat="42.99968" lon="-0.16523">
        <ele>1325.2</ele>
        <time>2022-10-22T09:15:55Z</time>
      </trkpt>
      <trkpt lat="42.99965" lon="-0.1652">
        <ele>1325.6</ele>
        <time>2022-10-22T09:15:57Z</time>
      </trkpt>
      <trkpt lat="42.99964" lon="-0.16518">
        <ele>1325.8</ele>
        <time>2022-10-22T09:15:58Z</time>
      </trkpt>
      <trkpt lat="42.99964" lon="-0.16514">
        <ele>1326.4</ele>
        <time>2022-10-22T09:16:02Z</time>
      </trkpt>
      <trkpt lat="42.99958" lon="-0.16505">
        <ele>1327.4</ele>
        <time>2022-10-22T09:16:07Z</time>
      </trkpt>
      <trkpt lat="42.99952" lon="-0.16499">
        <ele>1328</ele>
        <time>2022-10-22T09:16:10Z</time>
      </trkpt>
      <trkpt lat="42.99949" lon="-0.16491">
        <ele>1328.4</ele>
        <time>2022-10-22T09:16:14Z</time>
      </trkpt>
      <trkpt lat="42.99947" lon="-0.16488">
        <ele>1329.2</ele>
        <time>2022-10-22T09:16:18Z</time>
      </trkpt>
      <trkpt lat="42.99946" lon="-0.16485">
        <ele>1329.4</ele>
        <time>2022-10-22T09:16:20Z</time>
      </trkpt>
      <trkpt lat="42.99946" lon="-0.16484">
        <ele>1329.4</ele>
        <time>2022-10-22T09:16:21Z</time>
      </trkpt>
      <trkpt lat="42.99945" lon="-0.16481">
        <ele>1329.8</ele>
        <time>2022-10-22T09:16:24Z</time>
      </trkpt>
      <trkpt lat="42.99945" lon="-0.16481">
        <ele>1330.2</ele>
        <time>2022-10-22T09:16:25Z</time>
      </trkpt>
      <trkpt lat="42.99945" lon="-0.16479">
        <ele>1330.8</ele>
        <time>2022-10-22T09:16:27Z</time>
      </trkpt>
      <trkpt lat="42.99944" lon="-0.16477">
        <ele>1331</ele>
        <time>2022-10-22T09:16:28Z</time>
      </trkpt>
      <trkpt lat="42.99943" lon="-0.16473">
        <ele>1331.6</ele>
        <time>2022-10-22T09:16:31Z</time>
      </trkpt>
      <trkpt lat="42.99943" lon="-0.16471">
        <ele>1332.2</ele>
        <time>2022-10-22T09:16:33Z</time>
      </trkpt>
      <trkpt lat="42.99943" lon="-0.16464">
        <ele>1333.2</ele>
        <time>2022-10-22T09:16:38Z</time>
      </trkpt>
      <trkpt lat="42.99942" lon="-0.16456">
        <ele>1334</ele>
        <time>2022-10-22T09:16:44Z</time>
      </trkpt>
      <trkpt lat="42.99941" lon="-0.16452">
        <ele>1334.4</ele>
        <time>2022-10-22T09:16:46Z</time>
      </trkpt>
      <trkpt lat="42.99941" lon="-0.16446">
        <ele>1335.4</ele>
        <time>2022-10-22T09:16:51Z</time>
      </trkpt>
      <trkpt lat="42.9994" lon="-0.16439">
        <ele>1336.6</ele>
        <time>2022-10-22T09:16:55Z</time>
      </trkpt>
      <trkpt lat="42.99938" lon="-0.16434">
        <ele>1336.8</ele>
        <time>2022-10-22T09:16:57Z</time>
      </trkpt>
      <trkpt lat="42.99937" lon="-0.16432">
        <ele>1337.6</ele>
        <time>2022-10-22T09:16:59Z</time>
      </trkpt>
      <trkpt lat="42.99937" lon="-0.16432">
        <ele>1338.2</ele>
        <time>2022-10-22T09:17:03Z</time>
      </trkpt>
      <trkpt lat="42.99937" lon="-0.16432">
        <ele>1338.6</ele>
        <time>2022-10-22T09:17:06Z</time>
      </trkpt>
      <trkpt lat="42.99934" lon="-0.16424">
        <ele>1339.4</ele>
        <time>2022-10-22T09:17:30Z</time>
      </trkpt>
      <trkpt lat="42.99933" lon="-0.16421">
        <ele>1339.8</ele>
        <time>2022-10-22T09:17:33Z</time>
      </trkpt>
      <trkpt lat="42.99931" lon="-0.16414">
        <ele>1340.8</ele>
        <time>2022-10-22T09:17:36Z</time>
      </trkpt>
      <trkpt lat="42.9993" lon="-0.16404">
        <ele>1342</ele>
        <time>2022-10-22T09:17:41Z</time>
      </trkpt>
      <trkpt lat="42.99928" lon="-0.16398">
        <ele>1342.8</ele>
        <time>2022-10-22T09:17:44Z</time>
      </trkpt>
      <trkpt lat="42.99928" lon="-0.16396">
        <ele>1343.2</ele>
        <time>2022-10-22T09:17:45Z</time>
      </trkpt>
      <trkpt lat="42.99923" lon="-0.16386">
        <ele>1344.4</ele>
        <time>2022-10-22T09:17:49Z</time>
      </trkpt>
      <trkpt lat="42.99922" lon="-0.16378">
        <ele>1345.2</ele>
        <time>2022-10-22T09:17:52Z</time>
      </trkpt>
      <trkpt lat="42.99923" lon="-0.16376">
        <ele>1345.6</ele>
        <time>2022-10-22T09:17:53Z</time>
      </trkpt>
      <trkpt lat="42.99922" lon="-0.1636">
        <ele>1346.2</ele>
        <time>2022-10-22T09:18:00Z</time>
      </trkpt>
      <trkpt lat="42.99922" lon="-0.16358">
        <ele>1346.2</ele>
        <time>2022-10-22T09:18:01Z</time>
      </trkpt>
      <trkpt lat="42.99922" lon="-0.16351">
        <ele>1346.6</ele>
        <time>2022-10-22T09:18:06Z</time>
      </trkpt>
      <trkpt lat="42.99922" lon="-0.16343">
        <ele>1347</ele>
        <time>2022-10-22T09:18:11Z</time>
      </trkpt>
      <trkpt lat="42.99922" lon="-0.16332">
        <ele>1347.4</ele>
        <time>2022-10-22T09:18:17Z</time>
      </trkpt>
      <trkpt lat="42.99923" lon="-0.16324">
        <ele>1347.8</ele>
        <time>2022-10-22T09:18:21Z</time>
      </trkpt>
      <trkpt lat="42.99924" lon="-0.1632">
        <ele>1348</ele>
        <time>2022-10-22T09:18:23Z</time>
      </trkpt>
      <trkpt lat="42.99924" lon="-0.16319">
        <ele>1348.2</ele>
        <time>2022-10-22T09:18:24Z</time>
      </trkpt>
      <trkpt lat="42.99924" lon="-0.16315">
        <ele>1348.4</ele>
        <time>2022-10-22T09:18:26Z</time>
      </trkpt>
      <trkpt lat="42.99922" lon="-0.16305">
        <ele>1348.6</ele>
        <time>2022-10-22T09:18:30Z</time>
      </trkpt>
      <trkpt lat="42.9992" lon="-0.16291">
        <ele>1349</ele>
        <time>2022-10-22T09:18:35Z</time>
      </trkpt>
      <trkpt lat="42.99919" lon="-0.16281">
        <ele>1349</ele>
        <time>2022-10-22T09:18:38Z</time>
      </trkpt>
      <trkpt lat="42.99916" lon="-0.16268">
        <ele>1349.4</ele>
        <time>2022-10-22T09:18:42Z</time>
      </trkpt>
      <trkpt lat="42.99916" lon="-0.16265">
        <ele>1349.4</ele>
        <time>2022-10-22T09:18:45Z</time>
      </trkpt>
      <trkpt lat="42.99916" lon="-0.16261">
        <ele>1349.4</ele>
        <time>2022-10-22T09:18:47Z</time>
      </trkpt>
      <trkpt lat="42.99912" lon="-0.16253">
        <ele>1349.6</ele>
        <time>2022-10-22T09:18:50Z</time>
      </trkpt>
      <trkpt lat="42.99912" lon="-0.16249">
        <ele>1349.8</ele>
        <time>2022-10-22T09:18:56Z</time>
      </trkpt>
      <trkpt lat="42.99911" lon="-0.16247">
        <ele>1349.4</ele>
        <time>2022-10-22T09:19:03Z</time>
      </trkpt>
      <trkpt lat="42.99911" lon="-0.16247">
        <ele>1349</ele>
        <time>2022-10-22T09:19:13Z</time>
      </trkpt>
      <trkpt lat="42.99911" lon="-0.16245">
        <ele>1348.2</ele>
        <time>2022-10-22T09:19:21Z</time>
      </trkpt>
      <trkpt lat="42.99911" lon="-0.16245">
        <ele>1347.8</ele>
        <time>2022-10-22T09:19:26Z</time>
      </trkpt>
      <trkpt lat="42.99911" lon="-0.16239">
        <ele>1346.8</ele>
        <time>2022-10-22T09:19:54Z</time>
      </trkpt>
      <trkpt lat="42.99912" lon="-0.16235">
        <ele>1345.8</ele>
        <time>2022-10-22T09:20:20Z</time>
      </trkpt>
      <trkpt lat="42.99912" lon="-0.16235">
        <ele>1344.8</ele>
        <time>2022-10-22T09:20:44Z</time>
      </trkpt>
      <trkpt lat="42.99912" lon="-0.16234">
        <ele>1343.6</ele>
        <time>2022-10-22T09:21:21Z</time>
      </trkpt>
      <trkpt lat="42.99912" lon="-0.16232">
        <ele>1342.6</ele>
        <time>2022-10-22T09:21:35Z</time>
      </trkpt>
      <trkpt lat="42.99912" lon="-0.16232">
        <ele>1341.6</ele>
        <time>2022-10-22T09:21:44Z</time>
      </trkpt>
      <trkpt lat="42.99912" lon="-0.16228">
        <ele>1340.8</ele>
        <time>2022-10-22T09:21:50Z</time>
      </trkpt>
      <trkpt lat="42.99912" lon="-0.16226">
        <ele>1340.4</ele>
        <time>2022-10-22T09:21:51Z</time>
      </trkpt>
      <trkpt lat="42.99912" lon="-0.16226">
        <ele>1340</ele>
        <time>2022-10-22T09:21:53Z</time>
      </trkpt>
      <trkpt lat="42.99912" lon="-0.16225">
        <ele>1339.4</ele>
        <time>2022-10-22T09:21:55Z</time>
      </trkpt>
      <trkpt lat="42.99912" lon="-0.16218">
        <ele>1338.4</ele>
        <time>2022-10-22T09:22:00Z</time>
      </trkpt>
      <trkpt lat="42.99912" lon="-0.16216">
        <ele>1338.2</ele>
        <time>2022-10-22T09:22:01Z</time>
      </trkpt>
      <trkpt lat="42.99912" lon="-0.16212">
        <ele>1337.4</ele>
        <time>2022-10-22T09:22:07Z</time>
      </trkpt>
      <trkpt lat="42.99913" lon="-0.1621">
        <ele>1337.2</ele>
        <time>2022-10-22T09:22:25Z</time>
      </trkpt>
      <trkpt lat="42.99912" lon="-0.16199">
        <ele>1337.2</ele>
        <time>2022-10-22T09:22:32Z</time>
      </trkpt>
      <trkpt lat="42.99912" lon="-0.16195">
        <ele>1337.2</ele>
        <time>2022-10-22T09:22:33Z</time>
      </trkpt>
      <trkpt lat="42.99912" lon="-0.16188">
        <ele>1337.4</ele>
        <time>2022-10-22T09:22:36Z</time>
      </trkpt>
      <trkpt lat="42.99912" lon="-0.16185">
        <ele>1337.4</ele>
        <time>2022-10-22T09:22:37Z</time>
      </trkpt>
      <trkpt lat="42.99911" lon="-0.16179">
        <ele>1337.4</ele>
        <time>2022-10-22T09:22:39Z</time>
      </trkpt>
      <trkpt lat="42.9991" lon="-0.16166">
        <ele>1337.2</ele>
        <time>2022-10-22T09:22:43Z</time>
      </trkpt>
      <trkpt lat="42.99909" lon="-0.16156">
        <ele>1336.4</ele>
        <time>2022-10-22T09:22:48Z</time>
      </trkpt>
      <trkpt lat="42.99909" lon="-0.16156">
        <ele>1336</ele>
        <time>2022-10-22T09:22:50Z</time>
      </trkpt>
      <trkpt lat="42.99909" lon="-0.16156">
        <ele>1334.8</ele>
        <time>2022-10-22T09:22:55Z</time>
      </trkpt>
      <trkpt lat="42.99909" lon="-0.16156">
        <ele>1334.8</ele>
        <time>2022-10-22T09:22:56Z</time>
      </trkpt>
      <trkpt lat="42.99908" lon="-0.16152">
        <ele>1334.6</ele>
        <time>2022-10-22T09:23:02Z</time>
      </trkpt>
      <trkpt lat="42.99908" lon="-0.16145">
        <ele>1335</ele>
        <time>2022-10-22T09:23:29Z</time>
      </trkpt>
      <trkpt lat="42.99906" lon="-0.16127">
        <ele>1334.4</ele>
        <time>2022-10-22T09:23:38Z</time>
      </trkpt>
      <trkpt lat="42.99906" lon="-0.16122">
        <ele>1334.4</ele>
        <time>2022-10-22T09:23:39Z</time>
      </trkpt>
      <trkpt lat="42.99904" lon="-0.16104">
        <ele>1334.2</ele>
        <time>2022-10-22T09:23:43Z</time>
      </trkpt>
      <trkpt lat="42.99903" lon="-0.16099">
        <ele>1334.2</ele>
        <time>2022-10-22T09:23:45Z</time>
      </trkpt>
      <trkpt lat="42.99902" lon="-0.16093">
        <ele>1333.8</ele>
        <time>2022-10-22T09:23:47Z</time>
      </trkpt>
      <trkpt lat="42.99902" lon="-0.16086">
        <ele>1333.4</ele>
        <time>2022-10-22T09:23:49Z</time>
      </trkpt>
      <trkpt lat="42.999" lon="-0.16061">
        <ele>1332.8</ele>
        <time>2022-10-22T09:23:55Z</time>
      </trkpt>
      <trkpt lat="42.999" lon="-0.16049">
        <ele>1332.4</ele>
        <time>2022-10-22T09:23:58Z</time>
      </trkpt>
      <trkpt lat="42.99899" lon="-0.16044">
        <ele>1332.4</ele>
        <time>2022-10-22T09:23:59Z</time>
      </trkpt>
      <trkpt lat="42.99898" lon="-0.16026">
        <ele>1331.6</ele>
        <time>2022-10-22T09:24:03Z</time>
      </trkpt>
      <trkpt lat="42.99895" lon="-0.16015">
        <ele>1330.6</ele>
        <time>2022-10-22T09:24:06Z</time>
      </trkpt>
      <trkpt lat="42.99893" lon="-0.16011">
        <ele>1330.4</ele>
        <time>2022-10-22T09:24:08Z</time>
      </trkpt>
      <trkpt lat="42.99892" lon="-0.16009">
        <ele>1330.2</ele>
        <time>2022-10-22T09:24:09Z</time>
      </trkpt>
      <trkpt lat="42.9989" lon="-0.16004">
        <ele>1329.6</ele>
        <time>2022-10-22T09:24:12Z</time>
      </trkpt>
      <trkpt lat="42.99889" lon="-0.15998">
        <ele>1329.6</ele>
        <time>2022-10-22T09:24:14Z</time>
      </trkpt>
      <trkpt lat="42.99888" lon="-0.15982">
        <ele>1329.2</ele>
        <time>2022-10-22T09:24:20Z</time>
      </trkpt>
      <trkpt lat="42.99885" lon="-0.1596">
        <ele>1328.6</ele>
        <time>2022-10-22T09:24:27Z</time>
      </trkpt>
      <trkpt lat="42.99881" lon="-0.15946">
        <ele>1327.6</ele>
        <time>2022-10-22T09:24:32Z</time>
      </trkpt>
      <trkpt lat="42.99881" lon="-0.15943">
        <ele>1327.4</ele>
        <time>2022-10-22T09:24:33Z</time>
      </trkpt>
      <trkpt lat="42.99874" lon="-0.15923">
        <ele>1326.2</ele>
        <time>2022-10-22T09:24:40Z</time>
      </trkpt>
      <trkpt lat="42.99873" lon="-0.15921">
        <ele>1325.4</ele>
        <time>2022-10-22T09:24:42Z</time>
      </trkpt>
      <trkpt lat="42.99873" lon="-0.1592">
        <ele>1324.4</ele>
        <time>2022-10-22T09:24:45Z</time>
      </trkpt>
      <trkpt lat="42.99872" lon="-0.1592">
        <ele>1324</ele>
        <time>2022-10-22T09:24:46Z</time>
      </trkpt>
      <trkpt lat="42.99868" lon="-0.15912">
        <ele>1323.2</ele>
        <time>2022-10-22T09:24:51Z</time>
      </trkpt>
      <trkpt lat="42.99861" lon="-0.15906">
        <ele>1322.8</ele>
        <time>2022-10-22T09:24:56Z</time>
      </trkpt>
      <trkpt lat="42.99857" lon="-0.15903">
        <ele>1322.6</ele>
        <time>2022-10-22T09:24:59Z</time>
      </trkpt>
      <trkpt lat="42.99841" lon="-0.15899">
        <ele>1322.2</ele>
        <time>2022-10-22T09:25:06Z</time>
      </trkpt>
      <trkpt lat="42.99835" lon="-0.15897">
        <ele>1322</ele>
        <time>2022-10-22T09:25:08Z</time>
      </trkpt>
      <trkpt lat="42.99824" lon="-0.15893">
        <ele>1321</ele>
        <time>2022-10-22T09:25:12Z</time>
      </trkpt>
      <trkpt lat="42.99819" lon="-0.15892">
        <ele>1320</ele>
        <time>2022-10-22T09:25:15Z</time>
      </trkpt>
      <trkpt lat="42.99816" lon="-0.15892">
        <ele>1319.6</ele>
        <time>2022-10-22T09:25:18Z</time>
      </trkpt>
      <trkpt lat="42.99815" lon="-0.15892">
        <ele>1319</ele>
        <time>2022-10-22T09:25:24Z</time>
      </trkpt>
      <trkpt lat="42.99815" lon="-0.15892">
        <ele>1319</ele>
        <time>2022-10-22T09:25:30Z</time>
      </trkpt>
      <trkpt lat="42.99815" lon="-0.15892">
        <ele>1318.6</ele>
        <time>2022-10-22T09:25:48Z</time>
      </trkpt>
      <trkpt lat="42.99813" lon="-0.1589">
        <ele>1318.2</ele>
        <time>2022-10-22T09:26:08Z</time>
      </trkpt>
      <trkpt lat="42.99814" lon="-0.1589">
        <ele>1318</ele>
        <time>2022-10-22T09:26:18Z</time>
      </trkpt>
      <trkpt lat="42.99814" lon="-0.1589">
        <ele>1318</ele>
        <time>2022-10-22T09:26:41Z</time>
      </trkpt>
      <trkpt lat="42.99814" lon="-0.1589">
        <ele>1317.8</ele>
        <time>2022-10-22T09:27:12Z</time>
      </trkpt>
      <trkpt lat="42.99814" lon="-0.1589">
        <ele>1317.6</ele>
        <time>2022-10-22T09:27:38Z</time>
      </trkpt>
      <trkpt lat="42.99814" lon="-0.1589">
        <ele>1318.4</ele>
        <time>2022-10-22T09:28:02Z</time>
      </trkpt>
      <trkpt lat="42.99814" lon="-0.1589">
        <ele>1318.2</ele>
        <time>2022-10-22T09:28:39Z</time>
      </trkpt>
      <trkpt lat="42.99814" lon="-0.1589">
        <ele>1318.4</ele>
        <time>2022-10-22T09:29:22Z</time>
      </trkpt>
      <trkpt lat="42.99813" lon="-0.15888">
        <ele>1318.8</ele>
        <time>2022-10-22T09:29:43Z</time>
      </trkpt>
      <trkpt lat="42.99812" lon="-0.15882">
        <ele>1318.8</ele>
        <time>2022-10-22T09:29:45Z</time>
      </trkpt>
      <trkpt lat="42.99806" lon="-0.1586">
        <ele>1318.4</ele>
        <time>2022-10-22T09:29:51Z</time>
      </trkpt>
      <trkpt lat="42.99805" lon="-0.15855">
        <ele>1318</ele>
        <time>2022-10-22T09:29:53Z</time>
      </trkpt>
      <trkpt lat="42.99806" lon="-0.15849">
        <ele>1317.8</ele>
        <time>2022-10-22T09:29:55Z</time>
      </trkpt>
      <trkpt lat="42.99808" lon="-0.15848">
        <ele>1317.6</ele>
        <time>2022-10-22T09:29:56Z</time>
      </trkpt>
      <trkpt lat="42.99811" lon="-0.15845">
        <ele>1317.4</ele>
        <time>2022-10-22T09:29:58Z</time>
      </trkpt>
      <trkpt lat="42.99814" lon="-0.15842">
        <ele>1317</ele>
        <time>2022-10-22T09:30:00Z</time>
      </trkpt>
      <trkpt lat="42.99822" lon="-0.15832">
        <ele>1316.4</ele>
        <time>2022-10-22T09:30:05Z</time>
      </trkpt>
      <trkpt lat="42.99824" lon="-0.1583">
        <ele>1316.4</ele>
        <time>2022-10-22T09:30:06Z</time>
      </trkpt>
      <trkpt lat="42.99836" lon="-0.15815">
        <ele>1315.2</ele>
        <time>2022-10-22T09:30:13Z</time>
      </trkpt>
      <trkpt lat="42.99838" lon="-0.15811">
        <ele>1315.2</ele>
        <time>2022-10-22T09:30:14Z</time>
      </trkpt>
      <trkpt lat="42.99843" lon="-0.15803">
        <ele>1315</ele>
        <time>2022-10-22T09:30:16Z</time>
      </trkpt>
      <trkpt lat="42.99845" lon="-0.15797">
        <ele>1315</ele>
        <time>2022-10-22T09:30:17Z</time>
      </trkpt>
      <trkpt lat="42.99849" lon="-0.15785">
        <ele>1314.6</ele>
        <time>2022-10-22T09:30:19Z</time>
      </trkpt>
      <trkpt lat="42.99854" lon="-0.15763">
        <ele>1314.2</ele>
        <time>2022-10-22T09:30:22Z</time>
      </trkpt>
      <trkpt lat="42.99858" lon="-0.1574">
        <ele>1313.2</ele>
        <time>2022-10-22T09:30:25Z</time>
      </trkpt>
      <trkpt lat="42.9986" lon="-0.15734">
        <ele>1313</ele>
        <time>2022-10-22T09:30:26Z</time>
      </trkpt>
      <trkpt lat="42.99868" lon="-0.15713">
        <ele>1312.6</ele>
        <time>2022-10-22T09:30:29Z</time>
      </trkpt>
      <trkpt lat="42.99876" lon="-0.15691">
        <ele>1311.6</ele>
        <time>2022-10-22T09:30:32Z</time>
      </trkpt>
      <trkpt lat="42.99878" lon="-0.15686">
        <ele>1311.2</ele>
        <time>2022-10-22T09:30:33Z</time>
      </trkpt>
      <trkpt lat="42.9988" lon="-0.15682">
        <ele>1310.4</ele>
        <time>2022-10-22T09:30:34Z</time>
      </trkpt>
      <trkpt lat="42.99881" lon="-0.15678">
        <ele>1309.6</ele>
        <time>2022-10-22T09:30:36Z</time>
      </trkpt>
      <trkpt lat="42.99882" lon="-0.15676">
        <ele>1309</ele>
        <time>2022-10-22T09:30:37Z</time>
      </trkpt>
      <trkpt lat="42.99883" lon="-0.15676">
        <ele>1308</ele>
        <time>2022-10-22T09:30:40Z</time>
      </trkpt>
      <trkpt lat="42.99883" lon="-0.15676">
        <ele>1306.8</ele>
        <time>2022-10-22T09:30:42Z</time>
      </trkpt>
      <trkpt lat="42.99883" lon="-0.15676">
        <ele>1305.8</ele>
        <time>2022-10-22T09:30:46Z</time>
      </trkpt>
      <trkpt lat="42.99883" lon="-0.15676">
        <ele>1305.6</ele>
        <time>2022-10-22T09:30:48Z</time>
      </trkpt>
      <trkpt lat="42.99883" lon="-0.15676">
        <ele>1305.4</ele>
        <time>2022-10-22T09:30:54Z</time>
      </trkpt>
      <trkpt lat="42.99881" lon="-0.15681">
        <ele>1305.6</ele>
        <time>2022-10-22T09:30:56Z</time>
      </trkpt>
      <trkpt lat="42.99873" lon="-0.15702">
        <ele>1306.4</ele>
        <time>2022-10-22T09:31:03Z</time>
      </trkpt>
      <trkpt lat="42.99868" lon="-0.15714">
        <ele>1307.2</ele>
        <time>2022-10-22T09:31:07Z</time>
      </trkpt>
      <trkpt lat="42.99863" lon="-0.15725">
        <ele>1308.2</ele>
        <time>2022-10-22T09:31:11Z</time>
      </trkpt>
      <trkpt lat="42.99858" lon="-0.15737">
        <ele>1309.4</ele>
        <time>2022-10-22T09:31:15Z</time>
      </trkpt>
      <trkpt lat="42.99857" lon="-0.15743">
        <ele>1310.2</ele>
        <time>2022-10-22T09:31:17Z</time>
      </trkpt>
      <trkpt lat="42.99856" lon="-0.1575">
        <ele>1310.4</ele>
        <time>2022-10-22T09:31:19Z</time>
      </trkpt>
      <trkpt lat="42.99852" lon="-0.15769">
        <ele>1311.2</ele>
        <time>2022-10-22T09:31:25Z</time>
      </trkpt>
      <trkpt lat="42.9985" lon="-0.15774">
        <ele>1311.4</ele>
        <time>2022-10-22T09:31:27Z</time>
      </trkpt>
      <trkpt lat="42.99845" lon="-0.15792">
        <ele>1312</ele>
        <time>2022-10-22T09:31:33Z</time>
      </trkpt>
      <trkpt lat="42.99843" lon="-0.15798">
        <ele>1312.6</ele>
        <time>2022-10-22T09:31:35Z</time>
      </trkpt>
      <trkpt lat="42.99838" lon="-0.15811">
        <ele>1313.6</ele>
        <time>2022-10-22T09:31:40Z</time>
      </trkpt>
      <trkpt lat="42.99836" lon="-0.15813">
        <ele>1313.6</ele>
        <time>2022-10-22T09:31:41Z</time>
      </trkpt>
      <trkpt lat="42.99824" lon="-0.1583">
        <ele>1314.6</ele>
        <time>2022-10-22T09:31:48Z</time>
      </trkpt>
      <trkpt lat="42.99821" lon="-0.15833">
        <ele>1315</ele>
        <time>2022-10-22T09:31:50Z</time>
      </trkpt>
      <trkpt lat="42.99813" lon="-0.15843">
        <ele>1315.8</ele>
        <time>2022-10-22T09:31:56Z</time>
      </trkpt>
      <trkpt lat="42.99812" lon="-0.15844">
        <ele>1315.8</ele>
        <time>2022-10-22T09:31:57Z</time>
      </trkpt>
      <trkpt lat="42.99812" lon="-0.15844">
        <ele>1316.6</ele>
        <time>2022-10-22T09:32:02Z</time>
      </trkpt>
      <trkpt lat="42.99813" lon="-0.15844">
        <ele>1316.2</ele>
        <time>2022-10-22T09:32:12Z</time>
      </trkpt>
      <trkpt lat="42.99815" lon="-0.15848">
        <ele>1316.4</ele>
        <time>2022-10-22T09:32:14Z</time>
      </trkpt>
      <trkpt lat="42.99822" lon="-0.15855">
        <ele>1316</ele>
        <time>2022-10-22T09:32:19Z</time>
      </trkpt>
      <trkpt lat="42.99836" lon="-0.15854">
        <ele>1315.2</ele>
        <time>2022-10-22T09:32:26Z</time>
      </trkpt>
      <trkpt lat="42.99837" lon="-0.15854">
        <ele>1314.8</ele>
        <time>2022-10-22T09:32:27Z</time>
      </trkpt>
      <trkpt lat="42.99843" lon="-0.15854">
        <ele>1313.8</ele>
        <time>2022-10-22T09:32:31Z</time>
      </trkpt>
      <trkpt lat="42.99846" lon="-0.15852">
        <ele>1313.4</ele>
        <time>2022-10-22T09:32:33Z</time>
      </trkpt>
      <trkpt lat="42.99849" lon="-0.15852">
        <ele>1312.6</ele>
        <time>2022-10-22T09:32:35Z</time>
      </trkpt>
      <trkpt lat="42.99854" lon="-0.15851">
        <ele>1311.4</ele>
        <time>2022-10-22T09:32:39Z</time>
      </trkpt>
      <trkpt lat="42.99858" lon="-0.15849">
        <ele>1310.8</ele>
        <time>2022-10-22T09:32:41Z</time>
      </trkpt>
      <trkpt lat="42.99859" lon="-0.15849">
        <ele>1310.4</ele>
        <time>2022-10-22T09:32:42Z</time>
      </trkpt>
      <trkpt lat="42.99863" lon="-0.15848">
        <ele>1309.4</ele>
        <time>2022-10-22T09:32:45Z</time>
      </trkpt>
      <trkpt lat="42.99868" lon="-0.15845">
        <ele>1308.2</ele>
        <time>2022-10-22T09:32:49Z</time>
      </trkpt>
      <trkpt lat="42.9987" lon="-0.15842">
        <ele>1307.4</ele>
        <time>2022-10-22T09:32:51Z</time>
      </trkpt>
      <trkpt lat="42.99871" lon="-0.15841">
        <ele>1307</ele>
        <time>2022-10-22T09:32:52Z</time>
      </trkpt>
      <trkpt lat="42.99873" lon="-0.15839">
        <ele>1306</ele>
        <time>2022-10-22T09:32:54Z</time>
      </trkpt>
      <trkpt lat="42.99877" lon="-0.15837">
        <ele>1304.6</ele>
        <time>2022-10-22T09:32:57Z</time>
      </trkpt>
      <trkpt lat="42.99878" lon="-0.15836">
        <ele>1303.6</ele>
        <time>2022-10-22T09:32:59Z</time>
      </trkpt>
      <trkpt lat="42.99878" lon="-0.15836">
        <ele>1303</ele>
        <time>2022-10-22T09:33:00Z</time>
      </trkpt>
      <trkpt lat="42.99878" lon="-0.15836">
        <ele>1302.2</ele>
        <time>2022-10-22T09:33:02Z</time>
      </trkpt>
      <trkpt lat="42.99879" lon="-0.15835">
        <ele>1301.6</ele>
        <time>2022-10-22T09:33:03Z</time>
      </trkpt>
      <trkpt lat="42.99879" lon="-0.15834">
        <ele>1301.4</ele>
        <time>2022-10-22T09:33:04Z</time>
      </trkpt>
      <trkpt lat="42.99883" lon="-0.1583">
        <ele>1300.6</ele>
        <time>2022-10-22T09:33:07Z</time>
      </trkpt>
      <trkpt lat="42.99886" lon="-0.15825">
        <ele>1300.2</ele>
        <time>2022-10-22T09:33:10Z</time>
      </trkpt>
      <trkpt lat="42.99888" lon="-0.15824">
        <ele>1299.2</ele>
        <time>2022-10-22T09:33:13Z</time>
      </trkpt>
      <trkpt lat="42.99889" lon="-0.15819">
        <ele>1298.2</ele>
        <time>2022-10-22T09:33:16Z</time>
      </trkpt>
      <trkpt lat="42.99891" lon="-0.15816">
        <ele>1297.6</ele>
        <time>2022-10-22T09:33:18Z</time>
      </trkpt>
      <trkpt lat="42.99893" lon="-0.15813">
        <ele>1296.8</ele>
        <time>2022-10-22T09:33:20Z</time>
      </trkpt>
      <trkpt lat="42.99895" lon="-0.15809">
        <ele>1295.8</ele>
        <time>2022-10-22T09:33:22Z</time>
      </trkpt>
      <trkpt lat="42.99897" lon="-0.15806">
        <ele>1295.2</ele>
        <time>2022-10-22T09:33:24Z</time>
      </trkpt>
      <trkpt lat="42.99898" lon="-0.15804">
        <ele>1295</ele>
        <time>2022-10-22T09:33:25Z</time>
      </trkpt>
      <trkpt lat="42.99899" lon="-0.15803">
        <ele>1294.2</ele>
        <time>2022-10-22T09:33:26Z</time>
      </trkpt>
      <trkpt lat="42.99901" lon="-0.158">
        <ele>1293</ele>
        <time>2022-10-22T09:33:28Z</time>
      </trkpt>
      <trkpt lat="42.99902" lon="-0.15798">
        <ele>1292</ele>
        <time>2022-10-22T09:33:30Z</time>
      </trkpt>
      <trkpt lat="42.99904" lon="-0.15796">
        <ele>1290.8</ele>
        <time>2022-10-22T09:33:32Z</time>
      </trkpt>
      <trkpt lat="42.99905" lon="-0.15794">
        <ele>1289.8</ele>
        <time>2022-10-22T09:33:33Z</time>
      </trkpt>
      <trkpt lat="42.99909" lon="-0.15789">
        <ele>1288.6</ele>
        <time>2022-10-22T09:33:36Z</time>
      </trkpt>
      <trkpt lat="42.9991" lon="-0.15786">
        <ele>1288.2</ele>
        <time>2022-10-22T09:33:37Z</time>
      </trkpt>
      <trkpt lat="42.99911" lon="-0.15782">
        <ele>1287</ele>
        <time>2022-10-22T09:33:39Z</time>
      </trkpt>
      <trkpt lat="42.99913" lon="-0.15778">
        <ele>1285.6</ele>
        <time>2022-10-22T09:33:41Z</time>
      </trkpt>
      <trkpt lat="42.99914" lon="-0.15774">
        <ele>1283.8</ele>
        <time>2022-10-22T09:33:43Z</time>
      </trkpt>
      <trkpt lat="42.99916" lon="-0.1577">
        <ele>1282.6</ele>
        <time>2022-10-22T09:33:45Z</time>
      </trkpt>
      <trkpt lat="42.99918" lon="-0.15766">
        <ele>1282</ele>
        <time>2022-10-22T09:33:47Z</time>
      </trkpt>
      <trkpt lat="42.99919" lon="-0.15761">
        <ele>1280.6</ele>
        <time>2022-10-22T09:33:49Z</time>
      </trkpt>
      <trkpt lat="42.9992" lon="-0.1576">
        <ele>1279.4</ele>
        <time>2022-10-22T09:33:50Z</time>
      </trkpt>
      <trkpt lat="42.99921" lon="-0.15759">
        <ele>1279.4</ele>
        <time>2022-10-22T09:33:51Z</time>
      </trkpt>
      <trkpt lat="42.99924" lon="-0.15755">
        <ele>1277.8</ele>
        <time>2022-10-22T09:33:53Z</time>
      </trkpt>
      <trkpt lat="42.99927" lon="-0.15751">
        <ele>1276.6</ele>
        <time>2022-10-22T09:33:56Z</time>
      </trkpt>
      <trkpt lat="42.99927" lon="-0.1575">
        <ele>1276.4</ele>
        <time>2022-10-22T09:33:57Z</time>
      </trkpt>
      <trkpt lat="42.99928" lon="-0.15749">
        <ele>1275.4</ele>
        <time>2022-10-22T09:33:59Z</time>
      </trkpt>
      <trkpt lat="42.99929" lon="-0.15746">
        <ele>1274.2</ele>
        <time>2022-10-22T09:34:02Z</time>
      </trkpt>
      <trkpt lat="42.9993" lon="-0.15744">
        <ele>1274.2</ele>
        <time>2022-10-22T09:34:03Z</time>
      </trkpt>
      <trkpt lat="42.99935" lon="-0.15736">
        <ele>1273.2</ele>
        <time>2022-10-22T09:34:08Z</time>
      </trkpt>
      <trkpt lat="42.99936" lon="-0.15733">
        <ele>1272.4</ele>
        <time>2022-10-22T09:34:09Z</time>
      </trkpt>
      <trkpt lat="42.99937" lon="-0.15731">
        <ele>1272.2</ele>
        <time>2022-10-22T09:34:10Z</time>
      </trkpt>
      <trkpt lat="42.9994" lon="-0.15722">
        <ele>1270.8</ele>
        <time>2022-10-22T09:34:13Z</time>
      </trkpt>
      <trkpt lat="42.99941" lon="-0.15719">
        <ele>1270.6</ele>
        <time>2022-10-22T09:34:14Z</time>
      </trkpt>
      <trkpt lat="42.99942" lon="-0.15713">
        <ele>1269.4</ele>
        <time>2022-10-22T09:34:16Z</time>
      </trkpt>
      <trkpt lat="42.99942" lon="-0.15711">
        <ele>1268.8</ele>
        <time>2022-10-22T09:34:17Z</time>
      </trkpt>
      <trkpt lat="42.99944" lon="-0.15707">
        <ele>1267.6</ele>
        <time>2022-10-22T09:34:19Z</time>
      </trkpt>
      <trkpt lat="42.99945" lon="-0.15704">
        <ele>1267.4</ele>
        <time>2022-10-22T09:34:20Z</time>
      </trkpt>
      <trkpt lat="42.99945" lon="-0.15703">
        <ele>1266.6</ele>
        <time>2022-10-22T09:34:21Z</time>
      </trkpt>
      <trkpt lat="42.99946" lon="-0.15699">
        <ele>1265.2</ele>
        <time>2022-10-22T09:34:24Z</time>
      </trkpt>
      <trkpt lat="42.99948" lon="-0.15696">
        <ele>1264.2</ele>
        <time>2022-10-22T09:34:26Z</time>
      </trkpt>
      <trkpt lat="42.99949" lon="-0.15695">
        <ele>1264</ele>
        <time>2022-10-22T09:34:27Z</time>
      </trkpt>
      <trkpt lat="42.9995" lon="-0.15694">
        <ele>1263.4</ele>
        <time>2022-10-22T09:34:28Z</time>
      </trkpt>
      <trkpt lat="42.99951" lon="-0.15691">
        <ele>1263</ele>
        <time>2022-10-22T09:34:30Z</time>
      </trkpt>
      <trkpt lat="42.99952" lon="-0.15689">
        <ele>1262.2</ele>
        <time>2022-10-22T09:34:32Z</time>
      </trkpt>
      <trkpt lat="42.99954" lon="-0.15686">
        <ele>1261.6</ele>
        <time>2022-10-22T09:34:34Z</time>
      </trkpt>
      <trkpt lat="42.99958" lon="-0.1568">
        <ele>1260.4</ele>
        <time>2022-10-22T09:34:37Z</time>
      </trkpt>
      <trkpt lat="42.9996" lon="-0.15676">
        <ele>1259.4</ele>
        <time>2022-10-22T09:34:39Z</time>
      </trkpt>
      <trkpt lat="42.99962" lon="-0.15674">
        <ele>1258.6</ele>
        <time>2022-10-22T09:34:40Z</time>
      </trkpt>
      <trkpt lat="42.99964" lon="-0.15671">
        <ele>1258.4</ele>
        <time>2022-10-22T09:34:41Z</time>
      </trkpt>
      <trkpt lat="42.99966" lon="-0.15664">
        <ele>1257.2</ele>
        <time>2022-10-22T09:34:43Z</time>
      </trkpt>
      <trkpt lat="42.99969" lon="-0.15658">
        <ele>1256.6</ele>
        <time>2022-10-22T09:34:45Z</time>
      </trkpt>
      <trkpt lat="42.9997" lon="-0.15655">
        <ele>1255.8</ele>
        <time>2022-10-22T09:34:46Z</time>
      </trkpt>
      <trkpt lat="42.99974" lon="-0.15648">
        <ele>1254.8</ele>
        <time>2022-10-22T09:34:48Z</time>
      </trkpt>
      <trkpt lat="42.99979" lon="-0.15639">
        <ele>1253.4</ele>
        <time>2022-10-22T09:34:51Z</time>
      </trkpt>
      <trkpt lat="42.99984" lon="-0.15627">
        <ele>1252.2</ele>
        <time>2022-10-22T09:34:54Z</time>
      </trkpt>
      <trkpt lat="42.99991" lon="-0.15615">
        <ele>1251</ele>
        <time>2022-10-22T09:34:57Z</time>
      </trkpt>
      <trkpt lat="42.99994" lon="-0.15609">
        <ele>1249.8</ele>
        <time>2022-10-22T09:34:59Z</time>
      </trkpt>
      <trkpt lat="42.99998" lon="-0.15598">
        <ele>1248.6</ele>
        <time>2022-10-22T09:35:02Z</time>
      </trkpt>
      <trkpt lat="43.00005" lon="-0.15583">
        <ele>1248</ele>
        <time>2022-10-22T09:35:05Z</time>
      </trkpt>
      <trkpt lat="43.00012" lon="-0.15573">
        <ele>1247.2</ele>
        <time>2022-10-22T09:35:07Z</time>
      </trkpt>
      <trkpt lat="43.00017" lon="-0.15558">
        <ele>1245.6</ele>
        <time>2022-10-22T09:35:10Z</time>
      </trkpt>
      <trkpt lat="43.00019" lon="-0.15549">
        <ele>1244</ele>
        <time>2022-10-22T09:35:12Z</time>
      </trkpt>
      <trkpt lat="43.00022" lon="-0.1554">
        <ele>1242.6</ele>
        <time>2022-10-22T09:35:14Z</time>
      </trkpt>
      <trkpt lat="43.00029" lon="-0.15525">
        <ele>1241.4</ele>
        <time>2022-10-22T09:35:17Z</time>
      </trkpt>
      <trkpt lat="43.00038" lon="-0.1551">
        <ele>1240.2</ele>
        <time>2022-10-22T09:35:20Z</time>
      </trkpt>
      <trkpt lat="43.00045" lon="-0.15497">
        <ele>1239</ele>
        <time>2022-10-22T09:35:22Z</time>
      </trkpt>
      <trkpt lat="43.00047" lon="-0.1549">
        <ele>1237.8</ele>
        <time>2022-10-22T09:35:23Z</time>
      </trkpt>
      <trkpt lat="43.00051" lon="-0.15477">
        <ele>1236.2</ele>
        <time>2022-10-22T09:35:25Z</time>
      </trkpt>
      <trkpt lat="43.00056" lon="-0.15465">
        <ele>1234.6</ele>
        <time>2022-10-22T09:35:27Z</time>
      </trkpt>
      <trkpt lat="43.00058" lon="-0.1546">
        <ele>1234</ele>
        <time>2022-10-22T09:35:28Z</time>
      </trkpt>
      <trkpt lat="43.0006" lon="-0.15453">
        <ele>1232.6</ele>
        <time>2022-10-22T09:35:29Z</time>
      </trkpt>
      <trkpt lat="43.00063" lon="-0.1544">
        <ele>1231.6</ele>
        <time>2022-10-22T09:35:31Z</time>
      </trkpt>
      <trkpt lat="43.00063" lon="-0.15433">
        <ele>1231.2</ele>
        <time>2022-10-22T09:35:32Z</time>
      </trkpt>
      <trkpt lat="43.00062" lon="-0.15418">
        <ele>1230.2</ele>
        <time>2022-10-22T09:35:34Z</time>
      </trkpt>
      <trkpt lat="43.00061" lon="-0.15411">
        <ele>1229.2</ele>
        <time>2022-10-22T09:35:35Z</time>
      </trkpt>
      <trkpt lat="43.00061" lon="-0.15404">
        <ele>1228.8</ele>
        <time>2022-10-22T09:35:36Z</time>
      </trkpt>
      <trkpt lat="43.0006" lon="-0.15399">
        <ele>1228.6</ele>
        <time>2022-10-22T09:35:37Z</time>
      </trkpt>
      <trkpt lat="43.00059" lon="-0.15395">
        <ele>1228</ele>
        <time>2022-10-22T09:35:38Z</time>
      </trkpt>
      <trkpt lat="43.00059" lon="-0.15384">
        <ele>1227.4</ele>
        <time>2022-10-22T09:35:41Z</time>
      </trkpt>
      <trkpt lat="43.00064" lon="-0.15362">
        <ele>1227.4</ele>
        <time>2022-10-22T09:35:47Z</time>
      </trkpt>
      <trkpt lat="43.00073" lon="-0.15339">
        <ele>1228.2</ele>
        <time>2022-10-22T09:35:54Z</time>
      </trkpt>
      <trkpt lat="43.00076" lon="-0.15324">
        <ele>1228.8</ele>
        <time>2022-10-22T09:35:58Z</time>
      </trkpt>
      <trkpt lat="43.00077" lon="-0.1532">
        <ele>1229.2</ele>
        <time>2022-10-22T09:35:59Z</time>
      </trkpt>
      <trkpt lat="43.00079" lon="-0.15307">
        <ele>1229.8</ele>
        <time>2022-10-22T09:36:03Z</time>
      </trkpt>
      <trkpt lat="43.0008" lon="-0.15297">
        <ele>1230.2</ele>
        <time>2022-10-22T09:36:06Z</time>
      </trkpt>
      <trkpt lat="43.00081" lon="-0.15276">
        <ele>1231</ele>
        <time>2022-10-22T09:36:12Z</time>
      </trkpt>
      <trkpt lat="43.00084" lon="-0.15257">
        <ele>1231.6</ele>
        <time>2022-10-22T09:36:17Z</time>
      </trkpt>
      <trkpt lat="43.00087" lon="-0.1524">
        <ele>1232</ele>
        <time>2022-10-22T09:36:21Z</time>
      </trkpt>
      <trkpt lat="43.0009" lon="-0.15226">
        <ele>1232.6</ele>
        <time>2022-10-22T09:36:24Z</time>
      </trkpt>
      <trkpt lat="43.00094" lon="-0.15203">
        <ele>1233.4</ele>
        <time>2022-10-22T09:36:30Z</time>
      </trkpt>
      <trkpt lat="43.00096" lon="-0.15199">
        <ele>1233.6</ele>
        <time>2022-10-22T09:36:31Z</time>
      </trkpt>
      <trkpt lat="43.001" lon="-0.15187">
        <ele>1234</ele>
        <time>2022-10-22T09:36:34Z</time>
      </trkpt>
      <trkpt lat="43.00103" lon="-0.15175">
        <ele>1234.8</ele>
        <time>2022-10-22T09:36:37Z</time>
      </trkpt>
      <trkpt lat="43.00104" lon="-0.15172">
        <ele>1234.8</ele>
        <time>2022-10-22T09:36:38Z</time>
      </trkpt>
      <trkpt lat="43.00107" lon="-0.15152">
        <ele>1235.6</ele>
        <time>2022-10-22T09:36:44Z</time>
      </trkpt>
      <trkpt lat="43.00109" lon="-0.15146">
        <ele>1235.8</ele>
        <time>2022-10-22T09:36:46Z</time>
      </trkpt>
      <trkpt lat="43.00111" lon="-0.15136">
        <ele>1236</ele>
        <time>2022-10-22T09:36:49Z</time>
      </trkpt>
      <trkpt lat="43.00115" lon="-0.1512">
        <ele>1236.8</ele>
        <time>2022-10-22T09:36:54Z</time>
      </trkpt>
      <trkpt lat="43.00117" lon="-0.15111">
        <ele>1237</ele>
        <time>2022-10-22T09:36:57Z</time>
      </trkpt>
      <trkpt lat="43.00119" lon="-0.15102">
        <ele>1237.2</ele>
        <time>2022-10-22T09:37:00Z</time>
      </trkpt>
      <trkpt lat="43.00122" lon="-0.15095">
        <ele>1237.4</ele>
        <time>2022-10-22T09:37:02Z</time>
      </trkpt>
      <trkpt lat="43.00134" lon="-0.15072">
        <ele>1237.4</ele>
        <time>2022-10-22T09:37:08Z</time>
      </trkpt>
      <trkpt lat="43.00143" lon="-0.15061">
        <ele>1237.2</ele>
        <time>2022-10-22T09:37:11Z</time>
      </trkpt>
      <trkpt lat="43.00158" lon="-0.15041">
        <ele>1236.8</ele>
        <time>2022-10-22T09:37:16Z</time>
      </trkpt>
      <trkpt lat="43.00176" lon="-0.15013">
        <ele>1235.8</ele>
        <time>2022-10-22T09:37:21Z</time>
      </trkpt>
      <trkpt lat="43.0018" lon="-0.15007">
        <ele>1235.8</ele>
        <time>2022-10-22T09:37:22Z</time>
      </trkpt>
      <trkpt lat="43.00185" lon="-0.15001">
        <ele>1235.4</ele>
        <time>2022-10-22T09:37:23Z</time>
      </trkpt>
      <trkpt lat="43.00196" lon="-0.14991">
        <ele>1234.8</ele>
        <time>2022-10-22T09:37:25Z</time>
      </trkpt>
      <trkpt lat="43.00202" lon="-0.14986">
        <ele>1234.6</ele>
        <time>2022-10-22T09:37:26Z</time>
      </trkpt>
      <trkpt lat="43.00208" lon="-0.14983">
        <ele>1234.2</ele>
        <time>2022-10-22T09:37:27Z</time>
      </trkpt>
      <trkpt lat="43.00213" lon="-0.14979">
        <ele>1234</ele>
        <time>2022-10-22T09:37:28Z</time>
      </trkpt>
      <trkpt lat="43.00224" lon="-0.14974">
        <ele>1233</ele>
        <time>2022-10-22T09:37:30Z</time>
      </trkpt>
      <trkpt lat="43.0023" lon="-0.14972">
        <ele>1232</ele>
        <time>2022-10-22T09:37:31Z</time>
      </trkpt>
      <trkpt lat="43.00236" lon="-0.14969">
        <ele>1230.8</ele>
        <time>2022-10-22T09:37:32Z</time>
      </trkpt>
      <trkpt lat="43.00242" lon="-0.14966">
        <ele>1230</ele>
        <time>2022-10-22T09:37:33Z</time>
      </trkpt>
      <trkpt lat="43.00247" lon="-0.14963">
        <ele>1229.4</ele>
        <time>2022-10-22T09:37:34Z</time>
      </trkpt>
      <trkpt lat="43.00253" lon="-0.14958">
        <ele>1229</ele>
        <time>2022-10-22T09:37:35Z</time>
      </trkpt>
      <trkpt lat="43.00258" lon="-0.14953">
        <ele>1228.4</ele>
        <time>2022-10-22T09:37:36Z</time>
      </trkpt>
      <trkpt lat="43.00264" lon="-0.14947">
        <ele>1228</ele>
        <time>2022-10-22T09:37:37Z</time>
      </trkpt>
      <trkpt lat="43.00277" lon="-0.14935">
        <ele>1227</ele>
        <time>2022-10-22T09:37:39Z</time>
      </trkpt>
      <trkpt lat="43.00283" lon="-0.1493">
        <ele>1226</ele>
        <time>2022-10-22T09:37:40Z</time>
      </trkpt>
      <trkpt lat="43.00295" lon="-0.14918">
        <ele>1224.8</ele>
        <time>2022-10-22T09:37:42Z</time>
      </trkpt>
      <trkpt lat="43.00302" lon="-0.14911">
        <ele>1224.4</ele>
        <time>2022-10-22T09:37:43Z</time>
      </trkpt>
      <trkpt lat="43.00308" lon="-0.14904">
        <ele>1223.6</ele>
        <time>2022-10-22T09:37:44Z</time>
      </trkpt>
      <trkpt lat="43.00319" lon="-0.14889">
        <ele>1222.2</ele>
        <time>2022-10-22T09:37:46Z</time>
      </trkpt>
      <trkpt lat="43.00328" lon="-0.14873">
        <ele>1220.8</ele>
        <time>2022-10-22T09:37:48Z</time>
      </trkpt>
      <trkpt lat="43.00337" lon="-0.1486">
        <ele>1219.2</ele>
        <time>2022-10-22T09:37:50Z</time>
      </trkpt>
      <trkpt lat="43.00341" lon="-0.14854">
        <ele>1217</ele>
        <time>2022-10-22T09:37:51Z</time>
      </trkpt>
      <trkpt lat="43.00346" lon="-0.14849">
        <ele>1216.4</ele>
        <time>2022-10-22T09:37:52Z</time>
      </trkpt>
      <trkpt lat="43.00352" lon="-0.14843">
        <ele>1215.4</ele>
        <time>2022-10-22T09:37:53Z</time>
      </trkpt>
      <trkpt lat="43.00362" lon="-0.14831">
        <ele>1214.2</ele>
        <time>2022-10-22T09:37:55Z</time>
      </trkpt>
      <trkpt lat="43.00367" lon="-0.14824">
        <ele>1212.8</ele>
        <time>2022-10-22T09:37:56Z</time>
      </trkpt>
      <trkpt lat="43.00371" lon="-0.14818">
        <ele>1211.2</ele>
        <time>2022-10-22T09:37:57Z</time>
      </trkpt>
      <trkpt lat="43.0038" lon="-0.14803">
        <ele>1209.2</ele>
        <time>2022-10-22T09:37:59Z</time>
      </trkpt>
      <trkpt lat="43.00383" lon="-0.14795">
        <ele>1208.6</ele>
        <time>2022-10-22T09:38:00Z</time>
      </trkpt>
      <trkpt lat="43.00387" lon="-0.14786">
        <ele>1207.2</ele>
        <time>2022-10-22T09:38:01Z</time>
      </trkpt>
      <trkpt lat="43.0039" lon="-0.14778">
        <ele>1206.6</ele>
        <time>2022-10-22T09:38:02Z</time>
      </trkpt>
      <trkpt lat="43.00394" lon="-0.14769">
        <ele>1205.6</ele>
        <time>2022-10-22T09:38:03Z</time>
      </trkpt>
      <trkpt lat="43.00401" lon="-0.14751">
        <ele>1203.2</ele>
        <time>2022-10-22T09:38:05Z</time>
      </trkpt>
      <trkpt lat="43.00403" lon="-0.14743">
        <ele>1202.4</ele>
        <time>2022-10-22T09:38:06Z</time>
      </trkpt>
      <trkpt lat="43.00406" lon="-0.14733">
        <ele>1202</ele>
        <time>2022-10-22T09:38:07Z</time>
      </trkpt>
      <trkpt lat="43.00409" lon="-0.14725">
        <ele>1200.8</ele>
        <time>2022-10-22T09:38:08Z</time>
      </trkpt>
      <trkpt lat="43.00418" lon="-0.14706">
        <ele>1198.6</ele>
        <time>2022-10-22T09:38:10Z</time>
      </trkpt>
      <trkpt lat="43.00425" lon="-0.14687">
        <ele>1197.4</ele>
        <time>2022-10-22T09:38:12Z</time>
      </trkpt>
      <trkpt lat="43.00431" lon="-0.14679">
        <ele>1197</ele>
        <time>2022-10-22T09:38:13Z</time>
      </trkpt>
      <trkpt lat="43.00435" lon="-0.14671">
        <ele>1196</ele>
        <time>2022-10-22T09:38:14Z</time>
      </trkpt>
      <trkpt lat="43.00442" lon="-0.14655">
        <ele>1194</ele>
        <time>2022-10-22T09:38:16Z</time>
      </trkpt>
      <trkpt lat="43.00449" lon="-0.14641">
        <ele>1191.4</ele>
        <time>2022-10-22T09:38:18Z</time>
      </trkpt>
      <trkpt lat="43.00456" lon="-0.14627">
        <ele>1189.8</ele>
        <time>2022-10-22T09:38:20Z</time>
      </trkpt>
      <trkpt lat="43.00462" lon="-0.14613">
        <ele>1188.8</ele>
        <time>2022-10-22T09:38:22Z</time>
      </trkpt>
      <trkpt lat="43.00464" lon="-0.14606">
        <ele>1188.4</ele>
        <time>2022-10-22T09:38:23Z</time>
      </trkpt>
      <trkpt lat="43.00465" lon="-0.14599">
        <ele>1187</ele>
        <time>2022-10-22T09:38:24Z</time>
      </trkpt>
      <trkpt lat="43.00466" lon="-0.14592">
        <ele>1186</ele>
        <time>2022-10-22T09:38:25Z</time>
      </trkpt>
      <trkpt lat="43.00466" lon="-0.14586">
        <ele>1185.8</ele>
        <time>2022-10-22T09:38:26Z</time>
      </trkpt>
      <trkpt lat="43.00466" lon="-0.14579">
        <ele>1184.6</ele>
        <time>2022-10-22T09:38:27Z</time>
      </trkpt>
      <trkpt lat="43.00466" lon="-0.14573">
        <ele>1184.2</ele>
        <time>2022-10-22T09:38:28Z</time>
      </trkpt>
      <trkpt lat="43.00464" lon="-0.14568">
        <ele>1182.4</ele>
        <time>2022-10-22T09:38:29Z</time>
      </trkpt>
      <trkpt lat="43.0046" lon="-0.14559">
        <ele>1180.6</ele>
        <time>2022-10-22T09:38:31Z</time>
      </trkpt>
      <trkpt lat="43.00459" lon="-0.14557">
        <ele>1180</ele>
        <time>2022-10-22T09:38:32Z</time>
      </trkpt>
      <trkpt lat="43.00457" lon="-0.14555">
        <ele>1178.6</ele>
        <time>2022-10-22T09:38:33Z</time>
      </trkpt>
      <trkpt lat="43.0045" lon="-0.14549">
        <ele>1177</ele>
        <time>2022-10-22T09:38:35Z</time>
      </trkpt>
      <trkpt lat="43.00444" lon="-0.14538">
        <ele>1175.4</ele>
        <time>2022-10-22T09:38:37Z</time>
      </trkpt>
      <trkpt lat="43.0044" lon="-0.14528">
        <ele>1174.2</ele>
        <time>2022-10-22T09:38:39Z</time>
      </trkpt>
      <trkpt lat="43.00435" lon="-0.14508">
        <ele>1173</ele>
        <time>2022-10-22T09:38:42Z</time>
      </trkpt>
      <trkpt lat="43.00434" lon="-0.14492">
        <ele>1171.4</ele>
        <time>2022-10-22T09:38:44Z</time>
      </trkpt>
      <trkpt lat="43.00436" lon="-0.14474">
        <ele>1170.4</ele>
        <time>2022-10-22T09:38:46Z</time>
      </trkpt>
      <trkpt lat="43.00437" lon="-0.14466">
        <ele>1170</ele>
        <time>2022-10-22T09:38:47Z</time>
      </trkpt>
      <trkpt lat="43.00443" lon="-0.14449">
        <ele>1169.2</ele>
        <time>2022-10-22T09:38:49Z</time>
      </trkpt>
      <trkpt lat="43.00446" lon="-0.14441">
        <ele>1168.6</ele>
        <time>2022-10-22T09:38:50Z</time>
      </trkpt>
      <trkpt lat="43.0045" lon="-0.14429">
        <ele>1167.8</ele>
        <time>2022-10-22T09:38:52Z</time>
      </trkpt>
      <trkpt lat="43.00452" lon="-0.14423">
        <ele>1167.6</ele>
        <time>2022-10-22T09:38:53Z</time>
      </trkpt>
      <trkpt lat="43.00453" lon="-0.14418">
        <ele>1167.2</ele>
        <time>2022-10-22T09:38:54Z</time>
      </trkpt>
      <trkpt lat="43.00455" lon="-0.14416">
        <ele>1167</ele>
        <time>2022-10-22T09:38:55Z</time>
      </trkpt>
      <trkpt lat="43.00457" lon="-0.14416">
        <ele>1166.6</ele>
        <time>2022-10-22T09:38:56Z</time>
      </trkpt>
      <trkpt lat="43.00459" lon="-0.14417">
        <ele>1166.2</ele>
        <time>2022-10-22T09:38:57Z</time>
      </trkpt>
      <trkpt lat="43.00461" lon="-0.14418">
        <ele>1165.4</ele>
        <time>2022-10-22T09:38:58Z</time>
      </trkpt>
      <trkpt lat="43.00464" lon="-0.14425">
        <ele>1164.2</ele>
        <time>2022-10-22T09:39:00Z</time>
      </trkpt>
      <trkpt lat="43.00464" lon="-0.14429">
        <ele>1163.8</ele>
        <time>2022-10-22T09:39:01Z</time>
      </trkpt>
      <trkpt lat="43.00467" lon="-0.14436">
        <ele>1162.6</ele>
        <time>2022-10-22T09:39:03Z</time>
      </trkpt>
      <trkpt lat="43.00472" lon="-0.1445">
        <ele>1161.6</ele>
        <time>2022-10-22T09:39:06Z</time>
      </trkpt>
      <trkpt lat="43.00488" lon="-0.14476">
        <ele>1160.6</ele>
        <time>2022-10-22T09:39:12Z</time>
      </trkpt>
      <trkpt lat="43.0049" lon="-0.14482">
        <ele>1160.2</ele>
        <time>2022-10-22T09:39:13Z</time>
      </trkpt>
      <trkpt lat="43.00494" lon="-0.14493">
        <ele>1159.2</ele>
        <time>2022-10-22T09:39:15Z</time>
      </trkpt>
      <trkpt lat="43.00501" lon="-0.14508">
        <ele>1158.4</ele>
        <time>2022-10-22T09:39:18Z</time>
      </trkpt>
      <trkpt lat="43.00503" lon="-0.14513">
        <ele>1158.2</ele>
        <time>2022-10-22T09:39:19Z</time>
      </trkpt>
      <trkpt lat="43.00506" lon="-0.14518">
        <ele>1158</ele>
        <time>2022-10-22T09:39:20Z</time>
      </trkpt>
      <trkpt lat="43.00516" lon="-0.14535">
        <ele>1157.4</ele>
        <time>2022-10-22T09:39:24Z</time>
      </trkpt>
      <trkpt lat="43.00529" lon="-0.14559">
        <ele>1157.4</ele>
        <time>2022-10-22T09:39:30Z</time>
      </trkpt>
      <trkpt lat="43.00553" lon="-0.14586">
        <ele>1157.2</ele>
        <time>2022-10-22T09:39:39Z</time>
      </trkpt>
      <trkpt lat="43.0056" lon="-0.14596">
        <ele>1156.8</ele>
        <time>2022-10-22T09:39:42Z</time>
      </trkpt>
      <trkpt lat="43.00571" lon="-0.14611">
        <ele>1156.2</ele>
        <time>2022-10-22T09:39:46Z</time>
      </trkpt>
      <trkpt lat="43.00578" lon="-0.14617">
        <ele>1155.6</ele>
        <time>2022-10-22T09:39:49Z</time>
      </trkpt>
      <trkpt lat="43.00581" lon="-0.14618">
        <ele>1155.2</ele>
        <time>2022-10-22T09:39:50Z</time>
      </trkpt>
      <trkpt lat="43.00588" lon="-0.14621">
        <ele>1154.4</ele>
        <time>2022-10-22T09:39:52Z</time>
      </trkpt>
      <trkpt lat="43.00599" lon="-0.14625">
        <ele>1152.8</ele>
        <time>2022-10-22T09:39:55Z</time>
      </trkpt>
      <trkpt lat="43.00603" lon="-0.14626">
        <ele>1152.4</ele>
        <time>2022-10-22T09:39:56Z</time>
      </trkpt>
      <trkpt lat="43.00614" lon="-0.14629">
        <ele>1151.8</ele>
        <time>2022-10-22T09:39:59Z</time>
      </trkpt>
      <trkpt lat="43.00626" lon="-0.14632">
        <ele>1151.4</ele>
        <time>2022-10-22T09:40:03Z</time>
      </trkpt>
      <trkpt lat="43.00645" lon="-0.14633">
        <ele>1151.4</ele>
        <time>2022-10-22T09:40:09Z</time>
      </trkpt>
      <trkpt lat="43.00649" lon="-0.14622">
        <ele>1151</ele>
        <time>2022-10-22T09:40:13Z</time>
      </trkpt>
      <trkpt lat="43.00648" lon="-0.14613">
        <ele>1150.6</ele>
        <time>2022-10-22T09:40:15Z</time>
      </trkpt>
      <trkpt lat="43.00646" lon="-0.14604">
        <ele>1150</ele>
        <time>2022-10-22T09:40:18Z</time>
      </trkpt>
      <trkpt lat="43.00644" lon="-0.14597">
        <ele>1149.4</ele>
        <time>2022-10-22T09:40:20Z</time>
      </trkpt>
      <trkpt lat="43.00639" lon="-0.14581">
        <ele>1147.8</ele>
        <time>2022-10-22T09:40:23Z</time>
      </trkpt>
      <trkpt lat="43.00635" lon="-0.14569">
        <ele>1147.2</ele>
        <time>2022-10-22T09:40:25Z</time>
      </trkpt>
      <trkpt lat="43.00629" lon="-0.14555">
        <ele>1146.2</ele>
        <time>2022-10-22T09:40:27Z</time>
      </trkpt>
      <trkpt lat="43.00622" lon="-0.1454">
        <ele>1145.2</ele>
        <time>2022-10-22T09:40:29Z</time>
      </trkpt>
      <trkpt lat="43.00619" lon="-0.14532">
        <ele>1144.8</ele>
        <time>2022-10-22T09:40:30Z</time>
      </trkpt>
      <trkpt lat="43.00615" lon="-0.14523">
        <ele>1144.2</ele>
        <time>2022-10-22T09:40:31Z</time>
      </trkpt>
      <trkpt lat="43.00607" lon="-0.14509">
        <ele>1143.2</ele>
        <time>2022-10-22T09:40:33Z</time>
      </trkpt>
      <trkpt lat="43.00603" lon="-0.14502">
        <ele>1142.8</ele>
        <time>2022-10-22T09:40:34Z</time>
      </trkpt>
      <trkpt lat="43.006" lon="-0.14494">
        <ele>1142.2</ele>
        <time>2022-10-22T09:40:35Z</time>
      </trkpt>
      <trkpt lat="43.00598" lon="-0.14486">
        <ele>1141.6</ele>
        <time>2022-10-22T09:40:36Z</time>
      </trkpt>
      <trkpt lat="43.00595" lon="-0.1448">
        <ele>1140.8</ele>
        <time>2022-10-22T09:40:37Z</time>
      </trkpt>
      <trkpt lat="43.0059" lon="-0.14465">
        <ele>1139.8</ele>
        <time>2022-10-22T09:40:39Z</time>
      </trkpt>
      <trkpt lat="43.00586" lon="-0.14455">
        <ele>1138</ele>
        <time>2022-10-22T09:40:41Z</time>
      </trkpt>
      <trkpt lat="43.00584" lon="-0.14447">
        <ele>1137</ele>
        <time>2022-10-22T09:40:42Z</time>
      </trkpt>
      <trkpt lat="43.00581" lon="-0.14441">
        <ele>1136.6</ele>
        <time>2022-10-22T09:40:43Z</time>
      </trkpt>
      <trkpt lat="43.00577" lon="-0.14432">
        <ele>1135.8</ele>
        <time>2022-10-22T09:40:44Z</time>
      </trkpt>
      <trkpt lat="43.00565" lon="-0.14405">
        <ele>1134.8</ele>
        <time>2022-10-22T09:40:47Z</time>
      </trkpt>
      <trkpt lat="43.00562" lon="-0.14396">
        <ele>1134.2</ele>
        <time>2022-10-22T09:40:48Z</time>
      </trkpt>
      <trkpt lat="43.0055" lon="-0.14364">
        <ele>1133</ele>
        <time>2022-10-22T09:40:51Z</time>
      </trkpt>
      <trkpt lat="43.00544" lon="-0.14352">
        <ele>1132.4</ele>
        <time>2022-10-22T09:40:52Z</time>
      </trkpt>
      <trkpt lat="43.00534" lon="-0.14335">
        <ele>1130.8</ele>
        <time>2022-10-22T09:40:54Z</time>
      </trkpt>
      <trkpt lat="43.00531" lon="-0.14328">
        <ele>1130.4</ele>
        <time>2022-10-22T09:40:55Z</time>
      </trkpt>
      <trkpt lat="43.00526" lon="-0.1432">
        <ele>1129</ele>
        <time>2022-10-22T09:40:56Z</time>
      </trkpt>
      <trkpt lat="43.00523" lon="-0.14312">
        <ele>1128.2</ele>
        <time>2022-10-22T09:40:57Z</time>
      </trkpt>
      <trkpt lat="43.00522" lon="-0.14305">
        <ele>1127</ele>
        <time>2022-10-22T09:40:58Z</time>
      </trkpt>
      <trkpt lat="43.00518" lon="-0.14294">
        <ele>1126</ele>
        <time>2022-10-22T09:41:00Z</time>
      </trkpt>
      <trkpt lat="43.0051" lon="-0.14282">
        <ele>1124.4</ele>
        <time>2022-10-22T09:41:02Z</time>
      </trkpt>
      <trkpt lat="43.00505" lon="-0.14275">
        <ele>1123.2</ele>
        <time>2022-10-22T09:41:03Z</time>
      </trkpt>
      <trkpt lat="43.00496" lon="-0.14265">
        <ele>1121.2</ele>
        <time>2022-10-22T09:41:05Z</time>
      </trkpt>
      <trkpt lat="43.00491" lon="-0.14259">
        <ele>1120.6</ele>
        <time>2022-10-22T09:41:06Z</time>
      </trkpt>
      <trkpt lat="43.00487" lon="-0.14253">
        <ele>1119.4</ele>
        <time>2022-10-22T09:41:07Z</time>
      </trkpt>
      <trkpt lat="43.00484" lon="-0.14247">
        <ele>1118.6</ele>
        <time>2022-10-22T09:41:08Z</time>
      </trkpt>
      <trkpt lat="43.00481" lon="-0.14239">
        <ele>1117.4</ele>
        <time>2022-10-22T09:41:09Z</time>
      </trkpt>
      <trkpt lat="43.00471" lon="-0.14224">
        <ele>1115.6</ele>
        <time>2022-10-22T09:41:11Z</time>
      </trkpt>
      <trkpt lat="43.00466" lon="-0.14213">
        <ele>1114.4</ele>
        <time>2022-10-22T09:41:13Z</time>
      </trkpt>
      <trkpt lat="43.00461" lon="-0.14204">
        <ele>1112.8</ele>
        <time>2022-10-22T09:41:15Z</time>
      </trkpt>
      <trkpt lat="43.00454" lon="-0.14192">
        <ele>1110.8</ele>
        <time>2022-10-22T09:41:17Z</time>
      </trkpt>
      <trkpt lat="43.00449" lon="-0.14188">
        <ele>1109.6</ele>
        <time>2022-10-22T09:41:19Z</time>
      </trkpt>
      <trkpt lat="43.00446" lon="-0.14185">
        <ele>1109</ele>
        <time>2022-10-22T09:41:20Z</time>
      </trkpt>
      <trkpt lat="43.00445" lon="-0.14183">
        <ele>1108.4</ele>
        <time>2022-10-22T09:41:21Z</time>
      </trkpt>
      <trkpt lat="43.00448" lon="-0.14177">
        <ele>1107.6</ele>
        <time>2022-10-22T09:41:23Z</time>
      </trkpt>
      <trkpt lat="43.00449" lon="-0.14177">
        <ele>1107</ele>
        <time>2022-10-22T09:41:24Z</time>
      </trkpt>
      <trkpt lat="43.00453" lon="-0.14179">
        <ele>1105.8</ele>
        <time>2022-10-22T09:41:26Z</time>
      </trkpt>
      <trkpt lat="43.00456" lon="-0.14185">
        <ele>1105</ele>
        <time>2022-10-22T09:41:28Z</time>
      </trkpt>
      <trkpt lat="43.00459" lon="-0.14187">
        <ele>1104.6</ele>
        <time>2022-10-22T09:41:29Z</time>
      </trkpt>
      <trkpt lat="43.00463" lon="-0.14189">
        <ele>1104.4</ele>
        <time>2022-10-22T09:41:30Z</time>
      </trkpt>
      <trkpt lat="43.00468" lon="-0.14191">
        <ele>1104</ele>
        <time>2022-10-22T09:41:31Z</time>
      </trkpt>
      <trkpt lat="43.00472" lon="-0.14192">
        <ele>1103.4</ele>
        <time>2022-10-22T09:41:32Z</time>
      </trkpt>
      <trkpt lat="43.00483" lon="-0.14196">
        <ele>1102.8</ele>
        <time>2022-10-22T09:41:34Z</time>
      </trkpt>
      <trkpt lat="43.00487" lon="-0.14199">
        <ele>1102.8</ele>
        <time>2022-10-22T09:41:35Z</time>
      </trkpt>
      <trkpt lat="43.00497" lon="-0.14207">
        <ele>1102.2</ele>
        <time>2022-10-22T09:41:37Z</time>
      </trkpt>
      <trkpt lat="43.00507" lon="-0.14218">
        <ele>1101.6</ele>
        <time>2022-10-22T09:41:39Z</time>
      </trkpt>
      <trkpt lat="43.00519" lon="-0.14225">
        <ele>1100.4</ele>
        <time>2022-10-22T09:41:41Z</time>
      </trkpt>
      <trkpt lat="43.00538" lon="-0.14229">
        <ele>1099.4</ele>
        <time>2022-10-22T09:41:44Z</time>
      </trkpt>
      <trkpt lat="43.00544" lon="-0.14232">
        <ele>1099</ele>
        <time>2022-10-22T09:41:45Z</time>
      </trkpt>
      <trkpt lat="43.00555" lon="-0.1424">
        <ele>1098</ele>
        <time>2022-10-22T09:41:47Z</time>
      </trkpt>
      <trkpt lat="43.0056" lon="-0.14245">
        <ele>1097.6</ele>
        <time>2022-10-22T09:41:48Z</time>
      </trkpt>
      <trkpt lat="43.00566" lon="-0.14249">
        <ele>1097</ele>
        <time>2022-10-22T09:41:49Z</time>
      </trkpt>
      <trkpt lat="43.00579" lon="-0.14256">
        <ele>1095.6</ele>
        <time>2022-10-22T09:41:51Z</time>
      </trkpt>
      <trkpt lat="43.00584" lon="-0.14258">
        <ele>1095.2</ele>
        <time>2022-10-22T09:41:52Z</time>
      </trkpt>
      <trkpt lat="43.00588" lon="-0.14262">
        <ele>1094.2</ele>
        <time>2022-10-22T09:41:53Z</time>
      </trkpt>
      <trkpt lat="43.00592" lon="-0.14273">
        <ele>1093.2</ele>
        <time>2022-10-22T09:41:55Z</time>
      </trkpt>
      <trkpt lat="43.00594" lon="-0.14279">
        <ele>1093</ele>
        <time>2022-10-22T09:41:56Z</time>
      </trkpt>
      <trkpt lat="43.00598" lon="-0.14286">
        <ele>1092.2</ele>
        <time>2022-10-22T09:41:57Z</time>
      </trkpt>
      <trkpt lat="43.00603" lon="-0.14293">
        <ele>1091.8</ele>
        <time>2022-10-22T09:41:58Z</time>
      </trkpt>
      <trkpt lat="43.00609" lon="-0.14298">
        <ele>1090.8</ele>
        <time>2022-10-22T09:41:59Z</time>
      </trkpt>
      <trkpt lat="43.00619" lon="-0.14308">
        <ele>1089.6</ele>
        <time>2022-10-22T09:42:01Z</time>
      </trkpt>
      <trkpt lat="43.00624" lon="-0.14313">
        <ele>1089</ele>
        <time>2022-10-22T09:42:02Z</time>
      </trkpt>
      <trkpt lat="43.00629" lon="-0.14318">
        <ele>1088.8</ele>
        <time>2022-10-22T09:42:03Z</time>
      </trkpt>
      <trkpt lat="43.00643" lon="-0.14328">
        <ele>1088.4</ele>
        <time>2022-10-22T09:42:05Z</time>
      </trkpt>
      <trkpt lat="43.00651" lon="-0.14331">
        <ele>1088.2</ele>
        <time>2022-10-22T09:42:06Z</time>
      </trkpt>
      <trkpt lat="43.00662" lon="-0.14336">
        <ele>1087</ele>
        <time>2022-10-22T09:42:08Z</time>
      </trkpt>
      <trkpt lat="43.00672" lon="-0.14335">
        <ele>1085.6</ele>
        <time>2022-10-22T09:42:10Z</time>
      </trkpt>
      <trkpt lat="43.00683" lon="-0.14341">
        <ele>1084.4</ele>
        <time>2022-10-22T09:42:12Z</time>
      </trkpt>
      <trkpt lat="43.00695" lon="-0.1435">
        <ele>1083.4</ele>
        <time>2022-10-22T09:42:14Z</time>
      </trkpt>
      <trkpt lat="43.007" lon="-0.14355">
        <ele>1083</ele>
        <time>2022-10-22T09:42:15Z</time>
      </trkpt>
      <trkpt lat="43.00705" lon="-0.14359">
        <ele>1082.6</ele>
        <time>2022-10-22T09:42:16Z</time>
      </trkpt>
      <trkpt lat="43.00711" lon="-0.14364">
        <ele>1082.2</ele>
        <time>2022-10-22T09:42:17Z</time>
      </trkpt>
      <trkpt lat="43.00722" lon="-0.14371">
        <ele>1081.4</ele>
        <time>2022-10-22T09:42:19Z</time>
      </trkpt>
      <trkpt lat="43.00727" lon="-0.14372">
        <ele>1081</ele>
        <time>2022-10-22T09:42:20Z</time>
      </trkpt>
      <trkpt lat="43.00731" lon="-0.14371">
        <ele>1080.4</ele>
        <time>2022-10-22T09:42:21Z</time>
      </trkpt>
      <trkpt lat="43.00736" lon="-0.14373">
        <ele>1079.8</ele>
        <time>2022-10-22T09:42:23Z</time>
      </trkpt>
      <trkpt lat="43.00747" lon="-0.14375">
        <ele>1079.6</ele>
        <time>2022-10-22T09:42:26Z</time>
      </trkpt>
      <trkpt lat="43.00763" lon="-0.14381">
        <ele>1079.4</ele>
        <time>2022-10-22T09:42:31Z</time>
      </trkpt>
      <trkpt lat="43.00772" lon="-0.14388">
        <ele>1079.2</ele>
        <time>2022-10-22T09:42:33Z</time>
      </trkpt>
      <trkpt lat="43.00782" lon="-0.14397">
        <ele>1078.6</ele>
        <time>2022-10-22T09:42:35Z</time>
      </trkpt>
      <trkpt lat="43.0079" lon="-0.14406">
        <ele>1078.2</ele>
        <time>2022-10-22T09:42:37Z</time>
      </trkpt>
      <trkpt lat="43.00793" lon="-0.14416">
        <ele>1077.6</ele>
        <time>2022-10-22T09:42:39Z</time>
      </trkpt>
      <trkpt lat="43.00794" lon="-0.14424">
        <ele>1076.4</ele>
        <time>2022-10-22T09:42:41Z</time>
      </trkpt>
      <trkpt lat="43.00796" lon="-0.14429">
        <ele>1075.8</ele>
        <time>2022-10-22T09:42:43Z</time>
      </trkpt>
      <trkpt lat="43.00798" lon="-0.14429">
        <ele>1074.4</ele>
        <time>2022-10-22T09:42:44Z</time>
      </trkpt>
      <trkpt lat="43.00799" lon="-0.14426">
        <ele>1073</ele>
        <time>2022-10-22T09:42:46Z</time>
      </trkpt>
      <trkpt lat="43.008" lon="-0.14415">
        <ele>1072.4</ele>
        <time>2022-10-22T09:42:49Z</time>
      </trkpt>
      <trkpt lat="43.008" lon="-0.14411">
        <ele>1072.2</ele>
        <time>2022-10-22T09:42:50Z</time>
      </trkpt>
      <trkpt lat="43.00799" lon="-0.14396">
        <ele>1071.2</ele>
        <time>2022-10-22T09:42:54Z</time>
      </trkpt>
      <trkpt lat="43.00798" lon="-0.14388">
        <ele>1070.8</ele>
        <time>2022-10-22T09:42:56Z</time>
      </trkpt>
      <trkpt lat="43.00795" lon="-0.14365">
        <ele>1070.4</ele>
        <time>2022-10-22T09:43:00Z</time>
      </trkpt>
      <trkpt lat="43.00787" lon="-0.14346">
        <ele>1070.4</ele>
        <time>2022-10-22T09:43:03Z</time>
      </trkpt>
      <trkpt lat="43.00783" lon="-0.14342">
        <ele>1070.4</ele>
        <time>2022-10-22T09:43:04Z</time>
      </trkpt>
      <trkpt lat="43.00768" lon="-0.14332">
        <ele>1069.6</ele>
        <time>2022-10-22T09:43:07Z</time>
      </trkpt>
      <trkpt lat="43.00762" lon="-0.14329">
        <ele>1069.4</ele>
        <time>2022-10-22T09:43:08Z</time>
      </trkpt>
      <trkpt lat="43.00757" lon="-0.14324">
        <ele>1069.2</ele>
        <time>2022-10-22T09:43:09Z</time>
      </trkpt>
      <trkpt lat="43.00743" lon="-0.14311">
        <ele>1068.6</ele>
        <time>2022-10-22T09:43:12Z</time>
      </trkpt>
      <trkpt lat="43.00737" lon="-0.143">
        <ele>1068</ele>
        <time>2022-10-22T09:43:14Z</time>
      </trkpt>
      <trkpt lat="43.00729" lon="-0.14285">
        <ele>1067.2</ele>
        <time>2022-10-22T09:43:16Z</time>
      </trkpt>
      <trkpt lat="43.00721" lon="-0.14272">
        <ele>1065.8</ele>
        <time>2022-10-22T09:43:19Z</time>
      </trkpt>
      <trkpt lat="43.00711" lon="-0.14255">
        <ele>1064.6</ele>
        <time>2022-10-22T09:43:23Z</time>
      </trkpt>
      <trkpt lat="43.00704" lon="-0.14237">
        <ele>1063.2</ele>
        <time>2022-10-22T09:43:26Z</time>
      </trkpt>
      <trkpt lat="43.007" lon="-0.14221">
        <ele>1062</ele>
        <time>2022-10-22T09:43:29Z</time>
      </trkpt>
      <trkpt lat="43.00693" lon="-0.14206">
        <ele>1061</ele>
        <time>2022-10-22T09:43:33Z</time>
      </trkpt>
      <trkpt lat="43.00688" lon="-0.14193">
        <ele>1060.8</ele>
        <time>2022-10-22T09:43:35Z</time>
      </trkpt>
      <trkpt lat="43.00665" lon="-0.14159">
        <ele>1060</ele>
        <time>2022-10-22T09:43:41Z</time>
      </trkpt>
      <trkpt lat="43.0065" lon="-0.14139">
        <ele>1058.8</ele>
        <time>2022-10-22T09:43:44Z</time>
      </trkpt>
      <trkpt lat="43.00637" lon="-0.14124">
        <ele>1057.6</ele>
        <time>2022-10-22T09:43:47Z</time>
      </trkpt>
      <trkpt lat="43.00622" lon="-0.1411">
        <ele>1057</ele>
        <time>2022-10-22T09:43:53Z</time>
      </trkpt>
      <trkpt lat="43.00609" lon="-0.14092">
        <ele>1057</ele>
        <time>2022-10-22T09:43:57Z</time>
      </trkpt>
      <trkpt lat="43.00607" lon="-0.14088">
        <ele>1057</ele>
        <time>2022-10-22T09:43:58Z</time>
      </trkpt>
      <trkpt lat="43.00606" lon="-0.14084">
        <ele>1057</ele>
        <time>2022-10-22T09:43:59Z</time>
      </trkpt>
      <trkpt lat="43.00603" lon="-0.14077">
        <ele>1057.2</ele>
        <time>2022-10-22T09:44:01Z</time>
      </trkpt>
      <trkpt lat="43.00601" lon="-0.14076">
        <ele>1057.2</ele>
        <time>2022-10-22T09:44:02Z</time>
      </trkpt>
      <trkpt lat="43.00598" lon="-0.14072">
        <ele>1057.2</ele>
        <time>2022-10-22T09:44:04Z</time>
      </trkpt>
      <trkpt lat="43.00589" lon="-0.14063">
        <ele>1057.4</ele>
        <time>2022-10-22T09:44:08Z</time>
      </trkpt>
      <trkpt lat="43.00572" lon="-0.14053">
        <ele>1057</ele>
        <time>2022-10-22T09:44:13Z</time>
      </trkpt>
      <trkpt lat="43.00566" lon="-0.1405">
        <ele>1056.6</ele>
        <time>2022-10-22T09:44:15Z</time>
      </trkpt>
      <trkpt lat="43.00556" lon="-0.14039">
        <ele>1056.2</ele>
        <time>2022-10-22T09:44:18Z</time>
      </trkpt>
      <trkpt lat="43.0054" lon="-0.14027">
        <ele>1055.8</ele>
        <time>2022-10-22T09:44:23Z</time>
      </trkpt>
      <trkpt lat="43.00537" lon="-0.14024">
        <ele>1055.8</ele>
        <time>2022-10-22T09:44:24Z</time>
      </trkpt>
      <trkpt lat="43.00523" lon="-0.14013">
        <ele>1055.6</ele>
        <time>2022-10-22T09:44:27Z</time>
      </trkpt>
      <trkpt lat="43.00509" lon="-0.13997">
        <ele>1054.8</ele>
        <time>2022-10-22T09:44:31Z</time>
      </trkpt>
      <trkpt lat="43.00507" lon="-0.13995">
        <ele>1054.6</ele>
        <time>2022-10-22T09:44:32Z</time>
      </trkpt>
      <trkpt lat="43.00507" lon="-0.13995">
        <ele>1053.4</ele>
        <time>2022-10-22T09:44:35Z</time>
      </trkpt>
      <trkpt lat="43.00507" lon="-0.13995">
        <ele>1052.6</ele>
        <time>2022-10-22T09:44:59Z</time>
      </trkpt>
      <trkpt lat="43.00507" lon="-0.13995">
        <ele>1052.6</ele>
        <time>2022-10-22T09:45:00Z</time>
      </trkpt>
      <trkpt lat="43.00507" lon="-0.13995">
        <ele>1052.4</ele>
        <time>2022-10-22T09:45:04Z</time>
      </trkpt>
      <trkpt lat="43.00502" lon="-0.13993">
        <ele>1052.4</ele>
        <time>2022-10-22T09:45:21Z</time>
      </trkpt>
      <trkpt lat="43.00486" lon="-0.13981">
        <ele>1052.4</ele>
        <time>2022-10-22T09:45:26Z</time>
      </trkpt>
      <trkpt lat="43.00474" lon="-0.13972">
        <ele>1051.8</ele>
        <time>2022-10-22T09:45:28Z</time>
      </trkpt>
      <trkpt lat="43.00459" lon="-0.1396">
        <ele>1050.4</ele>
        <time>2022-10-22T09:45:32Z</time>
      </trkpt>
      <trkpt lat="43.00454" lon="-0.13958">
        <ele>1050</ele>
        <time>2022-10-22T09:45:33Z</time>
      </trkpt>
      <trkpt lat="43.00451" lon="-0.13957">
        <ele>1049.2</ele>
        <time>2022-10-22T09:45:34Z</time>
      </trkpt>
      <trkpt lat="43.0044" lon="-0.13959">
        <ele>1048.6</ele>
        <time>2022-10-22T09:45:37Z</time>
      </trkpt>
      <trkpt lat="43.00437" lon="-0.13961">
        <ele>1048.2</ele>
        <time>2022-10-22T09:45:38Z</time>
      </trkpt>
      <trkpt lat="43.00428" lon="-0.13963">
        <ele>1046.6</ele>
        <time>2022-10-22T09:45:41Z</time>
      </trkpt>
      <trkpt lat="43.00424" lon="-0.13963">
        <ele>1046</ele>
        <time>2022-10-22T09:45:42Z</time>
      </trkpt>
      <trkpt lat="43.00421" lon="-0.13962">
        <ele>1045</ele>
        <time>2022-10-22T09:45:43Z</time>
      </trkpt>
      <trkpt lat="43.00417" lon="-0.13961">
        <ele>1043.6</ele>
        <time>2022-10-22T09:45:45Z</time>
      </trkpt>
      <trkpt lat="43.00416" lon="-0.13961">
        <ele>1042</ele>
        <time>2022-10-22T09:45:47Z</time>
      </trkpt>
      <trkpt lat="43.00411" lon="-0.13955">
        <ele>1040.8</ele>
        <time>2022-10-22T09:45:50Z</time>
      </trkpt>
      <trkpt lat="43.00404" lon="-0.13946">
        <ele>1039.2</ele>
        <time>2022-10-22T09:45:52Z</time>
      </trkpt>
      <trkpt lat="43.004" lon="-0.13939">
        <ele>1037.4</ele>
        <time>2022-10-22T09:45:54Z</time>
      </trkpt>
      <trkpt lat="43.00398" lon="-0.13937">
        <ele>1037</ele>
        <time>2022-10-22T09:45:55Z</time>
      </trkpt>
      <trkpt lat="43.00395" lon="-0.13934">
        <ele>1036.4</ele>
        <time>2022-10-22T09:45:56Z</time>
      </trkpt>
      <trkpt lat="43.0039" lon="-0.1393">
        <ele>1035.2</ele>
        <time>2022-10-22T09:45:58Z</time>
      </trkpt>
      <trkpt lat="43.00383" lon="-0.13922">
        <ele>1034.2</ele>
        <time>2022-10-22T09:46:02Z</time>
      </trkpt>
      <trkpt lat="43.00379" lon="-0.13919">
        <ele>1033.2</ele>
        <time>2022-10-22T09:46:04Z</time>
      </trkpt>
      <trkpt lat="43.00376" lon="-0.13917">
        <ele>1032</ele>
        <time>2022-10-22T09:46:05Z</time>
      </trkpt>
      <trkpt lat="43.00371" lon="-0.13915">
        <ele>1030.6</ele>
        <time>2022-10-22T09:46:06Z</time>
      </trkpt>
      <trkpt lat="43.00368" lon="-0.13914">
        <ele>1030.2</ele>
        <time>2022-10-22T09:46:07Z</time>
      </trkpt>
      <trkpt lat="43.00367" lon="-0.13911">
        <ele>1029.6</ele>
        <time>2022-10-22T09:46:08Z</time>
      </trkpt>
      <trkpt lat="43.00362" lon="-0.13901">
        <ele>1028.4</ele>
        <time>2022-10-22T09:46:11Z</time>
      </trkpt>
      <trkpt lat="43.00358" lon="-0.13894">
        <ele>1026.6</ele>
        <time>2022-10-22T09:46:13Z</time>
      </trkpt>
      <trkpt lat="43.00355" lon="-0.1389">
        <ele>1026.4</ele>
        <time>2022-10-22T09:46:14Z</time>
      </trkpt>
      <trkpt lat="43.00352" lon="-0.13886">
        <ele>1025.2</ele>
        <time>2022-10-22T09:46:15Z</time>
      </trkpt>
      <trkpt lat="43.00349" lon="-0.1388">
        <ele>1023.2</ele>
        <time>2022-10-22T09:46:17Z</time>
      </trkpt>
      <trkpt lat="43.00346" lon="-0.13878">
        <ele>1022.2</ele>
        <time>2022-10-22T09:46:18Z</time>
      </trkpt>
      <trkpt lat="43.00344" lon="-0.13876">
        <ele>1021.2</ele>
        <time>2022-10-22T09:46:19Z</time>
      </trkpt>
      <trkpt lat="43.0034" lon="-0.13869">
        <ele>1020.2</ele>
        <time>2022-10-22T09:46:21Z</time>
      </trkpt>
      <trkpt lat="43.00338" lon="-0.13868">
        <ele>1020</ele>
        <time>2022-10-22T09:46:22Z</time>
      </trkpt>
      <trkpt lat="43.00337" lon="-0.13866">
        <ele>1019.4</ele>
        <time>2022-10-22T09:46:23Z</time>
      </trkpt>
      <trkpt lat="43.00333" lon="-0.13861">
        <ele>1018.6</ele>
        <time>2022-10-22T09:46:25Z</time>
      </trkpt>
      <trkpt lat="43.00331" lon="-0.13859">
        <ele>1017.2</ele>
        <time>2022-10-22T09:46:27Z</time>
      </trkpt>
      <trkpt lat="43.00326" lon="-0.13855">
        <ele>1016</ele>
        <time>2022-10-22T09:46:29Z</time>
      </trkpt>
      <trkpt lat="43.0032" lon="-0.13853">
        <ele>1014.4</ele>
        <time>2022-10-22T09:46:31Z</time>
      </trkpt>
      <trkpt lat="43.00316" lon="-0.1385">
        <ele>1013.4</ele>
        <time>2022-10-22T09:46:32Z</time>
      </trkpt>
      <trkpt lat="43.00311" lon="-0.13846">
        <ele>1012.2</ele>
        <time>2022-10-22T09:46:33Z</time>
      </trkpt>
      <trkpt lat="43.00306" lon="-0.13841">
        <ele>1010.8</ele>
        <time>2022-10-22T09:46:34Z</time>
      </trkpt>
      <trkpt lat="43.00302" lon="-0.13837">
        <ele>1010.2</ele>
        <time>2022-10-22T09:46:35Z</time>
      </trkpt>
      <trkpt lat="43.00297" lon="-0.13834">
        <ele>1009</ele>
        <time>2022-10-22T09:46:36Z</time>
      </trkpt>
      <trkpt lat="43.00288" lon="-0.13829">
        <ele>1007</ele>
        <time>2022-10-22T09:46:38Z</time>
      </trkpt>
      <trkpt lat="43.0028" lon="-0.13826">
        <ele>1004.6</ele>
        <time>2022-10-22T09:46:40Z</time>
      </trkpt>
      <trkpt lat="43.00273" lon="-0.13823">
        <ele>1003</ele>
        <time>2022-10-22T09:46:42Z</time>
      </trkpt>
      <trkpt lat="43.00266" lon="-0.13818">
        <ele>1000.8</ele>
        <time>2022-10-22T09:46:44Z</time>
      </trkpt>
      <trkpt lat="43.00261" lon="-0.13815">
        <ele>999.4</ele>
        <time>2022-10-22T09:46:46Z</time>
      </trkpt>
      <trkpt lat="43.00258" lon="-0.13813">
        <ele>998.4</ele>
        <time>2022-10-22T09:46:48Z</time>
      </trkpt>
      <trkpt lat="43.00258" lon="-0.13813">
        <ele>998.2</ele>
        <time>2022-10-22T09:46:49Z</time>
      </trkpt>
      <trkpt lat="43.00258" lon="-0.13813">
        <ele>996.6</ele>
        <time>2022-10-22T09:46:51Z</time>
      </trkpt>
      <trkpt lat="43.00258" lon="-0.13813">
        <ele>995.6</ele>
        <time>2022-10-22T09:46:54Z</time>
      </trkpt>
      <trkpt lat="43.00258" lon="-0.13813">
        <ele>995.4</ele>
        <time>2022-10-22T09:46:55Z</time>
      </trkpt>
      <trkpt lat="43.00257" lon="-0.13813">
        <ele>994.6</ele>
        <time>2022-10-22T09:47:07Z</time>
      </trkpt>
      <trkpt lat="43.00257" lon="-0.13813">
        <ele>994.4</ele>
        <time>2022-10-22T09:47:08Z</time>
      </trkpt>
      <trkpt lat="43.00252" lon="-0.13809">
        <ele>994</ele>
        <time>2022-10-22T09:47:15Z</time>
      </trkpt>
      <trkpt lat="43.00251" lon="-0.13808">
        <ele>994</ele>
        <time>2022-10-22T09:47:16Z</time>
      </trkpt>
      <trkpt lat="43.00248" lon="-0.13804">
        <ele>993.6</ele>
        <time>2022-10-22T09:47:21Z</time>
      </trkpt>
      <trkpt lat="43.00247" lon="-0.13803">
        <ele>993.4</ele>
        <time>2022-10-22T09:47:22Z</time>
      </trkpt>
      <trkpt lat="43.00245" lon="-0.138">
        <ele>992.8</ele>
        <time>2022-10-22T09:47:27Z</time>
      </trkpt>
      <trkpt lat="43.00245" lon="-0.138">
        <ele>992.6</ele>
        <time>2022-10-22T09:47:30Z</time>
      </trkpt>
      <trkpt lat="43.00244" lon="-0.13799">
        <ele>992.2</ele>
        <time>2022-10-22T09:47:45Z</time>
      </trkpt>
      <trkpt lat="43.00241" lon="-0.13798">
        <ele>991.6</ele>
        <time>2022-10-22T09:48:01Z</time>
      </trkpt>
      <trkpt lat="43.00235" lon="-0.13795">
        <ele>991.6</ele>
        <time>2022-10-22T09:48:04Z</time>
      </trkpt>
      <trkpt lat="43.0022" lon="-0.13786">
        <ele>990.6</ele>
        <time>2022-10-22T09:48:09Z</time>
      </trkpt>
      <trkpt lat="43.00216" lon="-0.13779">
        <ele>990.2</ele>
        <time>2022-10-22T09:48:11Z</time>
      </trkpt>
      <trkpt lat="43.00211" lon="-0.13771">
        <ele>989</ele>
        <time>2022-10-22T09:48:13Z</time>
      </trkpt>
      <trkpt lat="43.00208" lon="-0.13766">
        <ele>988.6</ele>
        <time>2022-10-22T09:48:14Z</time>
      </trkpt>
      <trkpt lat="43.00202" lon="-0.13757">
        <ele>988.2</ele>
        <time>2022-10-22T09:48:16Z</time>
      </trkpt>
      <trkpt lat="43.00198" lon="-0.13753">
        <ele>987.8</ele>
        <time>2022-10-22T09:48:17Z</time>
      </trkpt>
      <trkpt lat="43.00195" lon="-0.13748">
        <ele>986.8</ele>
        <time>2022-10-22T09:48:18Z</time>
      </trkpt>
      <trkpt lat="43.00192" lon="-0.13742">
        <ele>985.6</ele>
        <time>2022-10-22T09:48:19Z</time>
      </trkpt>
      <trkpt lat="43.00185" lon="-0.13731">
        <ele>984.4</ele>
        <time>2022-10-22T09:48:21Z</time>
      </trkpt>
      <trkpt lat="43.00182" lon="-0.13721">
        <ele>981.8</ele>
        <time>2022-10-22T09:48:23Z</time>
      </trkpt>
      <trkpt lat="43.00181" lon="-0.13717">
        <ele>980.4</ele>
        <time>2022-10-22T09:48:24Z</time>
      </trkpt>
      <trkpt lat="43.0018" lon="-0.13712">
        <ele>980</ele>
        <time>2022-10-22T09:48:25Z</time>
      </trkpt>
      <trkpt lat="43.00178" lon="-0.13708">
        <ele>979.4</ele>
        <time>2022-10-22T09:48:26Z</time>
      </trkpt>
      <trkpt lat="43.00175" lon="-0.13698">
        <ele>978.2</ele>
        <time>2022-10-22T09:48:28Z</time>
      </trkpt>
      <trkpt lat="43.0017" lon="-0.13682">
        <ele>976.6</ele>
        <time>2022-10-22T09:48:32Z</time>
      </trkpt>
      <trkpt lat="43.00168" lon="-0.13678">
        <ele>976.2</ele>
        <time>2022-10-22T09:48:33Z</time>
      </trkpt>
      <trkpt lat="43.00166" lon="-0.13672">
        <ele>975.4</ele>
        <time>2022-10-22T09:48:35Z</time>
      </trkpt>
      <trkpt lat="43.0016" lon="-0.13651">
        <ele>974.2</ele>
        <time>2022-10-22T09:48:39Z</time>
      </trkpt>
      <trkpt lat="43.00152" lon="-0.13635">
        <ele>973.4</ele>
        <time>2022-10-22T09:48:42Z</time>
      </trkpt>
      <trkpt lat="43.00142" lon="-0.13621">
        <ele>971.4</ele>
        <time>2022-10-22T09:48:45Z</time>
      </trkpt>
      <trkpt lat="43.00133" lon="-0.13611">
        <ele>969.4</ele>
        <time>2022-10-22T09:48:47Z</time>
      </trkpt>
      <trkpt lat="43.00126" lon="-0.13607">
        <ele>967.6</ele>
        <time>2022-10-22T09:48:49Z</time>
      </trkpt>
      <trkpt lat="43.00118" lon="-0.13604">
        <ele>966.2</ele>
        <time>2022-10-22T09:48:51Z</time>
      </trkpt>
      <trkpt lat="43.00114" lon="-0.13602">
        <ele>965.6</ele>
        <time>2022-10-22T09:48:52Z</time>
      </trkpt>
      <trkpt lat="43.00107" lon="-0.13595">
        <ele>964.8</ele>
        <time>2022-10-22T09:48:54Z</time>
      </trkpt>
      <trkpt lat="43.00098" lon="-0.13587">
        <ele>962.8</ele>
        <time>2022-10-22T09:48:57Z</time>
      </trkpt>
      <trkpt lat="43.00089" lon="-0.13578">
        <ele>961</ele>
        <time>2022-10-22T09:49:00Z</time>
      </trkpt>
      <trkpt lat="43.00085" lon="-0.13575">
        <ele>960.6</ele>
        <time>2022-10-22T09:49:01Z</time>
      </trkpt>
      <trkpt lat="43.00082" lon="-0.13572">
        <ele>960</ele>
        <time>2022-10-22T09:49:02Z</time>
      </trkpt>
      <trkpt lat="43.00075" lon="-0.13564">
        <ele>959</ele>
        <time>2022-10-22T09:49:04Z</time>
      </trkpt>
      <trkpt lat="43.00062" lon="-0.13551">
        <ele>958.2</ele>
        <time>2022-10-22T09:49:07Z</time>
      </trkpt>
      <trkpt lat="43.00057" lon="-0.13546">
        <ele>957.6</ele>
        <time>2022-10-22T09:49:08Z</time>
      </trkpt>
      <trkpt lat="43.00049" lon="-0.13539">
        <ele>956.4</ele>
        <time>2022-10-22T09:49:10Z</time>
      </trkpt>
      <trkpt lat="43.00046" lon="-0.13536">
        <ele>956</ele>
        <time>2022-10-22T09:49:11Z</time>
      </trkpt>
      <trkpt lat="43.00043" lon="-0.13533">
        <ele>955.2</ele>
        <time>2022-10-22T09:49:12Z</time>
      </trkpt>
      <trkpt lat="43.0004" lon="-0.13531">
        <ele>955</ele>
        <time>2022-10-22T09:49:13Z</time>
      </trkpt>
      <trkpt lat="43.00035" lon="-0.13527">
        <ele>954.2</ele>
        <time>2022-10-22T09:49:15Z</time>
      </trkpt>
      <trkpt lat="43.0003" lon="-0.13522">
        <ele>952.8</ele>
        <time>2022-10-22T09:49:17Z</time>
      </trkpt>
      <trkpt lat="43.00027" lon="-0.13519">
        <ele>952.6</ele>
        <time>2022-10-22T09:49:18Z</time>
      </trkpt>
      <trkpt lat="43.0002" lon="-0.13508">
        <ele>951.4</ele>
        <time>2022-10-22T09:49:21Z</time>
      </trkpt>
      <trkpt lat="43.00016" lon="-0.135">
        <ele>950.4</ele>
        <time>2022-10-22T09:49:23Z</time>
      </trkpt>
      <trkpt lat="43.00015" lon="-0.13496">
        <ele>950.2</ele>
        <time>2022-10-22T09:49:24Z</time>
      </trkpt>
      <trkpt lat="43.00009" lon="-0.1348">
        <ele>948.4</ele>
        <time>2022-10-22T09:49:27Z</time>
      </trkpt>
      <trkpt lat="43.00005" lon="-0.13475">
        <ele>948</ele>
        <time>2022-10-22T09:49:28Z</time>
      </trkpt>
      <trkpt lat="43.00002" lon="-0.13471">
        <ele>946.8</ele>
        <time>2022-10-22T09:49:29Z</time>
      </trkpt>
      <trkpt lat="42.99996" lon="-0.13464">
        <ele>945.8</ele>
        <time>2022-10-22T09:49:31Z</time>
      </trkpt>
      <trkpt lat="42.9999" lon="-0.13452">
        <ele>945</ele>
        <time>2022-10-22T09:49:33Z</time>
      </trkpt>
      <trkpt lat="42.99987" lon="-0.13446">
        <ele>943.8</ele>
        <time>2022-10-22T09:49:34Z</time>
      </trkpt>
      <trkpt lat="42.99983" lon="-0.13434">
        <ele>942</ele>
        <time>2022-10-22T09:49:36Z</time>
      </trkpt>
      <trkpt lat="42.99978" lon="-0.13425">
        <ele>940.8</ele>
        <time>2022-10-22T09:49:38Z</time>
      </trkpt>
      <trkpt lat="42.99974" lon="-0.13421">
        <ele>940.6</ele>
        <time>2022-10-22T09:49:39Z</time>
      </trkpt>
      <trkpt lat="42.99959" lon="-0.13404">
        <ele>939.6</ele>
        <time>2022-10-22T09:49:42Z</time>
      </trkpt>
      <trkpt lat="42.99951" lon="-0.13396">
        <ele>938.8</ele>
        <time>2022-10-22T09:49:44Z</time>
      </trkpt>
      <trkpt lat="42.99947" lon="-0.13391">
        <ele>938.4</ele>
        <time>2022-10-22T09:49:45Z</time>
      </trkpt>
      <trkpt lat="42.99943" lon="-0.1338">
        <ele>937.8</ele>
        <time>2022-10-22T09:49:47Z</time>
      </trkpt>
      <trkpt lat="42.99944" lon="-0.13376">
        <ele>937.4</ele>
        <time>2022-10-22T09:49:48Z</time>
      </trkpt>
      <trkpt lat="42.99947" lon="-0.13371">
        <ele>937.4</ele>
        <time>2022-10-22T09:49:49Z</time>
      </trkpt>
      <trkpt lat="42.99954" lon="-0.13359">
        <ele>936.8</ele>
        <time>2022-10-22T09:49:51Z</time>
      </trkpt>
      <trkpt lat="42.99963" lon="-0.13349">
        <ele>936</ele>
        <time>2022-10-22T09:49:53Z</time>
      </trkpt>
      <trkpt lat="42.99977" lon="-0.1333">
        <ele>934.6</ele>
        <time>2022-10-22T09:49:56Z</time>
      </trkpt>
      <trkpt lat="42.99984" lon="-0.13314">
        <ele>933.6</ele>
        <time>2022-10-22T09:49:58Z</time>
      </trkpt>
      <trkpt lat="42.99987" lon="-0.13305">
        <ele>932.2</ele>
        <time>2022-10-22T09:49:59Z</time>
      </trkpt>
      <trkpt lat="42.99989" lon="-0.13297">
        <ele>931.4</ele>
        <time>2022-10-22T09:50:00Z</time>
      </trkpt>
      <trkpt lat="42.99991" lon="-0.13287">
        <ele>929.8</ele>
        <time>2022-10-22T09:50:01Z</time>
      </trkpt>
      <trkpt lat="42.99993" lon="-0.13267">
        <ele>927.8</ele>
        <time>2022-10-22T09:50:03Z</time>
      </trkpt>
      <trkpt lat="42.99995" lon="-0.13252">
        <ele>925.8</ele>
        <time>2022-10-22T09:50:05Z</time>
      </trkpt>
      <trkpt lat="42.99996" lon="-0.13246">
        <ele>924.4</ele>
        <time>2022-10-22T09:50:06Z</time>
      </trkpt>
      <trkpt lat="42.99996" lon="-0.1324">
        <ele>922.4</ele>
        <time>2022-10-22T09:50:07Z</time>
      </trkpt>
      <trkpt lat="42.99996" lon="-0.13236">
        <ele>920.8</ele>
        <time>2022-10-22T09:50:08Z</time>
      </trkpt>
      <trkpt lat="42.99996" lon="-0.13232">
        <ele>920</ele>
        <time>2022-10-22T09:50:09Z</time>
      </trkpt>
      <trkpt lat="42.99996" lon="-0.13229">
        <ele>918.6</ele>
        <time>2022-10-22T09:50:10Z</time>
      </trkpt>
      <trkpt lat="42.99999" lon="-0.13223">
        <ele>916.6</ele>
        <time>2022-10-22T09:50:12Z</time>
      </trkpt>
      <trkpt lat="43.00002" lon="-0.13223">
        <ele>915.8</ele>
        <time>2022-10-22T09:50:13Z</time>
      </trkpt>
      <trkpt lat="43.00004" lon="-0.13224">
        <ele>914.8</ele>
        <time>2022-10-22T09:50:14Z</time>
      </trkpt>
      <trkpt lat="43.00016" lon="-0.13224">
        <ele>914</ele>
        <time>2022-10-22T09:50:19Z</time>
      </trkpt>
      <trkpt lat="43.00039" lon="-0.13227">
        <ele>914</ele>
        <time>2022-10-22T09:50:26Z</time>
      </trkpt>
      <trkpt lat="43.00057" lon="-0.13228">
        <ele>914.4</ele>
        <time>2022-10-22T09:50:32Z</time>
      </trkpt>
      <trkpt lat="43.0008" lon="-0.13229">
        <ele>914.6</ele>
        <time>2022-10-22T09:50:39Z</time>
      </trkpt>
      <trkpt lat="43.00096" lon="-0.13228">
        <ele>914.6</ele>
        <time>2022-10-22T09:50:44Z</time>
      </trkpt>
      <trkpt lat="43.00104" lon="-0.13228">
        <ele>914.8</ele>
        <time>2022-10-22T09:50:47Z</time>
      </trkpt>
      <trkpt lat="43.0011" lon="-0.13228">
        <ele>915.2</ele>
        <time>2022-10-22T09:50:49Z</time>
      </trkpt>
      <trkpt lat="43.0012" lon="-0.13229">
        <ele>915.6</ele>
        <time>2022-10-22T09:50:52Z</time>
      </trkpt>
      <trkpt lat="43.00148" lon="-0.13227">
        <ele>916.2</ele>
        <time>2022-10-22T09:51:00Z</time>
      </trkpt>
      <trkpt lat="43.00157" lon="-0.13226">
        <ele>916.4</ele>
        <time>2022-10-22T09:51:03Z</time>
      </trkpt>
      <trkpt lat="43.00179" lon="-0.13225">
        <ele>916.8</ele>
        <time>2022-10-22T09:51:10Z</time>
      </trkpt>
      <trkpt lat="43.00202" lon="-0.13222">
        <ele>918</ele>
        <time>2022-10-22T09:51:17Z</time>
      </trkpt>
      <trkpt lat="43.00205" lon="-0.13222">
        <ele>918.2</ele>
        <time>2022-10-22T09:51:18Z</time>
      </trkpt>
      <trkpt lat="43.00233" lon="-0.13221">
        <ele>918.8</ele>
        <time>2022-10-22T09:51:26Z</time>
      </trkpt>
      <trkpt lat="43.0024" lon="-0.1322">
        <ele>919</ele>
        <time>2022-10-22T09:51:28Z</time>
      </trkpt>
      <trkpt lat="43.00257" lon="-0.13212">
        <ele>918.8</ele>
        <time>2022-10-22T09:51:34Z</time>
      </trkpt>
      <trkpt lat="43.00259" lon="-0.13195">
        <ele>918.6</ele>
        <time>2022-10-22T09:51:38Z</time>
      </trkpt>
      <trkpt lat="43.00259" lon="-0.13189">
        <ele>918.4</ele>
        <time>2022-10-22T09:51:39Z</time>
      </trkpt>
      <trkpt lat="43.00259" lon="-0.13177">
        <ele>918.2</ele>
        <time>2022-10-22T09:51:41Z</time>
      </trkpt>
      <trkpt lat="43.00259" lon="-0.13171">
        <ele>918</ele>
        <time>2022-10-22T09:51:42Z</time>
      </trkpt>
      <trkpt lat="43.00256" lon="-0.13158">
        <ele>917.6</ele>
        <time>2022-10-22T09:51:44Z</time>
      </trkpt>
      <trkpt lat="43.00255" lon="-0.13145">
        <ele>916.8</ele>
        <time>2022-10-22T09:51:46Z</time>
      </trkpt>
      <trkpt lat="43.00255" lon="-0.13138">
        <ele>916</ele>
        <time>2022-10-22T09:51:47Z</time>
      </trkpt>
      <trkpt lat="43.00255" lon="-0.13132">
        <ele>915.6</ele>
        <time>2022-10-22T09:51:48Z</time>
      </trkpt>
      <trkpt lat="43.00252" lon="-0.13116">
        <ele>914.6</ele>
        <time>2022-10-22T09:51:50Z</time>
      </trkpt>
      <trkpt lat="43.00249" lon="-0.13109">
        <ele>914</ele>
        <time>2022-10-22T09:51:51Z</time>
      </trkpt>
      <trkpt lat="43.00244" lon="-0.13097">
        <ele>913.4</ele>
        <time>2022-10-22T09:51:53Z</time>
      </trkpt>
      <trkpt lat="43.00235" lon="-0.13078">
        <ele>912.6</ele>
        <time>2022-10-22T09:51:57Z</time>
      </trkpt>
      <trkpt lat="43.00233" lon="-0.13072">
        <ele>912.4</ele>
        <time>2022-10-22T09:51:58Z</time>
      </trkpt>
      <trkpt lat="43.00223" lon="-0.1305">
        <ele>911.6</ele>
        <time>2022-10-22T09:52:01Z</time>
      </trkpt>
      <trkpt lat="43.00222" lon="-0.13046">
        <ele>911.2</ele>
        <time>2022-10-22T09:52:02Z</time>
      </trkpt>
      <trkpt lat="43.00217" lon="-0.13039">
        <ele>910.8</ele>
        <time>2022-10-22T09:52:05Z</time>
      </trkpt>
      <trkpt lat="43.00217" lon="-0.13038">
        <ele>910.2</ele>
        <time>2022-10-22T09:52:06Z</time>
      </trkpt>
      <trkpt lat="43.00217" lon="-0.13038">
        <ele>909.2</ele>
        <time>2022-10-22T09:52:10Z</time>
      </trkpt>
      <trkpt lat="43.00217" lon="-0.13038">
        <ele>909.2</ele>
        <time>2022-10-22T09:52:11Z</time>
      </trkpt>
      <trkpt lat="43.00219" lon="-0.13044">
        <ele>908.6</ele>
        <time>2022-10-22T09:52:17Z</time>
      </trkpt>
      <trkpt lat="43.00224" lon="-0.13058">
        <ele>908.8</ele>
        <time>2022-10-22T09:52:25Z</time>
      </trkpt>
      <trkpt lat="43.00226" lon="-0.13062">
        <ele>908.8</ele>
        <time>2022-10-22T09:52:27Z</time>
      </trkpt>
      <trkpt lat="43.00227" lon="-0.13067">
        <ele>909.4</ele>
        <time>2022-10-22T09:52:30Z</time>
      </trkpt>
      <trkpt lat="43.00228" lon="-0.13068">
        <ele>909.4</ele>
        <time>2022-10-22T09:52:31Z</time>
      </trkpt>
      <trkpt lat="43.00231" lon="-0.13072">
        <ele>909.8</ele>
        <time>2022-10-22T09:52:34Z</time>
      </trkpt>
      <trkpt lat="43.0023" lon="-0.13074">
        <ele>910.2</ele>
        <time>2022-10-22T09:52:36Z</time>
      </trkpt>
      <trkpt lat="43.00229" lon="-0.13073">
        <ele>910.6</ele>
        <time>2022-10-22T09:52:38Z</time>
      </trkpt>
      <trkpt lat="43.00229" lon="-0.13072">
        <ele>910.6</ele>
        <time>2022-10-22T09:52:39Z</time>
      </trkpt>
      <trkpt lat="43.0023" lon="-0.13069">
        <ele>910.6</ele>
        <time>2022-10-22T09:52:40Z</time>
      </trkpt>
      <trkpt lat="43.00231" lon="-0.13066">
        <ele>910.6</ele>
        <time>2022-10-22T09:52:41Z</time>
      </trkpt>
      <trkpt lat="43.00231" lon="-0.13058">
        <ele>910.8</ele>
        <time>2022-10-22T09:52:44Z</time>
      </trkpt>
      <trkpt lat="43.00232" lon="-0.13057">
        <ele>911</ele>
        <time>2022-10-22T09:52:45Z</time>
      </trkpt>
      <trkpt lat="43.00234" lon="-0.13054">
        <ele>911</ele>
        <time>2022-10-22T09:52:47Z</time>
      </trkpt>
      <trkpt lat="43.00236" lon="-0.13051">
        <ele>911.4</ele>
        <time>2022-10-22T09:52:49Z</time>
      </trkpt>
      <trkpt lat="43.00237" lon="-0.13051">
        <ele>911.6</ele>
        <time>2022-10-22T09:52:50Z</time>
      </trkpt>
      <trkpt lat="43.00245" lon="-0.13049">
        <ele>912.6</ele>
        <time>2022-10-22T09:52:56Z</time>
      </trkpt>
      <trkpt lat="43.00246" lon="-0.13047">
        <ele>913</ele>
        <time>2022-10-22T09:52:57Z</time>
      </trkpt>
      <trkpt lat="43.0025" lon="-0.13044">
        <ele>914</ele>
        <time>2022-10-22T09:53:01Z</time>
      </trkpt>
      <trkpt lat="43.0025" lon="-0.13044">
        <ele>914.6</ele>
        <time>2022-10-22T09:53:03Z</time>
      </trkpt>
      <trkpt lat="43.0025" lon="-0.13044">
        <ele>915</ele>
        <time>2022-10-22T09:53:05Z</time>
      </trkpt>
      <trkpt lat="43.0025" lon="-0.13044">
        <ele>915.6</ele>
        <time>2022-10-22T09:53:12Z</time>
      </trkpt>
      <trkpt lat="43.00252" lon="-0.13042">
        <ele>916.4</ele>
        <time>2022-10-22T09:53:42Z</time>
      </trkpt>
      <trkpt lat="43.00256" lon="-0.13038">
        <ele>916.6</ele>
        <time>2022-10-22T09:53:44Z</time>
      </trkpt>
      <trkpt lat="43.00259" lon="-0.13034">
        <ele>916.8</ele>
        <time>2022-10-22T09:53:46Z</time>
      </trkpt>
      <trkpt lat="43.00265" lon="-0.13025">
        <ele>917.8</ele>
        <time>2022-10-22T09:53:50Z</time>
      </trkpt>
      <trkpt lat="43.00266" lon="-0.13022">
        <ele>918</ele>
        <time>2022-10-22T09:53:51Z</time>
      </trkpt>
      <trkpt lat="43.00268" lon="-0.1302">
        <ele>919</ele>
        <time>2022-10-22T09:53:54Z</time>
      </trkpt>
      <trkpt lat="43.00272" lon="-0.13016">
        <ele>920</ele>
        <time>2022-10-22T09:53:58Z</time>
      </trkpt>
      <trkpt lat="43.00273" lon="-0.13013">
        <ele>920</ele>
        <time>2022-10-22T09:53:59Z</time>
      </trkpt>
      <trkpt lat="43.0028" lon="-0.13001">
        <ele>921.2</ele>
        <time>2022-10-22T09:54:04Z</time>
      </trkpt>
      <trkpt lat="43.00281" lon="-0.12996">
        <ele>921.6</ele>
        <time>2022-10-22T09:54:06Z</time>
      </trkpt>
      <trkpt lat="43.00281" lon="-0.12996">
        <ele>922.4</ele>
        <time>2022-10-22T09:54:08Z</time>
      </trkpt>
      <trkpt lat="43.00281" lon="-0.12996">
        <ele>923</ele>
        <time>2022-10-22T09:54:10Z</time>
      </trkpt>
      <trkpt lat="43.00281" lon="-0.12996">
        <ele>923.6</ele>
        <time>2022-10-22T09:54:12Z</time>
      </trkpt>
      <trkpt lat="43.00281" lon="-0.12993">
        <ele>924.8</ele>
        <time>2022-10-22T09:54:24Z</time>
      </trkpt>
      <trkpt lat="43.00283" lon="-0.12993">
        <ele>925.8</ele>
        <time>2022-10-22T09:54:41Z</time>
      </trkpt>
      <trkpt lat="43.00283" lon="-0.12993">
        <ele>926</ele>
        <time>2022-10-22T09:54:44Z</time>
      </trkpt>
      <trkpt lat="43.00283" lon="-0.12993">
        <ele>927.2</ele>
        <time>2022-10-22T09:54:52Z</time>
      </trkpt>
      <trkpt lat="43.00284" lon="-0.12992">
        <ele>927.4</ele>
        <time>2022-10-22T09:54:53Z</time>
      </trkpt>
      <trkpt lat="43.00291" lon="-0.12987">
        <ele>928.2</ele>
        <time>2022-10-22T09:54:59Z</time>
      </trkpt>
      <trkpt lat="43.00294" lon="-0.12983">
        <ele>928.6</ele>
        <time>2022-10-22T09:55:02Z</time>
      </trkpt>
      <trkpt lat="43.00294" lon="-0.12983">
        <ele>929</ele>
        <time>2022-10-22T09:55:07Z</time>
      </trkpt>
      <trkpt lat="43.00294" lon="-0.12983">
        <ele>929.6</ele>
        <time>2022-10-22T09:55:14Z</time>
      </trkpt>
      <trkpt lat="43.00294" lon="-0.12983">
        <ele>930</ele>
        <time>2022-10-22T09:55:18Z</time>
      </trkpt>
      <trkpt lat="43.00296" lon="-0.1298">
        <ele>930.6</ele>
        <time>2022-10-22T09:55:27Z</time>
      </trkpt>
      <trkpt lat="43.00298" lon="-0.12976">
        <ele>931.6</ele>
        <time>2022-10-22T09:55:37Z</time>
      </trkpt>
      <trkpt lat="43.00299" lon="-0.12974">
        <ele>931.6</ele>
        <time>2022-10-22T09:55:38Z</time>
      </trkpt>
      <trkpt lat="43.00304" lon="-0.12962">
        <ele>932.2</ele>
        <time>2022-10-22T09:55:44Z</time>
      </trkpt>
      <trkpt lat="43.00307" lon="-0.12954">
        <ele>932.8</ele>
        <time>2022-10-22T09:55:49Z</time>
      </trkpt>
      <trkpt lat="43.00307" lon="-0.12954">
        <ele>933.2</ele>
        <time>2022-10-22T09:55:51Z</time>
      </trkpt>
      <trkpt lat="43.00308" lon="-0.12952">
        <ele>933.6</ele>
        <time>2022-10-22T09:56:01Z</time>
      </trkpt>
      <trkpt lat="43.00308" lon="-0.12952">
        <ele>933.4</ele>
        <time>2022-10-22T09:56:24Z</time>
      </trkpt>
      <trkpt lat="43.00308" lon="-0.12952">
        <ele>933.4</ele>
        <time>2022-10-22T09:56:36Z</time>
      </trkpt>
      <trkpt lat="43.0031" lon="-0.12945">
        <ele>934.2</ele>
        <time>2022-10-22T09:57:16Z</time>
      </trkpt>
      <trkpt lat="43.00312" lon="-0.12939">
        <ele>935</ele>
        <time>2022-10-22T09:57:19Z</time>
      </trkpt>
      <trkpt lat="43.00313" lon="-0.12934">
        <ele>935.4</ele>
        <time>2022-10-22T09:57:24Z</time>
      </trkpt>
      <trkpt lat="43.00314" lon="-0.12934">
        <ele>935.6</ele>
        <time>2022-10-22T09:57:26Z</time>
      </trkpt>
      <trkpt lat="43.00315" lon="-0.1293">
        <ele>936.2</ele>
        <time>2022-10-22T09:57:33Z</time>
      </trkpt>
      <trkpt lat="43.00315" lon="-0.1293">
        <ele>936.4</ele>
        <time>2022-10-22T09:57:37Z</time>
      </trkpt>
      <trkpt lat="43.00315" lon="-0.1293">
        <ele>937.2</ele>
        <time>2022-10-22T09:57:45Z</time>
      </trkpt>
      <trkpt lat="43.00315" lon="-0.1293">
        <ele>937.4</ele>
        <time>2022-10-22T09:57:49Z</time>
      </trkpt>
      <trkpt lat="43.00319" lon="-0.12925">
        <ele>937.4</ele>
        <time>2022-10-22T09:58:47Z</time>
      </trkpt>
      <trkpt lat="43.00323" lon="-0.12922">
        <ele>937.2</ele>
        <time>2022-10-22T09:58:49Z</time>
      </trkpt>
      <trkpt lat="43.00324" lon="-0.12921">
        <ele>937.2</ele>
        <time>2022-10-22T09:58:50Z</time>
      </trkpt>
      <trkpt lat="43.00327" lon="-0.12917">
        <ele>937</ele>
        <time>2022-10-22T09:58:52Z</time>
      </trkpt>
      <trkpt lat="43.00332" lon="-0.12909">
        <ele>937</ele>
        <time>2022-10-22T09:58:55Z</time>
      </trkpt>
      <trkpt lat="43.00338" lon="-0.12897">
        <ele>937</ele>
        <time>2022-10-22T09:59:01Z</time>
      </trkpt>
      <trkpt lat="43.00341" lon="-0.12892">
        <ele>937.6</ele>
        <time>2022-10-22T09:59:04Z</time>
      </trkpt>
      <trkpt lat="43.00342" lon="-0.12889">
        <ele>938</ele>
        <time>2022-10-22T09:59:06Z</time>
      </trkpt>
      <trkpt lat="43.00343" lon="-0.12884">
        <ele>938.2</ele>
        <time>2022-10-22T09:59:08Z</time>
      </trkpt>
      <trkpt lat="43.00344" lon="-0.1288">
        <ele>938.6</ele>
        <time>2022-10-22T09:59:09Z</time>
      </trkpt>
      <trkpt lat="43.00347" lon="-0.12876">
        <ele>939</ele>
        <time>2022-10-22T09:59:11Z</time>
      </trkpt>
      <trkpt lat="43.00347" lon="-0.12876">
        <ele>939.4</ele>
        <time>2022-10-22T09:59:16Z</time>
      </trkpt>
      <trkpt lat="43.00348" lon="-0.12875">
        <ele>939.6</ele>
        <time>2022-10-22T09:59:17Z</time>
      </trkpt>
      <trkpt lat="43.00352" lon="-0.12873">
        <ele>939.8</ele>
        <time>2022-10-22T09:59:23Z</time>
      </trkpt>
      <trkpt lat="43.00352" lon="-0.12873">
        <ele>940</ele>
        <time>2022-10-22T09:59:34Z</time>
      </trkpt>
      <trkpt lat="43.00351" lon="-0.12876">
        <ele>939.4</ele>
        <time>2022-10-22T10:00:01Z</time>
      </trkpt>
      <trkpt lat="43.00348" lon="-0.12878">
        <ele>939.6</ele>
        <time>2022-10-22T10:00:18Z</time>
      </trkpt>
      <trkpt lat="43.00345" lon="-0.12885">
        <ele>939.2</ele>
        <time>2022-10-22T10:00:23Z</time>
      </trkpt>
      <trkpt lat="43.00343" lon="-0.12888">
        <ele>938.8</ele>
        <time>2022-10-22T10:00:25Z</time>
      </trkpt>
      <trkpt lat="43.0034" lon="-0.12892">
        <ele>938.4</ele>
        <time>2022-10-22T10:00:28Z</time>
      </trkpt>
      <trkpt lat="43.00339" lon="-0.12893">
        <ele>938.4</ele>
        <time>2022-10-22T10:00:29Z</time>
      </trkpt>
      <trkpt lat="43.00338" lon="-0.12894">
        <ele>938.2</ele>
        <time>2022-10-22T10:00:30Z</time>
      </trkpt>
      <trkpt lat="43.00335" lon="-0.12895">
        <ele>937.8</ele>
        <time>2022-10-22T10:00:33Z</time>
      </trkpt>
      <trkpt lat="43.00335" lon="-0.12895">
        <ele>937.6</ele>
        <time>2022-10-22T10:00:37Z</time>
      </trkpt>
      <trkpt lat="43.00335" lon="-0.12895">
        <ele>936.8</ele>
        <time>2022-10-22T10:00:45Z</time>
      </trkpt>
      <trkpt lat="43.00335" lon="-0.12895">
        <ele>936.4</ele>
        <time>2022-10-22T10:00:53Z</time>
      </trkpt>
      <trkpt lat="43.00333" lon="-0.12889">
        <ele>936</ele>
        <time>2022-10-22T10:01:08Z</time>
      </trkpt>
      <trkpt lat="43.00331" lon="-0.12886">
        <ele>935.6</ele>
        <time>2022-10-22T10:01:10Z</time>
      </trkpt>
      <trkpt lat="43.00326" lon="-0.12879">
        <ele>934.6</ele>
        <time>2022-10-22T10:01:14Z</time>
      </trkpt>
      <trkpt lat="43.00326" lon="-0.12878">
        <ele>934</ele>
        <time>2022-10-22T10:01:15Z</time>
      </trkpt>
      <trkpt lat="43.00327" lon="-0.12875">
        <ele>932.8</ele>
        <time>2022-10-22T10:01:19Z</time>
      </trkpt>
      <trkpt lat="43.00327" lon="-0.12875">
        <ele>932.6</ele>
        <time>2022-10-22T10:01:21Z</time>
      </trkpt>
      <trkpt lat="43.00327" lon="-0.12874">
        <ele>932</ele>
        <time>2022-10-22T10:01:23Z</time>
      </trkpt>
      <trkpt lat="43.00329" lon="-0.12868">
        <ele>931.4</ele>
        <time>2022-10-22T10:01:28Z</time>
      </trkpt>
      <trkpt lat="43.0033" lon="-0.12863">
        <ele>931.2</ele>
        <time>2022-10-22T10:01:30Z</time>
      </trkpt>
      <trkpt lat="43.00331" lon="-0.1286">
        <ele>931</ele>
        <time>2022-10-22T10:01:31Z</time>
      </trkpt>
      <trkpt lat="43.00332" lon="-0.12858">
        <ele>930.4</ele>
        <time>2022-10-22T10:01:32Z</time>
      </trkpt>
      <trkpt lat="43.00333" lon="-0.12852">
        <ele>929.8</ele>
        <time>2022-10-22T10:01:34Z</time>
      </trkpt>
      <trkpt lat="43.00331" lon="-0.12845">
        <ele>929</ele>
        <time>2022-10-22T10:01:37Z</time>
      </trkpt>
      <trkpt lat="43.00329" lon="-0.12842">
        <ele>928.8</ele>
        <time>2022-10-22T10:01:38Z</time>
      </trkpt>
      <trkpt lat="43.00329" lon="-0.12836">
        <ele>928.4</ele>
        <time>2022-10-22T10:01:40Z</time>
      </trkpt>
      <trkpt lat="43.00329" lon="-0.12834">
        <ele>928.2</ele>
        <time>2022-10-22T10:01:41Z</time>
      </trkpt>
      <trkpt lat="43.00327" lon="-0.12827">
        <ele>928</ele>
        <time>2022-10-22T10:01:43Z</time>
      </trkpt>
      <trkpt lat="43.00327" lon="-0.12827">
        <ele>927.4</ele>
        <time>2022-10-22T10:01:44Z</time>
      </trkpt>
      <trkpt lat="43.00326" lon="-0.12825">
        <ele>927</ele>
        <time>2022-10-22T10:01:45Z</time>
      </trkpt>
      <trkpt lat="43.00327" lon="-0.12821">
        <ele>926.4</ele>
        <time>2022-10-22T10:01:48Z</time>
      </trkpt>
      <trkpt lat="43.00327" lon="-0.12815">
        <ele>925.6</ele>
        <time>2022-10-22T10:01:51Z</time>
      </trkpt>
      <trkpt lat="43.00326" lon="-0.12814">
        <ele>925.2</ele>
        <time>2022-10-22T10:01:53Z</time>
      </trkpt>
      <trkpt lat="43.00326" lon="-0.12813">
        <ele>924.4</ele>
        <time>2022-10-22T10:02:00Z</time>
      </trkpt>
      <trkpt lat="43.00323" lon="-0.12804">
        <ele>923.6</ele>
        <time>2022-10-22T10:02:07Z</time>
      </trkpt>
      <trkpt lat="43.00323" lon="-0.128">
        <ele>923.2</ele>
        <time>2022-10-22T10:02:09Z</time>
      </trkpt>
      <trkpt lat="43.00324" lon="-0.12794">
        <ele>923</ele>
        <time>2022-10-22T10:02:11Z</time>
      </trkpt>
      <trkpt lat="43.00325" lon="-0.12792">
        <ele>922.8</ele>
        <time>2022-10-22T10:02:12Z</time>
      </trkpt>
      <trkpt lat="43.00327" lon="-0.12787">
        <ele>922.2</ele>
        <time>2022-10-22T10:02:15Z</time>
      </trkpt>
      <trkpt lat="43.00327" lon="-0.12787">
        <ele>921.6</ele>
        <time>2022-10-22T10:02:18Z</time>
      </trkpt>
      <trkpt lat="43.00327" lon="-0.12785">
        <ele>921</ele>
        <time>2022-10-22T10:02:22Z</time>
      </trkpt>
      <trkpt lat="43.00328" lon="-0.12784">
        <ele>921</ele>
        <time>2022-10-22T10:02:23Z</time>
      </trkpt>
      <trkpt lat="43.0033" lon="-0.12775">
        <ele>920.8</ele>
        <time>2022-10-22T10:02:25Z</time>
      </trkpt>
      <trkpt lat="43.00331" lon="-0.12768">
        <ele>920.8</ele>
        <time>2022-10-22T10:02:28Z</time>
      </trkpt>
      <trkpt lat="43.00333" lon="-0.12764">
        <ele>920.4</ele>
        <time>2022-10-22T10:02:31Z</time>
      </trkpt>
      <trkpt lat="43.00334" lon="-0.12758">
        <ele>920.2</ele>
        <time>2022-10-22T10:02:36Z</time>
      </trkpt>
      <trkpt lat="43.00335" lon="-0.12756">
        <ele>920</ele>
        <time>2022-10-22T10:02:38Z</time>
      </trkpt>
      <trkpt lat="43.00335" lon="-0.12756">
        <ele>919.8</ele>
        <time>2022-10-22T10:02:41Z</time>
      </trkpt>
      <trkpt lat="43.00335" lon="-0.12756">
        <ele>919</ele>
        <time>2022-10-22T10:02:45Z</time>
      </trkpt>
      <trkpt lat="43.00335" lon="-0.12752">
        <ele>918.8</ele>
        <time>2022-10-22T10:02:48Z</time>
      </trkpt>
      <trkpt lat="43.00339" lon="-0.12743">
        <ele>918.4</ele>
        <time>2022-10-22T10:02:51Z</time>
      </trkpt>
      <trkpt lat="43.00339" lon="-0.1274">
        <ele>918</ele>
        <time>2022-10-22T10:02:53Z</time>
      </trkpt>
      <trkpt lat="43.00339" lon="-0.12738">
        <ele>917.4</ele>
        <time>2022-10-22T10:02:55Z</time>
      </trkpt>
      <trkpt lat="43.00339" lon="-0.12732">
        <ele>917</ele>
        <time>2022-10-22T10:02:59Z</time>
      </trkpt>
      <trkpt lat="43.0034" lon="-0.12729">
        <ele>916.8</ele>
        <time>2022-10-22T10:03:01Z</time>
      </trkpt>
      <trkpt lat="43.00339" lon="-0.12719">
        <ele>916.6</ele>
        <time>2022-10-22T10:03:02Z</time>
      </trkpt>
      <trkpt lat="43.00338" lon="-0.12705">
        <ele>915.8</ele>
        <time>2022-10-22T10:03:06Z</time>
      </trkpt>
      <trkpt lat="43.00335" lon="-0.12701">
        <ele>915.2</ele>
        <time>2022-10-22T10:03:11Z</time>
      </trkpt>
      <trkpt lat="43.00333" lon="-0.12694">
        <ele>914.8</ele>
        <time>2022-10-22T10:03:13Z</time>
      </trkpt>
      <trkpt lat="43.00333" lon="-0.12691">
        <ele>914.6</ele>
        <time>2022-10-22T10:03:17Z</time>
      </trkpt>
      <trkpt lat="43.0033" lon="-0.12687">
        <ele>914</ele>
        <time>2022-10-22T10:03:25Z</time>
      </trkpt>
      <trkpt lat="43.00327" lon="-0.12676">
        <ele>913</ele>
        <time>2022-10-22T10:03:32Z</time>
      </trkpt>
      <trkpt lat="43.00327" lon="-0.12674">
        <ele>912.4</ele>
        <time>2022-10-22T10:03:35Z</time>
      </trkpt>
      <trkpt lat="43.00326" lon="-0.12667">
        <ele>911.8</ele>
        <time>2022-10-22T10:03:39Z</time>
      </trkpt>
      <trkpt lat="43.00327" lon="-0.12662">
        <ele>911.6</ele>
        <time>2022-10-22T10:03:41Z</time>
      </trkpt>
      <trkpt lat="43.00326" lon="-0.12652">
        <ele>910.8</ele>
        <time>2022-10-22T10:03:46Z</time>
      </trkpt>
      <trkpt lat="43.00326" lon="-0.12648">
        <ele>910</ele>
        <time>2022-10-22T10:03:50Z</time>
      </trkpt>
      <trkpt lat="43.00324" lon="-0.12646">
        <ele>909.6</ele>
        <time>2022-10-22T10:03:51Z</time>
      </trkpt>
      <trkpt lat="43.00323" lon="-0.1264">
        <ele>909</ele>
        <time>2022-10-22T10:03:53Z</time>
      </trkpt>
      <trkpt lat="43.00326" lon="-0.12634">
        <ele>908.8</ele>
        <time>2022-10-22T10:03:55Z</time>
      </trkpt>
      <trkpt lat="43.00327" lon="-0.12633">
        <ele>908.6</ele>
        <time>2022-10-22T10:03:56Z</time>
      </trkpt>
      <trkpt lat="43.00326" lon="-0.1263">
        <ele>908</ele>
        <time>2022-10-22T10:04:02Z</time>
      </trkpt>
      <trkpt lat="43.00325" lon="-0.12627">
        <ele>907.6</ele>
        <time>2022-10-22T10:04:05Z</time>
      </trkpt>
      <trkpt lat="43.00325" lon="-0.12627">
        <ele>907.2</ele>
        <time>2022-10-22T10:04:07Z</time>
      </trkpt>
      <trkpt lat="43.00325" lon="-0.12627">
        <ele>906.6</ele>
        <time>2022-10-22T10:04:11Z</time>
      </trkpt>
      <trkpt lat="43.00325" lon="-0.12627">
        <ele>906</ele>
        <time>2022-10-22T10:04:17Z</time>
      </trkpt>
      <trkpt lat="43.00324" lon="-0.12625">
        <ele>905.6</ele>
        <time>2022-10-22T10:04:19Z</time>
      </trkpt>
      <trkpt lat="43.00324" lon="-0.12622">
        <ele>905.4</ele>
        <time>2022-10-22T10:04:20Z</time>
      </trkpt>
      <trkpt lat="43.00324" lon="-0.12613">
        <ele>905.2</ele>
        <time>2022-10-22T10:04:22Z</time>
      </trkpt>
      <trkpt lat="43.00322" lon="-0.12601">
        <ele>904.4</ele>
        <time>2022-10-22T10:04:25Z</time>
      </trkpt>
      <trkpt lat="43.00317" lon="-0.12596">
        <ele>903.6</ele>
        <time>2022-10-22T10:04:27Z</time>
      </trkpt>
      <trkpt lat="43.00313" lon="-0.12593">
        <ele>903.6</ele>
        <time>2022-10-22T10:04:28Z</time>
      </trkpt>
      <trkpt lat="43.00307" lon="-0.12591">
        <ele>902.4</ele>
        <time>2022-10-22T10:04:30Z</time>
      </trkpt>
      <trkpt lat="43.00302" lon="-0.12589">
        <ele>901.4</ele>
        <time>2022-10-22T10:04:32Z</time>
      </trkpt>
      <trkpt lat="43.00298" lon="-0.12584">
        <ele>900.2</ele>
        <time>2022-10-22T10:04:34Z</time>
      </trkpt>
      <trkpt lat="43.00297" lon="-0.12581">
        <ele>900</ele>
        <time>2022-10-22T10:04:35Z</time>
      </trkpt>
      <trkpt lat="43.00297" lon="-0.12579">
        <ele>899</ele>
        <time>2022-10-22T10:04:37Z</time>
      </trkpt>
      <trkpt lat="43.00297" lon="-0.12579">
        <ele>897.4</ele>
        <time>2022-10-22T10:04:40Z</time>
      </trkpt>
      <trkpt lat="43.00297" lon="-0.12578">
        <ele>896.6</ele>
        <time>2022-10-22T10:04:43Z</time>
      </trkpt>
      <trkpt lat="43.00296" lon="-0.12577">
        <ele>896.4</ele>
        <time>2022-10-22T10:04:44Z</time>
      </trkpt>
      <trkpt lat="43.00295" lon="-0.12574">
        <ele>895.6</ele>
        <time>2022-10-22T10:04:50Z</time>
      </trkpt>
      <trkpt lat="43.00295" lon="-0.12574">
        <ele>895.4</ele>
        <time>2022-10-22T10:04:51Z</time>
      </trkpt>
      <trkpt lat="43.00295" lon="-0.12574">
        <ele>894</ele>
        <time>2022-10-22T10:04:57Z</time>
      </trkpt>
      <trkpt lat="43.00295" lon="-0.12574">
        <ele>892.8</ele>
        <time>2022-10-22T10:05:02Z</time>
      </trkpt>
      <trkpt lat="43.00295" lon="-0.12574">
        <ele>892.6</ele>
        <time>2022-10-22T10:05:03Z</time>
      </trkpt>
      <trkpt lat="43.00294" lon="-0.1257">
        <ele>891.6</ele>
        <time>2022-10-22T10:05:08Z</time>
      </trkpt>
      <trkpt lat="43.00293" lon="-0.1257">
        <ele>890.6</ele>
        <time>2022-10-22T10:05:13Z</time>
      </trkpt>
      <trkpt lat="43.00292" lon="-0.1257">
        <ele>889.2</ele>
        <time>2022-10-22T10:05:19Z</time>
      </trkpt>
      <trkpt lat="43.00291" lon="-0.12568">
        <ele>888.2</ele>
        <time>2022-10-22T10:05:24Z</time>
      </trkpt>
      <trkpt lat="43.00291" lon="-0.12568">
        <ele>887.2</ele>
        <time>2022-10-22T10:05:28Z</time>
      </trkpt>
      <trkpt lat="43.00291" lon="-0.12568">
        <ele>886.8</ele>
        <time>2022-10-22T10:05:30Z</time>
      </trkpt>
      <trkpt lat="43.00291" lon="-0.12568">
        <ele>886.2</ele>
        <time>2022-10-22T10:05:34Z</time>
      </trkpt>
      <trkpt lat="43.00288" lon="-0.12565">
        <ele>885</ele>
        <time>2022-10-22T10:05:40Z</time>
      </trkpt>
      <trkpt lat="43.00282" lon="-0.12564">
        <ele>885</ele>
        <time>2022-10-22T10:05:45Z</time>
      </trkpt>
      <trkpt lat="43.00277" lon="-0.12558">
        <ele>884.4</ele>
        <time>2022-10-22T10:05:52Z</time>
      </trkpt>
      <trkpt lat="43.00276" lon="-0.12556">
        <ele>883.8</ele>
        <time>2022-10-22T10:05:55Z</time>
      </trkpt>
      <trkpt lat="43.00274" lon="-0.12553">
        <ele>882.8</ele>
        <time>2022-10-22T10:05:59Z</time>
      </trkpt>
      <trkpt lat="43.00274" lon="-0.12549">
        <ele>882.4</ele>
        <time>2022-10-22T10:06:01Z</time>
      </trkpt>
      <trkpt lat="43.00274" lon="-0.12542">
        <ele>881.8</ele>
        <time>2022-10-22T10:06:04Z</time>
      </trkpt>
      <trkpt lat="43.00274" lon="-0.1254">
        <ele>881.4</ele>
        <time>2022-10-22T10:06:05Z</time>
      </trkpt>
      <trkpt lat="43.00275" lon="-0.12533">
        <ele>880.4</ele>
        <time>2022-10-22T10:06:07Z</time>
      </trkpt>
      <trkpt lat="43.00275" lon="-0.1253">
        <ele>880</ele>
        <time>2022-10-22T10:06:08Z</time>
      </trkpt>
      <trkpt lat="43.00274" lon="-0.12525">
        <ele>879.6</ele>
        <time>2022-10-22T10:06:09Z</time>
      </trkpt>
      <trkpt lat="43.00275" lon="-0.12522">
        <ele>878.8</ele>
        <time>2022-10-22T10:06:10Z</time>
      </trkpt>
      <trkpt lat="43.00277" lon="-0.12516">
        <ele>877.4</ele>
        <time>2022-10-22T10:06:12Z</time>
      </trkpt>
      <trkpt lat="43.00278" lon="-0.12515">
        <ele>877</ele>
        <time>2022-10-22T10:06:13Z</time>
      </trkpt>
      <trkpt lat="43.00279" lon="-0.12512">
        <ele>876.2</ele>
        <time>2022-10-22T10:06:15Z</time>
      </trkpt>
      <trkpt lat="43.00279" lon="-0.12511">
        <ele>875.8</ele>
        <time>2022-10-22T10:06:16Z</time>
      </trkpt>
      <trkpt lat="43.0028" lon="-0.1251">
        <ele>875</ele>
        <time>2022-10-22T10:06:18Z</time>
      </trkpt>
      <trkpt lat="43.0028" lon="-0.125">
        <ele>873.6</ele>
        <time>2022-10-22T10:06:22Z</time>
      </trkpt>
      <trkpt lat="43.00282" lon="-0.12503">
        <ele>873.2</ele>
        <time>2022-10-22T10:06:23Z</time>
      </trkpt>
      <trkpt lat="43.00281" lon="-0.12501">
        <ele>872.6</ele>
        <time>2022-10-22T10:06:26Z</time>
      </trkpt>
      <trkpt lat="43.0028" lon="-0.125">
        <ele>872.2</ele>
        <time>2022-10-22T10:06:27Z</time>
      </trkpt>
      <trkpt lat="43.00282" lon="-0.12491">
        <ele>871.4</ele>
        <time>2022-10-22T10:06:30Z</time>
      </trkpt>
      <trkpt lat="43.00284" lon="-0.12475">
        <ele>870</ele>
        <time>2022-10-22T10:06:33Z</time>
      </trkpt>
      <trkpt lat="43.00284" lon="-0.12462">
        <ele>869</ele>
        <time>2022-10-22T10:06:36Z</time>
      </trkpt>
      <trkpt lat="43.00284" lon="-0.12455">
        <ele>868.4</ele>
        <time>2022-10-22T10:06:37Z</time>
      </trkpt>
      <trkpt lat="43.00282" lon="-0.12444">
        <ele>867</ele>
        <time>2022-10-22T10:06:39Z</time>
      </trkpt>
      <trkpt lat="43.00281" lon="-0.1244">
        <ele>866.2</ele>
        <time>2022-10-22T10:06:40Z</time>
      </trkpt>
      <trkpt lat="43.0028" lon="-0.12437">
        <ele>865.6</ele>
        <time>2022-10-22T10:06:41Z</time>
      </trkpt>
      <trkpt lat="43.0028" lon="-0.12433">
        <ele>865</ele>
        <time>2022-10-22T10:06:42Z</time>
      </trkpt>
      <trkpt lat="43.0028" lon="-0.12424">
        <ele>863.8</ele>
        <time>2022-10-22T10:06:44Z</time>
      </trkpt>
      <trkpt lat="43.00278" lon="-0.12416">
        <ele>863.2</ele>
        <time>2022-10-22T10:06:46Z</time>
      </trkpt>
      <trkpt lat="43.00277" lon="-0.12408">
        <ele>862.2</ele>
        <time>2022-10-22T10:06:48Z</time>
      </trkpt>
      <trkpt lat="43.00276" lon="-0.12405">
        <ele>862.2</ele>
        <time>2022-10-22T10:06:49Z</time>
      </trkpt>
      <trkpt lat="43.00275" lon="-0.12396">
        <ele>861.2</ele>
        <time>2022-10-22T10:06:52Z</time>
      </trkpt>
      <trkpt lat="43.00275" lon="-0.12393">
        <ele>860.2</ele>
        <time>2022-10-22T10:06:55Z</time>
      </trkpt>
      <trkpt lat="43.00275" lon="-0.12393">
        <ele>860</ele>
        <time>2022-10-22T10:06:56Z</time>
      </trkpt>
      <trkpt lat="43.00273" lon="-0.12383">
        <ele>858.8</ele>
        <time>2022-10-22T10:06:59Z</time>
      </trkpt>
      <trkpt lat="43.00272" lon="-0.1238">
        <ele>858.6</ele>
        <time>2022-10-22T10:07:00Z</time>
      </trkpt>
      <trkpt lat="43.00272" lon="-0.12376">
        <ele>858.2</ele>
        <time>2022-10-22T10:07:02Z</time>
      </trkpt>
      <trkpt lat="43.00272" lon="-0.12376">
        <ele>857.8</ele>
        <time>2022-10-22T10:07:03Z</time>
      </trkpt>
      <trkpt lat="43.00268" lon="-0.12361">
        <ele>856.6</ele>
        <time>2022-10-22T10:07:07Z</time>
      </trkpt>
      <trkpt lat="43.00269" lon="-0.12352">
        <ele>856.4</ele>
        <time>2022-10-22T10:07:09Z</time>
      </trkpt>
      <trkpt lat="43.0027" lon="-0.12346">
        <ele>856</ele>
        <time>2022-10-22T10:07:11Z</time>
      </trkpt>
      <trkpt lat="43.0027" lon="-0.1234">
        <ele>855.4</ele>
        <time>2022-10-22T10:07:12Z</time>
      </trkpt>
      <trkpt lat="43.00271" lon="-0.12319">
        <ele>854.2</ele>
        <time>2022-10-22T10:07:16Z</time>
      </trkpt>
      <trkpt lat="43.0027" lon="-0.12312">
        <ele>854</ele>
        <time>2022-10-22T10:07:17Z</time>
      </trkpt>
      <trkpt lat="43.00272" lon="-0.12302">
        <ele>853</ele>
        <time>2022-10-22T10:07:20Z</time>
      </trkpt>
      <trkpt lat="43.00273" lon="-0.12298">
        <ele>852.8</ele>
        <time>2022-10-22T10:07:21Z</time>
      </trkpt>
      <trkpt lat="43.00275" lon="-0.12294">
        <ele>852</ele>
        <time>2022-10-22T10:07:22Z</time>
      </trkpt>
      <trkpt lat="43.00276" lon="-0.12288">
        <ele>850.8</ele>
        <time>2022-10-22T10:07:24Z</time>
      </trkpt>
      <trkpt lat="43.00276" lon="-0.12287">
        <ele>850</ele>
        <time>2022-10-22T10:07:26Z</time>
      </trkpt>
      <trkpt lat="43.00276" lon="-0.12286">
        <ele>849.4</ele>
        <time>2022-10-22T10:07:27Z</time>
      </trkpt>
      <trkpt lat="43.00274" lon="-0.1228">
        <ele>848.4</ele>
        <time>2022-10-22T10:07:32Z</time>
      </trkpt>
      <trkpt lat="43.00275" lon="-0.12279">
        <ele>848.4</ele>
        <time>2022-10-22T10:07:33Z</time>
      </trkpt>
      <trkpt lat="43.00276" lon="-0.12275">
        <ele>847.4</ele>
        <time>2022-10-22T10:07:37Z</time>
      </trkpt>
      <trkpt lat="43.00277" lon="-0.12273">
        <ele>847.4</ele>
        <time>2022-10-22T10:07:38Z</time>
      </trkpt>
      <trkpt lat="43.00279" lon="-0.12261">
        <ele>846.2</ele>
        <time>2022-10-22T10:07:42Z</time>
      </trkpt>
      <trkpt lat="43.00279" lon="-0.12259">
        <ele>845.6</ele>
        <time>2022-10-22T10:07:45Z</time>
      </trkpt>
      <trkpt lat="43.00278" lon="-0.12258">
        <ele>845.2</ele>
        <time>2022-10-22T10:07:46Z</time>
      </trkpt>
      <trkpt lat="43.00277" lon="-0.12253">
        <ele>845</ele>
        <time>2022-10-22T10:07:47Z</time>
      </trkpt>
      <trkpt lat="43.00277" lon="-0.12252">
        <ele>844.4</ele>
        <time>2022-10-22T10:07:48Z</time>
      </trkpt>
      <trkpt lat="43.00278" lon="-0.12251">
        <ele>843.8</ele>
        <time>2022-10-22T10:07:50Z</time>
      </trkpt>
      <trkpt lat="43.00277" lon="-0.1225">
        <ele>843.4</ele>
        <time>2022-10-22T10:07:54Z</time>
      </trkpt>
      <trkpt lat="43.00277" lon="-0.12243">
        <ele>843.2</ele>
        <time>2022-10-22T10:07:57Z</time>
      </trkpt>
      <trkpt lat="43.00277" lon="-0.12239">
        <ele>843</ele>
        <time>2022-10-22T10:07:58Z</time>
      </trkpt>
      <trkpt lat="43.00278" lon="-0.12234">
        <ele>842.8</ele>
        <time>2022-10-22T10:07:59Z</time>
      </trkpt>
      <trkpt lat="43.00279" lon="-0.12224">
        <ele>842.2</ele>
        <time>2022-10-22T10:08:02Z</time>
      </trkpt>
      <trkpt lat="43.0028" lon="-0.12221">
        <ele>841.8</ele>
        <time>2022-10-22T10:08:03Z</time>
      </trkpt>
      <trkpt lat="43.00285" lon="-0.12212">
        <ele>840.8</ele>
        <time>2022-10-22T10:08:06Z</time>
      </trkpt>
      <trkpt lat="43.00286" lon="-0.12208">
        <ele>840.6</ele>
        <time>2022-10-22T10:08:07Z</time>
      </trkpt>
      <trkpt lat="43.00286" lon="-0.12208">
        <ele>839.2</ele>
        <time>2022-10-22T10:08:10Z</time>
      </trkpt>
      <trkpt lat="43.00286" lon="-0.12208">
        <ele>838.6</ele>
        <time>2022-10-22T10:08:11Z</time>
      </trkpt>
      <trkpt lat="43.00286" lon="-0.12208">
        <ele>838</ele>
        <time>2022-10-22T10:08:13Z</time>
      </trkpt>
      <trkpt lat="43.00282" lon="-0.12194">
        <ele>837</ele>
        <time>2022-10-22T10:08:16Z</time>
      </trkpt>
      <trkpt lat="43.00281" lon="-0.12189">
        <ele>836.8</ele>
        <time>2022-10-22T10:08:17Z</time>
      </trkpt>
      <trkpt lat="43.00284" lon="-0.12168">
        <ele>836</ele>
        <time>2022-10-22T10:08:21Z</time>
      </trkpt>
      <trkpt lat="43.00285" lon="-0.12165">
        <ele>835.2</ele>
        <time>2022-10-22T10:08:22Z</time>
      </trkpt>
      <trkpt lat="43.00286" lon="-0.12161">
        <ele>835</ele>
        <time>2022-10-22T10:08:23Z</time>
      </trkpt>
      <trkpt lat="43.00286" lon="-0.12151">
        <ele>833.8</ele>
        <time>2022-10-22T10:08:25Z</time>
      </trkpt>
      <trkpt lat="43.0029" lon="-0.12141">
        <ele>832.4</ele>
        <time>2022-10-22T10:08:27Z</time>
      </trkpt>
      <trkpt lat="43.00296" lon="-0.12132">
        <ele>831.2</ele>
        <time>2022-10-22T10:08:30Z</time>
      </trkpt>
      <trkpt lat="43.00299" lon="-0.1212">
        <ele>830</ele>
        <time>2022-10-22T10:08:32Z</time>
      </trkpt>
      <trkpt lat="43.003" lon="-0.12117">
        <ele>829.2</ele>
        <time>2022-10-22T10:08:33Z</time>
      </trkpt>
      <trkpt lat="43.003" lon="-0.12116">
        <ele>828</ele>
        <time>2022-10-22T10:08:34Z</time>
      </trkpt>
      <trkpt lat="43.003" lon="-0.12116">
        <ele>826.6</ele>
        <time>2022-10-22T10:08:35Z</time>
      </trkpt>
      <trkpt lat="43.003" lon="-0.12116">
        <ele>825</ele>
        <time>2022-10-22T10:08:37Z</time>
      </trkpt>
      <trkpt lat="43.003" lon="-0.12116">
        <ele>823.8</ele>
        <time>2022-10-22T10:08:39Z</time>
      </trkpt>
      <trkpt lat="43.003" lon="-0.12116">
        <ele>823</ele>
        <time>2022-10-22T10:08:44Z</time>
      </trkpt>
      <trkpt lat="43.003" lon="-0.12116">
        <ele>822.8</ele>
        <time>2022-10-22T10:08:45Z</time>
      </trkpt>
      <trkpt lat="43.003" lon="-0.12116">
        <ele>822.4</ele>
        <time>2022-10-22T10:08:49Z</time>
      </trkpt>
      <trkpt lat="43.003" lon="-0.12116">
        <ele>821.8</ele>
        <time>2022-10-22T10:08:53Z</time>
      </trkpt>
      <trkpt lat="43.00301" lon="-0.12114">
        <ele>820.8</ele>
        <time>2022-10-22T10:08:58Z</time>
      </trkpt>
      <trkpt lat="43.00306" lon="-0.121">
        <ele>819.2</ele>
        <time>2022-10-22T10:09:03Z</time>
      </trkpt>
      <trkpt lat="43.00307" lon="-0.12095">
        <ele>818.2</ele>
        <time>2022-10-22T10:09:05Z</time>
      </trkpt>
      <trkpt lat="43.00307" lon="-0.1209">
        <ele>817.2</ele>
        <time>2022-10-22T10:09:07Z</time>
      </trkpt>
      <trkpt lat="43.00307" lon="-0.1209">
        <ele>816.2</ele>
        <time>2022-10-22T10:09:09Z</time>
      </trkpt>
      <trkpt lat="43.00308" lon="-0.12089">
        <ele>816</ele>
        <time>2022-10-22T10:09:10Z</time>
      </trkpt>
      <trkpt lat="43.00311" lon="-0.12085">
        <ele>815</ele>
        <time>2022-10-22T10:09:12Z</time>
      </trkpt>
      <trkpt lat="43.00313" lon="-0.12079">
        <ele>813.8</ele>
        <time>2022-10-22T10:09:14Z</time>
      </trkpt>
      <trkpt lat="43.00313" lon="-0.12076">
        <ele>813.2</ele>
        <time>2022-10-22T10:09:15Z</time>
      </trkpt>
      <trkpt lat="43.00312" lon="-0.12069">
        <ele>812.4</ele>
        <time>2022-10-22T10:09:17Z</time>
      </trkpt>
      <trkpt lat="43.0031" lon="-0.12066">
        <ele>811.2</ele>
        <time>2022-10-22T10:09:19Z</time>
      </trkpt>
      <trkpt lat="43.00307" lon="-0.12062">
        <ele>810</ele>
        <time>2022-10-22T10:09:21Z</time>
      </trkpt>
      <trkpt lat="43.00304" lon="-0.12052">
        <ele>808.8</ele>
        <time>2022-10-22T10:09:24Z</time>
      </trkpt>
      <trkpt lat="43.00304" lon="-0.12049">
        <ele>808.6</ele>
        <time>2022-10-22T10:09:25Z</time>
      </trkpt>
      <trkpt lat="43.00304" lon="-0.12046">
        <ele>807.2</ele>
        <time>2022-10-22T10:09:28Z</time>
      </trkpt>
      <trkpt lat="43.00302" lon="-0.12036">
        <ele>806.4</ele>
        <time>2022-10-22T10:09:31Z</time>
      </trkpt>
      <trkpt lat="43.00301" lon="-0.12034">
        <ele>805.4</ele>
        <time>2022-10-22T10:09:32Z</time>
      </trkpt>
      <trkpt lat="43.00302" lon="-0.1203">
        <ele>804.4</ele>
        <time>2022-10-22T10:09:34Z</time>
      </trkpt>
      <trkpt lat="43.00302" lon="-0.12024">
        <ele>803.4</ele>
        <time>2022-10-22T10:09:35Z</time>
      </trkpt>
      <trkpt lat="43.00303" lon="-0.1202">
        <ele>803</ele>
        <time>2022-10-22T10:09:36Z</time>
      </trkpt>
      <trkpt lat="43.00304" lon="-0.12016">
        <ele>802.4</ele>
        <time>2022-10-22T10:09:37Z</time>
      </trkpt>
      <trkpt lat="43.00305" lon="-0.12013">
        <ele>802.2</ele>
        <time>2022-10-22T10:09:38Z</time>
      </trkpt>
      <trkpt lat="43.00305" lon="-0.12007">
        <ele>801.4</ele>
        <time>2022-10-22T10:09:40Z</time>
      </trkpt>
      <trkpt lat="43.00305" lon="-0.12003">
        <ele>800.2</ele>
        <time>2022-10-22T10:09:42Z</time>
      </trkpt>
      <trkpt lat="43.00305" lon="-0.12001">
        <ele>799.8</ele>
        <time>2022-10-22T10:09:43Z</time>
      </trkpt>
      <trkpt lat="43.00304" lon="-0.11997">
        <ele>798.6</ele>
        <time>2022-10-22T10:09:45Z</time>
      </trkpt>
      <trkpt lat="43.00304" lon="-0.11996">
        <ele>798</ele>
        <time>2022-10-22T10:09:46Z</time>
      </trkpt>
      <trkpt lat="43.00304" lon="-0.11996">
        <ele>797</ele>
        <time>2022-10-22T10:09:47Z</time>
      </trkpt>
      <trkpt lat="43.00304" lon="-0.11996">
        <ele>795.2</ele>
        <time>2022-10-22T10:09:50Z</time>
      </trkpt>
      <trkpt lat="43.00304" lon="-0.11996">
        <ele>794.8</ele>
        <time>2022-10-22T10:09:51Z</time>
      </trkpt>
      <trkpt lat="43.00301" lon="-0.11996">
        <ele>794</ele>
        <time>2022-10-22T10:09:52Z</time>
      </trkpt>
      <trkpt lat="43.00299" lon="-0.11995">
        <ele>794</ele>
        <time>2022-10-22T10:09:53Z</time>
      </trkpt>
      <trkpt lat="43.00295" lon="-0.11995">
        <ele>793.4</ele>
        <time>2022-10-22T10:09:55Z</time>
      </trkpt>
      <trkpt lat="43.00295" lon="-0.11996">
        <ele>793</ele>
        <time>2022-10-22T10:09:56Z</time>
      </trkpt>
      <trkpt lat="43.00295" lon="-0.11998">
        <ele>792.6</ele>
        <time>2022-10-22T10:09:57Z</time>
      </trkpt>
      <trkpt lat="43.00296" lon="-0.12004">
        <ele>792</ele>
        <time>2022-10-22T10:09:59Z</time>
      </trkpt>
      <trkpt lat="43.00295" lon="-0.12013">
        <ele>790.8</ele>
        <time>2022-10-22T10:10:02Z</time>
      </trkpt>
      <trkpt lat="43.00295" lon="-0.12017">
        <ele>789.8</ele>
        <time>2022-10-22T10:10:04Z</time>
      </trkpt>
      <trkpt lat="43.00295" lon="-0.12017">
        <ele>789.4</ele>
        <time>2022-10-22T10:10:05Z</time>
      </trkpt>
      <trkpt lat="43.00294" lon="-0.12017">
        <ele>788.4</ele>
        <time>2022-10-22T10:10:08Z</time>
      </trkpt>
      <trkpt lat="43.00294" lon="-0.12017">
        <ele>787.6</ele>
        <time>2022-10-22T10:10:09Z</time>
      </trkpt>
      <trkpt lat="43.00294" lon="-0.12017">
        <ele>787.2</ele>
        <time>2022-10-22T10:10:10Z</time>
      </trkpt>
      <trkpt lat="43.00291" lon="-0.12013">
        <ele>786.6</ele>
        <time>2022-10-22T10:10:17Z</time>
      </trkpt>
      <trkpt lat="43.00291" lon="-0.12011">
        <ele>786.4</ele>
        <time>2022-10-22T10:10:19Z</time>
      </trkpt>
      <trkpt lat="43.00291" lon="-0.1201">
        <ele>785.8</ele>
        <time>2022-10-22T10:10:21Z</time>
      </trkpt>
      <trkpt lat="43.0029" lon="-0.12008">
        <ele>785.6</ele>
        <time>2022-10-22T10:10:22Z</time>
      </trkpt>
      <trkpt lat="43.00286" lon="-0.12001">
        <ele>784.8</ele>
        <time>2022-10-22T10:10:24Z</time>
      </trkpt>
      <trkpt lat="43.00285" lon="-0.11997">
        <ele>784.6</ele>
        <time>2022-10-22T10:10:25Z</time>
      </trkpt>
      <trkpt lat="43.00284" lon="-0.11996">
        <ele>784.4</ele>
        <time>2022-10-22T10:10:26Z</time>
      </trkpt>
      <trkpt lat="43.00282" lon="-0.11992">
        <ele>783.4</ele>
        <time>2022-10-22T10:10:28Z</time>
      </trkpt>
      <trkpt lat="43.00282" lon="-0.11987">
        <ele>782.2</ele>
        <time>2022-10-22T10:10:31Z</time>
      </trkpt>
      <trkpt lat="43.00284" lon="-0.11985">
        <ele>781.6</ele>
        <time>2022-10-22T10:10:32Z</time>
      </trkpt>
      <trkpt lat="43.00285" lon="-0.11983">
        <ele>781.4</ele>
        <time>2022-10-22T10:10:33Z</time>
      </trkpt>
      <trkpt lat="43.00285" lon="-0.11981">
        <ele>781</ele>
        <time>2022-10-22T10:10:34Z</time>
      </trkpt>
      <trkpt lat="43.00286" lon="-0.11977">
        <ele>779.2</ele>
        <time>2022-10-22T10:10:38Z</time>
      </trkpt>
      <trkpt lat="43.00286" lon="-0.11973">
        <ele>777.8</ele>
        <time>2022-10-22T10:10:41Z</time>
      </trkpt>
      <trkpt lat="43.00286" lon="-0.11973">
        <ele>776.6</ele>
        <time>2022-10-22T10:10:44Z</time>
      </trkpt>
      <trkpt lat="43.00286" lon="-0.11973">
        <ele>776.2</ele>
        <time>2022-10-22T10:10:45Z</time>
      </trkpt>
      <trkpt lat="43.00286" lon="-0.11973">
        <ele>775.6</ele>
        <time>2022-10-22T10:10:47Z</time>
      </trkpt>
      <trkpt lat="43.00284" lon="-0.1197">
        <ele>774.2</ele>
        <time>2022-10-22T10:10:51Z</time>
      </trkpt>
      <trkpt lat="43.00283" lon="-0.11966">
        <ele>773.2</ele>
        <time>2022-10-22T10:10:53Z</time>
      </trkpt>
      <trkpt lat="43.00284" lon="-0.11965">
        <ele>772.8</ele>
        <time>2022-10-22T10:10:54Z</time>
      </trkpt>
      <trkpt lat="43.00284" lon="-0.11965">
        <ele>772.2</ele>
        <time>2022-10-22T10:10:56Z</time>
      </trkpt>
      <trkpt lat="43.00284" lon="-0.11965">
        <ele>771</ele>
        <time>2022-10-22T10:11:00Z</time>
      </trkpt>
      <trkpt lat="43.00283" lon="-0.11964">
        <ele>770.6</ele>
        <time>2022-10-22T10:11:01Z</time>
      </trkpt>
      <trkpt lat="43.00282" lon="-0.11963">
        <ele>770</ele>
        <time>2022-10-22T10:11:02Z</time>
      </trkpt>
      <trkpt lat="43.0028" lon="-0.11962">
        <ele>769.8</ele>
        <time>2022-10-22T10:11:03Z</time>
      </trkpt>
      <trkpt lat="43.00275" lon="-0.11957">
        <ele>768.6</ele>
        <time>2022-10-22T10:11:06Z</time>
      </trkpt>
      <trkpt lat="43.00275" lon="-0.11954">
        <ele>768.4</ele>
        <time>2022-10-22T10:11:07Z</time>
      </trkpt>
      <trkpt lat="43.00275" lon="-0.11952">
        <ele>767.4</ele>
        <time>2022-10-22T10:11:08Z</time>
      </trkpt>
      <trkpt lat="43.00275" lon="-0.11948">
        <ele>767</ele>
        <time>2022-10-22T10:11:09Z</time>
      </trkpt>
      <trkpt lat="43.00275" lon="-0.11948">
        <ele>766.4</ele>
        <time>2022-10-22T10:11:10Z</time>
      </trkpt>
      <trkpt lat="43.00275" lon="-0.11945">
        <ele>765</ele>
        <time>2022-10-22T10:11:12Z</time>
      </trkpt>
      <trkpt lat="43.00275" lon="-0.11945">
        <ele>764.4</ele>
        <time>2022-10-22T10:11:13Z</time>
      </trkpt>
      <trkpt lat="43.00275" lon="-0.11945">
        <ele>763.4</ele>
        <time>2022-10-22T10:11:15Z</time>
      </trkpt>
      <trkpt lat="43.00275" lon="-0.11931">
        <ele>762.4</ele>
        <time>2022-10-22T10:11:19Z</time>
      </trkpt>
      <trkpt lat="43.00275" lon="-0.11909">
        <ele>761.8</ele>
        <time>2022-10-22T10:11:22Z</time>
      </trkpt>
      <trkpt lat="43.00277" lon="-0.11903">
        <ele>761.4</ele>
        <time>2022-10-22T10:11:23Z</time>
      </trkpt>
      <trkpt lat="43.00286" lon="-0.1188">
        <ele>760.2</ele>
        <time>2022-10-22T10:11:27Z</time>
      </trkpt>
      <trkpt lat="43.00301" lon="-0.11845">
        <ele>759.2</ele>
        <time>2022-10-22T10:11:32Z</time>
      </trkpt>
      <trkpt lat="43.00305" lon="-0.11838">
        <ele>758</ele>
        <time>2022-10-22T10:11:34Z</time>
      </trkpt>
      <trkpt lat="43.00307" lon="-0.11832">
        <ele>757.4</ele>
        <time>2022-10-22T10:11:36Z</time>
      </trkpt>
      <trkpt lat="43.00308" lon="-0.11831">
        <ele>756.8</ele>
        <time>2022-10-22T10:11:39Z</time>
      </trkpt>
      <trkpt lat="43.00308" lon="-0.11831">
        <ele>755</ele>
        <time>2022-10-22T10:11:41Z</time>
      </trkpt>
      <trkpt lat="43.00308" lon="-0.11831">
        <ele>754</ele>
        <time>2022-10-22T10:11:44Z</time>
      </trkpt>
      <trkpt lat="43.00308" lon="-0.11831">
        <ele>753</ele>
        <time>2022-10-22T10:11:50Z</time>
      </trkpt>
      <trkpt lat="43.00308" lon="-0.11831">
        <ele>752.8</ele>
        <time>2022-10-22T10:11:53Z</time>
      </trkpt>
      <trkpt lat="43.00308" lon="-0.11831">
        <ele>751.8</ele>
        <time>2022-10-22T10:11:58Z</time>
      </trkpt>
      <trkpt lat="43.00308" lon="-0.11828">
        <ele>751.6</ele>
        <time>2022-10-22T10:12:01Z</time>
      </trkpt>
      <trkpt lat="43.00308" lon="-0.11821">
        <ele>750.8</ele>
        <time>2022-10-22T10:12:03Z</time>
      </trkpt>
      <trkpt lat="43.00309" lon="-0.11811">
        <ele>750</ele>
        <time>2022-10-22T10:12:06Z</time>
      </trkpt>
      <trkpt lat="43.00309" lon="-0.11809">
        <ele>749.8</ele>
        <time>2022-10-22T10:12:07Z</time>
      </trkpt>
      <trkpt lat="43.0031" lon="-0.11806">
        <ele>748.4</ele>
        <time>2022-10-22T10:12:10Z</time>
      </trkpt>
      <trkpt lat="43.00309" lon="-0.11804">
        <ele>748</ele>
        <time>2022-10-22T10:12:11Z</time>
      </trkpt>
      <trkpt lat="43.00309" lon="-0.11803">
        <ele>747.2</ele>
        <time>2022-10-22T10:12:13Z</time>
      </trkpt>
      <trkpt lat="43.00311" lon="-0.11794">
        <ele>746.2</ele>
        <time>2022-10-22T10:12:19Z</time>
      </trkpt>
      <trkpt lat="43.00311" lon="-0.11793">
        <ele>746</ele>
        <time>2022-10-22T10:12:21Z</time>
      </trkpt>
      <trkpt lat="43.00311" lon="-0.11793">
        <ele>744.8</ele>
        <time>2022-10-22T10:12:25Z</time>
      </trkpt>
      <trkpt lat="43.00311" lon="-0.11793">
        <ele>744.4</ele>
        <time>2022-10-22T10:12:27Z</time>
      </trkpt>
      <trkpt lat="43.0031" lon="-0.11792">
        <ele>743.6</ele>
        <time>2022-10-22T10:12:32Z</time>
      </trkpt>
      <trkpt lat="43.0031" lon="-0.11792">
        <ele>743.4</ele>
        <time>2022-10-22T10:12:36Z</time>
      </trkpt>
      <trkpt lat="43.0031" lon="-0.11792">
        <ele>742.6</ele>
        <time>2022-10-22T10:12:41Z</time>
      </trkpt>
      <trkpt lat="43.0031" lon="-0.11792">
        <ele>741.6</ele>
        <time>2022-10-22T10:12:58Z</time>
      </trkpt>
      <trkpt lat="43.00309" lon="-0.11791">
        <ele>740.6</ele>
        <time>2022-10-22T10:13:06Z</time>
      </trkpt>
      <trkpt lat="43.00309" lon="-0.11791">
        <ele>739.8</ele>
        <time>2022-10-22T10:13:10Z</time>
      </trkpt>
      <trkpt lat="43.00309" lon="-0.11791">
        <ele>739.4</ele>
        <time>2022-10-22T10:13:13Z</time>
      </trkpt>
      <trkpt lat="43.00306" lon="-0.11789">
        <ele>738</ele>
        <time>2022-10-22T10:13:26Z</time>
      </trkpt>
      <trkpt lat="43.00306" lon="-0.11789">
        <ele>736.6</ele>
        <time>2022-10-22T10:13:30Z</time>
      </trkpt>
      <trkpt lat="43.00305" lon="-0.11788">
        <ele>735.6</ele>
        <time>2022-10-22T10:13:40Z</time>
      </trkpt>
      <trkpt lat="43.00304" lon="-0.11788">
        <ele>734.6</ele>
        <time>2022-10-22T10:13:46Z</time>
      </trkpt>
      <trkpt lat="43.00302" lon="-0.11785">
        <ele>733.4</ele>
        <time>2022-10-22T10:14:01Z</time>
      </trkpt>
      <trkpt lat="43.00302" lon="-0.11785">
        <ele>732.6</ele>
        <time>2022-10-22T10:14:08Z</time>
      </trkpt>
      <trkpt lat="43.003" lon="-0.11781">
        <ele>732.2</ele>
        <time>2022-10-22T10:14:10Z</time>
      </trkpt>
      <trkpt lat="43.003" lon="-0.11781">
        <ele>731.2</ele>
        <time>2022-10-22T10:14:15Z</time>
      </trkpt>
      <trkpt lat="43.00299" lon="-0.1178">
        <ele>730</ele>
        <time>2022-10-22T10:14:29Z</time>
      </trkpt>
      <trkpt lat="43.00299" lon="-0.1178">
        <ele>728.8</ele>
        <time>2022-10-22T10:14:42Z</time>
      </trkpt>
      <trkpt lat="43.00297" lon="-0.11778">
        <ele>728.4</ele>
        <time>2022-10-22T10:14:48Z</time>
      </trkpt>
      <trkpt lat="43.00297" lon="-0.11778">
        <ele>727.8</ele>
        <time>2022-10-22T10:14:50Z</time>
      </trkpt>
      <trkpt lat="43.00293" lon="-0.11776">
        <ele>727.4</ele>
        <time>2022-10-22T10:15:30Z</time>
      </trkpt>
      <trkpt lat="43.00289" lon="-0.11772">
        <ele>726.4</ele>
        <time>2022-10-22T10:17:07Z</time>
      </trkpt>
      <trkpt lat="43.00287" lon="-0.11772">
        <ele>726</ele>
        <time>2022-10-22T10:17:08Z</time>
      </trkpt>
      <trkpt lat="43.00287" lon="-0.11772">
        <ele>725</ele>
        <time>2022-10-22T10:17:10Z</time>
      </trkpt>
      <trkpt lat="43.00283" lon="-0.1177">
        <ele>724.2</ele>
        <time>2022-10-22T10:17:12Z</time>
      </trkpt>
      <trkpt lat="43.00279" lon="-0.11768">
        <ele>723.6</ele>
        <time>2022-10-22T10:17:13Z</time>
      </trkpt>
      <trkpt lat="43.00271" lon="-0.11763">
        <ele>722.4</ele>
        <time>2022-10-22T10:17:15Z</time>
      </trkpt>
      <trkpt lat="43.00268" lon="-0.11759">
        <ele>721.8</ele>
        <time>2022-10-22T10:17:16Z</time>
      </trkpt>
      <trkpt lat="43.00257" lon="-0.11753">
        <ele>721</ele>
        <time>2022-10-22T10:17:18Z</time>
      </trkpt>
      <trkpt lat="43.00252" lon="-0.1175">
        <ele>719.8</ele>
        <time>2022-10-22T10:17:19Z</time>
      </trkpt>
      <trkpt lat="43.00249" lon="-0.11747">
        <ele>718.8</ele>
        <time>2022-10-22T10:17:21Z</time>
      </trkpt>
      <trkpt lat="43.00241" lon="-0.11741">
        <ele>717.8</ele>
        <time>2022-10-22T10:17:24Z</time>
      </trkpt>
      <trkpt lat="43.00238" lon="-0.11739">
        <ele>716.4</ele>
        <time>2022-10-22T10:17:27Z</time>
      </trkpt>
      <trkpt lat="43.00234" lon="-0.11736">
        <ele>716.2</ele>
        <time>2022-10-22T10:17:28Z</time>
      </trkpt>
      <trkpt lat="43.00225" lon="-0.11729">
        <ele>715</ele>
        <time>2022-10-22T10:17:34Z</time>
      </trkpt>
      <trkpt lat="43.0022" lon="-0.11725">
        <ele>715</ele>
        <time>2022-10-22T10:17:35Z</time>
      </trkpt>
      <trkpt lat="43.00211" lon="-0.11718">
        <ele>713.8</ele>
        <time>2022-10-22T10:17:39Z</time>
      </trkpt>
      <trkpt lat="43.00211" lon="-0.11718">
        <ele>713.4</ele>
        <time>2022-10-22T10:17:40Z</time>
      </trkpt>
      <trkpt lat="43.002" lon="-0.11708">
        <ele>712.6</ele>
        <time>2022-10-22T10:17:44Z</time>
      </trkpt>
      <trkpt lat="43.00194" lon="-0.11704">
        <ele>712.2</ele>
        <time>2022-10-22T10:17:46Z</time>
      </trkpt>
      <trkpt lat="43.00185" lon="-0.11696">
        <ele>711.6</ele>
        <time>2022-10-22T10:17:49Z</time>
      </trkpt>
      <trkpt lat="43.00177" lon="-0.1169">
        <ele>710.8</ele>
        <time>2022-10-22T10:17:52Z</time>
      </trkpt>
      <trkpt lat="43.00175" lon="-0.11688">
        <ele>710.4</ele>
        <time>2022-10-22T10:17:53Z</time>
      </trkpt>
      <trkpt lat="43.0017" lon="-0.11683">
        <ele>709.2</ele>
        <time>2022-10-22T10:17:55Z</time>
      </trkpt>
      <trkpt lat="43.00166" lon="-0.11677">
        <ele>707.8</ele>
        <time>2022-10-22T10:17:57Z</time>
      </trkpt>
      <trkpt lat="43.00162" lon="-0.11673">
        <ele>706.4</ele>
        <time>2022-10-22T10:17:59Z</time>
      </trkpt>
      <trkpt lat="43.0016" lon="-0.11671">
        <ele>705.4</ele>
        <time>2022-10-22T10:18:01Z</time>
      </trkpt>
      <trkpt lat="43.00159" lon="-0.1167">
        <ele>705.2</ele>
        <time>2022-10-22T10:18:02Z</time>
      </trkpt>
      <trkpt lat="43.00159" lon="-0.11668">
        <ele>704.6</ele>
        <time>2022-10-22T10:18:03Z</time>
      </trkpt>
      <trkpt lat="43.00159" lon="-0.11667">
        <ele>704</ele>
        <time>2022-10-22T10:18:04Z</time>
      </trkpt>
      <trkpt lat="43.00157" lon="-0.11665">
        <ele>703</ele>
        <time>2022-10-22T10:18:06Z</time>
      </trkpt>
      <trkpt lat="43.00153" lon="-0.11661">
        <ele>702.4</ele>
        <time>2022-10-22T10:18:08Z</time>
      </trkpt>
      <trkpt lat="43.0015" lon="-0.11654">
        <ele>702</ele>
        <time>2022-10-22T10:18:10Z</time>
      </trkpt>
      <trkpt lat="43.00143" lon="-0.11644">
        <ele>701.2</ele>
        <time>2022-10-22T10:18:13Z</time>
      </trkpt>
      <trkpt lat="43.00141" lon="-0.1164">
        <ele>700.2</ele>
        <time>2022-10-22T10:18:14Z</time>
      </trkpt>
      <trkpt lat="43.00136" lon="-0.11627">
        <ele>699.2</ele>
        <time>2022-10-22T10:18:17Z</time>
      </trkpt>
      <trkpt lat="43.00132" lon="-0.1162">
        <ele>698.8</ele>
        <time>2022-10-22T10:18:19Z</time>
      </trkpt>
      <trkpt lat="43.0013" lon="-0.11617">
        <ele>698</ele>
        <time>2022-10-22T10:18:20Z</time>
      </trkpt>
      <trkpt lat="43.00124" lon="-0.11606">
        <ele>696.8</ele>
        <time>2022-10-22T10:18:23Z</time>
      </trkpt>
      <trkpt lat="43.00119" lon="-0.11599">
        <ele>695.8</ele>
        <time>2022-10-22T10:18:25Z</time>
      </trkpt>
      <trkpt lat="43.00117" lon="-0.11597">
        <ele>695.4</ele>
        <time>2022-10-22T10:18:26Z</time>
      </trkpt>
      <trkpt lat="43.00111" lon="-0.11594">
        <ele>694.4</ele>
        <time>2022-10-22T10:18:29Z</time>
      </trkpt>
      <trkpt lat="43.00102" lon="-0.11588">
        <ele>693.2</ele>
        <time>2022-10-22T10:18:33Z</time>
      </trkpt>
      <trkpt lat="43.00099" lon="-0.11586">
        <ele>693.2</ele>
        <time>2022-10-22T10:18:34Z</time>
      </trkpt>
      <trkpt lat="43.00084" lon="-0.11584">
        <ele>692.2</ele>
        <time>2022-10-22T10:18:38Z</time>
      </trkpt>
      <trkpt lat="43.00077" lon="-0.11582">
        <ele>691.6</ele>
        <time>2022-10-22T10:18:40Z</time>
      </trkpt>
      <trkpt lat="43.00072" lon="-0.11581">
        <ele>691</ele>
        <time>2022-10-22T10:18:42Z</time>
      </trkpt>
      <trkpt lat="43.00066" lon="-0.11582">
        <ele>690.6</ele>
        <time>2022-10-22T10:18:44Z</time>
      </trkpt>
      <trkpt lat="43.00064" lon="-0.11583">
        <ele>690.4</ele>
        <time>2022-10-22T10:18:45Z</time>
      </trkpt>
      <trkpt lat="43.0006" lon="-0.11584">
        <ele>689.8</ele>
        <time>2022-10-22T10:18:47Z</time>
      </trkpt>
      <trkpt lat="43.00058" lon="-0.11584">
        <ele>689.4</ele>
        <time>2022-10-22T10:18:50Z</time>
      </trkpt>
      <trkpt lat="43.00058" lon="-0.11584">
        <ele>689</ele>
        <time>2022-10-22T10:18:54Z</time>
      </trkpt>
      <trkpt lat="43.00058" lon="-0.11584">
        <ele>688.4</ele>
        <time>2022-10-22T10:19:02Z</time>
      </trkpt>
      <trkpt lat="43.00058" lon="-0.11584">
        <ele>688.2</ele>
        <time>2022-10-22T10:19:10Z</time>
      </trkpt>
      <trkpt lat="43.00058" lon="-0.11584">
        <ele>688.2</ele>
        <time>2022-10-22T10:19:12Z</time>
      </trkpt>
      <trkpt lat="43.00058" lon="-0.11584">
        <ele>688.8</ele>
        <time>2022-10-22T10:19:35Z</time>
      </trkpt>
      <trkpt lat="43.00057" lon="-0.11579">
        <ele>688.6</ele>
        <time>2022-10-22T10:19:38Z</time>
      </trkpt>
      <trkpt lat="43.00053" lon="-0.1157">
        <ele>687.4</ele>
        <time>2022-10-22T10:19:42Z</time>
      </trkpt>
      <trkpt lat="43.0005" lon="-0.11564">
        <ele>687.2</ele>
        <time>2022-10-22T10:19:44Z</time>
      </trkpt>
      <trkpt lat="43.00044" lon="-0.11555">
        <ele>686.6</ele>
        <time>2022-10-22T10:19:48Z</time>
      </trkpt>
      <trkpt lat="43.00039" lon="-0.11549">
        <ele>686.2</ele>
        <time>2022-10-22T10:19:50Z</time>
      </trkpt>
      <trkpt lat="43.00035" lon="-0.11543">
        <ele>685.8</ele>
        <time>2022-10-22T10:19:52Z</time>
      </trkpt>
      <trkpt lat="43.00035" lon="-0.11535">
        <ele>685.4</ele>
        <time>2022-10-22T10:19:54Z</time>
      </trkpt>
      <trkpt lat="43.00034" lon="-0.11522">
        <ele>684</ele>
        <time>2022-10-22T10:19:57Z</time>
      </trkpt>
      <trkpt lat="43.00035" lon="-0.11509">
        <ele>681.8</ele>
        <time>2022-10-22T10:20:01Z</time>
      </trkpt>
      <trkpt lat="43.00036" lon="-0.11505">
        <ele>680.8</ele>
        <time>2022-10-22T10:20:03Z</time>
      </trkpt>
      <trkpt lat="43.00036" lon="-0.11502">
        <ele>680.6</ele>
        <time>2022-10-22T10:20:04Z</time>
      </trkpt>
      <trkpt lat="43.00035" lon="-0.11496">
        <ele>679.6</ele>
        <time>2022-10-22T10:20:06Z</time>
      </trkpt>
      <trkpt lat="43.00037" lon="-0.11484">
        <ele>678.6</ele>
        <time>2022-10-22T10:20:09Z</time>
      </trkpt>
      <trkpt lat="43.00037" lon="-0.1148">
        <ele>678.2</ele>
        <time>2022-10-22T10:20:10Z</time>
      </trkpt>
      <trkpt lat="43.00037" lon="-0.11474">
        <ele>677.6</ele>
        <time>2022-10-22T10:20:12Z</time>
      </trkpt>
      <trkpt lat="43.00037" lon="-0.11472">
        <ele>677.4</ele>
        <time>2022-10-22T10:20:13Z</time>
      </trkpt>
      <trkpt lat="43.00037" lon="-0.11471">
        <ele>677.2</ele>
        <time>2022-10-22T10:20:14Z</time>
      </trkpt>
      <trkpt lat="43.00036" lon="-0.11465">
        <ele>676.4</ele>
        <time>2022-10-22T10:20:17Z</time>
      </trkpt>
      <trkpt lat="43.00034" lon="-0.1146">
        <ele>675.6</ele>
        <time>2022-10-22T10:20:18Z</time>
      </trkpt>
      <trkpt lat="43.00034" lon="-0.11455">
        <ele>675</ele>
        <time>2022-10-22T10:20:19Z</time>
      </trkpt>
      <trkpt lat="43.00035" lon="-0.11446">
        <ele>673.8</ele>
        <time>2022-10-22T10:20:22Z</time>
      </trkpt>
      <trkpt lat="43.00034" lon="-0.11443">
        <ele>673</ele>
        <time>2022-10-22T10:20:23Z</time>
      </trkpt>
      <trkpt lat="43.00034" lon="-0.11441">
        <ele>672.4</ele>
        <time>2022-10-22T10:20:24Z</time>
      </trkpt>
      <trkpt lat="43.00033" lon="-0.11435">
        <ele>671.6</ele>
        <time>2022-10-22T10:20:26Z</time>
      </trkpt>
      <trkpt lat="43.00032" lon="-0.11431">
        <ele>671</ele>
        <time>2022-10-22T10:20:27Z</time>
      </trkpt>
      <trkpt lat="43.00032" lon="-0.11427">
        <ele>670.6</ele>
        <time>2022-10-22T10:20:28Z</time>
      </trkpt>
      <trkpt lat="43.0003" lon="-0.11419">
        <ele>669.6</ele>
        <time>2022-10-22T10:20:30Z</time>
      </trkpt>
      <trkpt lat="43.00027" lon="-0.11409">
        <ele>668.8</ele>
        <time>2022-10-22T10:20:32Z</time>
      </trkpt>
      <trkpt lat="43.00028" lon="-0.11405">
        <ele>667.8</ele>
        <time>2022-10-22T10:20:33Z</time>
      </trkpt>
      <trkpt lat="43.00025" lon="-0.11398">
        <ele>665.8</ele>
        <time>2022-10-22T10:20:35Z</time>
      </trkpt>
      <trkpt lat="43.00025" lon="-0.11393">
        <ele>665.2</ele>
        <time>2022-10-22T10:20:36Z</time>
      </trkpt>
      <trkpt lat="43.00026" lon="-0.11388">
        <ele>664.4</ele>
        <time>2022-10-22T10:20:37Z</time>
      </trkpt>
      <trkpt lat="43.00027" lon="-0.11385">
        <ele>664.2</ele>
        <time>2022-10-22T10:20:38Z</time>
      </trkpt>
      <trkpt lat="43.00026" lon="-0.11378">
        <ele>663.2</ele>
        <time>2022-10-22T10:20:40Z</time>
      </trkpt>
      <trkpt lat="43.00026" lon="-0.11376">
        <ele>662.8</ele>
        <time>2022-10-22T10:20:41Z</time>
      </trkpt>
      <trkpt lat="43.00023" lon="-0.11374">
        <ele>662.2</ele>
        <time>2022-10-22T10:20:42Z</time>
      </trkpt>
      <trkpt lat="43.00016" lon="-0.1137">
        <ele>661</ele>
        <time>2022-10-22T10:20:45Z</time>
      </trkpt>
      <trkpt lat="43.00012" lon="-0.11368">
        <ele>659.8</ele>
        <time>2022-10-22T10:20:47Z</time>
      </trkpt>
      <trkpt lat="43.0001" lon="-0.11364">
        <ele>658.6</ele>
        <time>2022-10-22T10:20:49Z</time>
      </trkpt>
      <trkpt lat="43.0001" lon="-0.11357">
        <ele>657.6</ele>
        <time>2022-10-22T10:20:50Z</time>
      </trkpt>
      <trkpt lat="43.0001" lon="-0.11354">
        <ele>657.2</ele>
        <time>2022-10-22T10:20:51Z</time>
      </trkpt>
      <trkpt lat="43.0001" lon="-0.11354">
        <ele>656.6</ele>
        <time>2022-10-22T10:20:52Z</time>
      </trkpt>
      <trkpt lat="43.0001" lon="-0.11354">
        <ele>655.4</ele>
        <time>2022-10-22T10:20:55Z</time>
      </trkpt>
      <trkpt lat="43.0001" lon="-0.11354">
        <ele>654.2</ele>
        <time>2022-10-22T10:20:57Z</time>
      </trkpt>
      <trkpt lat="43.0001" lon="-0.11354">
        <ele>654</ele>
        <time>2022-10-22T10:20:58Z</time>
      </trkpt>
      <trkpt lat="43.0001" lon="-0.11354">
        <ele>653.2</ele>
        <time>2022-10-22T10:21:03Z</time>
      </trkpt>
      <trkpt lat="43.0001" lon="-0.11353">
        <ele>652.6</ele>
        <time>2022-10-22T10:21:18Z</time>
      </trkpt>
      <trkpt lat="43.00013" lon="-0.11351">
        <ele>652.6</ele>
        <time>2022-10-22T10:21:20Z</time>
      </trkpt>
      <trkpt lat="43.00014" lon="-0.1135">
        <ele>652.6</ele>
        <time>2022-10-22T10:21:21Z</time>
      </trkpt>
      <trkpt lat="43.00014" lon="-0.11349">
        <ele>652.2</ele>
        <time>2022-10-22T10:21:23Z</time>
      </trkpt>
      <trkpt lat="43.00014" lon="-0.11349">
        <ele>652</ele>
        <time>2022-10-22T10:21:25Z</time>
      </trkpt>
      <trkpt lat="43.00017" lon="-0.11346">
        <ele>651.8</ele>
        <time>2022-10-22T10:21:28Z</time>
      </trkpt>
      <trkpt lat="43.0002" lon="-0.11341">
        <ele>651.8</ele>
        <time>2022-10-22T10:21:30Z</time>
      </trkpt>
      <trkpt lat="43.00023" lon="-0.11338">
        <ele>651.4</ele>
        <time>2022-10-22T10:21:33Z</time>
      </trkpt>
      <trkpt lat="43.00025" lon="-0.11335">
        <ele>651</ele>
        <time>2022-10-22T10:21:35Z</time>
      </trkpt>
      <trkpt lat="43.00028" lon="-0.11329">
        <ele>650.4</ele>
        <time>2022-10-22T10:21:38Z</time>
      </trkpt>
      <trkpt lat="43.00032" lon="-0.11325">
        <ele>650.2</ele>
        <time>2022-10-22T10:21:40Z</time>
      </trkpt>
      <trkpt lat="43.00038" lon="-0.11321">
        <ele>649.8</ele>
        <time>2022-10-22T10:21:43Z</time>
      </trkpt>
      <trkpt lat="43.00042" lon="-0.1132">
        <ele>650</ele>
        <time>2022-10-22T10:21:48Z</time>
      </trkpt>
      <trkpt lat="43.00044" lon="-0.11319">
        <ele>650.2</ele>
        <time>2022-10-22T10:21:55Z</time>
      </trkpt>
      <trkpt lat="43.00053" lon="-0.1131">
        <ele>649.6</ele>
        <time>2022-10-22T10:22:02Z</time>
      </trkpt>
      <trkpt lat="43.00055" lon="-0.11308">
        <ele>649.4</ele>
        <time>2022-10-22T10:22:03Z</time>
      </trkpt>
      <trkpt lat="43.00064" lon="-0.11303">
        <ele>649.4</ele>
        <time>2022-10-22T10:22:09Z</time>
      </trkpt>
      <trkpt lat="43.00065" lon="-0.11302">
        <ele>648.4</ele>
        <time>2022-10-22T10:22:13Z</time>
      </trkpt>
      <trkpt lat="43.00065" lon="-0.11302">
        <ele>647.8</ele>
        <time>2022-10-22T10:22:15Z</time>
      </trkpt>
      <trkpt lat="43.00065" lon="-0.11302">
        <ele>647.4</ele>
        <time>2022-10-22T10:22:17Z</time>
      </trkpt>
      <trkpt lat="43.00067" lon="-0.11301">
        <ele>647.2</ele>
        <time>2022-10-22T10:22:22Z</time>
      </trkpt>
      <trkpt lat="43.00073" lon="-0.113">
        <ele>647.2</ele>
        <time>2022-10-22T10:22:27Z</time>
      </trkpt>
      <trkpt lat="43.00074" lon="-0.11299">
        <ele>647</ele>
        <time>2022-10-22T10:22:33Z</time>
      </trkpt>
      <trkpt lat="43.00075" lon="-0.11298">
        <ele>646.8</ele>
        <time>2022-10-22T10:22:41Z</time>
      </trkpt>
      <trkpt lat="43.00084" lon="-0.11292">
        <ele>646.8</ele>
        <time>2022-10-22T10:22:51Z</time>
      </trkpt>
      <trkpt lat="43.00086" lon="-0.1129">
        <ele>646.8</ele>
        <time>2022-10-22T10:22:53Z</time>
      </trkpt>
      <trkpt lat="43.00096" lon="-0.11283">
        <ele>646.4</ele>
        <time>2022-10-22T10:22:57Z</time>
      </trkpt>
      <trkpt lat="43.00107" lon="-0.1128">
        <ele>646.2</ele>
        <time>2022-10-22T10:23:02Z</time>
      </trkpt>
      <trkpt lat="43.00107" lon="-0.1128">
        <ele>645.6</ele>
        <time>2022-10-22T10:23:05Z</time>
      </trkpt>
      <trkpt lat="43.00107" lon="-0.1128">
        <ele>644.6</ele>
        <time>2022-10-22T10:23:11Z</time>
      </trkpt>
      <trkpt lat="43.00107" lon="-0.1128">
        <ele>644.6</ele>
        <time>2022-10-22T10:23:42Z</time>
      </trkpt>
      <trkpt lat="43.0011" lon="-0.11286">
        <ele>644.6</ele>
        <time>2022-10-22T10:23:45Z</time>
      </trkpt>
      <trkpt lat="43.0012" lon="-0.11295">
        <ele>645.6</ele>
        <time>2022-10-22T10:23:51Z</time>
      </trkpt>
      <trkpt lat="43.00123" lon="-0.11297">
        <ele>646.2</ele>
        <time>2022-10-22T10:23:53Z</time>
      </trkpt>
      <trkpt lat="43.00124" lon="-0.11299">
        <ele>646.4</ele>
        <time>2022-10-22T10:23:54Z</time>
      </trkpt>
      <trkpt lat="43.00128" lon="-0.11303">
        <ele>646.8</ele>
        <time>2022-10-22T10:23:57Z</time>
      </trkpt>
      <trkpt lat="43.0013" lon="-0.11304">
        <ele>647.2</ele>
        <time>2022-10-22T10:23:58Z</time>
      </trkpt>
      <trkpt lat="43.00134" lon="-0.1131">
        <ele>648.2</ele>
        <time>2022-10-22T10:24:02Z</time>
      </trkpt>
      <trkpt lat="43.00137" lon="-0.11313">
        <ele>649.2</ele>
        <time>2022-10-22T10:24:05Z</time>
      </trkpt>
      <trkpt lat="43.00139" lon="-0.11314">
        <ele>649.4</ele>
        <time>2022-10-22T10:24:06Z</time>
      </trkpt>
      <trkpt lat="43.00141" lon="-0.11318">
        <ele>650.2</ele>
        <time>2022-10-22T10:24:09Z</time>
      </trkpt>
      <trkpt lat="43.00142" lon="-0.11319">
        <ele>650.4</ele>
        <time>2022-10-22T10:24:10Z</time>
      </trkpt>
      <trkpt lat="43.00143" lon="-0.11321">
        <ele>651.2</ele>
        <time>2022-10-22T10:24:13Z</time>
      </trkpt>
      <trkpt lat="43.00143" lon="-0.11321">
        <ele>651.6</ele>
        <time>2022-10-22T10:24:16Z</time>
      </trkpt>
      <trkpt lat="43.00142" lon="-0.11322">
        <ele>652</ele>
        <time>2022-10-22T10:24:22Z</time>
      </trkpt>
      <trkpt lat="43.00142" lon="-0.11322">
        <ele>652.2</ele>
        <time>2022-10-22T10:24:32Z</time>
      </trkpt>
      <trkpt lat="43.00141" lon="-0.11319">
        <ele>652</ele>
        <time>2022-10-22T10:24:37Z</time>
      </trkpt>
      <trkpt lat="43.00138" lon="-0.11313">
        <ele>651.8</ele>
        <time>2022-10-22T10:24:39Z</time>
      </trkpt>
      <trkpt lat="43.00125" lon="-0.11297">
        <ele>650.8</ele>
        <time>2022-10-22T10:24:44Z</time>
      </trkpt>
      <trkpt lat="43.00119" lon="-0.11289">
        <ele>649.6</ele>
        <time>2022-10-22T10:24:47Z</time>
      </trkpt>
      <trkpt lat="43.00115" lon="-0.11283">
        <ele>648.4</ele>
        <time>2022-10-22T10:24:49Z</time>
      </trkpt>
      <trkpt lat="43.00113" lon="-0.11282">
        <ele>647.8</ele>
        <time>2022-10-22T10:24:50Z</time>
      </trkpt>
      <trkpt lat="43.0011" lon="-0.11281">
        <ele>646.6</ele>
        <time>2022-10-22T10:24:52Z</time>
      </trkpt>
      <trkpt lat="43.00107" lon="-0.11282">
        <ele>645.8</ele>
        <time>2022-10-22T10:24:54Z</time>
      </trkpt>
      <trkpt lat="43.00104" lon="-0.11283">
        <ele>645.8</ele>
        <time>2022-10-22T10:24:56Z</time>
      </trkpt>
      <trkpt lat="43.00101" lon="-0.11285">
        <ele>645.8</ele>
        <time>2022-10-22T10:24:59Z</time>
      </trkpt>
      <trkpt lat="43.00099" lon="-0.11286">
        <ele>645.8</ele>
        <time>2022-10-22T10:25:00Z</time>
      </trkpt>
      <trkpt lat="43.00096" lon="-0.11289">
        <ele>646.4</ele>
        <time>2022-10-22T10:25:06Z</time>
      </trkpt>
      <trkpt lat="43.00094" lon="-0.1129">
        <ele>646.4</ele>
        <time>2022-10-22T10:25:11Z</time>
      </trkpt>
      <trkpt lat="43.0009" lon="-0.11293">
        <ele>646.8</ele>
        <time>2022-10-22T10:25:16Z</time>
      </trkpt>
      <trkpt lat="43.00089" lon="-0.11293">
        <ele>646.8</ele>
        <time>2022-10-22T10:25:19Z</time>
      </trkpt>
      <trkpt lat="43.00085" lon="-0.11297">
        <ele>647</ele>
        <time>2022-10-22T10:25:24Z</time>
      </trkpt>
      <trkpt lat="43.00085" lon="-0.11297">
        <ele>647</ele>
        <time>2022-10-22T10:25:25Z</time>
      </trkpt>
      <trkpt lat="43.00077" lon="-0.11297">
        <ele>647.2</ele>
        <time>2022-10-22T10:25:34Z</time>
      </trkpt>
      <trkpt lat="43.00074" lon="-0.11301">
        <ele>647.4</ele>
        <time>2022-10-22T10:25:40Z</time>
      </trkpt>
      <trkpt lat="43.00072" lon="-0.11302">
        <ele>647.8</ele>
        <time>2022-10-22T10:25:47Z</time>
      </trkpt>
      <trkpt lat="43.00072" lon="-0.11302">
        <ele>648.4</ele>
        <time>2022-10-22T10:26:01Z</time>
      </trkpt>
      <trkpt lat="43.00068" lon="-0.11303">
        <ele>648.4</ele>
        <time>2022-10-22T10:26:03Z</time>
      </trkpt>
      <trkpt lat="43.00063" lon="-0.11304">
        <ele>648.6</ele>
        <time>2022-10-22T10:26:08Z</time>
      </trkpt>
      <trkpt lat="43.00061" lon="-0.11306">
        <ele>649.2</ele>
        <time>2022-10-22T10:26:15Z</time>
      </trkpt>
      <trkpt lat="43.00058" lon="-0.11309">
        <ele>649.4</ele>
        <time>2022-10-22T10:26:19Z</time>
      </trkpt>
      <trkpt lat="43.00056" lon="-0.1131">
        <ele>649.6</ele>
        <time>2022-10-22T10:26:21Z</time>
      </trkpt>
      <trkpt lat="43.00051" lon="-0.11314">
        <ele>650.2</ele>
        <time>2022-10-22T10:26:29Z</time>
      </trkpt>
      <trkpt lat="43.00048" lon="-0.11315">
        <ele>650</ele>
        <time>2022-10-22T10:26:35Z</time>
      </trkpt>
      <trkpt lat="43.00044" lon="-0.11317">
        <ele>650</ele>
        <time>2022-10-22T10:26:42Z</time>
      </trkpt>
      <trkpt lat="43.00038" lon="-0.11325">
        <ele>650</ele>
        <time>2022-10-22T10:26:48Z</time>
      </trkpt>
      <trkpt lat="43.00029" lon="-0.11336">
        <ele>650.2</ele>
        <time>2022-10-22T10:26:55Z</time>
      </trkpt>
      <trkpt lat="43.00026" lon="-0.1134">
        <ele>650.2</ele>
        <time>2022-10-22T10:27:02Z</time>
      </trkpt>
      <trkpt lat="43.00022" lon="-0.11344">
        <ele>650.8</ele>
        <time>2022-10-22T10:27:10Z</time>
      </trkpt>
      <trkpt lat="43.00022" lon="-0.11344">
        <ele>651.4</ele>
        <time>2022-10-22T10:27:13Z</time>
      </trkpt>
      <trkpt lat="43.00018" lon="-0.11347">
        <ele>652</ele>
        <time>2022-10-22T10:27:25Z</time>
      </trkpt>
      <trkpt lat="43.00017" lon="-0.11349">
        <ele>651.2</ele>
        <time>2022-10-22T10:27:49Z</time>
      </trkpt>
      <trkpt lat="43.00016" lon="-0.11351">
        <ele>650.2</ele>
        <time>2022-10-22T10:27:54Z</time>
      </trkpt>
      <trkpt lat="43.00015" lon="-0.11354">
        <ele>649</ele>
        <time>2022-10-22T10:28:00Z</time>
      </trkpt>
      <trkpt lat="43.00014" lon="-0.11355">
        <ele>649</ele>
        <time>2022-10-22T10:28:01Z</time>
      </trkpt>
      <trkpt lat="43.00012" lon="-0.11361">
        <ele>648.2</ele>
        <time>2022-10-22T10:28:07Z</time>
      </trkpt>
      <trkpt lat="43.00011" lon="-0.11368">
        <ele>647.6</ele>
        <time>2022-10-22T10:28:13Z</time>
      </trkpt>
      <trkpt lat="43.00011" lon="-0.11368">
        <ele>647.2</ele>
        <time>2022-10-22T10:28:16Z</time>
      </trkpt>
      <trkpt lat="43.00008" lon="-0.11365">
        <ele>647.4</ele>
        <time>2022-10-22T10:28:38Z</time>
      </trkpt>
      <trkpt lat="43.00003" lon="-0.11361">
        <ele>647.2</ele>
        <time>2022-10-22T10:28:40Z</time>
      </trkpt>
      <trkpt lat="42.99997" lon="-0.11355">
        <ele>646.2</ele>
        <time>2022-10-22T10:28:44Z</time>
      </trkpt>
      <trkpt lat="42.99995" lon="-0.11354">
        <ele>646</ele>
        <time>2022-10-22T10:28:45Z</time>
      </trkpt>
      <trkpt lat="42.99989" lon="-0.11349">
        <ele>645.4</ele>
        <time>2022-10-22T10:28:49Z</time>
      </trkpt>
      <trkpt lat="42.99988" lon="-0.11347">
        <ele>645</ele>
        <time>2022-10-22T10:28:50Z</time>
      </trkpt>
      <trkpt lat="42.99988" lon="-0.11345">
        <ele>644.8</ele>
        <time>2022-10-22T10:28:51Z</time>
      </trkpt>
      <trkpt lat="42.99988" lon="-0.11344">
        <ele>643.4</ele>
        <time>2022-10-22T10:28:53Z</time>
      </trkpt>
      <trkpt lat="42.99988" lon="-0.11344">
        <ele>642.2</ele>
        <time>2022-10-22T10:28:55Z</time>
      </trkpt>
      <trkpt lat="42.99988" lon="-0.11344">
        <ele>641.6</ele>
        <time>2022-10-22T10:28:57Z</time>
      </trkpt>
      <trkpt lat="42.99986" lon="-0.11344">
        <ele>641</ele>
        <time>2022-10-22T10:28:59Z</time>
      </trkpt>
      <trkpt lat="42.99983" lon="-0.11344">
        <ele>640.6</ele>
        <time>2022-10-22T10:29:03Z</time>
      </trkpt>
      <trkpt lat="42.99983" lon="-0.11345">
        <ele>640</ele>
        <time>2022-10-22T10:29:06Z</time>
      </trkpt>
      <trkpt lat="42.99982" lon="-0.11346">
        <ele>639.2</ele>
        <time>2022-10-22T10:29:11Z</time>
      </trkpt>
      <trkpt lat="42.99982" lon="-0.11348">
        <ele>638.8</ele>
        <time>2022-10-22T10:29:12Z</time>
      </trkpt>
      <trkpt lat="42.99981" lon="-0.11356">
        <ele>638.2</ele>
        <time>2022-10-22T10:29:18Z</time>
      </trkpt>
      <trkpt lat="42.99981" lon="-0.11358">
        <ele>638</ele>
        <time>2022-10-22T10:29:19Z</time>
      </trkpt>
      <trkpt lat="42.99981" lon="-0.11362">
        <ele>636.2</ele>
        <time>2022-10-22T10:29:22Z</time>
      </trkpt>
      <trkpt lat="42.9998" lon="-0.11364">
        <ele>635.2</ele>
        <time>2022-10-22T10:29:24Z</time>
      </trkpt>
      <trkpt lat="42.9998" lon="-0.11364">
        <ele>635</ele>
        <time>2022-10-22T10:29:25Z</time>
      </trkpt>
      <trkpt lat="42.99979" lon="-0.11364">
        <ele>633.8</ele>
        <time>2022-10-22T10:29:30Z</time>
      </trkpt>
      <trkpt lat="42.99979" lon="-0.11364">
        <ele>632.8</ele>
        <time>2022-10-22T10:29:37Z</time>
      </trkpt>
      <trkpt lat="42.99979" lon="-0.11364">
        <ele>632.4</ele>
        <time>2022-10-22T10:29:40Z</time>
      </trkpt>
      <trkpt lat="42.99979" lon="-0.11364">
        <ele>631.8</ele>
        <time>2022-10-22T10:29:43Z</time>
      </trkpt>
      <trkpt lat="42.99979" lon="-0.11364">
        <ele>630.8</ele>
        <time>2022-10-22T10:29:51Z</time>
      </trkpt>
      <trkpt lat="42.99977" lon="-0.11363">
        <ele>629.6</ele>
        <time>2022-10-22T10:29:57Z</time>
      </trkpt>
      <trkpt lat="42.99976" lon="-0.11362">
        <ele>629.2</ele>
        <time>2022-10-22T10:30:05Z</time>
      </trkpt>
      <trkpt lat="42.99975" lon="-0.11361">
        <ele>628.6</ele>
        <time>2022-10-22T10:30:12Z</time>
      </trkpt>
      <trkpt lat="42.99975" lon="-0.11361">
        <ele>627.2</ele>
        <time>2022-10-22T10:30:16Z</time>
      </trkpt>
      <trkpt lat="42.99974" lon="-0.1136">
        <ele>626.8</ele>
        <time>2022-10-22T10:30:18Z</time>
      </trkpt>
      <trkpt lat="42.9997" lon="-0.11355">
        <ele>626</ele>
        <time>2022-10-22T10:30:22Z</time>
      </trkpt>
      <trkpt lat="42.99969" lon="-0.11353">
        <ele>625.4</ele>
        <time>2022-10-22T10:30:26Z</time>
      </trkpt>
      <trkpt lat="42.99969" lon="-0.11353">
        <ele>624.8</ele>
        <time>2022-10-22T10:30:31Z</time>
      </trkpt>
      <trkpt lat="42.99968" lon="-0.11352">
        <ele>623.8</ele>
        <time>2022-10-22T10:30:39Z</time>
      </trkpt>
      <trkpt lat="42.99968" lon="-0.11351">
        <ele>622.8</ele>
        <time>2022-10-22T10:30:43Z</time>
      </trkpt>
      <trkpt lat="42.99967" lon="-0.11351">
        <ele>621.6</ele>
        <time>2022-10-22T10:30:50Z</time>
      </trkpt>
      <trkpt lat="42.99964" lon="-0.11346">
        <ele>620.6</ele>
        <time>2022-10-22T10:31:10Z</time>
      </trkpt>
      <trkpt lat="42.99962" lon="-0.11344">
        <ele>619.6</ele>
        <time>2022-10-22T10:31:15Z</time>
      </trkpt>
      <trkpt lat="42.99961" lon="-0.11343">
        <ele>619.4</ele>
        <time>2022-10-22T10:31:16Z</time>
      </trkpt>
      <trkpt lat="42.9996" lon="-0.11343">
        <ele>619.2</ele>
        <time>2022-10-22T10:31:17Z</time>
      </trkpt>
      <trkpt lat="42.99957" lon="-0.11336">
        <ele>618.2</ele>
        <time>2022-10-22T10:31:21Z</time>
      </trkpt>
      <trkpt lat="42.99956" lon="-0.11333">
        <ele>618.2</ele>
        <time>2022-10-22T10:31:22Z</time>
      </trkpt>
      <trkpt lat="42.99957" lon="-0.11329">
        <ele>618</ele>
        <time>2022-10-22T10:31:23Z</time>
      </trkpt>
      <trkpt lat="42.99957" lon="-0.11314">
        <ele>617.4</ele>
        <time>2022-10-22T10:31:28Z</time>
      </trkpt>
      <trkpt lat="42.99958" lon="-0.11312">
        <ele>617.2</ele>
        <time>2022-10-22T10:31:29Z</time>
      </trkpt>
      <trkpt lat="42.99956" lon="-0.11302">
        <ele>616.6</ele>
        <time>2022-10-22T10:31:32Z</time>
      </trkpt>
      <trkpt lat="42.99957" lon="-0.11298">
        <ele>616.2</ele>
        <time>2022-10-22T10:31:34Z</time>
      </trkpt>
      <trkpt lat="42.99958" lon="-0.11295">
        <ele>615.8</ele>
        <time>2022-10-22T10:31:35Z</time>
      </trkpt>
      <trkpt lat="42.99958" lon="-0.11289">
        <ele>615.2</ele>
        <time>2022-10-22T10:31:37Z</time>
      </trkpt>
      <trkpt lat="42.99959" lon="-0.11283">
        <ele>614.8</ele>
        <time>2022-10-22T10:31:38Z</time>
      </trkpt>
      <trkpt lat="42.9996" lon="-0.11277">
        <ele>614</ele>
        <time>2022-10-22T10:31:39Z</time>
      </trkpt>
      <trkpt lat="42.99962" lon="-0.11269">
        <ele>613.4</ele>
        <time>2022-10-22T10:31:40Z</time>
      </trkpt>
      <trkpt lat="42.99967" lon="-0.11251">
        <ele>612.8</ele>
        <time>2022-10-22T10:31:42Z</time>
      </trkpt>
      <trkpt lat="42.9997" lon="-0.11243">
        <ele>612.4</ele>
        <time>2022-10-22T10:31:43Z</time>
      </trkpt>
      <trkpt lat="42.99972" lon="-0.11235">
        <ele>611.6</ele>
        <time>2022-10-22T10:31:44Z</time>
      </trkpt>
      <trkpt lat="42.99974" lon="-0.11221">
        <ele>611.2</ele>
        <time>2022-10-22T10:31:46Z</time>
      </trkpt>
      <trkpt lat="42.99976" lon="-0.11206">
        <ele>611</ele>
        <time>2022-10-22T10:31:48Z</time>
      </trkpt>
      <trkpt lat="42.99975" lon="-0.11195">
        <ele>610.6</ele>
        <time>2022-10-22T10:31:50Z</time>
      </trkpt>
      <trkpt lat="42.99972" lon="-0.11182">
        <ele>610.2</ele>
        <time>2022-10-22T10:31:52Z</time>
      </trkpt>
      <trkpt lat="42.99972" lon="-0.1117">
        <ele>610</ele>
        <time>2022-10-22T10:31:55Z</time>
      </trkpt>
      <trkpt lat="42.99977" lon="-0.11155">
        <ele>609.8</ele>
        <time>2022-10-22T10:31:58Z</time>
      </trkpt>
      <trkpt lat="42.9998" lon="-0.1115">
        <ele>609.6</ele>
        <time>2022-10-22T10:31:59Z</time>
      </trkpt>
      <trkpt lat="42.99992" lon="-0.11132">
        <ele>608.2</ele>
        <time>2022-10-22T10:32:03Z</time>
      </trkpt>
      <trkpt lat="42.99997" lon="-0.11125">
        <ele>608</ele>
        <time>2022-10-22T10:32:05Z</time>
      </trkpt>
      <trkpt lat="43.00007" lon="-0.11112">
        <ele>607</ele>
        <time>2022-10-22T10:32:08Z</time>
      </trkpt>
      <trkpt lat="43.00011" lon="-0.11108">
        <ele>605.8</ele>
        <time>2022-10-22T10:32:09Z</time>
      </trkpt>
      <trkpt lat="43.00014" lon="-0.11103">
        <ele>605</ele>
        <time>2022-10-22T10:32:10Z</time>
      </trkpt>
      <trkpt lat="43.00017" lon="-0.11097">
        <ele>604.4</ele>
        <time>2022-10-22T10:32:11Z</time>
      </trkpt>
      <trkpt lat="43.0002" lon="-0.11091">
        <ele>602.8</ele>
        <time>2022-10-22T10:32:12Z</time>
      </trkpt>
      <trkpt lat="43.00023" lon="-0.11086">
        <ele>602.2</ele>
        <time>2022-10-22T10:32:13Z</time>
      </trkpt>
      <trkpt lat="43.00025" lon="-0.11081">
        <ele>601.6</ele>
        <time>2022-10-22T10:32:14Z</time>
      </trkpt>
      <trkpt lat="43.00029" lon="-0.11072">
        <ele>600.4</ele>
        <time>2022-10-22T10:32:16Z</time>
      </trkpt>
      <trkpt lat="43.00029" lon="-0.11067">
        <ele>600.2</ele>
        <time>2022-10-22T10:32:17Z</time>
      </trkpt>
      <trkpt lat="43.00029" lon="-0.11062">
        <ele>599.4</ele>
        <time>2022-10-22T10:32:18Z</time>
      </trkpt>
      <trkpt lat="43.00027" lon="-0.11052">
        <ele>598.2</ele>
        <time>2022-10-22T10:32:20Z</time>
      </trkpt>
      <trkpt lat="43.00027" lon="-0.11045">
        <ele>598</ele>
        <time>2022-10-22T10:32:21Z</time>
      </trkpt>
      <trkpt lat="43.00026" lon="-0.11037">
        <ele>597.2</ele>
        <time>2022-10-22T10:32:23Z</time>
      </trkpt>
      <trkpt lat="43.00026" lon="-0.11028">
        <ele>595</ele>
        <time>2022-10-22T10:32:25Z</time>
      </trkpt>
      <trkpt lat="43.00027" lon="-0.11024">
        <ele>594.6</ele>
        <time>2022-10-22T10:32:26Z</time>
      </trkpt>
      <trkpt lat="43.00029" lon="-0.11013">
        <ele>593.8</ele>
        <time>2022-10-22T10:32:28Z</time>
      </trkpt>
      <trkpt lat="43.00032" lon="-0.11002">
        <ele>593.4</ele>
        <time>2022-10-22T10:32:30Z</time>
      </trkpt>
      <trkpt lat="43.00036" lon="-0.10992">
        <ele>592.8</ele>
        <time>2022-10-22T10:32:32Z</time>
      </trkpt>
      <trkpt lat="43.0004" lon="-0.10987">
        <ele>591.6</ele>
        <time>2022-10-22T10:32:34Z</time>
      </trkpt>
      <trkpt lat="43.00042" lon="-0.10985">
        <ele>590.8</ele>
        <time>2022-10-22T10:32:35Z</time>
      </trkpt>
      <trkpt lat="43.00046" lon="-0.1098">
        <ele>590</ele>
        <time>2022-10-22T10:32:37Z</time>
      </trkpt>
      <trkpt lat="43.00052" lon="-0.1098">
        <ele>588.6</ele>
        <time>2022-10-22T10:32:39Z</time>
      </trkpt>
      <trkpt lat="43.00053" lon="-0.10979">
        <ele>587</ele>
        <time>2022-10-22T10:32:40Z</time>
      </trkpt>
      <trkpt lat="43.00058" lon="-0.10975">
        <ele>586</ele>
        <time>2022-10-22T10:32:42Z</time>
      </trkpt>
      <trkpt lat="43.00063" lon="-0.10972">
        <ele>585</ele>
        <time>2022-10-22T10:32:44Z</time>
      </trkpt>
      <trkpt lat="43.00071" lon="-0.1097">
        <ele>584</ele>
        <time>2022-10-22T10:32:46Z</time>
      </trkpt>
      <trkpt lat="43.00075" lon="-0.10969">
        <ele>583.6</ele>
        <time>2022-10-22T10:32:47Z</time>
      </trkpt>
      <trkpt lat="43.00089" lon="-0.10965">
        <ele>581.8</ele>
        <time>2022-10-22T10:32:50Z</time>
      </trkpt>
      <trkpt lat="43.00101" lon="-0.10962">
        <ele>581.2</ele>
        <time>2022-10-22T10:32:52Z</time>
      </trkpt>
      <trkpt lat="43.00107" lon="-0.10959">
        <ele>580.6</ele>
        <time>2022-10-22T10:32:53Z</time>
      </trkpt>
      <trkpt lat="43.00112" lon="-0.10955">
        <ele>580.2</ele>
        <time>2022-10-22T10:32:54Z</time>
      </trkpt>
      <trkpt lat="43.00117" lon="-0.1095">
        <ele>579</ele>
        <time>2022-10-22T10:32:55Z</time>
      </trkpt>
      <trkpt lat="43.00126" lon="-0.10939">
        <ele>578.2</ele>
        <time>2022-10-22T10:32:57Z</time>
      </trkpt>
      <trkpt lat="43.0013" lon="-0.10934">
        <ele>576.8</ele>
        <time>2022-10-22T10:32:58Z</time>
      </trkpt>
      <trkpt lat="43.00133" lon="-0.10929">
        <ele>575</ele>
        <time>2022-10-22T10:32:59Z</time>
      </trkpt>
      <trkpt lat="43.00138" lon="-0.10921">
        <ele>573</ele>
        <time>2022-10-22T10:33:01Z</time>
      </trkpt>
      <trkpt lat="43.00141" lon="-0.10918">
        <ele>572.8</ele>
        <time>2022-10-22T10:33:02Z</time>
      </trkpt>
      <trkpt lat="43.00143" lon="-0.10914">
        <ele>572</ele>
        <time>2022-10-22T10:33:03Z</time>
      </trkpt>
      <trkpt lat="43.00147" lon="-0.10905">
        <ele>570.2</ele>
        <time>2022-10-22T10:33:05Z</time>
      </trkpt>
      <trkpt lat="43.00153" lon="-0.10892">
        <ele>568.4</ele>
        <time>2022-10-22T10:33:07Z</time>
      </trkpt>
      <trkpt lat="43.00161" lon="-0.1088">
        <ele>566.8</ele>
        <time>2022-10-22T10:33:09Z</time>
      </trkpt>
      <trkpt lat="43.00165" lon="-0.10874">
        <ele>565.4</ele>
        <time>2022-10-22T10:33:10Z</time>
      </trkpt>
      <trkpt lat="43.00169" lon="-0.10868">
        <ele>565</ele>
        <time>2022-10-22T10:33:11Z</time>
      </trkpt>
      <trkpt lat="43.00174" lon="-0.10863">
        <ele>564.4</ele>
        <time>2022-10-22T10:33:12Z</time>
      </trkpt>
      <trkpt lat="43.00179" lon="-0.10856">
        <ele>564</ele>
        <time>2022-10-22T10:33:13Z</time>
      </trkpt>
      <trkpt lat="43.00184" lon="-0.1085">
        <ele>562.2</ele>
        <time>2022-10-22T10:33:14Z</time>
      </trkpt>
      <trkpt lat="43.00189" lon="-0.10845">
        <ele>561.2</ele>
        <time>2022-10-22T10:33:15Z</time>
      </trkpt>
      <trkpt lat="43.00195" lon="-0.1084">
        <ele>560</ele>
        <time>2022-10-22T10:33:16Z</time>
      </trkpt>
      <trkpt lat="43.00201" lon="-0.10832">
        <ele>559.6</ele>
        <time>2022-10-22T10:33:17Z</time>
      </trkpt>
      <trkpt lat="43.00207" lon="-0.10825">
        <ele>559</ele>
        <time>2022-10-22T10:33:18Z</time>
      </trkpt>
      <trkpt lat="43.00221" lon="-0.10813">
        <ele>557.2</ele>
        <time>2022-10-22T10:33:20Z</time>
      </trkpt>
      <trkpt lat="43.00235" lon="-0.10799">
        <ele>555.8</ele>
        <time>2022-10-22T10:33:22Z</time>
      </trkpt>
      <trkpt lat="43.00249" lon="-0.10788">
        <ele>554.6</ele>
        <time>2022-10-22T10:33:24Z</time>
      </trkpt>
      <trkpt lat="43.00253" lon="-0.10783">
        <ele>553.6</ele>
        <time>2022-10-22T10:33:25Z</time>
      </trkpt>
      <trkpt lat="43.00258" lon="-0.10778">
        <ele>553.2</ele>
        <time>2022-10-22T10:33:26Z</time>
      </trkpt>
      <trkpt lat="43.00262" lon="-0.10775">
        <ele>551.8</ele>
        <time>2022-10-22T10:33:27Z</time>
      </trkpt>
      <trkpt lat="43.00265" lon="-0.10771">
        <ele>551.4</ele>
        <time>2022-10-22T10:33:28Z</time>
      </trkpt>
      <trkpt lat="43.00268" lon="-0.10767">
        <ele>550.6</ele>
        <time>2022-10-22T10:33:29Z</time>
      </trkpt>
      <trkpt lat="43.00281" lon="-0.10755">
        <ele>548.8</ele>
        <time>2022-10-22T10:33:33Z</time>
      </trkpt>
      <trkpt lat="43.00284" lon="-0.10753">
        <ele>548</ele>
        <time>2022-10-22T10:33:34Z</time>
      </trkpt>
      <trkpt lat="43.00286" lon="-0.10751">
        <ele>547.2</ele>
        <time>2022-10-22T10:33:35Z</time>
      </trkpt>
      <trkpt lat="43.00291" lon="-0.10744">
        <ele>545.2</ele>
        <time>2022-10-22T10:33:38Z</time>
      </trkpt>
      <trkpt lat="43.00295" lon="-0.1074">
        <ele>544.2</ele>
        <time>2022-10-22T10:33:40Z</time>
      </trkpt>
      <trkpt lat="43.00299" lon="-0.10736">
        <ele>543.8</ele>
        <time>2022-10-22T10:33:41Z</time>
      </trkpt>
      <trkpt lat="43.00301" lon="-0.10734">
        <ele>543</ele>
        <time>2022-10-22T10:33:42Z</time>
      </trkpt>
      <trkpt lat="43.00304" lon="-0.10732">
        <ele>542.6</ele>
        <time>2022-10-22T10:33:43Z</time>
      </trkpt>
      <trkpt lat="43.00308" lon="-0.10728">
        <ele>541.6</ele>
        <time>2022-10-22T10:33:44Z</time>
      </trkpt>
      <trkpt lat="43.00311" lon="-0.10723">
        <ele>541.2</ele>
        <time>2022-10-22T10:33:45Z</time>
      </trkpt>
      <trkpt lat="43.00314" lon="-0.10715">
        <ele>540.2</ele>
        <time>2022-10-22T10:33:46Z</time>
      </trkpt>
      <trkpt lat="43.00321" lon="-0.10698">
        <ele>539</ele>
        <time>2022-10-22T10:33:49Z</time>
      </trkpt>
      <trkpt lat="43.00322" lon="-0.10693">
        <ele>537.6</ele>
        <time>2022-10-22T10:33:50Z</time>
      </trkpt>
      <trkpt lat="43.00326" lon="-0.10684">
        <ele>535.6</ele>
        <time>2022-10-22T10:33:52Z</time>
      </trkpt>
      <trkpt lat="43.00328" lon="-0.10679">
        <ele>534.2</ele>
        <time>2022-10-22T10:33:53Z</time>
      </trkpt>
      <trkpt lat="43.00331" lon="-0.10675">
        <ele>533.8</ele>
        <time>2022-10-22T10:33:54Z</time>
      </trkpt>
      <trkpt lat="43.00333" lon="-0.1067">
        <ele>532.6</ele>
        <time>2022-10-22T10:33:55Z</time>
      </trkpt>
      <trkpt lat="43.00337" lon="-0.10664">
        <ele>531.4</ele>
        <time>2022-10-22T10:33:57Z</time>
      </trkpt>
      <trkpt lat="43.0034" lon="-0.10659">
        <ele>531</ele>
        <time>2022-10-22T10:33:59Z</time>
      </trkpt>
      <trkpt lat="43.00343" lon="-0.10656">
        <ele>531</ele>
        <time>2022-10-22T10:34:00Z</time>
      </trkpt>
      <trkpt lat="43.00345" lon="-0.10653">
        <ele>530.2</ele>
        <time>2022-10-22T10:34:01Z</time>
      </trkpt>
      <trkpt lat="43.00351" lon="-0.10648">
        <ele>528.8</ele>
        <time>2022-10-22T10:34:03Z</time>
      </trkpt>
      <trkpt lat="43.00367" lon="-0.10633">
        <ele>526.4</ele>
        <time>2022-10-22T10:34:07Z</time>
      </trkpt>
      <trkpt lat="43.00376" lon="-0.10628">
        <ele>525.6</ele>
        <time>2022-10-22T10:34:09Z</time>
      </trkpt>
      <trkpt lat="43.00379" lon="-0.10626">
        <ele>525.4</ele>
        <time>2022-10-22T10:34:10Z</time>
      </trkpt>
      <trkpt lat="43.00388" lon="-0.10617">
        <ele>524.2</ele>
        <time>2022-10-22T10:34:12Z</time>
      </trkpt>
      <trkpt lat="43.00395" lon="-0.10607">
        <ele>523.4</ele>
        <time>2022-10-22T10:34:14Z</time>
      </trkpt>
      <trkpt lat="43.00399" lon="-0.10602">
        <ele>523.2</ele>
        <time>2022-10-22T10:34:15Z</time>
      </trkpt>
      <trkpt lat="43.00408" lon="-0.10587">
        <ele>522</ele>
        <time>2022-10-22T10:34:18Z</time>
      </trkpt>
      <trkpt lat="43.00411" lon="-0.10584">
        <ele>521.8</ele>
        <time>2022-10-22T10:34:19Z</time>
      </trkpt>
      <trkpt lat="43.00419" lon="-0.10571">
        <ele>520.8</ele>
        <time>2022-10-22T10:34:22Z</time>
      </trkpt>
      <trkpt lat="43.00427" lon="-0.10559">
        <ele>519.2</ele>
        <time>2022-10-22T10:34:25Z</time>
      </trkpt>
      <trkpt lat="43.00431" lon="-0.10554">
        <ele>518</ele>
        <time>2022-10-22T10:34:28Z</time>
      </trkpt>
      <trkpt lat="43.00432" lon="-0.10552">
        <ele>517.6</ele>
        <time>2022-10-22T10:34:29Z</time>
      </trkpt>
      <trkpt lat="43.00432" lon="-0.10551">
        <ele>516.8</ele>
        <time>2022-10-22T10:34:32Z</time>
      </trkpt>
      <trkpt lat="43.00432" lon="-0.10551">
        <ele>516</ele>
        <time>2022-10-22T10:34:35Z</time>
      </trkpt>
      <trkpt lat="43.00432" lon="-0.10551">
        <ele>515.8</ele>
        <time>2022-10-22T10:34:36Z</time>
      </trkpt>
      <trkpt lat="43.00431" lon="-0.10552">
        <ele>514.8</ele>
        <time>2022-10-22T10:34:52Z</time>
      </trkpt>
      <trkpt lat="43.00429" lon="-0.10554">
        <ele>514.8</ele>
        <time>2022-10-22T10:34:53Z</time>
      </trkpt>
      <trkpt lat="43.00421" lon="-0.10562">
        <ele>514.6</ele>
        <time>2022-10-22T10:34:57Z</time>
      </trkpt>
      <trkpt lat="43.00408" lon="-0.10574">
        <ele>514.4</ele>
        <time>2022-10-22T10:35:01Z</time>
      </trkpt>
      <trkpt lat="43.00404" lon="-0.10578">
        <ele>514.4</ele>
        <time>2022-10-22T10:35:02Z</time>
      </trkpt>
      <trkpt lat="43.00395" lon="-0.10584">
        <ele>514.2</ele>
        <time>2022-10-22T10:35:04Z</time>
      </trkpt>
      <trkpt lat="43.00379" lon="-0.10589">
        <ele>513.8</ele>
        <time>2022-10-22T10:35:07Z</time>
      </trkpt>
      <trkpt lat="43.00372" lon="-0.10591">
        <ele>513.6</ele>
        <time>2022-10-22T10:35:08Z</time>
      </trkpt>
      <trkpt lat="43.0036" lon="-0.10598">
        <ele>513</ele>
        <time>2022-10-22T10:35:10Z</time>
      </trkpt>
      <trkpt lat="43.00355" lon="-0.10602">
        <ele>512.8</ele>
        <time>2022-10-22T10:35:11Z</time>
      </trkpt>
      <trkpt lat="43.0035" lon="-0.10608">
        <ele>512.6</ele>
        <time>2022-10-22T10:35:12Z</time>
      </trkpt>
      <trkpt lat="43.00342" lon="-0.10619">
        <ele>512</ele>
        <time>2022-10-22T10:35:14Z</time>
      </trkpt>
      <trkpt lat="43.00338" lon="-0.10622">
        <ele>511.6</ele>
        <time>2022-10-22T10:35:15Z</time>
      </trkpt>
      <trkpt lat="43.00333" lon="-0.10622">
        <ele>511.2</ele>
        <time>2022-10-22T10:35:16Z</time>
      </trkpt>
      <trkpt lat="43.00327" lon="-0.10616">
        <ele>510</ele>
        <time>2022-10-22T10:35:18Z</time>
      </trkpt>
      <trkpt lat="43.00326" lon="-0.10605">
        <ele>509.2</ele>
        <time>2022-10-22T10:35:20Z</time>
      </trkpt>
      <trkpt lat="43.00328" lon="-0.106">
        <ele>508.8</ele>
        <time>2022-10-22T10:35:21Z</time>
      </trkpt>
      <trkpt lat="43.00332" lon="-0.10594">
        <ele>508.4</ele>
        <time>2022-10-22T10:35:22Z</time>
      </trkpt>
      <trkpt lat="43.00343" lon="-0.10586">
        <ele>508</ele>
        <time>2022-10-22T10:35:24Z</time>
      </trkpt>
      <trkpt lat="43.0035" lon="-0.10582">
        <ele>507.6</ele>
        <time>2022-10-22T10:35:25Z</time>
      </trkpt>
      <trkpt lat="43.00365" lon="-0.1057">
        <ele>507.4</ele>
        <time>2022-10-22T10:35:27Z</time>
      </trkpt>
      <trkpt lat="43.00384" lon="-0.10541">
        <ele>506.6</ele>
        <time>2022-10-22T10:35:30Z</time>
      </trkpt>
      <trkpt lat="43.00409" lon="-0.10494">
        <ele>505.4</ele>
        <time>2022-10-22T10:35:34Z</time>
      </trkpt>
      <trkpt lat="43.00416" lon="-0.10482">
        <ele>504.6</ele>
        <time>2022-10-22T10:35:35Z</time>
      </trkpt>
      <trkpt lat="43.00424" lon="-0.1047">
        <ele>504</ele>
        <time>2022-10-22T10:35:36Z</time>
      </trkpt>
      <trkpt lat="43.00433" lon="-0.1046">
        <ele>502.6</ele>
        <time>2022-10-22T10:35:37Z</time>
      </trkpt>
      <trkpt lat="43.00452" lon="-0.1044">
        <ele>501.6</ele>
        <time>2022-10-22T10:35:39Z</time>
      </trkpt>
      <trkpt lat="43.0047" lon="-0.1042">
        <ele>500.2</ele>
        <time>2022-10-22T10:35:41Z</time>
      </trkpt>
      <trkpt lat="43.00477" lon="-0.10409">
        <ele>499.6</ele>
        <time>2022-10-22T10:35:42Z</time>
      </trkpt>
      <trkpt lat="43.00483" lon="-0.10398">
        <ele>499.2</ele>
        <time>2022-10-22T10:35:43Z</time>
      </trkpt>
      <trkpt lat="43.00487" lon="-0.10384">
        <ele>498.4</ele>
        <time>2022-10-22T10:35:44Z</time>
      </trkpt>
      <trkpt lat="43.00489" lon="-0.1037">
        <ele>497.4</ele>
        <time>2022-10-22T10:35:45Z</time>
      </trkpt>
      <trkpt lat="43.0049" lon="-0.10356">
        <ele>496.2</ele>
        <time>2022-10-22T10:35:46Z</time>
      </trkpt>
      <trkpt lat="43.00493" lon="-0.10326">
        <ele>493.2</ele>
        <time>2022-10-22T10:35:48Z</time>
      </trkpt>
      <trkpt lat="43.00497" lon="-0.10312">
        <ele>492.6</ele>
        <time>2022-10-22T10:35:49Z</time>
      </trkpt>
      <trkpt lat="43.00501" lon="-0.10299">
        <ele>491</ele>
        <time>2022-10-22T10:35:50Z</time>
      </trkpt>
      <trkpt lat="43.00507" lon="-0.10287">
        <ele>490</ele>
        <time>2022-10-22T10:35:51Z</time>
      </trkpt>
      <trkpt lat="43.00515" lon="-0.10275">
        <ele>489</ele>
        <time>2022-10-22T10:35:52Z</time>
      </trkpt>
      <trkpt lat="43.0053" lon="-0.10252">
        <ele>487.8</ele>
        <time>2022-10-22T10:35:54Z</time>
      </trkpt>
      <trkpt lat="43.00537" lon="-0.10239">
        <ele>486.6</ele>
        <time>2022-10-22T10:35:55Z</time>
      </trkpt>
      <trkpt lat="43.0055" lon="-0.10213">
        <ele>485.4</ele>
        <time>2022-10-22T10:35:57Z</time>
      </trkpt>
      <trkpt lat="43.00557" lon="-0.10202">
        <ele>485</ele>
        <time>2022-10-22T10:35:58Z</time>
      </trkpt>
      <trkpt lat="43.00565" lon="-0.10193">
        <ele>484</ele>
        <time>2022-10-22T10:35:59Z</time>
      </trkpt>
      <trkpt lat="43.00574" lon="-0.10185">
        <ele>483.2</ele>
        <time>2022-10-22T10:36:00Z</time>
      </trkpt>
      <trkpt lat="43.00584" lon="-0.10177">
        <ele>481.8</ele>
        <time>2022-10-22T10:36:01Z</time>
      </trkpt>
      <trkpt lat="43.00593" lon="-0.10171">
        <ele>480.8</ele>
        <time>2022-10-22T10:36:02Z</time>
      </trkpt>
      <trkpt lat="43.00604" lon="-0.10166">
        <ele>479.4</ele>
        <time>2022-10-22T10:36:03Z</time>
      </trkpt>
      <trkpt lat="43.00615" lon="-0.10163">
        <ele>478.8</ele>
        <time>2022-10-22T10:36:04Z</time>
      </trkpt>
      <trkpt lat="43.00627" lon="-0.10161">
        <ele>477.8</ele>
        <time>2022-10-22T10:36:05Z</time>
      </trkpt>
      <trkpt lat="43.00651" lon="-0.10161">
        <ele>475.8</ele>
        <time>2022-10-22T10:36:07Z</time>
      </trkpt>
      <trkpt lat="43.00664" lon="-0.10159">
        <ele>474.4</ele>
        <time>2022-10-22T10:36:08Z</time>
      </trkpt>
      <trkpt lat="43.00685" lon="-0.10154">
        <ele>473</ele>
        <time>2022-10-22T10:36:10Z</time>
      </trkpt>
      <trkpt lat="43.00694" lon="-0.10151">
        <ele>472.4</ele>
        <time>2022-10-22T10:36:11Z</time>
      </trkpt>
      <trkpt lat="43.00702" lon="-0.10146">
        <ele>470.8</ele>
        <time>2022-10-22T10:36:12Z</time>
      </trkpt>
      <trkpt lat="43.00707" lon="-0.1014">
        <ele>470.2</ele>
        <time>2022-10-22T10:36:13Z</time>
      </trkpt>
      <trkpt lat="43.0071" lon="-0.10133">
        <ele>468.6</ele>
        <time>2022-10-22T10:36:14Z</time>
      </trkpt>
      <trkpt lat="43.00709" lon="-0.10126">
        <ele>467.8</ele>
        <time>2022-10-22T10:36:15Z</time>
      </trkpt>
      <trkpt lat="43.00706" lon="-0.1012">
        <ele>466.2</ele>
        <time>2022-10-22T10:36:16Z</time>
      </trkpt>
      <trkpt lat="43.00702" lon="-0.10115">
        <ele>465.8</ele>
        <time>2022-10-22T10:36:17Z</time>
      </trkpt>
      <trkpt lat="43.00696" lon="-0.10111">
        <ele>464</ele>
        <time>2022-10-22T10:36:18Z</time>
      </trkpt>
      <trkpt lat="43.00689" lon="-0.10109">
        <ele>463.4</ele>
        <time>2022-10-22T10:36:19Z</time>
      </trkpt>
      <trkpt lat="43.00685" lon="-0.10106">
        <ele>462.8</ele>
        <time>2022-10-22T10:36:20Z</time>
      </trkpt>
      <trkpt lat="43.00681" lon="-0.101">
        <ele>462.6</ele>
        <time>2022-10-22T10:36:21Z</time>
      </trkpt>
      <trkpt lat="43.00679" lon="-0.10088">
        <ele>461.8</ele>
        <time>2022-10-22T10:36:23Z</time>
      </trkpt>
      <trkpt lat="43.00679" lon="-0.10074">
        <ele>461.6</ele>
        <time>2022-10-22T10:36:25Z</time>
      </trkpt>
      <trkpt lat="43.00679" lon="-0.10051">
        <ele>461.6</ele>
        <time>2022-10-22T10:36:28Z</time>
      </trkpt>
      <trkpt lat="43.00681" lon="-0.10036">
        <ele>461.6</ele>
        <time>2022-10-22T10:36:30Z</time>
      </trkpt>
      <trkpt lat="43.00682" lon="-0.1003">
        <ele>461.6</ele>
        <time>2022-10-22T10:36:31Z</time>
      </trkpt>
      <trkpt lat="43.00684" lon="-0.1002">
        <ele>461.6</ele>
        <time>2022-10-22T10:36:33Z</time>
      </trkpt>
      <trkpt lat="43.00682" lon="-0.10012">
        <ele>461.6</ele>
        <time>2022-10-22T10:36:35Z</time>
      </trkpt>
      <trkpt lat="43.00685" lon="-0.10011">
        <ele>461.6</ele>
        <time>2022-10-22T10:36:36Z</time>
      </trkpt>
      <trkpt lat="43.00695" lon="-0.10007">
        <ele>460.6</ele>
        <time>2022-10-22T10:36:38Z</time>
      </trkpt>
      <trkpt lat="43.00709" lon="-0.10002">
        <ele>460</ele>
        <time>2022-10-22T10:36:40Z</time>
      </trkpt>
      <trkpt lat="43.00723" lon="-0.09998">
        <ele>459.2</ele>
        <time>2022-10-22T10:36:42Z</time>
      </trkpt>
      <trkpt lat="43.00748" lon="-0.09988">
        <ele>458.8</ele>
        <time>2022-10-22T10:36:45Z</time>
      </trkpt>
      <trkpt lat="43.00763" lon="-0.09981">
        <ele>458.4</ele>
        <time>2022-10-22T10:36:47Z</time>
      </trkpt>
      <trkpt lat="43.00779" lon="-0.09967">
        <ele>457.6</ele>
        <time>2022-10-22T10:36:49Z</time>
      </trkpt>
      <trkpt lat="43.00795" lon="-0.09943">
        <ele>457.2</ele>
        <time>2022-10-22T10:36:52Z</time>
      </trkpt>
      <trkpt lat="43.00801" lon="-0.09934">
        <ele>456.8</ele>
        <time>2022-10-22T10:36:53Z</time>
      </trkpt>
      <trkpt lat="43.00812" lon="-0.09905">
        <ele>456.4</ele>
        <time>2022-10-22T10:36:56Z</time>
      </trkpt>
      <trkpt lat="43.00818" lon="-0.09897">
        <ele>456.2</ele>
        <time>2022-10-22T10:36:57Z</time>
      </trkpt>
      <trkpt lat="43.00826" lon="-0.0989">
        <ele>456</ele>
        <time>2022-10-22T10:36:58Z</time>
      </trkpt>
      <trkpt lat="43.00846" lon="-0.09881">
        <ele>455.6</ele>
        <time>2022-10-22T10:37:00Z</time>
      </trkpt>
      <trkpt lat="43.00874" lon="-0.09875">
        <ele>454.8</ele>
        <time>2022-10-22T10:37:03Z</time>
      </trkpt>
      <trkpt lat="43.00897" lon="-0.09873">
        <ele>454.2</ele>
        <time>2022-10-22T10:37:05Z</time>
      </trkpt>
      <trkpt lat="43.00906" lon="-0.09872">
        <ele>453.8</ele>
        <time>2022-10-22T10:37:06Z</time>
      </trkpt>
      <trkpt lat="43.00926" lon="-0.09873">
        <ele>452.4</ele>
        <time>2022-10-22T10:37:08Z</time>
      </trkpt>
      <trkpt lat="43.00957" lon="-0.09873">
        <ele>451.6</ele>
        <time>2022-10-22T10:37:11Z</time>
      </trkpt>
      <trkpt lat="43.00967" lon="-0.09872">
        <ele>451</ele>
        <time>2022-10-22T10:37:12Z</time>
      </trkpt>
      <trkpt lat="43.0101" lon="-0.09868">
        <ele>449.4</ele>
        <time>2022-10-22T10:37:16Z</time>
      </trkpt>
      <trkpt lat="43.01032" lon="-0.09867">
        <ele>448.2</ele>
        <time>2022-10-22T10:37:18Z</time>
      </trkpt>
      <trkpt lat="43.01057" lon="-0.09866">
        <ele>447.2</ele>
        <time>2022-10-22T10:37:20Z</time>
      </trkpt>
      <trkpt lat="43.01065" lon="-0.09869">
        <ele>446.8</ele>
        <time>2022-10-22T10:37:21Z</time>
      </trkpt>
      <trkpt lat="43.01075" lon="-0.09874">
        <ele>446</ele>
        <time>2022-10-22T10:37:22Z</time>
      </trkpt>
      <trkpt lat="43.01096" lon="-0.09889">
        <ele>444.6</ele>
        <time>2022-10-22T10:37:24Z</time>
      </trkpt>
      <trkpt lat="43.01112" lon="-0.09891">
        <ele>443.2</ele>
        <time>2022-10-22T10:37:26Z</time>
      </trkpt>
      <trkpt lat="43.01128" lon="-0.09878">
        <ele>442.4</ele>
        <time>2022-10-22T10:37:28Z</time>
      </trkpt>
      <trkpt lat="43.01136" lon="-0.0987">
        <ele>441.4</ele>
        <time>2022-10-22T10:37:29Z</time>
      </trkpt>
      <trkpt lat="43.01145" lon="-0.09861">
        <ele>441.2</ele>
        <time>2022-10-22T10:37:30Z</time>
      </trkpt>
      <trkpt lat="43.01152" lon="-0.09856">
        <ele>440.2</ele>
        <time>2022-10-22T10:37:31Z</time>
      </trkpt>
      <trkpt lat="43.01161" lon="-0.09851">
        <ele>439.8</ele>
        <time>2022-10-22T10:37:32Z</time>
      </trkpt>
      <trkpt lat="43.01171" lon="-0.09847">
        <ele>439.2</ele>
        <time>2022-10-22T10:37:33Z</time>
      </trkpt>
      <trkpt lat="43.01201" lon="-0.09837">
        <ele>437.6</ele>
        <time>2022-10-22T10:37:36Z</time>
      </trkpt>
      <trkpt lat="43.0121" lon="-0.09834">
        <ele>437.4</ele>
        <time>2022-10-22T10:37:37Z</time>
      </trkpt>
      <trkpt lat="43.01232" lon="-0.09827">
        <ele>436.6</ele>
        <time>2022-10-22T10:37:39Z</time>
      </trkpt>
      <trkpt lat="43.01253" lon="-0.09823">
        <ele>435.6</ele>
        <time>2022-10-22T10:37:41Z</time>
      </trkpt>
      <trkpt lat="43.01263" lon="-0.09824">
        <ele>435</ele>
        <time>2022-10-22T10:37:42Z</time>
      </trkpt>
      <trkpt lat="43.01272" lon="-0.09827">
        <ele>434.6</ele>
        <time>2022-10-22T10:37:43Z</time>
      </trkpt>
      <trkpt lat="43.01289" lon="-0.09837">
        <ele>433.8</ele>
        <time>2022-10-22T10:37:45Z</time>
      </trkpt>
      <trkpt lat="43.01304" lon="-0.09846">
        <ele>433</ele>
        <time>2022-10-22T10:37:47Z</time>
      </trkpt>
      <trkpt lat="43.01311" lon="-0.09849">
        <ele>432.4</ele>
        <time>2022-10-22T10:37:48Z</time>
      </trkpt>
      <trkpt lat="43.01318" lon="-0.09849">
        <ele>432.4</ele>
        <time>2022-10-22T10:37:49Z</time>
      </trkpt>
      <trkpt lat="43.01326" lon="-0.09837">
        <ele>431.4</ele>
        <time>2022-10-22T10:37:51Z</time>
      </trkpt>
      <trkpt lat="43.01327" lon="-0.09828">
        <ele>430.8</ele>
        <time>2022-10-22T10:37:52Z</time>
      </trkpt>
      <trkpt lat="43.01328" lon="-0.0982">
        <ele>430.4</ele>
        <time>2022-10-22T10:37:53Z</time>
      </trkpt>
      <trkpt lat="43.0133" lon="-0.09813">
        <ele>430.2</ele>
        <time>2022-10-22T10:37:54Z</time>
      </trkpt>
      <trkpt lat="43.01333" lon="-0.09807">
        <ele>429.4</ele>
        <time>2022-10-22T10:37:55Z</time>
      </trkpt>
      <trkpt lat="43.01337" lon="-0.09803">
        <ele>429.2</ele>
        <time>2022-10-22T10:37:56Z</time>
      </trkpt>
      <trkpt lat="43.01342" lon="-0.098">
        <ele>428.6</ele>
        <time>2022-10-22T10:37:57Z</time>
      </trkpt>
      <trkpt lat="43.01353" lon="-0.09797">
        <ele>428</ele>
        <time>2022-10-22T10:37:59Z</time>
      </trkpt>
      <trkpt lat="43.01371" lon="-0.09794">
        <ele>427.6</ele>
        <time>2022-10-22T10:38:02Z</time>
      </trkpt>
      <trkpt lat="43.01395" lon="-0.09785">
        <ele>427.2</ele>
        <time>2022-10-22T10:38:06Z</time>
      </trkpt>
      <trkpt lat="43.01398" lon="-0.09782">
        <ele>427</ele>
        <time>2022-10-22T10:38:07Z</time>
      </trkpt>
      <trkpt lat="43.01404" lon="-0.09774">
        <ele>426.8</ele>
        <time>2022-10-22T10:38:09Z</time>
      </trkpt>
      <trkpt lat="43.01408" lon="-0.09772">
        <ele>426.6</ele>
        <time>2022-10-22T10:38:10Z</time>
      </trkpt>
      <trkpt lat="43.01413" lon="-0.09771">
        <ele>426.6</ele>
        <time>2022-10-22T10:38:11Z</time>
      </trkpt>
      <trkpt lat="43.0143" lon="-0.09767">
        <ele>426.2</ele>
        <time>2022-10-22T10:38:14Z</time>
      </trkpt>
      <trkpt lat="43.01465" lon="-0.09757">
        <ele>426.2</ele>
        <time>2022-10-22T10:38:19Z</time>
      </trkpt>
      <trkpt lat="43.01495" lon="-0.09748">
        <ele>426</ele>
        <time>2022-10-22T10:38:23Z</time>
      </trkpt>
      <trkpt lat="43.01518" lon="-0.09741">
        <ele>425.8</ele>
        <time>2022-10-22T10:38:26Z</time>
      </trkpt>
      <trkpt lat="43.01575" lon="-0.09727">
        <ele>425.4</ele>
        <time>2022-10-22T10:38:33Z</time>
      </trkpt>
      <trkpt lat="43.01591" lon="-0.09722">
        <ele>425.2</ele>
        <time>2022-10-22T10:38:35Z</time>
      </trkpt>
      <trkpt lat="43.01599" lon="-0.0972">
        <ele>425.2</ele>
        <time>2022-10-22T10:38:36Z</time>
      </trkpt>
      <trkpt lat="43.01657" lon="-0.09706">
        <ele>424.6</ele>
        <time>2022-10-22T10:38:43Z</time>
      </trkpt>
      <trkpt lat="43.01663" lon="-0.09705">
        <ele>424.4</ele>
        <time>2022-10-22T10:38:44Z</time>
      </trkpt>
      <trkpt lat="43.01679" lon="-0.097">
        <ele>424.2</ele>
        <time>2022-10-22T10:38:46Z</time>
      </trkpt>
      <trkpt lat="43.01729" lon="-0.09687">
        <ele>423.6</ele>
        <time>2022-10-22T10:38:52Z</time>
      </trkpt>
      <trkpt lat="43.01744" lon="-0.09682">
        <ele>423.4</ele>
        <time>2022-10-22T10:38:54Z</time>
      </trkpt>
      <trkpt lat="43.01777" lon="-0.09673">
        <ele>423.2</ele>
        <time>2022-10-22T10:38:58Z</time>
      </trkpt>
      <trkpt lat="43.01824" lon="-0.0965">
        <ele>423.2</ele>
        <time>2022-10-22T10:39:04Z</time>
      </trkpt>
      <trkpt lat="43.01874" lon="-0.09616">
        <ele>423.2</ele>
        <time>2022-10-22T10:39:11Z</time>
      </trkpt>
      <trkpt lat="43.01916" lon="-0.09578">
        <ele>422.6</ele>
        <time>2022-10-22T10:39:18Z</time>
      </trkpt>
      <trkpt lat="43.01921" lon="-0.09573">
        <ele>422.6</ele>
        <time>2022-10-22T10:39:19Z</time>
      </trkpt>
      <trkpt lat="43.01926" lon="-0.09568">
        <ele>422.4</ele>
        <time>2022-10-22T10:39:20Z</time>
      </trkpt>
      <trkpt lat="43.01933" lon="-0.09563">
        <ele>421.8</ele>
        <time>2022-10-22T10:39:22Z</time>
      </trkpt>
      <trkpt lat="43.01935" lon="-0.09564">
        <ele>421.6</ele>
        <time>2022-10-22T10:39:23Z</time>
      </trkpt>
      <trkpt lat="43.01938" lon="-0.09573">
        <ele>421.2</ele>
        <time>2022-10-22T10:39:25Z</time>
      </trkpt>
      <trkpt lat="43.01937" lon="-0.09579">
        <ele>421.2</ele>
        <time>2022-10-22T10:39:26Z</time>
      </trkpt>
      <trkpt lat="43.01936" lon="-0.09593">
        <ele>420.8</ele>
        <time>2022-10-22T10:39:28Z</time>
      </trkpt>
      <trkpt lat="43.01935" lon="-0.09608">
        <ele>420.8</ele>
        <time>2022-10-22T10:39:30Z</time>
      </trkpt>
      <trkpt lat="43.01935" lon="-0.09632">
        <ele>420.8</ele>
        <time>2022-10-22T10:39:33Z</time>
      </trkpt>
      <trkpt lat="43.01936" lon="-0.09647">
        <ele>421.4</ele>
        <time>2022-10-22T10:39:35Z</time>
      </trkpt>
      <trkpt lat="43.01941" lon="-0.09658">
        <ele>421.8</ele>
        <time>2022-10-22T10:39:37Z</time>
      </trkpt>
      <trkpt lat="43.01952" lon="-0.09662">
        <ele>422.2</ele>
        <time>2022-10-22T10:39:39Z</time>
      </trkpt>
      <trkpt lat="43.01957" lon="-0.09663">
        <ele>422.4</ele>
        <time>2022-10-22T10:39:40Z</time>
      </trkpt>
      <trkpt lat="43.01983" lon="-0.09666">
        <ele>423</ele>
        <time>2022-10-22T10:39:44Z</time>
      </trkpt>
      <trkpt lat="43.01997" lon="-0.09668">
        <ele>423.6</ele>
        <time>2022-10-22T10:39:46Z</time>
      </trkpt>
      <trkpt lat="43.02038" lon="-0.09673">
        <ele>424.2</ele>
        <time>2022-10-22T10:39:52Z</time>
      </trkpt>
      <trkpt lat="43.02045" lon="-0.09674">
        <ele>424.2</ele>
        <time>2022-10-22T10:39:53Z</time>
      </trkpt>
      <trkpt lat="43.02103" lon="-0.09676">
        <ele>425.2</ele>
        <time>2022-10-22T10:40:01Z</time>
      </trkpt>
      <trkpt lat="43.02117" lon="-0.09677">
        <ele>425.4</ele>
        <time>2022-10-22T10:40:03Z</time>
      </trkpt>
      <trkpt lat="43.02124" lon="-0.09677">
        <ele>425.6</ele>
        <time>2022-10-22T10:40:04Z</time>
      </trkpt>
      <trkpt lat="43.02175" lon="-0.0968">
        <ele>426.4</ele>
        <time>2022-10-22T10:40:11Z</time>
      </trkpt>
      <trkpt lat="43.02197" lon="-0.09678">
        <ele>426.8</ele>
        <time>2022-10-22T10:40:14Z</time>
      </trkpt>
      <trkpt lat="43.02215" lon="-0.09676">
        <ele>426.8</ele>
        <time>2022-10-22T10:40:18Z</time>
      </trkpt>
      <trkpt lat="43.02225" lon="-0.09673">
        <ele>426.8</ele>
        <time>2022-10-22T10:40:21Z</time>
      </trkpt>
      <trkpt lat="43.0225" lon="-0.09668">
        <ele>426.6</ele>
        <time>2022-10-22T10:40:27Z</time>
      </trkpt>
      <trkpt lat="43.02287" lon="-0.09662">
        <ele>426.8</ele>
        <time>2022-10-22T10:40:34Z</time>
      </trkpt>
      <trkpt lat="43.02328" lon="-0.09651">
        <ele>428</ele>
        <time>2022-10-22T10:40:43Z</time>
      </trkpt>
      <trkpt lat="43.02331" lon="-0.0965">
        <ele>428</ele>
        <time>2022-10-22T10:40:44Z</time>
      </trkpt>
      <trkpt lat="43.02339" lon="-0.09642">
        <ele>428.2</ele>
        <time>2022-10-22T10:40:47Z</time>
      </trkpt>
      <trkpt lat="43.02338" lon="-0.09633">
        <ele>428.2</ele>
        <time>2022-10-22T10:40:49Z</time>
      </trkpt>
      <trkpt lat="43.02336" lon="-0.0963">
        <ele>428.4</ele>
        <time>2022-10-22T10:40:50Z</time>
      </trkpt>
      <trkpt lat="43.02334" lon="-0.09629">
        <ele>428.4</ele>
        <time>2022-10-22T10:40:51Z</time>
      </trkpt>
      <trkpt lat="43.02332" lon="-0.09631">
        <ele>428.2</ele>
        <time>2022-10-22T10:40:52Z</time>
      </trkpt>
      <trkpt lat="43.02323" lon="-0.09647">
        <ele>427.2</ele>
        <time>2022-10-22T10:40:56Z</time>
      </trkpt>
      <trkpt lat="43.02301" lon="-0.09654">
        <ele>426.4</ele>
        <time>2022-10-22T10:41:01Z</time>
      </trkpt>
      <trkpt lat="43.0229" lon="-0.09656">
        <ele>426.2</ele>
        <time>2022-10-22T10:41:04Z</time>
      </trkpt>
      <trkpt lat="43.02289" lon="-0.09654">
        <ele>426.4</ele>
        <time>2022-10-22T10:41:05Z</time>
      </trkpt>
      <trkpt lat="43.02289" lon="-0.09652">
        <ele>426</ele>
        <time>2022-10-22T10:41:06Z</time>
      </trkpt>
      <trkpt lat="43.0229" lon="-0.09651">
        <ele>426</ele>
        <time>2022-10-22T10:41:08Z</time>
      </trkpt>
      <trkpt lat="43.0229" lon="-0.09651">
        <ele>425.2</ele>
        <time>2022-10-22T10:41:12Z</time>
      </trkpt>
      <trkpt lat="43.0229" lon="-0.09651">
        <ele>424.8</ele>
        <time>2022-10-22T10:41:15Z</time>
      </trkpt>
      <trkpt lat="43.0229" lon="-0.09651">
        <ele>424.4</ele>
        <time>2022-10-22T10:41:23Z</time>
      </trkpt>
      <trkpt lat="43.0229" lon="-0.09651">
        <ele>424.6</ele>
        <time>2022-10-22T10:41:27Z</time>
      </trkpt>
      <trkpt lat="43.0229" lon="-0.09651">
        <ele>424.4</ele>
        <time>2022-10-22T10:41:46Z</time>
      </trkpt>
      <trkpt lat="43.0229" lon="-0.09651">
        <ele>424.6</ele>
        <time>2022-10-22T10:41:56Z</time>
      </trkpt>
      <trkpt lat="43.0229" lon="-0.09651">
        <ele>424.6</ele>
        <time>2022-10-22T10:42:19Z</time>
      </trkpt>
      <trkpt lat="43.0229" lon="-0.09651">
        <ele>424.4</ele>
        <time>2022-10-22T10:42:42Z</time>
      </trkpt>
      <trkpt lat="43.0229" lon="-0.09651">
        <ele>424.8</ele>
        <time>2022-10-22T10:42:50Z</time>
      </trkpt>
    </trkseg>
  </trk>
</gpx>